<?xml version="1.0" encoding="UTF-8" standalone="no" ?>
<gpx xmlns="http://www.topografix.com/GPX/1/1" xmlns:xsi="http://www.w3.org/2001/XMLSchema-instance" xsi:schemaLocation="http://www.topografix.com/GPX/1/1 http://www.topografix.com/GPX/1/1/gpx.xsd" version="1.1" creator="VisuGPX - https://www.visugpx.com">
  <metadata>
    <name>Champagnat Cyclisme sur route</name>
  </metadata>
  <trk>
    <name><![CDATA[Champagnat Cyclisme sur route_1]]></name>
    <trkseg>
      <trkpt lat="46.48264" lon="5.3683">
        <ele>265.2</ele>
        <time>2022-02-22T13:11:38Z</time>
      </trkpt>
      <trkpt lat="46.48255" lon="5.36819">
        <ele>264.4</ele>
        <time>2022-02-22T13:11:39Z</time>
      </trkpt>
      <trkpt lat="46.48236" lon="5.36802">
        <ele>263.2</ele>
        <time>2022-02-22T13:11:41Z</time>
      </trkpt>
      <trkpt lat="46.48217" lon="5.36786">
        <ele>261.6</ele>
        <time>2022-02-22T13:11:43Z</time>
      </trkpt>
      <trkpt lat="46.48207" lon="5.36779">
        <ele>261</ele>
        <time>2022-02-22T13:11:44Z</time>
      </trkpt>
      <trkpt lat="46.48198" lon="5.36771">
        <ele>260.2</ele>
        <time>2022-02-22T13:11:45Z</time>
      </trkpt>
      <trkpt lat="46.48179" lon="5.36755">
        <ele>258.8</ele>
        <time>2022-02-22T13:11:47Z</time>
      </trkpt>
      <trkpt lat="46.4816" lon="5.3674">
        <ele>257.6</ele>
        <time>2022-02-22T13:11:49Z</time>
      </trkpt>
      <trkpt lat="46.48142" lon="5.36725">
        <ele>256.4</ele>
        <time>2022-02-22T13:11:51Z</time>
      </trkpt>
      <trkpt lat="46.48133" lon="5.36717">
        <ele>255.2</ele>
        <time>2022-02-22T13:11:52Z</time>
      </trkpt>
      <trkpt lat="46.48117" lon="5.36705">
        <ele>254</ele>
        <time>2022-02-22T13:11:54Z</time>
      </trkpt>
      <trkpt lat="46.48111" lon="5.36699">
        <ele>253</ele>
        <time>2022-02-22T13:11:55Z</time>
      </trkpt>
      <trkpt lat="46.48108" lon="5.36692">
        <ele>252.6</ele>
        <time>2022-02-22T13:11:56Z</time>
      </trkpt>
      <trkpt lat="46.48107" lon="5.36685">
        <ele>252</ele>
        <time>2022-02-22T13:11:57Z</time>
      </trkpt>
      <trkpt lat="46.48108" lon="5.36678">
        <ele>251.6</ele>
        <time>2022-02-22T13:11:58Z</time>
      </trkpt>
      <trkpt lat="46.48113" lon="5.36672">
        <ele>251</ele>
        <time>2022-02-22T13:11:59Z</time>
      </trkpt>
      <trkpt lat="46.48119" lon="5.36666">
        <ele>250.6</ele>
        <time>2022-02-22T13:12:00Z</time>
      </trkpt>
      <trkpt lat="46.48131" lon="5.36652">
        <ele>249.2</ele>
        <time>2022-02-22T13:12:02Z</time>
      </trkpt>
      <trkpt lat="46.48137" lon="5.36645">
        <ele>248.8</ele>
        <time>2022-02-22T13:12:03Z</time>
      </trkpt>
      <trkpt lat="46.4815" lon="5.3663">
        <ele>247.8</ele>
        <time>2022-02-22T13:12:05Z</time>
      </trkpt>
      <trkpt lat="46.48173" lon="5.36611">
        <ele>247.2</ele>
        <time>2022-02-22T13:12:08Z</time>
      </trkpt>
      <trkpt lat="46.48181" lon="5.36607">
        <ele>247</ele>
        <time>2022-02-22T13:12:09Z</time>
      </trkpt>
      <trkpt lat="46.4819" lon="5.36604">
        <ele>247</ele>
        <time>2022-02-22T13:12:10Z</time>
      </trkpt>
      <trkpt lat="46.48208" lon="5.36597">
        <ele>246.8</ele>
        <time>2022-02-22T13:12:12Z</time>
      </trkpt>
      <trkpt lat="46.48218" lon="5.3658">
        <ele>246.6</ele>
        <time>2022-02-22T13:12:14Z</time>
      </trkpt>
      <trkpt lat="46.48226" lon="5.36559">
        <ele>246.2</ele>
        <time>2022-02-22T13:12:16Z</time>
      </trkpt>
      <trkpt lat="46.48232" lon="5.3655">
        <ele>245.8</ele>
        <time>2022-02-22T13:12:17Z</time>
      </trkpt>
      <trkpt lat="46.48238" lon="5.36543">
        <ele>245.6</ele>
        <time>2022-02-22T13:12:18Z</time>
      </trkpt>
      <trkpt lat="46.48281" lon="5.36498">
        <ele>244.6</ele>
        <time>2022-02-22T13:12:24Z</time>
      </trkpt>
      <trkpt lat="46.48288" lon="5.36491">
        <ele>244.2</ele>
        <time>2022-02-22T13:12:25Z</time>
      </trkpt>
      <trkpt lat="46.48316" lon="5.3646">
        <ele>243.2</ele>
        <time>2022-02-22T13:12:29Z</time>
      </trkpt>
      <trkpt lat="46.48343" lon="5.36429">
        <ele>242.2</ele>
        <time>2022-02-22T13:12:33Z</time>
      </trkpt>
      <trkpt lat="46.4835" lon="5.36421">
        <ele>242.2</ele>
        <time>2022-02-22T13:12:34Z</time>
      </trkpt>
      <trkpt lat="46.48379" lon="5.36392">
        <ele>241</ele>
        <time>2022-02-22T13:12:38Z</time>
      </trkpt>
      <trkpt lat="46.48401" lon="5.3637">
        <ele>240</ele>
        <time>2022-02-22T13:12:41Z</time>
      </trkpt>
      <trkpt lat="46.48414" lon="5.3636">
        <ele>239.4</ele>
        <time>2022-02-22T13:12:43Z</time>
      </trkpt>
      <trkpt lat="46.48431" lon="5.36352">
        <ele>239</ele>
        <time>2022-02-22T13:12:45Z</time>
      </trkpt>
      <trkpt lat="46.48463" lon="5.36345">
        <ele>238.8</ele>
        <time>2022-02-22T13:12:49Z</time>
      </trkpt>
      <trkpt lat="46.4847" lon="5.36344">
        <ele>238.8</ele>
        <time>2022-02-22T13:12:50Z</time>
      </trkpt>
      <trkpt lat="46.48531" lon="5.36335">
        <ele>238.4</ele>
        <time>2022-02-22T13:12:58Z</time>
      </trkpt>
      <trkpt lat="46.48539" lon="5.36333">
        <ele>238.4</ele>
        <time>2022-02-22T13:12:59Z</time>
      </trkpt>
      <trkpt lat="46.48596" lon="5.36324">
        <ele>237.6</ele>
        <time>2022-02-22T13:13:06Z</time>
      </trkpt>
      <trkpt lat="46.48612" lon="5.36321">
        <ele>237.2</ele>
        <time>2022-02-22T13:13:08Z</time>
      </trkpt>
      <trkpt lat="46.48621" lon="5.36316">
        <ele>236.8</ele>
        <time>2022-02-22T13:13:09Z</time>
      </trkpt>
      <trkpt lat="46.48629" lon="5.36306">
        <ele>236.6</ele>
        <time>2022-02-22T13:13:10Z</time>
      </trkpt>
      <trkpt lat="46.48633" lon="5.36294">
        <ele>236.4</ele>
        <time>2022-02-22T13:13:11Z</time>
      </trkpt>
      <trkpt lat="46.48636" lon="5.3628">
        <ele>236</ele>
        <time>2022-02-22T13:13:12Z</time>
      </trkpt>
      <trkpt lat="46.48638" lon="5.36267">
        <ele>234.8</ele>
        <time>2022-02-22T13:13:13Z</time>
      </trkpt>
      <trkpt lat="46.48641" lon="5.36241">
        <ele>233.8</ele>
        <time>2022-02-22T13:13:15Z</time>
      </trkpt>
      <trkpt lat="46.48645" lon="5.36187">
        <ele>232.6</ele>
        <time>2022-02-22T13:13:19Z</time>
      </trkpt>
      <trkpt lat="46.48648" lon="5.36144">
        <ele>232</ele>
        <time>2022-02-22T13:13:22Z</time>
      </trkpt>
      <trkpt lat="46.4865" lon="5.36131">
        <ele>232</ele>
        <time>2022-02-22T13:13:23Z</time>
      </trkpt>
      <trkpt lat="46.48658" lon="5.36094">
        <ele>231.4</ele>
        <time>2022-02-22T13:13:26Z</time>
      </trkpt>
      <trkpt lat="46.48668" lon="5.3605">
        <ele>231</ele>
        <time>2022-02-22T13:13:30Z</time>
      </trkpt>
      <trkpt lat="46.48675" lon="5.36008">
        <ele>231</ele>
        <time>2022-02-22T13:13:34Z</time>
      </trkpt>
      <trkpt lat="46.48676" lon="5.36002">
        <ele>231.2</ele>
        <time>2022-02-22T13:13:35Z</time>
      </trkpt>
      <trkpt lat="46.48678" lon="5.35994">
        <ele>231.4</ele>
        <time>2022-02-22T13:13:36Z</time>
      </trkpt>
      <trkpt lat="46.48683" lon="5.35955">
        <ele>232</ele>
        <time>2022-02-22T13:13:40Z</time>
      </trkpt>
      <trkpt lat="46.48693" lon="5.35904">
        <ele>232.2</ele>
        <time>2022-02-22T13:13:45Z</time>
      </trkpt>
      <trkpt lat="46.48715" lon="5.35844">
        <ele>232</ele>
        <time>2022-02-22T13:13:51Z</time>
      </trkpt>
      <trkpt lat="46.48745" lon="5.35776">
        <ele>230.2</ele>
        <time>2022-02-22T13:13:58Z</time>
      </trkpt>
      <trkpt lat="46.4877" lon="5.35718">
        <ele>229.2</ele>
        <time>2022-02-22T13:14:04Z</time>
      </trkpt>
      <trkpt lat="46.48778" lon="5.35703">
        <ele>229</ele>
        <time>2022-02-22T13:14:06Z</time>
      </trkpt>
      <trkpt lat="46.48782" lon="5.35694">
        <ele>228.8</ele>
        <time>2022-02-22T13:14:07Z</time>
      </trkpt>
      <trkpt lat="46.488" lon="5.35652">
        <ele>228.6</ele>
        <time>2022-02-22T13:14:12Z</time>
      </trkpt>
      <trkpt lat="46.48824" lon="5.35594">
        <ele>228.4</ele>
        <time>2022-02-22T13:14:19Z</time>
      </trkpt>
      <trkpt lat="46.48854" lon="5.35526">
        <ele>228.8</ele>
        <time>2022-02-22T13:14:27Z</time>
      </trkpt>
      <trkpt lat="46.48861" lon="5.35511">
        <ele>228.8</ele>
        <time>2022-02-22T13:14:29Z</time>
      </trkpt>
      <trkpt lat="46.4889" lon="5.35447">
        <ele>228.6</ele>
        <time>2022-02-22T13:14:36Z</time>
      </trkpt>
      <trkpt lat="46.48913" lon="5.35395">
        <ele>228.2</ele>
        <time>2022-02-22T13:14:42Z</time>
      </trkpt>
      <trkpt lat="46.48921" lon="5.35376">
        <ele>228</ele>
        <time>2022-02-22T13:14:44Z</time>
      </trkpt>
      <trkpt lat="46.4895" lon="5.35311">
        <ele>227.4</ele>
        <time>2022-02-22T13:14:51Z</time>
      </trkpt>
      <trkpt lat="46.48976" lon="5.35254">
        <ele>227.4</ele>
        <time>2022-02-22T13:14:58Z</time>
      </trkpt>
      <trkpt lat="46.48988" lon="5.35225">
        <ele>227.6</ele>
        <time>2022-02-22T13:15:02Z</time>
      </trkpt>
      <trkpt lat="46.48994" lon="5.35211">
        <ele>227.6</ele>
        <time>2022-02-22T13:15:04Z</time>
      </trkpt>
      <trkpt lat="46.49" lon="5.35199">
        <ele>227.8</ele>
        <time>2022-02-22T13:15:06Z</time>
      </trkpt>
      <trkpt lat="46.49003" lon="5.3519">
        <ele>228</ele>
        <time>2022-02-22T13:15:07Z</time>
      </trkpt>
      <trkpt lat="46.49012" lon="5.35172">
        <ele>228.4</ele>
        <time>2022-02-22T13:15:10Z</time>
      </trkpt>
      <trkpt lat="46.4903" lon="5.35129">
        <ele>229</ele>
        <time>2022-02-22T13:15:16Z</time>
      </trkpt>
      <trkpt lat="46.49044" lon="5.35079">
        <ele>229.2</ele>
        <time>2022-02-22T13:15:22Z</time>
      </trkpt>
      <trkpt lat="46.49056" lon="5.3501">
        <ele>229</ele>
        <time>2022-02-22T13:15:29Z</time>
      </trkpt>
      <trkpt lat="46.49066" lon="5.34945">
        <ele>228.4</ele>
        <time>2022-02-22T13:15:35Z</time>
      </trkpt>
      <trkpt lat="46.49072" lon="5.34914">
        <ele>227.8</ele>
        <time>2022-02-22T13:15:38Z</time>
      </trkpt>
      <trkpt lat="46.49076" lon="5.34889">
        <ele>227.2</ele>
        <time>2022-02-22T13:15:40Z</time>
      </trkpt>
      <trkpt lat="46.49083" lon="5.34858">
        <ele>226.6</ele>
        <time>2022-02-22T13:15:43Z</time>
      </trkpt>
      <trkpt lat="46.49089" lon="5.34833">
        <ele>226.2</ele>
        <time>2022-02-22T13:15:45Z</time>
      </trkpt>
      <trkpt lat="46.49099" lon="5.34789">
        <ele>225.4</ele>
        <time>2022-02-22T13:15:49Z</time>
      </trkpt>
      <trkpt lat="46.49104" lon="5.34763">
        <ele>225</ele>
        <time>2022-02-22T13:15:51Z</time>
      </trkpt>
      <trkpt lat="46.49107" lon="5.34752">
        <ele>224.8</ele>
        <time>2022-02-22T13:15:52Z</time>
      </trkpt>
      <trkpt lat="46.49113" lon="5.34715">
        <ele>224.2</ele>
        <time>2022-02-22T13:15:55Z</time>
      </trkpt>
      <trkpt lat="46.4912" lon="5.34682">
        <ele>223.6</ele>
        <time>2022-02-22T13:15:58Z</time>
      </trkpt>
      <trkpt lat="46.49134" lon="5.34617">
        <ele>223.4</ele>
        <time>2022-02-22T13:16:04Z</time>
      </trkpt>
      <trkpt lat="46.49144" lon="5.34561">
        <ele>223.6</ele>
        <time>2022-02-22T13:16:10Z</time>
      </trkpt>
      <trkpt lat="46.49145" lon="5.34551">
        <ele>223.8</ele>
        <time>2022-02-22T13:16:11Z</time>
      </trkpt>
      <trkpt lat="46.49153" lon="5.34509">
        <ele>223.6</ele>
        <time>2022-02-22T13:16:15Z</time>
      </trkpt>
      <trkpt lat="46.49162" lon="5.34465">
        <ele>223.2</ele>
        <time>2022-02-22T13:16:19Z</time>
      </trkpt>
      <trkpt lat="46.49169" lon="5.34431">
        <ele>223</ele>
        <time>2022-02-22T13:16:22Z</time>
      </trkpt>
      <trkpt lat="46.49179" lon="5.34373">
        <ele>222.8</ele>
        <time>2022-02-22T13:16:28Z</time>
      </trkpt>
      <trkpt lat="46.49183" lon="5.34352">
        <ele>223</ele>
        <time>2022-02-22T13:16:31Z</time>
      </trkpt>
      <trkpt lat="46.49185" lon="5.34344">
        <ele>223.2</ele>
        <time>2022-02-22T13:16:32Z</time>
      </trkpt>
      <trkpt lat="46.49195" lon="5.34296">
        <ele>224</ele>
        <time>2022-02-22T13:16:37Z</time>
      </trkpt>
      <trkpt lat="46.49206" lon="5.34231">
        <ele>223.8</ele>
        <time>2022-02-22T13:16:43Z</time>
      </trkpt>
      <trkpt lat="46.49222" lon="5.34152">
        <ele>223.2</ele>
        <time>2022-02-22T13:16:50Z</time>
      </trkpt>
      <trkpt lat="46.49226" lon="5.34132">
        <ele>223.2</ele>
        <time>2022-02-22T13:16:52Z</time>
      </trkpt>
      <trkpt lat="46.49238" lon="5.34075">
        <ele>224</ele>
        <time>2022-02-22T13:16:58Z</time>
      </trkpt>
      <trkpt lat="46.49245" lon="5.34042">
        <ele>225.2</ele>
        <time>2022-02-22T13:17:02Z</time>
      </trkpt>
      <trkpt lat="46.49248" lon="5.34025">
        <ele>225.4</ele>
        <time>2022-02-22T13:17:04Z</time>
      </trkpt>
      <trkpt lat="46.49257" lon="5.33974">
        <ele>226.2</ele>
        <time>2022-02-22T13:17:10Z</time>
      </trkpt>
      <trkpt lat="46.49259" lon="5.33965">
        <ele>226.2</ele>
        <time>2022-02-22T13:17:11Z</time>
      </trkpt>
      <trkpt lat="46.49273" lon="5.33891">
        <ele>226.2</ele>
        <time>2022-02-22T13:17:20Z</time>
      </trkpt>
      <trkpt lat="46.49286" lon="5.33826">
        <ele>226.2</ele>
        <time>2022-02-22T13:17:28Z</time>
      </trkpt>
      <trkpt lat="46.49297" lon="5.33761">
        <ele>225.8</ele>
        <time>2022-02-22T13:17:35Z</time>
      </trkpt>
      <trkpt lat="46.49298" lon="5.33751">
        <ele>225.8</ele>
        <time>2022-02-22T13:17:36Z</time>
      </trkpt>
      <trkpt lat="46.49304" lon="5.33691">
        <ele>225.2</ele>
        <time>2022-02-22T13:17:42Z</time>
      </trkpt>
      <trkpt lat="46.49305" lon="5.33671">
        <ele>225</ele>
        <time>2022-02-22T13:17:44Z</time>
      </trkpt>
      <trkpt lat="46.49305" lon="5.33648">
        <ele>224.8</ele>
        <time>2022-02-22T13:17:46Z</time>
      </trkpt>
      <trkpt lat="46.49308" lon="5.33617">
        <ele>224.6</ele>
        <time>2022-02-22T13:17:49Z</time>
      </trkpt>
      <trkpt lat="46.49319" lon="5.33565">
        <ele>224.2</ele>
        <time>2022-02-22T13:17:54Z</time>
      </trkpt>
      <trkpt lat="46.49321" lon="5.33545">
        <ele>224.2</ele>
        <time>2022-02-22T13:17:56Z</time>
      </trkpt>
      <trkpt lat="46.4932" lon="5.33524">
        <ele>224</ele>
        <time>2022-02-22T13:17:58Z</time>
      </trkpt>
      <trkpt lat="46.4931" lon="5.33449">
        <ele>223.8</ele>
        <time>2022-02-22T13:18:06Z</time>
      </trkpt>
      <trkpt lat="46.49308" lon="5.33438">
        <ele>223.8</ele>
        <time>2022-02-22T13:18:07Z</time>
      </trkpt>
      <trkpt lat="46.49299" lon="5.33391">
        <ele>223.8</ele>
        <time>2022-02-22T13:18:12Z</time>
      </trkpt>
      <trkpt lat="46.49283" lon="5.33312">
        <ele>223.2</ele>
        <time>2022-02-22T13:18:20Z</time>
      </trkpt>
      <trkpt lat="46.49281" lon="5.33302">
        <ele>223</ele>
        <time>2022-02-22T13:18:21Z</time>
      </trkpt>
      <trkpt lat="46.49275" lon="5.33268">
        <ele>222.6</ele>
        <time>2022-02-22T13:18:24Z</time>
      </trkpt>
      <trkpt lat="46.49265" lon="5.33227">
        <ele>222.2</ele>
        <time>2022-02-22T13:18:28Z</time>
      </trkpt>
      <trkpt lat="46.49261" lon="5.33217">
        <ele>222</ele>
        <time>2022-02-22T13:18:29Z</time>
      </trkpt>
      <trkpt lat="46.49253" lon="5.33201">
        <ele>221.6</ele>
        <time>2022-02-22T13:18:31Z</time>
      </trkpt>
      <trkpt lat="46.4924" lon="5.33186">
        <ele>221.4</ele>
        <time>2022-02-22T13:18:33Z</time>
      </trkpt>
      <trkpt lat="46.49216" lon="5.33167">
        <ele>220.6</ele>
        <time>2022-02-22T13:18:37Z</time>
      </trkpt>
      <trkpt lat="46.49196" lon="5.3315">
        <ele>220.4</ele>
        <time>2022-02-22T13:18:40Z</time>
      </trkpt>
      <trkpt lat="46.49165" lon="5.3312">
        <ele>219.4</ele>
        <time>2022-02-22T13:18:45Z</time>
      </trkpt>
      <trkpt lat="46.49161" lon="5.33112">
        <ele>219</ele>
        <time>2022-02-22T13:18:46Z</time>
      </trkpt>
      <trkpt lat="46.49143" lon="5.33069">
        <ele>218.6</ele>
        <time>2022-02-22T13:18:51Z</time>
      </trkpt>
      <trkpt lat="46.49136" lon="5.33043">
        <ele>218.6</ele>
        <time>2022-02-22T13:18:54Z</time>
      </trkpt>
      <trkpt lat="46.49133" lon="5.33024">
        <ele>218.6</ele>
        <time>2022-02-22T13:18:56Z</time>
      </trkpt>
      <trkpt lat="46.49126" lon="5.32972">
        <ele>218.6</ele>
        <time>2022-02-22T13:19:01Z</time>
      </trkpt>
      <trkpt lat="46.49125" lon="5.32963">
        <ele>218.4</ele>
        <time>2022-02-22T13:19:02Z</time>
      </trkpt>
      <trkpt lat="46.49124" lon="5.32941">
        <ele>218.2</ele>
        <time>2022-02-22T13:19:04Z</time>
      </trkpt>
      <trkpt lat="46.49124" lon="5.3291">
        <ele>218</ele>
        <time>2022-02-22T13:19:07Z</time>
      </trkpt>
      <trkpt lat="46.49125" lon="5.329">
        <ele>217.8</ele>
        <time>2022-02-22T13:19:08Z</time>
      </trkpt>
      <trkpt lat="46.49126" lon="5.32889">
        <ele>217.8</ele>
        <time>2022-02-22T13:19:09Z</time>
      </trkpt>
      <trkpt lat="46.49134" lon="5.32857">
        <ele>217.4</ele>
        <time>2022-02-22T13:19:12Z</time>
      </trkpt>
      <trkpt lat="46.49137" lon="5.32847">
        <ele>217.2</ele>
        <time>2022-02-22T13:19:13Z</time>
      </trkpt>
      <trkpt lat="46.4914" lon="5.32837">
        <ele>217.2</ele>
        <time>2022-02-22T13:19:14Z</time>
      </trkpt>
      <trkpt lat="46.49144" lon="5.32815">
        <ele>217.2</ele>
        <time>2022-02-22T13:19:16Z</time>
      </trkpt>
      <trkpt lat="46.49145" lon="5.32808">
        <ele>217.2</ele>
        <time>2022-02-22T13:19:17Z</time>
      </trkpt>
      <trkpt lat="46.49145" lon="5.32798">
        <ele>217.2</ele>
        <time>2022-02-22T13:19:18Z</time>
      </trkpt>
      <trkpt lat="46.49142" lon="5.32779">
        <ele>217.2</ele>
        <time>2022-02-22T13:19:20Z</time>
      </trkpt>
      <trkpt lat="46.49141" lon="5.3277">
        <ele>217.2</ele>
        <time>2022-02-22T13:19:21Z</time>
      </trkpt>
      <trkpt lat="46.49132" lon="5.32725">
        <ele>217.4</ele>
        <time>2022-02-22T13:19:26Z</time>
      </trkpt>
      <trkpt lat="46.49125" lon="5.32708">
        <ele>217.4</ele>
        <time>2022-02-22T13:19:28Z</time>
      </trkpt>
      <trkpt lat="46.49121" lon="5.32703">
        <ele>217.4</ele>
        <time>2022-02-22T13:19:29Z</time>
      </trkpt>
      <trkpt lat="46.49115" lon="5.32696">
        <ele>217.4</ele>
        <time>2022-02-22T13:19:30Z</time>
      </trkpt>
      <trkpt lat="46.491" lon="5.3269">
        <ele>217.4</ele>
        <time>2022-02-22T13:19:32Z</time>
      </trkpt>
      <trkpt lat="46.49069" lon="5.32695">
        <ele>217</ele>
        <time>2022-02-22T13:19:36Z</time>
      </trkpt>
      <trkpt lat="46.49037" lon="5.32702">
        <ele>216.2</ele>
        <time>2022-02-22T13:19:40Z</time>
      </trkpt>
      <trkpt lat="46.49019" lon="5.32704">
        <ele>215.2</ele>
        <time>2022-02-22T13:19:42Z</time>
      </trkpt>
      <trkpt lat="46.49007" lon="5.32706">
        <ele>214.8</ele>
        <time>2022-02-22T13:19:43Z</time>
      </trkpt>
      <trkpt lat="46.4898" lon="5.32707">
        <ele>213.6</ele>
        <time>2022-02-22T13:19:46Z</time>
      </trkpt>
      <trkpt lat="46.48968" lon="5.32705">
        <ele>213.2</ele>
        <time>2022-02-22T13:19:47Z</time>
      </trkpt>
      <trkpt lat="46.48948" lon="5.32693">
        <ele>212</ele>
        <time>2022-02-22T13:19:49Z</time>
      </trkpt>
      <trkpt lat="46.48941" lon="5.32685">
        <ele>211.6</ele>
        <time>2022-02-22T13:19:50Z</time>
      </trkpt>
      <trkpt lat="46.48924" lon="5.32662">
        <ele>210.4</ele>
        <time>2022-02-22T13:19:52Z</time>
      </trkpt>
      <trkpt lat="46.48918" lon="5.32648">
        <ele>210</ele>
        <time>2022-02-22T13:19:53Z</time>
      </trkpt>
      <trkpt lat="46.48913" lon="5.32632">
        <ele>209.4</ele>
        <time>2022-02-22T13:19:54Z</time>
      </trkpt>
      <trkpt lat="46.48913" lon="5.32619">
        <ele>209.2</ele>
        <time>2022-02-22T13:19:55Z</time>
      </trkpt>
      <trkpt lat="46.48917" lon="5.32603">
        <ele>208</ele>
        <time>2022-02-22T13:19:56Z</time>
      </trkpt>
      <trkpt lat="46.48924" lon="5.32588">
        <ele>207.8</ele>
        <time>2022-02-22T13:19:57Z</time>
      </trkpt>
      <trkpt lat="46.48931" lon="5.32576">
        <ele>206.6</ele>
        <time>2022-02-22T13:19:58Z</time>
      </trkpt>
      <trkpt lat="46.48946" lon="5.32556">
        <ele>205</ele>
        <time>2022-02-22T13:20:00Z</time>
      </trkpt>
      <trkpt lat="46.48953" lon="5.32528">
        <ele>203.8</ele>
        <time>2022-02-22T13:20:02Z</time>
      </trkpt>
      <trkpt lat="46.4895" lon="5.32498">
        <ele>202.8</ele>
        <time>2022-02-22T13:20:04Z</time>
      </trkpt>
      <trkpt lat="46.4894" lon="5.32465">
        <ele>201.6</ele>
        <time>2022-02-22T13:20:07Z</time>
      </trkpt>
      <trkpt lat="46.48933" lon="5.32441">
        <ele>201</ele>
        <time>2022-02-22T13:20:09Z</time>
      </trkpt>
      <trkpt lat="46.48922" lon="5.32406">
        <ele>200.4</ele>
        <time>2022-02-22T13:20:12Z</time>
      </trkpt>
      <trkpt lat="46.48914" lon="5.32371">
        <ele>200.4</ele>
        <time>2022-02-22T13:20:15Z</time>
      </trkpt>
      <trkpt lat="46.48905" lon="5.32343">
        <ele>200.4</ele>
        <time>2022-02-22T13:20:18Z</time>
      </trkpt>
      <trkpt lat="46.48896" lon="5.32324">
        <ele>200.6</ele>
        <time>2022-02-22T13:20:20Z</time>
      </trkpt>
      <trkpt lat="46.48877" lon="5.32296">
        <ele>201</ele>
        <time>2022-02-22T13:20:25Z</time>
      </trkpt>
      <trkpt lat="46.48874" lon="5.32292">
        <ele>201.4</ele>
        <time>2022-02-22T13:20:26Z</time>
      </trkpt>
      <trkpt lat="46.48861" lon="5.32275">
        <ele>202.6</ele>
        <time>2022-02-22T13:20:30Z</time>
      </trkpt>
      <trkpt lat="46.48858" lon="5.32272">
        <ele>203</ele>
        <time>2022-02-22T13:20:31Z</time>
      </trkpt>
      <trkpt lat="46.48856" lon="5.32269">
        <ele>203.2</ele>
        <time>2022-02-22T13:20:32Z</time>
      </trkpt>
      <trkpt lat="46.4885" lon="5.32259">
        <ele>203.6</ele>
        <time>2022-02-22T13:20:34Z</time>
      </trkpt>
      <trkpt lat="46.48842" lon="5.32246">
        <ele>205</ele>
        <time>2022-02-22T13:20:37Z</time>
      </trkpt>
      <trkpt lat="46.48835" lon="5.32232">
        <ele>206.2</ele>
        <time>2022-02-22T13:20:40Z</time>
      </trkpt>
      <trkpt lat="46.48832" lon="5.32224">
        <ele>206.4</ele>
        <time>2022-02-22T13:20:41Z</time>
      </trkpt>
      <trkpt lat="46.4883" lon="5.32212">
        <ele>206.8</ele>
        <time>2022-02-22T13:20:43Z</time>
      </trkpt>
      <trkpt lat="46.48827" lon="5.32189">
        <ele>207.2</ele>
        <time>2022-02-22T13:20:46Z</time>
      </trkpt>
      <trkpt lat="46.48824" lon="5.32162">
        <ele>207.2</ele>
        <time>2022-02-22T13:20:49Z</time>
      </trkpt>
      <trkpt lat="46.48824" lon="5.32131">
        <ele>207</ele>
        <time>2022-02-22T13:20:52Z</time>
      </trkpt>
      <trkpt lat="46.48827" lon="5.32113">
        <ele>206.6</ele>
        <time>2022-02-22T13:20:54Z</time>
      </trkpt>
      <trkpt lat="46.48831" lon="5.32091">
        <ele>206</ele>
        <time>2022-02-22T13:20:56Z</time>
      </trkpt>
      <trkpt lat="46.48843" lon="5.3203">
        <ele>205.4</ele>
        <time>2022-02-22T13:21:02Z</time>
      </trkpt>
      <trkpt lat="46.48844" lon="5.32019">
        <ele>205</ele>
        <time>2022-02-22T13:21:03Z</time>
      </trkpt>
      <trkpt lat="46.48847" lon="5.31967">
        <ele>204.4</ele>
        <time>2022-02-22T13:21:08Z</time>
      </trkpt>
      <trkpt lat="46.48843" lon="5.31912">
        <ele>204</ele>
        <time>2022-02-22T13:21:13Z</time>
      </trkpt>
      <trkpt lat="46.48841" lon="5.31893">
        <ele>203.8</ele>
        <time>2022-02-22T13:21:15Z</time>
      </trkpt>
      <trkpt lat="46.48839" lon="5.31882">
        <ele>203.6</ele>
        <time>2022-02-22T13:21:16Z</time>
      </trkpt>
      <trkpt lat="46.4883" lon="5.31862">
        <ele>203.2</ele>
        <time>2022-02-22T13:21:18Z</time>
      </trkpt>
      <trkpt lat="46.48824" lon="5.31856">
        <ele>202.8</ele>
        <time>2022-02-22T13:21:19Z</time>
      </trkpt>
      <trkpt lat="46.48818" lon="5.31852">
        <ele>202.8</ele>
        <time>2022-02-22T13:21:20Z</time>
      </trkpt>
      <trkpt lat="46.48811" lon="5.31848">
        <ele>202.6</ele>
        <time>2022-02-22T13:21:21Z</time>
      </trkpt>
      <trkpt lat="46.48796" lon="5.31841">
        <ele>202.4</ele>
        <time>2022-02-22T13:21:23Z</time>
      </trkpt>
      <trkpt lat="46.48786" lon="5.31829">
        <ele>202.2</ele>
        <time>2022-02-22T13:21:25Z</time>
      </trkpt>
      <trkpt lat="46.48782" lon="5.31809">
        <ele>202.2</ele>
        <time>2022-02-22T13:21:27Z</time>
      </trkpt>
      <trkpt lat="46.48781" lon="5.31799">
        <ele>202.2</ele>
        <time>2022-02-22T13:21:28Z</time>
      </trkpt>
      <trkpt lat="46.48778" lon="5.31742">
        <ele>202.4</ele>
        <time>2022-02-22T13:21:34Z</time>
      </trkpt>
      <trkpt lat="46.48777" lon="5.31733">
        <ele>202.6</ele>
        <time>2022-02-22T13:21:35Z</time>
      </trkpt>
      <trkpt lat="46.48773" lon="5.31718">
        <ele>202.6</ele>
        <time>2022-02-22T13:21:37Z</time>
      </trkpt>
      <trkpt lat="46.48769" lon="5.31709">
        <ele>202.6</ele>
        <time>2022-02-22T13:21:38Z</time>
      </trkpt>
      <trkpt lat="46.48766" lon="5.31703">
        <ele>202.6</ele>
        <time>2022-02-22T13:21:39Z</time>
      </trkpt>
      <trkpt lat="46.48753" lon="5.3169">
        <ele>202.6</ele>
        <time>2022-02-22T13:21:42Z</time>
      </trkpt>
      <trkpt lat="46.48734" lon="5.31666">
        <ele>202.6</ele>
        <time>2022-02-22T13:21:46Z</time>
      </trkpt>
      <trkpt lat="46.48732" lon="5.31662">
        <ele>202.8</ele>
        <time>2022-02-22T13:21:47Z</time>
      </trkpt>
      <trkpt lat="46.48716" lon="5.31639">
        <ele>203</ele>
        <time>2022-02-22T13:21:51Z</time>
      </trkpt>
      <trkpt lat="46.48711" lon="5.31634">
        <ele>203</ele>
        <time>2022-02-22T13:21:52Z</time>
      </trkpt>
      <trkpt lat="46.48707" lon="5.31627">
        <ele>202.6</ele>
        <time>2022-02-22T13:21:53Z</time>
      </trkpt>
      <trkpt lat="46.48686" lon="5.31603">
        <ele>202.6</ele>
        <time>2022-02-22T13:21:57Z</time>
      </trkpt>
      <trkpt lat="46.48682" lon="5.31598">
        <ele>202.6</ele>
        <time>2022-02-22T13:21:58Z</time>
      </trkpt>
      <trkpt lat="46.48664" lon="5.31574">
        <ele>202.6</ele>
        <time>2022-02-22T13:22:01Z</time>
      </trkpt>
      <trkpt lat="46.48642" lon="5.31547">
        <ele>202.6</ele>
        <time>2022-02-22T13:22:06Z</time>
      </trkpt>
      <trkpt lat="46.48637" lon="5.31539">
        <ele>202.8</ele>
        <time>2022-02-22T13:22:07Z</time>
      </trkpt>
      <trkpt lat="46.48628" lon="5.31525">
        <ele>202.8</ele>
        <time>2022-02-22T13:22:09Z</time>
      </trkpt>
      <trkpt lat="46.48617" lon="5.31505">
        <ele>202.8</ele>
        <time>2022-02-22T13:22:12Z</time>
      </trkpt>
      <trkpt lat="46.48613" lon="5.31491">
        <ele>202.8</ele>
        <time>2022-02-22T13:22:14Z</time>
      </trkpt>
      <trkpt lat="46.4861" lon="5.31481">
        <ele>202.8</ele>
        <time>2022-02-22T13:22:15Z</time>
      </trkpt>
      <trkpt lat="46.48609" lon="5.31468">
        <ele>202.8</ele>
        <time>2022-02-22T13:22:16Z</time>
      </trkpt>
      <trkpt lat="46.48608" lon="5.31439">
        <ele>202.6</ele>
        <time>2022-02-22T13:22:19Z</time>
      </trkpt>
      <trkpt lat="46.48607" lon="5.3143">
        <ele>202.6</ele>
        <time>2022-02-22T13:22:20Z</time>
      </trkpt>
      <trkpt lat="46.48602" lon="5.31414">
        <ele>202.6</ele>
        <time>2022-02-22T13:22:22Z</time>
      </trkpt>
      <trkpt lat="46.48599" lon="5.31408">
        <ele>202.6</ele>
        <time>2022-02-22T13:22:23Z</time>
      </trkpt>
      <trkpt lat="46.48589" lon="5.31395">
        <ele>202.8</ele>
        <time>2022-02-22T13:22:26Z</time>
      </trkpt>
      <trkpt lat="46.4858" lon="5.31387">
        <ele>203.4</ele>
        <time>2022-02-22T13:22:28Z</time>
      </trkpt>
      <trkpt lat="46.48577" lon="5.31383">
        <ele>203.8</ele>
        <time>2022-02-22T13:22:29Z</time>
      </trkpt>
      <trkpt lat="46.4857" lon="5.31376">
        <ele>204</ele>
        <time>2022-02-22T13:22:31Z</time>
      </trkpt>
      <trkpt lat="46.48565" lon="5.31367">
        <ele>204.4</ele>
        <time>2022-02-22T13:22:33Z</time>
      </trkpt>
      <trkpt lat="46.48563" lon="5.31362">
        <ele>204.8</ele>
        <time>2022-02-22T13:22:34Z</time>
      </trkpt>
      <trkpt lat="46.48561" lon="5.31358">
        <ele>205</ele>
        <time>2022-02-22T13:22:35Z</time>
      </trkpt>
      <trkpt lat="46.48557" lon="5.31342">
        <ele>205.8</ele>
        <time>2022-02-22T13:22:38Z</time>
      </trkpt>
      <trkpt lat="46.48557" lon="5.31336">
        <ele>206</ele>
        <time>2022-02-22T13:22:39Z</time>
      </trkpt>
      <trkpt lat="46.48555" lon="5.31314">
        <ele>206.8</ele>
        <time>2022-02-22T13:22:43Z</time>
      </trkpt>
      <trkpt lat="46.48552" lon="5.31296">
        <ele>207.4</ele>
        <time>2022-02-22T13:22:46Z</time>
      </trkpt>
      <trkpt lat="46.48552" lon="5.31288">
        <ele>207.6</ele>
        <time>2022-02-22T13:22:47Z</time>
      </trkpt>
      <trkpt lat="46.48552" lon="5.31281">
        <ele>208</ele>
        <time>2022-02-22T13:22:48Z</time>
      </trkpt>
      <trkpt lat="46.48551" lon="5.31261">
        <ele>208.4</ele>
        <time>2022-02-22T13:22:51Z</time>
      </trkpt>
      <trkpt lat="46.48551" lon="5.31253">
        <ele>208.6</ele>
        <time>2022-02-22T13:22:52Z</time>
      </trkpt>
      <trkpt lat="46.48556" lon="5.31231">
        <ele>208.8</ele>
        <time>2022-02-22T13:22:55Z</time>
      </trkpt>
      <trkpt lat="46.48558" lon="5.31226">
        <ele>209</ele>
        <time>2022-02-22T13:22:56Z</time>
      </trkpt>
      <trkpt lat="46.4856" lon="5.3122">
        <ele>209</ele>
        <time>2022-02-22T13:22:57Z</time>
      </trkpt>
      <trkpt lat="46.48571" lon="5.31197">
        <ele>209.4</ele>
        <time>2022-02-22T13:23:01Z</time>
      </trkpt>
      <trkpt lat="46.48586" lon="5.31168">
        <ele>210.2</ele>
        <time>2022-02-22T13:23:06Z</time>
      </trkpt>
      <trkpt lat="46.486" lon="5.3114">
        <ele>211</ele>
        <time>2022-02-22T13:23:11Z</time>
      </trkpt>
      <trkpt lat="46.48614" lon="5.31113">
        <ele>211.2</ele>
        <time>2022-02-22T13:23:16Z</time>
      </trkpt>
      <trkpt lat="46.48627" lon="5.31085">
        <ele>212.2</ele>
        <time>2022-02-22T13:23:21Z</time>
      </trkpt>
      <trkpt lat="46.48629" lon="5.3108">
        <ele>212.4</ele>
        <time>2022-02-22T13:23:22Z</time>
      </trkpt>
      <trkpt lat="46.48654" lon="5.31029">
        <ele>213.6</ele>
        <time>2022-02-22T13:23:31Z</time>
      </trkpt>
      <trkpt lat="46.48662" lon="5.31013">
        <ele>214</ele>
        <time>2022-02-22T13:23:34Z</time>
      </trkpt>
      <trkpt lat="46.48676" lon="5.30984">
        <ele>214.6</ele>
        <time>2022-02-22T13:23:39Z</time>
      </trkpt>
      <trkpt lat="46.48685" lon="5.30965">
        <ele>215</ele>
        <time>2022-02-22T13:23:42Z</time>
      </trkpt>
      <trkpt lat="46.48703" lon="5.3093">
        <ele>215</ele>
        <time>2022-02-22T13:23:47Z</time>
      </trkpt>
      <trkpt lat="46.48707" lon="5.30923">
        <ele>215</ele>
        <time>2022-02-22T13:23:48Z</time>
      </trkpt>
      <trkpt lat="46.48717" lon="5.3091">
        <ele>214.8</ele>
        <time>2022-02-22T13:23:50Z</time>
      </trkpt>
      <trkpt lat="46.48721" lon="5.30899">
        <ele>214.6</ele>
        <time>2022-02-22T13:23:51Z</time>
      </trkpt>
      <trkpt lat="46.48722" lon="5.30888">
        <ele>214.2</ele>
        <time>2022-02-22T13:23:52Z</time>
      </trkpt>
      <trkpt lat="46.48717" lon="5.30867">
        <ele>213.4</ele>
        <time>2022-02-22T13:23:54Z</time>
      </trkpt>
      <trkpt lat="46.48708" lon="5.3085">
        <ele>212.6</ele>
        <time>2022-02-22T13:23:56Z</time>
      </trkpt>
      <trkpt lat="46.48703" lon="5.30844">
        <ele>212.6</ele>
        <time>2022-02-22T13:23:57Z</time>
      </trkpt>
      <trkpt lat="46.48697" lon="5.30839">
        <ele>212.4</ele>
        <time>2022-02-22T13:23:58Z</time>
      </trkpt>
      <trkpt lat="46.48669" lon="5.30821">
        <ele>211.6</ele>
        <time>2022-02-22T13:24:02Z</time>
      </trkpt>
      <trkpt lat="46.48663" lon="5.30818">
        <ele>211.2</ele>
        <time>2022-02-22T13:24:03Z</time>
      </trkpt>
      <trkpt lat="46.48624" lon="5.30793">
        <ele>210.2</ele>
        <time>2022-02-22T13:24:08Z</time>
      </trkpt>
      <trkpt lat="46.4861" lon="5.30783">
        <ele>210</ele>
        <time>2022-02-22T13:24:10Z</time>
      </trkpt>
      <trkpt lat="46.48582" lon="5.30759">
        <ele>209.8</ele>
        <time>2022-02-22T13:24:15Z</time>
      </trkpt>
      <trkpt lat="46.48564" lon="5.30739">
        <ele>210</ele>
        <time>2022-02-22T13:24:19Z</time>
      </trkpt>
      <trkpt lat="46.4856" lon="5.30733">
        <ele>210</ele>
        <time>2022-02-22T13:24:20Z</time>
      </trkpt>
      <trkpt lat="46.48547" lon="5.30696">
        <ele>211</ele>
        <time>2022-02-22T13:24:26Z</time>
      </trkpt>
      <trkpt lat="46.48545" lon="5.30676">
        <ele>211.2</ele>
        <time>2022-02-22T13:24:29Z</time>
      </trkpt>
      <trkpt lat="46.48546" lon="5.30671">
        <ele>211.2</ele>
        <time>2022-02-22T13:24:30Z</time>
      </trkpt>
      <trkpt lat="46.48546" lon="5.30663">
        <ele>211.4</ele>
        <time>2022-02-22T13:24:31Z</time>
      </trkpt>
      <trkpt lat="46.48549" lon="5.3064">
        <ele>212.2</ele>
        <time>2022-02-22T13:24:35Z</time>
      </trkpt>
      <trkpt lat="46.48551" lon="5.30627">
        <ele>212.6</ele>
        <time>2022-02-22T13:24:37Z</time>
      </trkpt>
      <trkpt lat="46.48552" lon="5.30614">
        <ele>213.4</ele>
        <time>2022-02-22T13:24:39Z</time>
      </trkpt>
      <trkpt lat="46.48553" lon="5.30595">
        <ele>213.8</ele>
        <time>2022-02-22T13:24:42Z</time>
      </trkpt>
      <trkpt lat="46.48555" lon="5.30582">
        <ele>214.4</ele>
        <time>2022-02-22T13:24:44Z</time>
      </trkpt>
      <trkpt lat="46.48556" lon="5.3057">
        <ele>214.6</ele>
        <time>2022-02-22T13:24:46Z</time>
      </trkpt>
      <trkpt lat="46.48557" lon="5.30557">
        <ele>214.8</ele>
        <time>2022-02-22T13:24:48Z</time>
      </trkpt>
      <trkpt lat="46.48559" lon="5.30539">
        <ele>215.4</ele>
        <time>2022-02-22T13:24:51Z</time>
      </trkpt>
      <trkpt lat="46.48561" lon="5.30526">
        <ele>215.6</ele>
        <time>2022-02-22T13:24:53Z</time>
      </trkpt>
      <trkpt lat="46.48562" lon="5.30508">
        <ele>216.2</ele>
        <time>2022-02-22T13:24:56Z</time>
      </trkpt>
      <trkpt lat="46.48562" lon="5.30502">
        <ele>216.4</ele>
        <time>2022-02-22T13:24:57Z</time>
      </trkpt>
      <trkpt lat="46.48559" lon="5.30497">
        <ele>216.4</ele>
        <time>2022-02-22T13:24:58Z</time>
      </trkpt>
      <trkpt lat="46.48551" lon="5.30493">
        <ele>216.4</ele>
        <time>2022-02-22T13:25:00Z</time>
      </trkpt>
      <trkpt lat="46.48531" lon="5.30502">
        <ele>216.6</ele>
        <time>2022-02-22T13:25:04Z</time>
      </trkpt>
      <trkpt lat="46.48526" lon="5.30506">
        <ele>216.6</ele>
        <time>2022-02-22T13:25:05Z</time>
      </trkpt>
      <trkpt lat="46.48495" lon="5.30531">
        <ele>217.2</ele>
        <time>2022-02-22T13:25:11Z</time>
      </trkpt>
      <trkpt lat="46.48451" lon="5.30572">
        <ele>217.4</ele>
        <time>2022-02-22T13:25:19Z</time>
      </trkpt>
      <trkpt lat="46.48414" lon="5.30607">
        <ele>217</ele>
        <time>2022-02-22T13:25:26Z</time>
      </trkpt>
      <trkpt lat="46.48367" lon="5.30651">
        <ele>216.4</ele>
        <time>2022-02-22T13:25:34Z</time>
      </trkpt>
      <trkpt lat="46.4835" lon="5.30668">
        <ele>216.2</ele>
        <time>2022-02-22T13:25:37Z</time>
      </trkpt>
      <trkpt lat="46.48319" lon="5.3069">
        <ele>215.8</ele>
        <time>2022-02-22T13:25:42Z</time>
      </trkpt>
      <trkpt lat="46.48312" lon="5.30692">
        <ele>215.6</ele>
        <time>2022-02-22T13:25:43Z</time>
      </trkpt>
      <trkpt lat="46.48291" lon="5.30695">
        <ele>215.6</ele>
        <time>2022-02-22T13:25:46Z</time>
      </trkpt>
      <trkpt lat="46.48284" lon="5.30694">
        <ele>215.4</ele>
        <time>2022-02-22T13:25:47Z</time>
      </trkpt>
      <trkpt lat="46.48277" lon="5.30692">
        <ele>215.4</ele>
        <time>2022-02-22T13:25:48Z</time>
      </trkpt>
      <trkpt lat="46.48242" lon="5.30682">
        <ele>215.4</ele>
        <time>2022-02-22T13:25:54Z</time>
      </trkpt>
      <trkpt lat="46.48215" lon="5.30679">
        <ele>216</ele>
        <time>2022-02-22T13:25:59Z</time>
      </trkpt>
      <trkpt lat="46.48209" lon="5.3068">
        <ele>216</ele>
        <time>2022-02-22T13:26:00Z</time>
      </trkpt>
      <trkpt lat="46.48195" lon="5.30685">
        <ele>216.2</ele>
        <time>2022-02-22T13:26:03Z</time>
      </trkpt>
      <trkpt lat="46.48179" lon="5.30695">
        <ele>216.6</ele>
        <time>2022-02-22T13:26:06Z</time>
      </trkpt>
      <trkpt lat="46.48154" lon="5.3071">
        <ele>217.6</ele>
        <time>2022-02-22T13:26:11Z</time>
      </trkpt>
      <trkpt lat="46.48135" lon="5.30721">
        <ele>218.6</ele>
        <time>2022-02-22T13:26:15Z</time>
      </trkpt>
      <trkpt lat="46.48127" lon="5.30726">
        <ele>219</ele>
        <time>2022-02-22T13:26:17Z</time>
      </trkpt>
      <trkpt lat="46.48092" lon="5.30745">
        <ele>219.8</ele>
        <time>2022-02-22T13:26:24Z</time>
      </trkpt>
      <trkpt lat="46.48083" lon="5.30751">
        <ele>220</ele>
        <time>2022-02-22T13:26:26Z</time>
      </trkpt>
      <trkpt lat="46.48052" lon="5.30768">
        <ele>220.2</ele>
        <time>2022-02-22T13:26:32Z</time>
      </trkpt>
      <trkpt lat="46.48009" lon="5.30791">
        <ele>220.2</ele>
        <time>2022-02-22T13:26:39Z</time>
      </trkpt>
      <trkpt lat="46.47962" lon="5.30814">
        <ele>219.4</ele>
        <time>2022-02-22T13:26:46Z</time>
      </trkpt>
      <trkpt lat="46.47948" lon="5.30816">
        <ele>218.8</ele>
        <time>2022-02-22T13:26:48Z</time>
      </trkpt>
      <trkpt lat="46.47928" lon="5.30815">
        <ele>218.4</ele>
        <time>2022-02-22T13:26:51Z</time>
      </trkpt>
      <trkpt lat="46.47901" lon="5.30808">
        <ele>218.8</ele>
        <time>2022-02-22T13:26:56Z</time>
      </trkpt>
      <trkpt lat="46.47882" lon="5.30802">
        <ele>219.8</ele>
        <time>2022-02-22T13:27:00Z</time>
      </trkpt>
      <trkpt lat="46.47869" lon="5.30798">
        <ele>220.6</ele>
        <time>2022-02-22T13:27:03Z</time>
      </trkpt>
      <trkpt lat="46.47865" lon="5.30797">
        <ele>220.8</ele>
        <time>2022-02-22T13:27:04Z</time>
      </trkpt>
      <trkpt lat="46.47857" lon="5.30795">
        <ele>221.6</ele>
        <time>2022-02-22T13:27:06Z</time>
      </trkpt>
      <trkpt lat="46.47853" lon="5.30793">
        <ele>222</ele>
        <time>2022-02-22T13:27:07Z</time>
      </trkpt>
      <trkpt lat="46.47849" lon="5.30791">
        <ele>222.4</ele>
        <time>2022-02-22T13:27:08Z</time>
      </trkpt>
      <trkpt lat="46.47845" lon="5.30787">
        <ele>222.6</ele>
        <time>2022-02-22T13:27:09Z</time>
      </trkpt>
      <trkpt lat="46.47841" lon="5.30783">
        <ele>223</ele>
        <time>2022-02-22T13:27:10Z</time>
      </trkpt>
      <trkpt lat="46.47833" lon="5.30774">
        <ele>223.4</ele>
        <time>2022-02-22T13:27:12Z</time>
      </trkpt>
      <trkpt lat="46.47828" lon="5.30772">
        <ele>223.6</ele>
        <time>2022-02-22T13:27:13Z</time>
      </trkpt>
      <trkpt lat="46.478" lon="5.30769">
        <ele>223.8</ele>
        <time>2022-02-22T13:27:17Z</time>
      </trkpt>
      <trkpt lat="46.47758" lon="5.30775">
        <ele>222</ele>
        <time>2022-02-22T13:27:23Z</time>
      </trkpt>
      <trkpt lat="46.47738" lon="5.30778">
        <ele>221.8</ele>
        <time>2022-02-22T13:27:26Z</time>
      </trkpt>
      <trkpt lat="46.47708" lon="5.30783">
        <ele>221.8</ele>
        <time>2022-02-22T13:27:31Z</time>
      </trkpt>
      <trkpt lat="46.47659" lon="5.30791">
        <ele>222.4</ele>
        <time>2022-02-22T13:27:40Z</time>
      </trkpt>
      <trkpt lat="46.47603" lon="5.30799">
        <ele>222.8</ele>
        <time>2022-02-22T13:27:50Z</time>
      </trkpt>
      <trkpt lat="46.47555" lon="5.30807">
        <ele>222.8</ele>
        <time>2022-02-22T13:27:58Z</time>
      </trkpt>
      <trkpt lat="46.47543" lon="5.30809">
        <ele>222.8</ele>
        <time>2022-02-22T13:28:00Z</time>
      </trkpt>
      <trkpt lat="46.47513" lon="5.30818">
        <ele>222.8</ele>
        <time>2022-02-22T13:28:05Z</time>
      </trkpt>
      <trkpt lat="46.4747" lon="5.3084">
        <ele>222.4</ele>
        <time>2022-02-22T13:28:12Z</time>
      </trkpt>
      <trkpt lat="46.4742" lon="5.30866">
        <ele>221.8</ele>
        <time>2022-02-22T13:28:20Z</time>
      </trkpt>
      <trkpt lat="46.47371" lon="5.30889">
        <ele>221.6</ele>
        <time>2022-02-22T13:28:28Z</time>
      </trkpt>
      <trkpt lat="46.47347" lon="5.30894">
        <ele>221.8</ele>
        <time>2022-02-22T13:28:32Z</time>
      </trkpt>
      <trkpt lat="46.47341" lon="5.30892">
        <ele>221.8</ele>
        <time>2022-02-22T13:28:33Z</time>
      </trkpt>
      <trkpt lat="46.47336" lon="5.30888">
        <ele>221.8</ele>
        <time>2022-02-22T13:28:34Z</time>
      </trkpt>
      <trkpt lat="46.47328" lon="5.30874">
        <ele>221.8</ele>
        <time>2022-02-22T13:28:36Z</time>
      </trkpt>
      <trkpt lat="46.47322" lon="5.30826">
        <ele>221.8</ele>
        <time>2022-02-22T13:28:41Z</time>
      </trkpt>
      <trkpt lat="46.47317" lon="5.30739">
        <ele>221.4</ele>
        <time>2022-02-22T13:28:50Z</time>
      </trkpt>
      <trkpt lat="46.47317" lon="5.3073">
        <ele>221.4</ele>
        <time>2022-02-22T13:28:51Z</time>
      </trkpt>
      <trkpt lat="46.47315" lon="5.30678">
        <ele>221.6</ele>
        <time>2022-02-22T13:28:57Z</time>
      </trkpt>
      <trkpt lat="46.47315" lon="5.30669">
        <ele>221.6</ele>
        <time>2022-02-22T13:28:58Z</time>
      </trkpt>
      <trkpt lat="46.47311" lon="5.30651">
        <ele>221.8</ele>
        <time>2022-02-22T13:29:00Z</time>
      </trkpt>
      <trkpt lat="46.47308" lon="5.30643">
        <ele>221.8</ele>
        <time>2022-02-22T13:29:01Z</time>
      </trkpt>
      <trkpt lat="46.47304" lon="5.30636">
        <ele>222</ele>
        <time>2022-02-22T13:29:02Z</time>
      </trkpt>
      <trkpt lat="46.4729" lon="5.30618">
        <ele>222</ele>
        <time>2022-02-22T13:29:05Z</time>
      </trkpt>
      <trkpt lat="46.47256" lon="5.30576">
        <ele>222.6</ele>
        <time>2022-02-22T13:29:12Z</time>
      </trkpt>
      <trkpt lat="46.47227" lon="5.30557">
        <ele>222.4</ele>
        <time>2022-02-22T13:29:17Z</time>
      </trkpt>
      <trkpt lat="46.47221" lon="5.30555">
        <ele>222.4</ele>
        <time>2022-02-22T13:29:18Z</time>
      </trkpt>
      <trkpt lat="46.47216" lon="5.30555">
        <ele>222.4</ele>
        <time>2022-02-22T13:29:19Z</time>
      </trkpt>
      <trkpt lat="46.47189" lon="5.30557">
        <ele>222.2</ele>
        <time>2022-02-22T13:29:23Z</time>
      </trkpt>
      <trkpt lat="46.47155" lon="5.30555">
        <ele>222.6</ele>
        <time>2022-02-22T13:29:29Z</time>
      </trkpt>
      <trkpt lat="46.47144" lon="5.30551">
        <ele>223</ele>
        <time>2022-02-22T13:29:31Z</time>
      </trkpt>
      <trkpt lat="46.47111" lon="5.30535">
        <ele>223</ele>
        <time>2022-02-22T13:29:37Z</time>
      </trkpt>
      <trkpt lat="46.47066" lon="5.305">
        <ele>223.2</ele>
        <time>2022-02-22T13:29:46Z</time>
      </trkpt>
      <trkpt lat="46.47015" lon="5.30457">
        <ele>222.8</ele>
        <time>2022-02-22T13:29:55Z</time>
      </trkpt>
      <trkpt lat="46.4697" lon="5.30418">
        <ele>222.4</ele>
        <time>2022-02-22T13:30:03Z</time>
      </trkpt>
      <trkpt lat="46.46932" lon="5.30396">
        <ele>222.2</ele>
        <time>2022-02-22T13:30:09Z</time>
      </trkpt>
      <trkpt lat="46.4689" lon="5.30379">
        <ele>222</ele>
        <time>2022-02-22T13:30:16Z</time>
      </trkpt>
      <trkpt lat="46.46863" lon="5.3036">
        <ele>222.4</ele>
        <time>2022-02-22T13:30:21Z</time>
      </trkpt>
      <trkpt lat="46.46829" lon="5.30322">
        <ele>222.4</ele>
        <time>2022-02-22T13:30:28Z</time>
      </trkpt>
      <trkpt lat="46.46797" lon="5.30281">
        <ele>222.6</ele>
        <time>2022-02-22T13:30:35Z</time>
      </trkpt>
      <trkpt lat="46.46754" lon="5.30232">
        <ele>222.8</ele>
        <time>2022-02-22T13:30:43Z</time>
      </trkpt>
      <trkpt lat="46.46749" lon="5.30225">
        <ele>223</ele>
        <time>2022-02-22T13:30:44Z</time>
      </trkpt>
      <trkpt lat="46.4674" lon="5.3021">
        <ele>223</ele>
        <time>2022-02-22T13:30:46Z</time>
      </trkpt>
      <trkpt lat="46.46736" lon="5.30201">
        <ele>223</ele>
        <time>2022-02-22T13:30:47Z</time>
      </trkpt>
      <trkpt lat="46.46723" lon="5.30153">
        <ele>222.8</ele>
        <time>2022-02-22T13:30:52Z</time>
      </trkpt>
      <trkpt lat="46.46706" lon="5.30092">
        <ele>222.6</ele>
        <time>2022-02-22T13:30:58Z</time>
      </trkpt>
      <trkpt lat="46.46701" lon="5.30083">
        <ele>222.4</ele>
        <time>2022-02-22T13:30:59Z</time>
      </trkpt>
      <trkpt lat="46.46695" lon="5.30077">
        <ele>222.4</ele>
        <time>2022-02-22T13:31:00Z</time>
      </trkpt>
      <trkpt lat="46.46681" lon="5.30071">
        <ele>222.2</ele>
        <time>2022-02-22T13:31:02Z</time>
      </trkpt>
      <trkpt lat="46.46643" lon="5.30059">
        <ele>222.2</ele>
        <time>2022-02-22T13:31:08Z</time>
      </trkpt>
      <trkpt lat="46.46637" lon="5.30058">
        <ele>222.4</ele>
        <time>2022-02-22T13:31:09Z</time>
      </trkpt>
      <trkpt lat="46.4662" lon="5.3006">
        <ele>223</ele>
        <time>2022-02-22T13:31:12Z</time>
      </trkpt>
      <trkpt lat="46.46575" lon="5.30063">
        <ele>223</ele>
        <time>2022-02-22T13:31:19Z</time>
      </trkpt>
      <trkpt lat="46.46518" lon="5.30059">
        <ele>222.2</ele>
        <time>2022-02-22T13:31:27Z</time>
      </trkpt>
      <trkpt lat="46.46504" lon="5.30059">
        <ele>221.4</ele>
        <time>2022-02-22T13:31:29Z</time>
      </trkpt>
      <trkpt lat="46.46489" lon="5.30058">
        <ele>221</ele>
        <time>2022-02-22T13:31:31Z</time>
      </trkpt>
      <trkpt lat="46.46467" lon="5.30054">
        <ele>220.6</ele>
        <time>2022-02-22T13:31:34Z</time>
      </trkpt>
      <trkpt lat="46.4646" lon="5.30052">
        <ele>220.2</ele>
        <time>2022-02-22T13:31:35Z</time>
      </trkpt>
      <trkpt lat="46.46431" lon="5.30049">
        <ele>219.2</ele>
        <time>2022-02-22T13:31:39Z</time>
      </trkpt>
      <trkpt lat="46.46423" lon="5.3005">
        <ele>219</ele>
        <time>2022-02-22T13:31:40Z</time>
      </trkpt>
      <trkpt lat="46.46382" lon="5.30059">
        <ele>217.8</ele>
        <time>2022-02-22T13:31:45Z</time>
      </trkpt>
      <trkpt lat="46.46373" lon="5.30061">
        <ele>217.4</ele>
        <time>2022-02-22T13:31:46Z</time>
      </trkpt>
      <trkpt lat="46.46356" lon="5.30064">
        <ele>216.4</ele>
        <time>2022-02-22T13:31:48Z</time>
      </trkpt>
      <trkpt lat="46.4634" lon="5.30066">
        <ele>215.6</ele>
        <time>2022-02-22T13:31:50Z</time>
      </trkpt>
      <trkpt lat="46.46332" lon="5.30066">
        <ele>215.2</ele>
        <time>2022-02-22T13:31:51Z</time>
      </trkpt>
      <trkpt lat="46.46307" lon="5.30064">
        <ele>214.4</ele>
        <time>2022-02-22T13:31:54Z</time>
      </trkpt>
      <trkpt lat="46.46301" lon="5.30064">
        <ele>213.6</ele>
        <time>2022-02-22T13:31:55Z</time>
      </trkpt>
      <trkpt lat="46.46284" lon="5.30063">
        <ele>212.4</ele>
        <time>2022-02-22T13:31:57Z</time>
      </trkpt>
      <trkpt lat="46.46272" lon="5.30062">
        <ele>211.6</ele>
        <time>2022-02-22T13:31:59Z</time>
      </trkpt>
      <trkpt lat="46.46266" lon="5.30062">
        <ele>211</ele>
        <time>2022-02-22T13:32:00Z</time>
      </trkpt>
      <trkpt lat="46.46261" lon="5.30061">
        <ele>210.8</ele>
        <time>2022-02-22T13:32:01Z</time>
      </trkpt>
      <trkpt lat="46.46251" lon="5.30058">
        <ele>209.8</ele>
        <time>2022-02-22T13:32:03Z</time>
      </trkpt>
      <trkpt lat="46.46239" lon="5.30057">
        <ele>208.8</ele>
        <time>2022-02-22T13:32:05Z</time>
      </trkpt>
      <trkpt lat="46.46224" lon="5.30056">
        <ele>207.8</ele>
        <time>2022-02-22T13:32:07Z</time>
      </trkpt>
      <trkpt lat="46.46199" lon="5.30048">
        <ele>206.8</ele>
        <time>2022-02-22T13:32:10Z</time>
      </trkpt>
      <trkpt lat="46.46191" lon="5.30042">
        <ele>206.4</ele>
        <time>2022-02-22T13:32:11Z</time>
      </trkpt>
      <trkpt lat="46.46184" lon="5.30035">
        <ele>206</ele>
        <time>2022-02-22T13:32:12Z</time>
      </trkpt>
      <trkpt lat="46.46177" lon="5.30027">
        <ele>205.4</ele>
        <time>2022-02-22T13:32:13Z</time>
      </trkpt>
      <trkpt lat="46.46165" lon="5.30012">
        <ele>204.4</ele>
        <time>2022-02-22T13:32:15Z</time>
      </trkpt>
      <trkpt lat="46.46158" lon="5.30002">
        <ele>203.8</ele>
        <time>2022-02-22T13:32:16Z</time>
      </trkpt>
      <trkpt lat="46.46144" lon="5.29982">
        <ele>203.2</ele>
        <time>2022-02-22T13:32:19Z</time>
      </trkpt>
      <trkpt lat="46.46141" lon="5.2998">
        <ele>202.8</ele>
        <time>2022-02-22T13:32:20Z</time>
      </trkpt>
      <trkpt lat="46.46137" lon="5.29981">
        <ele>202.6</ele>
        <time>2022-02-22T13:32:21Z</time>
      </trkpt>
      <trkpt lat="46.4613" lon="5.29991">
        <ele>202</ele>
        <time>2022-02-22T13:32:23Z</time>
      </trkpt>
      <trkpt lat="46.46127" lon="5.29998">
        <ele>202</ele>
        <time>2022-02-22T13:32:24Z</time>
      </trkpt>
      <trkpt lat="46.46125" lon="5.30005">
        <ele>201.8</ele>
        <time>2022-02-22T13:32:25Z</time>
      </trkpt>
      <trkpt lat="46.4611" lon="5.30054">
        <ele>200.8</ele>
        <time>2022-02-22T13:32:31Z</time>
      </trkpt>
      <trkpt lat="46.46085" lon="5.30132">
        <ele>201.2</ele>
        <time>2022-02-22T13:32:41Z</time>
      </trkpt>
      <trkpt lat="46.46073" lon="5.30168">
        <ele>202.2</ele>
        <time>2022-02-22T13:32:47Z</time>
      </trkpt>
      <trkpt lat="46.46068" lon="5.30185">
        <ele>202.6</ele>
        <time>2022-02-22T13:32:50Z</time>
      </trkpt>
      <trkpt lat="46.46063" lon="5.30198">
        <ele>203</ele>
        <time>2022-02-22T13:32:52Z</time>
      </trkpt>
      <trkpt lat="46.46059" lon="5.3021">
        <ele>203.6</ele>
        <time>2022-02-22T13:32:54Z</time>
      </trkpt>
      <trkpt lat="46.46057" lon="5.30216">
        <ele>204</ele>
        <time>2022-02-22T13:32:55Z</time>
      </trkpt>
      <trkpt lat="46.46048" lon="5.30247">
        <ele>205</ele>
        <time>2022-02-22T13:33:00Z</time>
      </trkpt>
      <trkpt lat="46.4604" lon="5.30271">
        <ele>206</ele>
        <time>2022-02-22T13:33:04Z</time>
      </trkpt>
      <trkpt lat="46.46036" lon="5.30283">
        <ele>206.4</ele>
        <time>2022-02-22T13:33:06Z</time>
      </trkpt>
      <trkpt lat="46.46025" lon="5.30313">
        <ele>207.4</ele>
        <time>2022-02-22T13:33:11Z</time>
      </trkpt>
      <trkpt lat="46.46019" lon="5.30331">
        <ele>207.8</ele>
        <time>2022-02-22T13:33:14Z</time>
      </trkpt>
      <trkpt lat="46.46013" lon="5.30348">
        <ele>208.4</ele>
        <time>2022-02-22T13:33:17Z</time>
      </trkpt>
      <trkpt lat="46.46011" lon="5.30354">
        <ele>208.6</ele>
        <time>2022-02-22T13:33:18Z</time>
      </trkpt>
      <trkpt lat="46.46004" lon="5.3037">
        <ele>209.4</ele>
        <time>2022-02-22T13:33:21Z</time>
      </trkpt>
      <trkpt lat="46.46002" lon="5.30373">
        <ele>209.6</ele>
        <time>2022-02-22T13:33:22Z</time>
      </trkpt>
      <trkpt lat="46.45997" lon="5.30375">
        <ele>209.8</ele>
        <time>2022-02-22T13:33:23Z</time>
      </trkpt>
      <trkpt lat="46.45994" lon="5.30375">
        <ele>210</ele>
        <time>2022-02-22T13:33:24Z</time>
      </trkpt>
      <trkpt lat="46.45979" lon="5.30368">
        <ele>210.8</ele>
        <time>2022-02-22T13:33:28Z</time>
      </trkpt>
      <trkpt lat="46.45975" lon="5.30366">
        <ele>211.2</ele>
        <time>2022-02-22T13:33:29Z</time>
      </trkpt>
      <trkpt lat="46.45967" lon="5.30361">
        <ele>212</ele>
        <time>2022-02-22T13:33:31Z</time>
      </trkpt>
      <trkpt lat="46.45947" lon="5.30351">
        <ele>212.8</ele>
        <time>2022-02-22T13:33:36Z</time>
      </trkpt>
      <trkpt lat="46.4594" lon="5.30346">
        <ele>213</ele>
        <time>2022-02-22T13:33:38Z</time>
      </trkpt>
      <trkpt lat="46.45914" lon="5.30331">
        <ele>213.4</ele>
        <time>2022-02-22T13:33:44Z</time>
      </trkpt>
      <trkpt lat="46.45881" lon="5.30313">
        <ele>213</ele>
        <time>2022-02-22T13:33:50Z</time>
      </trkpt>
      <trkpt lat="46.45854" lon="5.30302">
        <ele>211.8</ele>
        <time>2022-02-22T13:33:54Z</time>
      </trkpt>
      <trkpt lat="46.45847" lon="5.30301">
        <ele>211.6</ele>
        <time>2022-02-22T13:33:55Z</time>
      </trkpt>
      <trkpt lat="46.45838" lon="5.30302">
        <ele>211.4</ele>
        <time>2022-02-22T13:33:56Z</time>
      </trkpt>
      <trkpt lat="46.45822" lon="5.30309">
        <ele>211</ele>
        <time>2022-02-22T13:33:58Z</time>
      </trkpt>
      <trkpt lat="46.45815" lon="5.30314">
        <ele>210.8</ele>
        <time>2022-02-22T13:33:59Z</time>
      </trkpt>
      <trkpt lat="46.45789" lon="5.30339">
        <ele>209.4</ele>
        <time>2022-02-22T13:34:03Z</time>
      </trkpt>
      <trkpt lat="46.45759" lon="5.30371">
        <ele>208.2</ele>
        <time>2022-02-22T13:34:07Z</time>
      </trkpt>
      <trkpt lat="46.45736" lon="5.30394">
        <ele>207.2</ele>
        <time>2022-02-22T13:34:10Z</time>
      </trkpt>
      <trkpt lat="46.4572" lon="5.3041">
        <ele>205.8</ele>
        <time>2022-02-22T13:34:12Z</time>
      </trkpt>
      <trkpt lat="46.45703" lon="5.30425">
        <ele>204</ele>
        <time>2022-02-22T13:34:14Z</time>
      </trkpt>
      <trkpt lat="46.45693" lon="5.3043">
        <ele>203.4</ele>
        <time>2022-02-22T13:34:15Z</time>
      </trkpt>
      <trkpt lat="46.45684" lon="5.30434">
        <ele>202.6</ele>
        <time>2022-02-22T13:34:16Z</time>
      </trkpt>
      <trkpt lat="46.45673" lon="5.30435">
        <ele>202.4</ele>
        <time>2022-02-22T13:34:17Z</time>
      </trkpt>
      <trkpt lat="46.45663" lon="5.30436">
        <ele>201.6</ele>
        <time>2022-02-22T13:34:18Z</time>
      </trkpt>
      <trkpt lat="46.45653" lon="5.30434">
        <ele>201</ele>
        <time>2022-02-22T13:34:19Z</time>
      </trkpt>
      <trkpt lat="46.45635" lon="5.30428">
        <ele>200.4</ele>
        <time>2022-02-22T13:34:21Z</time>
      </trkpt>
      <trkpt lat="46.45626" lon="5.30424">
        <ele>200</ele>
        <time>2022-02-22T13:34:22Z</time>
      </trkpt>
      <trkpt lat="46.45618" lon="5.30419">
        <ele>199.6</ele>
        <time>2022-02-22T13:34:23Z</time>
      </trkpt>
      <trkpt lat="46.45603" lon="5.30405">
        <ele>199.2</ele>
        <time>2022-02-22T13:34:25Z</time>
      </trkpt>
      <trkpt lat="46.45558" lon="5.30359">
        <ele>198.4</ele>
        <time>2022-02-22T13:34:32Z</time>
      </trkpt>
      <trkpt lat="46.45552" lon="5.30354">
        <ele>198.4</ele>
        <time>2022-02-22T13:34:33Z</time>
      </trkpt>
      <trkpt lat="46.45538" lon="5.30347">
        <ele>198.4</ele>
        <time>2022-02-22T13:34:35Z</time>
      </trkpt>
      <trkpt lat="46.45531" lon="5.30346">
        <ele>198.4</ele>
        <time>2022-02-22T13:34:36Z</time>
      </trkpt>
      <trkpt lat="46.45511" lon="5.30346">
        <ele>198.2</ele>
        <time>2022-02-22T13:34:39Z</time>
      </trkpt>
      <trkpt lat="46.45498" lon="5.30348">
        <ele>198.2</ele>
        <time>2022-02-22T13:34:41Z</time>
      </trkpt>
      <trkpt lat="46.45459" lon="5.30346">
        <ele>198.4</ele>
        <time>2022-02-22T13:34:47Z</time>
      </trkpt>
      <trkpt lat="46.45406" lon="5.3033">
        <ele>198.4</ele>
        <time>2022-02-22T13:34:56Z</time>
      </trkpt>
      <trkpt lat="46.45367" lon="5.30322">
        <ele>198.8</ele>
        <time>2022-02-22T13:35:03Z</time>
      </trkpt>
      <trkpt lat="46.4535" lon="5.30328">
        <ele>199.2</ele>
        <time>2022-02-22T13:35:06Z</time>
      </trkpt>
      <trkpt lat="46.45339" lon="5.30334">
        <ele>199.8</ele>
        <time>2022-02-22T13:35:08Z</time>
      </trkpt>
      <trkpt lat="46.45312" lon="5.3035">
        <ele>200.4</ele>
        <time>2022-02-22T13:35:13Z</time>
      </trkpt>
      <trkpt lat="46.45307" lon="5.30351">
        <ele>200.4</ele>
        <time>2022-02-22T13:35:14Z</time>
      </trkpt>
      <trkpt lat="46.45301" lon="5.30352">
        <ele>200.6</ele>
        <time>2022-02-22T13:35:15Z</time>
      </trkpt>
      <trkpt lat="46.45268" lon="5.30346">
        <ele>200.8</ele>
        <time>2022-02-22T13:35:21Z</time>
      </trkpt>
      <trkpt lat="46.4523" lon="5.30336">
        <ele>201.4</ele>
        <time>2022-02-22T13:35:28Z</time>
      </trkpt>
      <trkpt lat="46.45213" lon="5.30333">
        <ele>201.4</ele>
        <time>2022-02-22T13:35:31Z</time>
      </trkpt>
      <trkpt lat="46.45208" lon="5.30332">
        <ele>201.6</ele>
        <time>2022-02-22T13:35:32Z</time>
      </trkpt>
      <trkpt lat="46.45197" lon="5.30334">
        <ele>201.6</ele>
        <time>2022-02-22T13:35:34Z</time>
      </trkpt>
      <trkpt lat="46.45192" lon="5.30337">
        <ele>201.6</ele>
        <time>2022-02-22T13:35:35Z</time>
      </trkpt>
      <trkpt lat="46.45183" lon="5.30344">
        <ele>201.8</ele>
        <time>2022-02-22T13:35:37Z</time>
      </trkpt>
      <trkpt lat="46.45176" lon="5.30354">
        <ele>202.2</ele>
        <time>2022-02-22T13:35:39Z</time>
      </trkpt>
      <trkpt lat="46.45173" lon="5.3036">
        <ele>202.2</ele>
        <time>2022-02-22T13:35:40Z</time>
      </trkpt>
      <trkpt lat="46.4517" lon="5.30365">
        <ele>202.4</ele>
        <time>2022-02-22T13:35:41Z</time>
      </trkpt>
      <trkpt lat="46.45163" lon="5.30384">
        <ele>203</ele>
        <time>2022-02-22T13:35:44Z</time>
      </trkpt>
      <trkpt lat="46.45156" lon="5.30408">
        <ele>203.6</ele>
        <time>2022-02-22T13:35:48Z</time>
      </trkpt>
      <trkpt lat="46.45148" lon="5.30432">
        <ele>204.6</ele>
        <time>2022-02-22T13:35:52Z</time>
      </trkpt>
      <trkpt lat="46.45147" lon="5.30438">
        <ele>204.8</ele>
        <time>2022-02-22T13:35:53Z</time>
      </trkpt>
      <trkpt lat="46.45134" lon="5.30474">
        <ele>205.8</ele>
        <time>2022-02-22T13:35:59Z</time>
      </trkpt>
      <trkpt lat="46.45129" lon="5.30484">
        <ele>206</ele>
        <time>2022-02-22T13:36:01Z</time>
      </trkpt>
      <trkpt lat="46.45125" lon="5.30488">
        <ele>206.2</ele>
        <time>2022-02-22T13:36:02Z</time>
      </trkpt>
      <trkpt lat="46.45118" lon="5.30495">
        <ele>206.4</ele>
        <time>2022-02-22T13:36:04Z</time>
      </trkpt>
      <trkpt lat="46.45111" lon="5.305">
        <ele>207</ele>
        <time>2022-02-22T13:36:06Z</time>
      </trkpt>
      <trkpt lat="46.45106" lon="5.30501">
        <ele>207.2</ele>
        <time>2022-02-22T13:36:07Z</time>
      </trkpt>
      <trkpt lat="46.45094" lon="5.30501">
        <ele>207.8</ele>
        <time>2022-02-22T13:36:10Z</time>
      </trkpt>
      <trkpt lat="46.45087" lon="5.305">
        <ele>208</ele>
        <time>2022-02-22T13:36:12Z</time>
      </trkpt>
      <trkpt lat="46.45069" lon="5.30495">
        <ele>209.2</ele>
        <time>2022-02-22T13:36:17Z</time>
      </trkpt>
      <trkpt lat="46.45064" lon="5.30493">
        <ele>209.2</ele>
        <time>2022-02-22T13:36:18Z</time>
      </trkpt>
      <trkpt lat="46.4505" lon="5.30489">
        <ele>210.4</ele>
        <time>2022-02-22T13:36:22Z</time>
      </trkpt>
      <trkpt lat="46.45035" lon="5.30486">
        <ele>211.4</ele>
        <time>2022-02-22T13:36:26Z</time>
      </trkpt>
      <trkpt lat="46.45024" lon="5.30483">
        <ele>212.2</ele>
        <time>2022-02-22T13:36:29Z</time>
      </trkpt>
      <trkpt lat="46.45016" lon="5.30482">
        <ele>212.6</ele>
        <time>2022-02-22T13:36:31Z</time>
      </trkpt>
      <trkpt lat="46.44992" lon="5.30486">
        <ele>213.8</ele>
        <time>2022-02-22T13:36:37Z</time>
      </trkpt>
      <trkpt lat="46.44983" lon="5.30488">
        <ele>214.2</ele>
        <time>2022-02-22T13:36:39Z</time>
      </trkpt>
      <trkpt lat="46.44962" lon="5.30497">
        <ele>214.6</ele>
        <time>2022-02-22T13:36:44Z</time>
      </trkpt>
      <trkpt lat="46.44953" lon="5.305">
        <ele>215</ele>
        <time>2022-02-22T13:36:46Z</time>
      </trkpt>
      <trkpt lat="46.44919" lon="5.3051">
        <ele>215.4</ele>
        <time>2022-02-22T13:36:53Z</time>
      </trkpt>
      <trkpt lat="46.44886" lon="5.30514">
        <ele>216</ele>
        <time>2022-02-22T13:37:00Z</time>
      </trkpt>
      <trkpt lat="46.44878" lon="5.30515">
        <ele>216.2</ele>
        <time>2022-02-22T13:37:02Z</time>
      </trkpt>
      <trkpt lat="46.4486" lon="5.30515">
        <ele>217</ele>
        <time>2022-02-22T13:37:06Z</time>
      </trkpt>
      <trkpt lat="46.44831" lon="5.30515">
        <ele>218</ele>
        <time>2022-02-22T13:37:13Z</time>
      </trkpt>
      <trkpt lat="46.44827" lon="5.30515">
        <ele>218.2</ele>
        <time>2022-02-22T13:37:14Z</time>
      </trkpt>
      <trkpt lat="46.44802" lon="5.30515">
        <ele>219.4</ele>
        <time>2022-02-22T13:37:20Z</time>
      </trkpt>
      <trkpt lat="46.44793" lon="5.30515">
        <ele>219.6</ele>
        <time>2022-02-22T13:37:22Z</time>
      </trkpt>
      <trkpt lat="46.44759" lon="5.30514">
        <ele>220.4</ele>
        <time>2022-02-22T13:37:29Z</time>
      </trkpt>
      <trkpt lat="46.44754" lon="5.30514">
        <ele>220.4</ele>
        <time>2022-02-22T13:37:30Z</time>
      </trkpt>
      <trkpt lat="46.44708" lon="5.30516">
        <ele>221</ele>
        <time>2022-02-22T13:37:39Z</time>
      </trkpt>
      <trkpt lat="46.44658" lon="5.30517">
        <ele>221.4</ele>
        <time>2022-02-22T13:37:48Z</time>
      </trkpt>
      <trkpt lat="46.44604" lon="5.30518">
        <ele>222</ele>
        <time>2022-02-22T13:37:58Z</time>
      </trkpt>
      <trkpt lat="46.44569" lon="5.30523">
        <ele>222.2</ele>
        <time>2022-02-22T13:38:05Z</time>
      </trkpt>
      <trkpt lat="46.44557" lon="5.3053">
        <ele>222.6</ele>
        <time>2022-02-22T13:38:08Z</time>
      </trkpt>
      <trkpt lat="46.44546" lon="5.30536">
        <ele>223.4</ele>
        <time>2022-02-22T13:38:11Z</time>
      </trkpt>
      <trkpt lat="46.4453" lon="5.30547">
        <ele>224.4</ele>
        <time>2022-02-22T13:38:15Z</time>
      </trkpt>
      <trkpt lat="46.44525" lon="5.3055">
        <ele>224.8</ele>
        <time>2022-02-22T13:38:16Z</time>
      </trkpt>
      <trkpt lat="46.44514" lon="5.30556">
        <ele>225</ele>
        <time>2022-02-22T13:38:18Z</time>
      </trkpt>
      <trkpt lat="46.44494" lon="5.30564">
        <ele>225.6</ele>
        <time>2022-02-22T13:38:22Z</time>
      </trkpt>
      <trkpt lat="46.44489" lon="5.30565">
        <ele>225.6</ele>
        <time>2022-02-22T13:38:23Z</time>
      </trkpt>
      <trkpt lat="46.44451" lon="5.30567">
        <ele>226</ele>
        <time>2022-02-22T13:38:30Z</time>
      </trkpt>
      <trkpt lat="46.44445" lon="5.30567">
        <ele>226.2</ele>
        <time>2022-02-22T13:38:31Z</time>
      </trkpt>
      <trkpt lat="46.44435" lon="5.30567">
        <ele>226.2</ele>
        <time>2022-02-22T13:38:33Z</time>
      </trkpt>
      <trkpt lat="46.44425" lon="5.30571">
        <ele>226.4</ele>
        <time>2022-02-22T13:38:35Z</time>
      </trkpt>
      <trkpt lat="46.44406" lon="5.30584">
        <ele>226.6</ele>
        <time>2022-02-22T13:38:39Z</time>
      </trkpt>
      <trkpt lat="46.44391" lon="5.30593">
        <ele>227</ele>
        <time>2022-02-22T13:38:42Z</time>
      </trkpt>
      <trkpt lat="46.44375" lon="5.30599">
        <ele>227.2</ele>
        <time>2022-02-22T13:38:45Z</time>
      </trkpt>
      <trkpt lat="46.44359" lon="5.306">
        <ele>227.2</ele>
        <time>2022-02-22T13:38:48Z</time>
      </trkpt>
      <trkpt lat="46.44353" lon="5.30599">
        <ele>227.2</ele>
        <time>2022-02-22T13:38:49Z</time>
      </trkpt>
      <trkpt lat="46.44337" lon="5.30595">
        <ele>227.4</ele>
        <time>2022-02-22T13:38:52Z</time>
      </trkpt>
      <trkpt lat="46.44331" lon="5.30596">
        <ele>227.4</ele>
        <time>2022-02-22T13:38:53Z</time>
      </trkpt>
      <trkpt lat="46.44326" lon="5.30598">
        <ele>227.6</ele>
        <time>2022-02-22T13:38:54Z</time>
      </trkpt>
      <trkpt lat="46.44316" lon="5.30605">
        <ele>227.8</ele>
        <time>2022-02-22T13:38:56Z</time>
      </trkpt>
      <trkpt lat="46.44311" lon="5.3061">
        <ele>227.8</ele>
        <time>2022-02-22T13:38:57Z</time>
      </trkpt>
      <trkpt lat="46.44274" lon="5.30647">
        <ele>228.2</ele>
        <time>2022-02-22T13:39:05Z</time>
      </trkpt>
      <trkpt lat="46.44236" lon="5.30665">
        <ele>228.2</ele>
        <time>2022-02-22T13:39:12Z</time>
      </trkpt>
      <trkpt lat="46.44202" lon="5.30671">
        <ele>228.2</ele>
        <time>2022-02-22T13:39:18Z</time>
      </trkpt>
      <trkpt lat="46.44157" lon="5.30669">
        <ele>228.4</ele>
        <time>2022-02-22T13:39:26Z</time>
      </trkpt>
      <trkpt lat="46.4412" lon="5.30653">
        <ele>228.8</ele>
        <time>2022-02-22T13:39:33Z</time>
      </trkpt>
      <trkpt lat="46.44115" lon="5.30649">
        <ele>228.8</ele>
        <time>2022-02-22T13:39:34Z</time>
      </trkpt>
      <trkpt lat="46.4409" lon="5.30629">
        <ele>229</ele>
        <time>2022-02-22T13:39:39Z</time>
      </trkpt>
      <trkpt lat="46.44079" lon="5.30622">
        <ele>229</ele>
        <time>2022-02-22T13:39:41Z</time>
      </trkpt>
      <trkpt lat="46.44066" lon="5.3062">
        <ele>229</ele>
        <time>2022-02-22T13:39:43Z</time>
      </trkpt>
      <trkpt lat="46.44054" lon="5.30624">
        <ele>229</ele>
        <time>2022-02-22T13:39:45Z</time>
      </trkpt>
      <trkpt lat="46.44043" lon="5.3063">
        <ele>228.8</ele>
        <time>2022-02-22T13:39:47Z</time>
      </trkpt>
      <trkpt lat="46.44037" lon="5.30635">
        <ele>228.8</ele>
        <time>2022-02-22T13:39:48Z</time>
      </trkpt>
      <trkpt lat="46.44017" lon="5.30652">
        <ele>228.6</ele>
        <time>2022-02-22T13:39:53Z</time>
      </trkpt>
      <trkpt lat="46.43996" lon="5.30671">
        <ele>228.6</ele>
        <time>2022-02-22T13:39:59Z</time>
      </trkpt>
      <trkpt lat="46.43993" lon="5.30672">
        <ele>228.6</ele>
        <time>2022-02-22T13:40:00Z</time>
      </trkpt>
      <trkpt lat="46.4399" lon="5.30673">
        <ele>228.6</ele>
        <time>2022-02-22T13:40:01Z</time>
      </trkpt>
      <trkpt lat="46.43986" lon="5.30668">
        <ele>228.4</ele>
        <time>2022-02-22T13:40:03Z</time>
      </trkpt>
      <trkpt lat="46.4399" lon="5.30643">
        <ele>228.4</ele>
        <time>2022-02-22T13:40:07Z</time>
      </trkpt>
      <trkpt lat="46.43993" lon="5.30627">
        <ele>228.4</ele>
        <time>2022-02-22T13:40:09Z</time>
      </trkpt>
      <trkpt lat="46.43995" lon="5.30599">
        <ele>228.4</ele>
        <time>2022-02-22T13:40:12Z</time>
      </trkpt>
      <trkpt lat="46.43993" lon="5.30539">
        <ele>229</ele>
        <time>2022-02-22T13:40:18Z</time>
      </trkpt>
      <trkpt lat="46.43987" lon="5.30469">
        <ele>229.4</ele>
        <time>2022-02-22T13:40:25Z</time>
      </trkpt>
      <trkpt lat="46.43978" lon="5.3039">
        <ele>229.2</ele>
        <time>2022-02-22T13:40:33Z</time>
      </trkpt>
      <trkpt lat="46.43976" lon="5.3037">
        <ele>229</ele>
        <time>2022-02-22T13:40:35Z</time>
      </trkpt>
      <trkpt lat="46.43964" lon="5.30291">
        <ele>228.4</ele>
        <time>2022-02-22T13:40:43Z</time>
      </trkpt>
      <trkpt lat="46.43945" lon="5.30217">
        <ele>228.2</ele>
        <time>2022-02-22T13:40:51Z</time>
      </trkpt>
      <trkpt lat="46.43938" lon="5.3019">
        <ele>228.2</ele>
        <time>2022-02-22T13:40:54Z</time>
      </trkpt>
      <trkpt lat="46.43915" lon="5.30114">
        <ele>228.8</ele>
        <time>2022-02-22T13:41:03Z</time>
      </trkpt>
      <trkpt lat="46.43906" lon="5.3009">
        <ele>229</ele>
        <time>2022-02-22T13:41:06Z</time>
      </trkpt>
      <trkpt lat="46.43897" lon="5.30066">
        <ele>229</ele>
        <time>2022-02-22T13:41:09Z</time>
      </trkpt>
      <trkpt lat="46.43883" lon="5.30036">
        <ele>228.8</ele>
        <time>2022-02-22T13:41:13Z</time>
      </trkpt>
      <trkpt lat="46.43874" lon="5.30024">
        <ele>228.8</ele>
        <time>2022-02-22T13:41:15Z</time>
      </trkpt>
      <trkpt lat="46.43841" lon="5.29999">
        <ele>228.8</ele>
        <time>2022-02-22T13:41:21Z</time>
      </trkpt>
      <trkpt lat="46.43796" lon="5.29968">
        <ele>228.8</ele>
        <time>2022-02-22T13:41:29Z</time>
      </trkpt>
      <trkpt lat="46.43757" lon="5.29941">
        <ele>228.8</ele>
        <time>2022-02-22T13:41:36Z</time>
      </trkpt>
      <trkpt lat="46.4374" lon="5.29931">
        <ele>228.8</ele>
        <time>2022-02-22T13:41:39Z</time>
      </trkpt>
      <trkpt lat="46.43728" lon="5.29928">
        <ele>228.8</ele>
        <time>2022-02-22T13:41:41Z</time>
      </trkpt>
      <trkpt lat="46.43722" lon="5.29928">
        <ele>228.8</ele>
        <time>2022-02-22T13:41:42Z</time>
      </trkpt>
      <trkpt lat="46.43675" lon="5.29927">
        <ele>228.4</ele>
        <time>2022-02-22T13:41:49Z</time>
      </trkpt>
      <trkpt lat="46.43619" lon="5.29924">
        <ele>228.4</ele>
        <time>2022-02-22T13:41:58Z</time>
      </trkpt>
      <trkpt lat="46.43581" lon="5.29923">
        <ele>228.4</ele>
        <time>2022-02-22T13:42:04Z</time>
      </trkpt>
      <trkpt lat="46.43561" lon="5.29928">
        <ele>228.6</ele>
        <time>2022-02-22T13:42:07Z</time>
      </trkpt>
      <trkpt lat="46.43554" lon="5.29933">
        <ele>228.6</ele>
        <time>2022-02-22T13:42:08Z</time>
      </trkpt>
      <trkpt lat="46.4353" lon="5.29953">
        <ele>228</ele>
        <time>2022-02-22T13:42:11Z</time>
      </trkpt>
      <trkpt lat="46.43522" lon="5.29961">
        <ele>227.8</ele>
        <time>2022-02-22T13:42:12Z</time>
      </trkpt>
      <trkpt lat="46.43504" lon="5.29976">
        <ele>226.6</ele>
        <time>2022-02-22T13:42:14Z</time>
      </trkpt>
      <trkpt lat="46.43486" lon="5.29993">
        <ele>225.2</ele>
        <time>2022-02-22T13:42:16Z</time>
      </trkpt>
      <trkpt lat="46.43477" lon="5.30001">
        <ele>224.2</ele>
        <time>2022-02-22T13:42:17Z</time>
      </trkpt>
      <trkpt lat="46.43467" lon="5.30007">
        <ele>223</ele>
        <time>2022-02-22T13:42:18Z</time>
      </trkpt>
      <trkpt lat="46.43445" lon="5.30014">
        <ele>221.4</ele>
        <time>2022-02-22T13:42:20Z</time>
      </trkpt>
      <trkpt lat="46.43433" lon="5.30015">
        <ele>221</ele>
        <time>2022-02-22T13:42:21Z</time>
      </trkpt>
      <trkpt lat="46.43423" lon="5.30014">
        <ele>220.2</ele>
        <time>2022-02-22T13:42:22Z</time>
      </trkpt>
      <trkpt lat="46.43401" lon="5.30015">
        <ele>218.2</ele>
        <time>2022-02-22T13:42:24Z</time>
      </trkpt>
      <trkpt lat="46.43379" lon="5.30019">
        <ele>217.2</ele>
        <time>2022-02-22T13:42:26Z</time>
      </trkpt>
      <trkpt lat="46.43369" lon="5.30023">
        <ele>216.4</ele>
        <time>2022-02-22T13:42:27Z</time>
      </trkpt>
      <trkpt lat="46.4335" lon="5.30031">
        <ele>215.2</ele>
        <time>2022-02-22T13:42:29Z</time>
      </trkpt>
      <trkpt lat="46.4334" lon="5.30035">
        <ele>214.8</ele>
        <time>2022-02-22T13:42:30Z</time>
      </trkpt>
      <trkpt lat="46.43328" lon="5.30037">
        <ele>214.4</ele>
        <time>2022-02-22T13:42:31Z</time>
      </trkpt>
      <trkpt lat="46.43317" lon="5.30037">
        <ele>214.2</ele>
        <time>2022-02-22T13:42:32Z</time>
      </trkpt>
      <trkpt lat="46.43304" lon="5.30037">
        <ele>213.4</ele>
        <time>2022-02-22T13:42:33Z</time>
      </trkpt>
      <trkpt lat="46.43292" lon="5.30038">
        <ele>213</ele>
        <time>2022-02-22T13:42:34Z</time>
      </trkpt>
      <trkpt lat="46.43269" lon="5.30042">
        <ele>211.4</ele>
        <time>2022-02-22T13:42:36Z</time>
      </trkpt>
      <trkpt lat="46.43259" lon="5.30043">
        <ele>210.8</ele>
        <time>2022-02-22T13:42:37Z</time>
      </trkpt>
      <trkpt lat="46.4325" lon="5.30042">
        <ele>209.8</ele>
        <time>2022-02-22T13:42:38Z</time>
      </trkpt>
      <trkpt lat="46.43241" lon="5.30039">
        <ele>209.6</ele>
        <time>2022-02-22T13:42:39Z</time>
      </trkpt>
      <trkpt lat="46.43234" lon="5.30036">
        <ele>209.4</ele>
        <time>2022-02-22T13:42:40Z</time>
      </trkpt>
      <trkpt lat="46.43228" lon="5.30032">
        <ele>209.4</ele>
        <time>2022-02-22T13:42:41Z</time>
      </trkpt>
      <trkpt lat="46.43217" lon="5.30026">
        <ele>209.4</ele>
        <time>2022-02-22T13:42:43Z</time>
      </trkpt>
      <trkpt lat="46.43199" lon="5.30018">
        <ele>211.4</ele>
        <time>2022-02-22T13:42:47Z</time>
      </trkpt>
      <trkpt lat="46.43194" lon="5.30017">
        <ele>211.8</ele>
        <time>2022-02-22T13:42:48Z</time>
      </trkpt>
      <trkpt lat="46.4319" lon="5.30016">
        <ele>212.6</ele>
        <time>2022-02-22T13:42:49Z</time>
      </trkpt>
      <trkpt lat="46.43186" lon="5.30015">
        <ele>213</ele>
        <time>2022-02-22T13:42:50Z</time>
      </trkpt>
      <trkpt lat="46.43178" lon="5.30013">
        <ele>213.8</ele>
        <time>2022-02-22T13:42:52Z</time>
      </trkpt>
      <trkpt lat="46.43175" lon="5.30012">
        <ele>214</ele>
        <time>2022-02-22T13:42:53Z</time>
      </trkpt>
      <trkpt lat="46.43171" lon="5.30011">
        <ele>214.8</ele>
        <time>2022-02-22T13:42:54Z</time>
      </trkpt>
      <trkpt lat="46.4316" lon="5.30008">
        <ele>216.2</ele>
        <time>2022-02-22T13:42:57Z</time>
      </trkpt>
      <trkpt lat="46.43149" lon="5.30006">
        <ele>217.4</ele>
        <time>2022-02-22T13:43:00Z</time>
      </trkpt>
      <trkpt lat="46.43137" lon="5.30004">
        <ele>218.8</ele>
        <time>2022-02-22T13:43:03Z</time>
      </trkpt>
      <trkpt lat="46.43126" lon="5.3">
        <ele>220.2</ele>
        <time>2022-02-22T13:43:06Z</time>
      </trkpt>
      <trkpt lat="46.43115" lon="5.29997">
        <ele>221</ele>
        <time>2022-02-22T13:43:09Z</time>
      </trkpt>
      <trkpt lat="46.43111" lon="5.29996">
        <ele>221.4</ele>
        <time>2022-02-22T13:43:10Z</time>
      </trkpt>
      <trkpt lat="46.431" lon="5.29993">
        <ele>222.6</ele>
        <time>2022-02-22T13:43:13Z</time>
      </trkpt>
      <trkpt lat="46.43087" lon="5.29991">
        <ele>223.8</ele>
        <time>2022-02-22T13:43:17Z</time>
      </trkpt>
      <trkpt lat="46.43051" lon="5.29994">
        <ele>224.6</ele>
        <time>2022-02-22T13:43:26Z</time>
      </trkpt>
      <trkpt lat="46.43043" lon="5.29997">
        <ele>224.8</ele>
        <time>2022-02-22T13:43:28Z</time>
      </trkpt>
      <trkpt lat="46.43013" lon="5.30008">
        <ele>225.2</ele>
        <time>2022-02-22T13:43:35Z</time>
      </trkpt>
      <trkpt lat="46.42981" lon="5.30013">
        <ele>225.8</ele>
        <time>2022-02-22T13:43:42Z</time>
      </trkpt>
      <trkpt lat="46.42972" lon="5.30014">
        <ele>226</ele>
        <time>2022-02-22T13:43:44Z</time>
      </trkpt>
      <trkpt lat="46.42928" lon="5.30013">
        <ele>226.6</ele>
        <time>2022-02-22T13:43:53Z</time>
      </trkpt>
      <trkpt lat="46.42908" lon="5.30011">
        <ele>227</ele>
        <time>2022-02-22T13:43:57Z</time>
      </trkpt>
      <trkpt lat="46.42883" lon="5.30008">
        <ele>227.2</ele>
        <time>2022-02-22T13:44:02Z</time>
      </trkpt>
      <trkpt lat="46.42847" lon="5.30002">
        <ele>227.6</ele>
        <time>2022-02-22T13:44:09Z</time>
      </trkpt>
      <trkpt lat="46.42837" lon="5.30001">
        <ele>227.8</ele>
        <time>2022-02-22T13:44:11Z</time>
      </trkpt>
      <trkpt lat="46.42827" lon="5.30003">
        <ele>227.8</ele>
        <time>2022-02-22T13:44:13Z</time>
      </trkpt>
      <trkpt lat="46.42817" lon="5.30008">
        <ele>228</ele>
        <time>2022-02-22T13:44:15Z</time>
      </trkpt>
      <trkpt lat="46.42812" lon="5.30011">
        <ele>228</ele>
        <time>2022-02-22T13:44:16Z</time>
      </trkpt>
      <trkpt lat="46.42795" lon="5.30027">
        <ele>228.4</ele>
        <time>2022-02-22T13:44:20Z</time>
      </trkpt>
      <trkpt lat="46.4279" lon="5.30032">
        <ele>228.4</ele>
        <time>2022-02-22T13:44:21Z</time>
      </trkpt>
      <trkpt lat="46.42777" lon="5.30047">
        <ele>229</ele>
        <time>2022-02-22T13:44:24Z</time>
      </trkpt>
      <trkpt lat="46.42767" lon="5.30056">
        <ele>229</ele>
        <time>2022-02-22T13:44:26Z</time>
      </trkpt>
      <trkpt lat="46.42756" lon="5.30063">
        <ele>229.2</ele>
        <time>2022-02-22T13:44:28Z</time>
      </trkpt>
      <trkpt lat="46.42708" lon="5.30084">
        <ele>229.8</ele>
        <time>2022-02-22T13:44:37Z</time>
      </trkpt>
      <trkpt lat="46.42677" lon="5.30097">
        <ele>230</ele>
        <time>2022-02-22T13:44:43Z</time>
      </trkpt>
      <trkpt lat="46.42672" lon="5.30098">
        <ele>230.2</ele>
        <time>2022-02-22T13:44:44Z</time>
      </trkpt>
      <trkpt lat="46.42631" lon="5.30114">
        <ele>230.6</ele>
        <time>2022-02-22T13:44:52Z</time>
      </trkpt>
      <trkpt lat="46.42579" lon="5.30135">
        <ele>230.6</ele>
        <time>2022-02-22T13:45:02Z</time>
      </trkpt>
      <trkpt lat="46.42535" lon="5.30154">
        <ele>230.6</ele>
        <time>2022-02-22T13:45:10Z</time>
      </trkpt>
      <trkpt lat="46.42514" lon="5.30162">
        <ele>230.2</ele>
        <time>2022-02-22T13:45:14Z</time>
      </trkpt>
      <trkpt lat="46.42505" lon="5.30157">
        <ele>230</ele>
        <time>2022-02-22T13:45:16Z</time>
      </trkpt>
      <trkpt lat="46.42482" lon="5.30126">
        <ele>229.4</ele>
        <time>2022-02-22T13:45:21Z</time>
      </trkpt>
      <trkpt lat="46.42462" lon="5.30097">
        <ele>228.8</ele>
        <time>2022-02-22T13:45:25Z</time>
      </trkpt>
      <trkpt lat="46.42446" lon="5.30074">
        <ele>228.4</ele>
        <time>2022-02-22T13:45:28Z</time>
      </trkpt>
      <trkpt lat="46.4242" lon="5.30044">
        <ele>227.4</ele>
        <time>2022-02-22T13:45:32Z</time>
      </trkpt>
      <trkpt lat="46.42406" lon="5.3003">
        <ele>227</ele>
        <time>2022-02-22T13:45:34Z</time>
      </trkpt>
      <trkpt lat="46.42391" lon="5.30015">
        <ele>225.8</ele>
        <time>2022-02-22T13:45:36Z</time>
      </trkpt>
      <trkpt lat="46.42367" lon="5.29995">
        <ele>224.6</ele>
        <time>2022-02-22T13:45:39Z</time>
      </trkpt>
      <trkpt lat="46.42341" lon="5.29975">
        <ele>223.2</ele>
        <time>2022-02-22T13:45:42Z</time>
      </trkpt>
      <trkpt lat="46.42323" lon="5.29961">
        <ele>221.6</ele>
        <time>2022-02-22T13:45:44Z</time>
      </trkpt>
      <trkpt lat="46.42296" lon="5.29939">
        <ele>220.2</ele>
        <time>2022-02-22T13:45:47Z</time>
      </trkpt>
      <trkpt lat="46.42277" lon="5.29924">
        <ele>219</ele>
        <time>2022-02-22T13:45:49Z</time>
      </trkpt>
      <trkpt lat="46.42248" lon="5.29902">
        <ele>217</ele>
        <time>2022-02-22T13:45:52Z</time>
      </trkpt>
      <trkpt lat="46.42228" lon="5.29886">
        <ele>215.8</ele>
        <time>2022-02-22T13:45:54Z</time>
      </trkpt>
      <trkpt lat="46.42208" lon="5.29869">
        <ele>214.4</ele>
        <time>2022-02-22T13:45:56Z</time>
      </trkpt>
      <trkpt lat="46.42197" lon="5.29861">
        <ele>213.4</ele>
        <time>2022-02-22T13:45:57Z</time>
      </trkpt>
      <trkpt lat="46.42187" lon="5.29852">
        <ele>213</ele>
        <time>2022-02-22T13:45:58Z</time>
      </trkpt>
      <trkpt lat="46.42177" lon="5.29843">
        <ele>211.8</ele>
        <time>2022-02-22T13:45:59Z</time>
      </trkpt>
      <trkpt lat="46.42167" lon="5.29835">
        <ele>210.8</ele>
        <time>2022-02-22T13:46:00Z</time>
      </trkpt>
      <trkpt lat="46.42149" lon="5.29817">
        <ele>209.2</ele>
        <time>2022-02-22T13:46:02Z</time>
      </trkpt>
      <trkpt lat="46.42142" lon="5.29808">
        <ele>209</ele>
        <time>2022-02-22T13:46:03Z</time>
      </trkpt>
      <trkpt lat="46.42128" lon="5.29789">
        <ele>208</ele>
        <time>2022-02-22T13:46:05Z</time>
      </trkpt>
      <trkpt lat="46.42111" lon="5.29764">
        <ele>207.8</ele>
        <time>2022-02-22T13:46:08Z</time>
      </trkpt>
      <trkpt lat="46.42088" lon="5.29732">
        <ele>208.6</ele>
        <time>2022-02-22T13:46:13Z</time>
      </trkpt>
      <trkpt lat="46.42081" lon="5.29721">
        <ele>209.2</ele>
        <time>2022-02-22T13:46:15Z</time>
      </trkpt>
      <trkpt lat="46.42072" lon="5.29707">
        <ele>210.6</ele>
        <time>2022-02-22T13:46:18Z</time>
      </trkpt>
      <trkpt lat="46.42062" lon="5.29694">
        <ele>211.6</ele>
        <time>2022-02-22T13:46:21Z</time>
      </trkpt>
      <trkpt lat="46.42054" lon="5.29682">
        <ele>212.8</ele>
        <time>2022-02-22T13:46:24Z</time>
      </trkpt>
      <trkpt lat="46.4204" lon="5.29662">
        <ele>214.2</ele>
        <time>2022-02-22T13:46:29Z</time>
      </trkpt>
      <trkpt lat="46.4203" lon="5.29647">
        <ele>215.4</ele>
        <time>2022-02-22T13:46:33Z</time>
      </trkpt>
      <trkpt lat="46.42017" lon="5.29629">
        <ele>216.8</ele>
        <time>2022-02-22T13:46:38Z</time>
      </trkpt>
      <trkpt lat="46.42004" lon="5.29609">
        <ele>218</ele>
        <time>2022-02-22T13:46:43Z</time>
      </trkpt>
      <trkpt lat="46.42001" lon="5.29606">
        <ele>218.2</ele>
        <time>2022-02-22T13:46:44Z</time>
      </trkpt>
      <trkpt lat="46.41993" lon="5.29595">
        <ele>219.2</ele>
        <time>2022-02-22T13:46:47Z</time>
      </trkpt>
      <trkpt lat="46.41983" lon="5.29581">
        <ele>220.2</ele>
        <time>2022-02-22T13:46:51Z</time>
      </trkpt>
      <trkpt lat="46.41974" lon="5.29567">
        <ele>221</ele>
        <time>2022-02-22T13:46:55Z</time>
      </trkpt>
      <trkpt lat="46.41972" lon="5.29563">
        <ele>221.2</ele>
        <time>2022-02-22T13:46:56Z</time>
      </trkpt>
      <trkpt lat="46.41961" lon="5.29544">
        <ele>222.4</ele>
        <time>2022-02-22T13:47:01Z</time>
      </trkpt>
      <trkpt lat="46.41957" lon="5.29536">
        <ele>222.8</ele>
        <time>2022-02-22T13:47:03Z</time>
      </trkpt>
      <trkpt lat="46.41952" lon="5.29523">
        <ele>223.6</ele>
        <time>2022-02-22T13:47:06Z</time>
      </trkpt>
      <trkpt lat="46.41944" lon="5.295">
        <ele>224.6</ele>
        <time>2022-02-22T13:47:11Z</time>
      </trkpt>
      <trkpt lat="46.41937" lon="5.29478">
        <ele>225.8</ele>
        <time>2022-02-22T13:47:16Z</time>
      </trkpt>
      <trkpt lat="46.41934" lon="5.29465">
        <ele>226.6</ele>
        <time>2022-02-22T13:47:19Z</time>
      </trkpt>
      <trkpt lat="46.41933" lon="5.29461">
        <ele>226.8</ele>
        <time>2022-02-22T13:47:20Z</time>
      </trkpt>
      <trkpt lat="46.41931" lon="5.29451">
        <ele>227.6</ele>
        <time>2022-02-22T13:47:23Z</time>
      </trkpt>
      <trkpt lat="46.4193" lon="5.29449">
        <ele>227.6</ele>
        <time>2022-02-22T13:47:24Z</time>
      </trkpt>
      <trkpt lat="46.41925" lon="5.2945">
        <ele>227.8</ele>
        <time>2022-02-22T13:47:26Z</time>
      </trkpt>
      <trkpt lat="46.41922" lon="5.29451">
        <ele>227.8</ele>
        <time>2022-02-22T13:47:27Z</time>
      </trkpt>
      <trkpt lat="46.41911" lon="5.29458">
        <ele>228.2</ele>
        <time>2022-02-22T13:47:30Z</time>
      </trkpt>
      <trkpt lat="46.41879" lon="5.29464">
        <ele>228.8</ele>
        <time>2022-02-22T13:47:37Z</time>
      </trkpt>
      <trkpt lat="46.41859" lon="5.29468">
        <ele>229</ele>
        <time>2022-02-22T13:47:41Z</time>
      </trkpt>
      <trkpt lat="46.41847" lon="5.29471">
        <ele>229</ele>
        <time>2022-02-22T13:47:43Z</time>
      </trkpt>
      <trkpt lat="46.41834" lon="5.29475">
        <ele>228.8</ele>
        <time>2022-02-22T13:47:45Z</time>
      </trkpt>
      <trkpt lat="46.41814" lon="5.29484">
        <ele>228.4</ele>
        <time>2022-02-22T13:47:48Z</time>
      </trkpt>
      <trkpt lat="46.41794" lon="5.29494">
        <ele>227.8</ele>
        <time>2022-02-22T13:47:51Z</time>
      </trkpt>
      <trkpt lat="46.41772" lon="5.29501">
        <ele>227.2</ele>
        <time>2022-02-22T13:47:54Z</time>
      </trkpt>
      <trkpt lat="46.41756" lon="5.29501">
        <ele>227.2</ele>
        <time>2022-02-22T13:47:56Z</time>
      </trkpt>
      <trkpt lat="46.41733" lon="5.29499">
        <ele>226.4</ele>
        <time>2022-02-22T13:47:59Z</time>
      </trkpt>
      <trkpt lat="46.41712" lon="5.29495">
        <ele>226</ele>
        <time>2022-02-22T13:48:02Z</time>
      </trkpt>
      <trkpt lat="46.41699" lon="5.29496">
        <ele>225.8</ele>
        <time>2022-02-22T13:48:04Z</time>
      </trkpt>
      <trkpt lat="46.41693" lon="5.29497">
        <ele>225.8</ele>
        <time>2022-02-22T13:48:05Z</time>
      </trkpt>
      <trkpt lat="46.41675" lon="5.29507">
        <ele>225.8</ele>
        <time>2022-02-22T13:48:08Z</time>
      </trkpt>
      <trkpt lat="46.4167" lon="5.29511">
        <ele>225.8</ele>
        <time>2022-02-22T13:48:09Z</time>
      </trkpt>
      <trkpt lat="46.41661" lon="5.29523">
        <ele>225.8</ele>
        <time>2022-02-22T13:48:11Z</time>
      </trkpt>
      <trkpt lat="46.41658" lon="5.29529">
        <ele>225.8</ele>
        <time>2022-02-22T13:48:12Z</time>
      </trkpt>
      <trkpt lat="46.41655" lon="5.29537">
        <ele>225.8</ele>
        <time>2022-02-22T13:48:13Z</time>
      </trkpt>
      <trkpt lat="46.41644" lon="5.29568">
        <ele>226.2</ele>
        <time>2022-02-22T13:48:17Z</time>
      </trkpt>
      <trkpt lat="46.41627" lon="5.29594">
        <ele>226.6</ele>
        <time>2022-02-22T13:48:21Z</time>
      </trkpt>
      <trkpt lat="46.41596" lon="5.29613">
        <ele>226.2</ele>
        <time>2022-02-22T13:48:26Z</time>
      </trkpt>
      <trkpt lat="46.41552" lon="5.29627">
        <ele>225.8</ele>
        <time>2022-02-22T13:48:33Z</time>
      </trkpt>
      <trkpt lat="46.41516" lon="5.29634">
        <ele>226</ele>
        <time>2022-02-22T13:48:39Z</time>
      </trkpt>
      <trkpt lat="46.41463" lon="5.29639">
        <ele>226.6</ele>
        <time>2022-02-22T13:48:48Z</time>
      </trkpt>
      <trkpt lat="46.41414" lon="5.2965">
        <ele>226.8</ele>
        <time>2022-02-22T13:48:57Z</time>
      </trkpt>
      <trkpt lat="46.41378" lon="5.2966">
        <ele>227.6</ele>
        <time>2022-02-22T13:49:04Z</time>
      </trkpt>
      <trkpt lat="46.41367" lon="5.29663">
        <ele>227.8</ele>
        <time>2022-02-22T13:49:06Z</time>
      </trkpt>
      <trkpt lat="46.4132" lon="5.2968">
        <ele>228</ele>
        <time>2022-02-22T13:49:15Z</time>
      </trkpt>
      <trkpt lat="46.41315" lon="5.29684">
        <ele>227.8</ele>
        <time>2022-02-22T13:49:16Z</time>
      </trkpt>
      <trkpt lat="46.41297" lon="5.29705">
        <ele>227.6</ele>
        <time>2022-02-22T13:49:20Z</time>
      </trkpt>
      <trkpt lat="46.4129" lon="5.2972">
        <ele>227.6</ele>
        <time>2022-02-22T13:49:22Z</time>
      </trkpt>
      <trkpt lat="46.4128" lon="5.29741">
        <ele>227.6</ele>
        <time>2022-02-22T13:49:25Z</time>
      </trkpt>
      <trkpt lat="46.41277" lon="5.29748">
        <ele>227.6</ele>
        <time>2022-02-22T13:49:26Z</time>
      </trkpt>
      <trkpt lat="46.41273" lon="5.29765">
        <ele>227.6</ele>
        <time>2022-02-22T13:49:28Z</time>
      </trkpt>
      <trkpt lat="46.41271" lon="5.29811">
        <ele>227.6</ele>
        <time>2022-02-22T13:49:33Z</time>
      </trkpt>
      <trkpt lat="46.41275" lon="5.29866">
        <ele>227.2</ele>
        <time>2022-02-22T13:49:39Z</time>
      </trkpt>
      <trkpt lat="46.41272" lon="5.29884">
        <ele>227.2</ele>
        <time>2022-02-22T13:49:41Z</time>
      </trkpt>
      <trkpt lat="46.41267" lon="5.299">
        <ele>227.2</ele>
        <time>2022-02-22T13:49:43Z</time>
      </trkpt>
      <trkpt lat="46.4126" lon="5.29914">
        <ele>227.2</ele>
        <time>2022-02-22T13:49:45Z</time>
      </trkpt>
      <trkpt lat="46.4125" lon="5.29924">
        <ele>227.2</ele>
        <time>2022-02-22T13:49:47Z</time>
      </trkpt>
      <trkpt lat="46.41226" lon="5.29941">
        <ele>228</ele>
        <time>2022-02-22T13:49:52Z</time>
      </trkpt>
      <trkpt lat="46.41203" lon="5.29957">
        <ele>229.4</ele>
        <time>2022-02-22T13:49:57Z</time>
      </trkpt>
      <trkpt lat="46.41199" lon="5.2996">
        <ele>229.8</ele>
        <time>2022-02-22T13:49:58Z</time>
      </trkpt>
      <trkpt lat="46.41176" lon="5.2997">
        <ele>230.4</ele>
        <time>2022-02-22T13:50:03Z</time>
      </trkpt>
      <trkpt lat="46.41166" lon="5.29972">
        <ele>230.8</ele>
        <time>2022-02-22T13:50:05Z</time>
      </trkpt>
      <trkpt lat="46.41113" lon="5.29979">
        <ele>230.8</ele>
        <time>2022-02-22T13:50:14Z</time>
      </trkpt>
      <trkpt lat="46.41067" lon="5.29986">
        <ele>230.4</ele>
        <time>2022-02-22T13:50:21Z</time>
      </trkpt>
      <trkpt lat="46.4102" lon="5.29991">
        <ele>230.4</ele>
        <time>2022-02-22T13:50:29Z</time>
      </trkpt>
      <trkpt lat="46.40979" lon="5.29996">
        <ele>230.4</ele>
        <time>2022-02-22T13:50:36Z</time>
      </trkpt>
      <trkpt lat="46.40973" lon="5.29996">
        <ele>230.4</ele>
        <time>2022-02-22T13:50:37Z</time>
      </trkpt>
      <trkpt lat="46.40925" lon="5.29993">
        <ele>230.4</ele>
        <time>2022-02-22T13:50:45Z</time>
      </trkpt>
      <trkpt lat="46.40873" lon="5.29991">
        <ele>230.6</ele>
        <time>2022-02-22T13:50:54Z</time>
      </trkpt>
      <trkpt lat="46.40868" lon="5.29991">
        <ele>230.6</ele>
        <time>2022-02-22T13:50:55Z</time>
      </trkpt>
      <trkpt lat="46.4085" lon="5.29987">
        <ele>230.8</ele>
        <time>2022-02-22T13:50:58Z</time>
      </trkpt>
      <trkpt lat="46.40826" lon="5.29977">
        <ele>231</ele>
        <time>2022-02-22T13:51:02Z</time>
      </trkpt>
      <trkpt lat="46.40814" lon="5.29972">
        <ele>231</ele>
        <time>2022-02-22T13:51:04Z</time>
      </trkpt>
      <trkpt lat="46.40808" lon="5.2997">
        <ele>231.4</ele>
        <time>2022-02-22T13:51:05Z</time>
      </trkpt>
      <trkpt lat="46.40789" lon="5.29963">
        <ele>231.4</ele>
        <time>2022-02-22T13:51:08Z</time>
      </trkpt>
      <trkpt lat="46.40783" lon="5.29961">
        <ele>231.4</ele>
        <time>2022-02-22T13:51:09Z</time>
      </trkpt>
      <trkpt lat="46.40741" lon="5.29944">
        <ele>231.4</ele>
        <time>2022-02-22T13:51:16Z</time>
      </trkpt>
      <trkpt lat="46.40729" lon="5.29939">
        <ele>231</ele>
        <time>2022-02-22T13:51:18Z</time>
      </trkpt>
      <trkpt lat="46.40712" lon="5.29932">
        <ele>231.2</ele>
        <time>2022-02-22T13:51:21Z</time>
      </trkpt>
      <trkpt lat="46.40696" lon="5.29922">
        <ele>231</ele>
        <time>2022-02-22T13:51:24Z</time>
      </trkpt>
      <trkpt lat="46.4068" lon="5.29909">
        <ele>231</ele>
        <time>2022-02-22T13:51:27Z</time>
      </trkpt>
      <trkpt lat="46.40646" lon="5.29877">
        <ele>231</ele>
        <time>2022-02-22T13:51:34Z</time>
      </trkpt>
      <trkpt lat="46.40637" lon="5.29866">
        <ele>231.4</ele>
        <time>2022-02-22T13:51:36Z</time>
      </trkpt>
      <trkpt lat="46.40623" lon="5.29851">
        <ele>231.6</ele>
        <time>2022-02-22T13:51:39Z</time>
      </trkpt>
      <trkpt lat="46.40618" lon="5.29846">
        <ele>232</ele>
        <time>2022-02-22T13:51:40Z</time>
      </trkpt>
      <trkpt lat="46.40604" lon="5.29834">
        <ele>232.2</ele>
        <time>2022-02-22T13:51:43Z</time>
      </trkpt>
      <trkpt lat="46.40599" lon="5.2983">
        <ele>232.4</ele>
        <time>2022-02-22T13:51:44Z</time>
      </trkpt>
      <trkpt lat="46.40587" lon="5.29826">
        <ele>232.4</ele>
        <time>2022-02-22T13:51:46Z</time>
      </trkpt>
      <trkpt lat="46.40581" lon="5.29824">
        <ele>232.4</ele>
        <time>2022-02-22T13:51:47Z</time>
      </trkpt>
      <trkpt lat="46.40538" lon="5.2982">
        <ele>232.4</ele>
        <time>2022-02-22T13:51:54Z</time>
      </trkpt>
      <trkpt lat="46.40526" lon="5.2982">
        <ele>232.6</ele>
        <time>2022-02-22T13:51:56Z</time>
      </trkpt>
      <trkpt lat="46.40483" lon="5.29816">
        <ele>232.6</ele>
        <time>2022-02-22T13:52:03Z</time>
      </trkpt>
      <trkpt lat="46.40424" lon="5.29811">
        <ele>232.4</ele>
        <time>2022-02-22T13:52:13Z</time>
      </trkpt>
      <trkpt lat="46.4037" lon="5.29803">
        <ele>232.6</ele>
        <time>2022-02-22T13:52:22Z</time>
      </trkpt>
      <trkpt lat="46.40358" lon="5.29802">
        <ele>232.6</ele>
        <time>2022-02-22T13:52:24Z</time>
      </trkpt>
      <trkpt lat="46.40299" lon="5.29795">
        <ele>232.4</ele>
        <time>2022-02-22T13:52:34Z</time>
      </trkpt>
      <trkpt lat="46.40294" lon="5.29794">
        <ele>232.4</ele>
        <time>2022-02-22T13:52:35Z</time>
      </trkpt>
      <trkpt lat="46.40242" lon="5.29788">
        <ele>232</ele>
        <time>2022-02-22T13:52:44Z</time>
      </trkpt>
      <trkpt lat="46.40231" lon="5.29786">
        <ele>231.6</ele>
        <time>2022-02-22T13:52:46Z</time>
      </trkpt>
      <trkpt lat="46.4021" lon="5.29783">
        <ele>231.6</ele>
        <time>2022-02-22T13:52:50Z</time>
      </trkpt>
      <trkpt lat="46.40185" lon="5.2978">
        <ele>231.6</ele>
        <time>2022-02-22T13:52:55Z</time>
      </trkpt>
      <trkpt lat="46.4018" lon="5.29779">
        <ele>231.6</ele>
        <time>2022-02-22T13:52:56Z</time>
      </trkpt>
      <trkpt lat="46.40144" lon="5.29779">
        <ele>232</ele>
        <time>2022-02-22T13:53:02Z</time>
      </trkpt>
      <trkpt lat="46.40099" lon="5.29785">
        <ele>232.8</ele>
        <time>2022-02-22T13:53:10Z</time>
      </trkpt>
      <trkpt lat="46.40047" lon="5.29792">
        <ele>232.4</ele>
        <time>2022-02-22T13:53:19Z</time>
      </trkpt>
      <trkpt lat="46.39992" lon="5.29799">
        <ele>231.8</ele>
        <time>2022-02-22T13:53:28Z</time>
      </trkpt>
      <trkpt lat="46.39985" lon="5.298">
        <ele>231.8</ele>
        <time>2022-02-22T13:53:29Z</time>
      </trkpt>
      <trkpt lat="46.39966" lon="5.29802">
        <ele>231.4</ele>
        <time>2022-02-22T13:53:32Z</time>
      </trkpt>
      <trkpt lat="46.39931" lon="5.29806">
        <ele>230.8</ele>
        <time>2022-02-22T13:53:37Z</time>
      </trkpt>
      <trkpt lat="46.39915" lon="5.29809">
        <ele>230.4</ele>
        <time>2022-02-22T13:53:39Z</time>
      </trkpt>
      <trkpt lat="46.3989" lon="5.29813">
        <ele>229.2</ele>
        <time>2022-02-22T13:53:42Z</time>
      </trkpt>
      <trkpt lat="46.39882" lon="5.29814">
        <ele>229</ele>
        <time>2022-02-22T13:53:43Z</time>
      </trkpt>
      <trkpt lat="46.39857" lon="5.29815">
        <ele>228</ele>
        <time>2022-02-22T13:53:46Z</time>
      </trkpt>
      <trkpt lat="46.39838" lon="5.29814">
        <ele>227.6</ele>
        <time>2022-02-22T13:53:48Z</time>
      </trkpt>
      <trkpt lat="46.39828" lon="5.29815">
        <ele>226.8</ele>
        <time>2022-02-22T13:53:49Z</time>
      </trkpt>
      <trkpt lat="46.39797" lon="5.29819">
        <ele>225.6</ele>
        <time>2022-02-22T13:53:52Z</time>
      </trkpt>
      <trkpt lat="46.39786" lon="5.29821">
        <ele>224.4</ele>
        <time>2022-02-22T13:53:53Z</time>
      </trkpt>
      <trkpt lat="46.39764" lon="5.29825">
        <ele>222.8</ele>
        <time>2022-02-22T13:53:55Z</time>
      </trkpt>
      <trkpt lat="46.39727" lon="5.29828">
        <ele>221.2</ele>
        <time>2022-02-22T13:53:58Z</time>
      </trkpt>
      <trkpt lat="46.39702" lon="5.29829">
        <ele>218.4</ele>
        <time>2022-02-22T13:54:00Z</time>
      </trkpt>
      <trkpt lat="46.39676" lon="5.29827">
        <ele>216.6</ele>
        <time>2022-02-22T13:54:02Z</time>
      </trkpt>
      <trkpt lat="46.39663" lon="5.29822">
        <ele>216</ele>
        <time>2022-02-22T13:54:03Z</time>
      </trkpt>
      <trkpt lat="46.39652" lon="5.29813">
        <ele>215</ele>
        <time>2022-02-22T13:54:04Z</time>
      </trkpt>
      <trkpt lat="46.39642" lon="5.29801">
        <ele>213.8</ele>
        <time>2022-02-22T13:54:05Z</time>
      </trkpt>
      <trkpt lat="46.39623" lon="5.29775">
        <ele>211</ele>
        <time>2022-02-22T13:54:07Z</time>
      </trkpt>
      <trkpt lat="46.39606" lon="5.29749">
        <ele>209</ele>
        <time>2022-02-22T13:54:09Z</time>
      </trkpt>
      <trkpt lat="46.39597" lon="5.29738">
        <ele>208.6</ele>
        <time>2022-02-22T13:54:10Z</time>
      </trkpt>
      <trkpt lat="46.39588" lon="5.29729">
        <ele>208</ele>
        <time>2022-02-22T13:54:11Z</time>
      </trkpt>
      <trkpt lat="46.39579" lon="5.29722">
        <ele>207.4</ele>
        <time>2022-02-22T13:54:12Z</time>
      </trkpt>
      <trkpt lat="46.39569" lon="5.29718">
        <ele>207</ele>
        <time>2022-02-22T13:54:13Z</time>
      </trkpt>
      <trkpt lat="46.3956" lon="5.29715">
        <ele>206.2</ele>
        <time>2022-02-22T13:54:14Z</time>
      </trkpt>
      <trkpt lat="46.3955" lon="5.29715">
        <ele>206</ele>
        <time>2022-02-22T13:54:15Z</time>
      </trkpt>
      <trkpt lat="46.39541" lon="5.29715">
        <ele>205.4</ele>
        <time>2022-02-22T13:54:16Z</time>
      </trkpt>
      <trkpt lat="46.39501" lon="5.29713">
        <ele>205.2</ele>
        <time>2022-02-22T13:54:21Z</time>
      </trkpt>
      <trkpt lat="46.39464" lon="5.29709">
        <ele>206.2</ele>
        <time>2022-02-22T13:54:27Z</time>
      </trkpt>
      <trkpt lat="46.39453" lon="5.29708">
        <ele>207</ele>
        <time>2022-02-22T13:54:29Z</time>
      </trkpt>
      <trkpt lat="46.39435" lon="5.29707">
        <ele>207.8</ele>
        <time>2022-02-22T13:54:33Z</time>
      </trkpt>
      <trkpt lat="46.39431" lon="5.29708">
        <ele>208.2</ele>
        <time>2022-02-22T13:54:34Z</time>
      </trkpt>
      <trkpt lat="46.39423" lon="5.29711">
        <ele>208.8</ele>
        <time>2022-02-22T13:54:36Z</time>
      </trkpt>
      <trkpt lat="46.39416" lon="5.29717">
        <ele>209.2</ele>
        <time>2022-02-22T13:54:38Z</time>
      </trkpt>
      <trkpt lat="46.39413" lon="5.2972">
        <ele>209.6</ele>
        <time>2022-02-22T13:54:39Z</time>
      </trkpt>
      <trkpt lat="46.39401" lon="5.29733">
        <ele>210.6</ele>
        <time>2022-02-22T13:54:43Z</time>
      </trkpt>
      <trkpt lat="46.39393" lon="5.29743">
        <ele>211.8</ele>
        <time>2022-02-22T13:54:46Z</time>
      </trkpt>
      <trkpt lat="46.39386" lon="5.2975">
        <ele>212.4</ele>
        <time>2022-02-22T13:54:49Z</time>
      </trkpt>
      <trkpt lat="46.39383" lon="5.29753">
        <ele>213</ele>
        <time>2022-02-22T13:54:50Z</time>
      </trkpt>
      <trkpt lat="46.3937" lon="5.29769">
        <ele>214.2</ele>
        <time>2022-02-22T13:54:55Z</time>
      </trkpt>
      <trkpt lat="46.39367" lon="5.29773">
        <ele>214.6</ele>
        <time>2022-02-22T13:54:56Z</time>
      </trkpt>
      <trkpt lat="46.3936" lon="5.29787">
        <ele>215.4</ele>
        <time>2022-02-22T13:54:59Z</time>
      </trkpt>
      <trkpt lat="46.39352" lon="5.29807">
        <ele>216.2</ele>
        <time>2022-02-22T13:55:03Z</time>
      </trkpt>
      <trkpt lat="46.39351" lon="5.29812">
        <ele>216.4</ele>
        <time>2022-02-22T13:55:04Z</time>
      </trkpt>
      <trkpt lat="46.39342" lon="5.29843">
        <ele>217.6</ele>
        <time>2022-02-22T13:55:10Z</time>
      </trkpt>
      <trkpt lat="46.39337" lon="5.29853">
        <ele>217.8</ele>
        <time>2022-02-22T13:55:12Z</time>
      </trkpt>
      <trkpt lat="46.39328" lon="5.2987">
        <ele>218.6</ele>
        <time>2022-02-22T13:55:16Z</time>
      </trkpt>
      <trkpt lat="46.39311" lon="5.29894">
        <ele>219.6</ele>
        <time>2022-02-22T13:55:22Z</time>
      </trkpt>
      <trkpt lat="46.39308" lon="5.29897">
        <ele>219.6</ele>
        <time>2022-02-22T13:55:23Z</time>
      </trkpt>
      <trkpt lat="46.39289" lon="5.29906">
        <ele>220.2</ele>
        <time>2022-02-22T13:55:28Z</time>
      </trkpt>
      <trkpt lat="46.39276" lon="5.2991">
        <ele>220.8</ele>
        <time>2022-02-22T13:55:31Z</time>
      </trkpt>
      <trkpt lat="46.3926" lon="5.29914">
        <ele>221</ele>
        <time>2022-02-22T13:55:34Z</time>
      </trkpt>
      <trkpt lat="46.3922" lon="5.29925">
        <ele>220.6</ele>
        <time>2022-02-22T13:55:41Z</time>
      </trkpt>
      <trkpt lat="46.39182" lon="5.29933">
        <ele>219.8</ele>
        <time>2022-02-22T13:55:47Z</time>
      </trkpt>
      <trkpt lat="46.39174" lon="5.29934">
        <ele>219.6</ele>
        <time>2022-02-22T13:55:48Z</time>
      </trkpt>
      <trkpt lat="46.39167" lon="5.29934">
        <ele>219.6</ele>
        <time>2022-02-22T13:55:49Z</time>
      </trkpt>
      <trkpt lat="46.39153" lon="5.2993">
        <ele>219.6</ele>
        <time>2022-02-22T13:55:51Z</time>
      </trkpt>
      <trkpt lat="46.39145" lon="5.29927">
        <ele>219.2</ele>
        <time>2022-02-22T13:55:52Z</time>
      </trkpt>
      <trkpt lat="46.39132" lon="5.29917">
        <ele>218.8</ele>
        <time>2022-02-22T13:55:54Z</time>
      </trkpt>
      <trkpt lat="46.39125" lon="5.29912">
        <ele>218.6</ele>
        <time>2022-02-22T13:55:55Z</time>
      </trkpt>
      <trkpt lat="46.39103" lon="5.29894">
        <ele>217.4</ele>
        <time>2022-02-22T13:55:58Z</time>
      </trkpt>
      <trkpt lat="46.39085" lon="5.29882">
        <ele>216.8</ele>
        <time>2022-02-22T13:56:00Z</time>
      </trkpt>
      <trkpt lat="46.39078" lon="5.29879">
        <ele>216.2</ele>
        <time>2022-02-22T13:56:01Z</time>
      </trkpt>
      <trkpt lat="46.3905" lon="5.29868">
        <ele>214.6</ele>
        <time>2022-02-22T13:56:04Z</time>
      </trkpt>
      <trkpt lat="46.39029" lon="5.29863">
        <ele>213.8</ele>
        <time>2022-02-22T13:56:06Z</time>
      </trkpt>
      <trkpt lat="46.39019" lon="5.2986">
        <ele>213.2</ele>
        <time>2022-02-22T13:56:07Z</time>
      </trkpt>
      <trkpt lat="46.38997" lon="5.29857">
        <ele>211.6</ele>
        <time>2022-02-22T13:56:09Z</time>
      </trkpt>
      <trkpt lat="46.38974" lon="5.29856">
        <ele>210.4</ele>
        <time>2022-02-22T13:56:11Z</time>
      </trkpt>
      <trkpt lat="46.38963" lon="5.29856">
        <ele>209.2</ele>
        <time>2022-02-22T13:56:12Z</time>
      </trkpt>
      <trkpt lat="46.38942" lon="5.29855">
        <ele>208</ele>
        <time>2022-02-22T13:56:14Z</time>
      </trkpt>
      <trkpt lat="46.38931" lon="5.29855">
        <ele>206.8</ele>
        <time>2022-02-22T13:56:15Z</time>
      </trkpt>
      <trkpt lat="46.38912" lon="5.29854">
        <ele>205.6</ele>
        <time>2022-02-22T13:56:17Z</time>
      </trkpt>
      <trkpt lat="46.38884" lon="5.29853">
        <ele>204.6</ele>
        <time>2022-02-22T13:56:20Z</time>
      </trkpt>
      <trkpt lat="46.38858" lon="5.29852">
        <ele>204.2</ele>
        <time>2022-02-22T13:56:23Z</time>
      </trkpt>
      <trkpt lat="46.38804" lon="5.29851">
        <ele>203.6</ele>
        <time>2022-02-22T13:56:30Z</time>
      </trkpt>
      <trkpt lat="46.38761" lon="5.2985">
        <ele>203.2</ele>
        <time>2022-02-22T13:56:36Z</time>
      </trkpt>
      <trkpt lat="46.38749" lon="5.29845">
        <ele>203.2</ele>
        <time>2022-02-22T13:56:38Z</time>
      </trkpt>
      <trkpt lat="46.38747" lon="5.29837">
        <ele>203.2</ele>
        <time>2022-02-22T13:56:39Z</time>
      </trkpt>
      <trkpt lat="46.38749" lon="5.2982">
        <ele>203.2</ele>
        <time>2022-02-22T13:56:41Z</time>
      </trkpt>
      <trkpt lat="46.38761" lon="5.2978">
        <ele>203</ele>
        <time>2022-02-22T13:56:46Z</time>
      </trkpt>
      <trkpt lat="46.38762" lon="5.29771">
        <ele>203</ele>
        <time>2022-02-22T13:56:47Z</time>
      </trkpt>
      <trkpt lat="46.38763" lon="5.29762">
        <ele>203</ele>
        <time>2022-02-22T13:56:48Z</time>
      </trkpt>
      <trkpt lat="46.3876" lon="5.29736">
        <ele>203</ele>
        <time>2022-02-22T13:56:51Z</time>
      </trkpt>
      <trkpt lat="46.38753" lon="5.29722">
        <ele>203</ele>
        <time>2022-02-22T13:56:53Z</time>
      </trkpt>
      <trkpt lat="46.38748" lon="5.29716">
        <ele>203.2</ele>
        <time>2022-02-22T13:56:54Z</time>
      </trkpt>
      <trkpt lat="46.38739" lon="5.29705">
        <ele>203.2</ele>
        <time>2022-02-22T13:56:56Z</time>
      </trkpt>
      <trkpt lat="46.38729" lon="5.29697">
        <ele>203.4</ele>
        <time>2022-02-22T13:56:58Z</time>
      </trkpt>
      <trkpt lat="46.38709" lon="5.2968">
        <ele>204.2</ele>
        <time>2022-02-22T13:57:03Z</time>
      </trkpt>
      <trkpt lat="46.38702" lon="5.29674">
        <ele>204.6</ele>
        <time>2022-02-22T13:57:05Z</time>
      </trkpt>
      <trkpt lat="46.3869" lon="5.2966">
        <ele>205.6</ele>
        <time>2022-02-22T13:57:09Z</time>
      </trkpt>
      <trkpt lat="46.38688" lon="5.29656">
        <ele>206</ele>
        <time>2022-02-22T13:57:10Z</time>
      </trkpt>
      <trkpt lat="46.38682" lon="5.29638">
        <ele>207</ele>
        <time>2022-02-22T13:57:14Z</time>
      </trkpt>
      <trkpt lat="46.38682" lon="5.29633">
        <ele>207.2</ele>
        <time>2022-02-22T13:57:15Z</time>
      </trkpt>
      <trkpt lat="46.38681" lon="5.29617">
        <ele>208</ele>
        <time>2022-02-22T13:57:18Z</time>
      </trkpt>
      <trkpt lat="46.38679" lon="5.29592">
        <ele>209.2</ele>
        <time>2022-02-22T13:57:23Z</time>
      </trkpt>
      <trkpt lat="46.38679" lon="5.29583">
        <ele>209.6</ele>
        <time>2022-02-22T13:57:25Z</time>
      </trkpt>
      <trkpt lat="46.38678" lon="5.29569">
        <ele>210.4</ele>
        <time>2022-02-22T13:57:28Z</time>
      </trkpt>
      <trkpt lat="46.38676" lon="5.29544">
        <ele>211.6</ele>
        <time>2022-02-22T13:57:33Z</time>
      </trkpt>
      <trkpt lat="46.38676" lon="5.29539">
        <ele>211.8</ele>
        <time>2022-02-22T13:57:34Z</time>
      </trkpt>
      <trkpt lat="46.38677" lon="5.29509">
        <ele>213</ele>
        <time>2022-02-22T13:57:40Z</time>
      </trkpt>
      <trkpt lat="46.38678" lon="5.29495">
        <ele>213.6</ele>
        <time>2022-02-22T13:57:43Z</time>
      </trkpt>
      <trkpt lat="46.38679" lon="5.29486">
        <ele>214</ele>
        <time>2022-02-22T13:57:45Z</time>
      </trkpt>
      <trkpt lat="46.38681" lon="5.29468">
        <ele>215.2</ele>
        <time>2022-02-22T13:57:49Z</time>
      </trkpt>
      <trkpt lat="46.38682" lon="5.29455">
        <ele>215.8</ele>
        <time>2022-02-22T13:57:52Z</time>
      </trkpt>
      <trkpt lat="46.38683" lon="5.29441">
        <ele>216.2</ele>
        <time>2022-02-22T13:57:55Z</time>
      </trkpt>
      <trkpt lat="46.38685" lon="5.29423">
        <ele>217.4</ele>
        <time>2022-02-22T13:57:59Z</time>
      </trkpt>
      <trkpt lat="46.38686" lon="5.29405">
        <ele>218.2</ele>
        <time>2022-02-22T13:58:03Z</time>
      </trkpt>
      <trkpt lat="46.38685" lon="5.294">
        <ele>218.4</ele>
        <time>2022-02-22T13:58:04Z</time>
      </trkpt>
      <trkpt lat="46.38685" lon="5.29377">
        <ele>219.6</ele>
        <time>2022-02-22T13:58:09Z</time>
      </trkpt>
      <trkpt lat="46.38685" lon="5.29363">
        <ele>220</ele>
        <time>2022-02-22T13:58:12Z</time>
      </trkpt>
      <trkpt lat="46.38684" lon="5.29343">
        <ele>220.8</ele>
        <time>2022-02-22T13:58:16Z</time>
      </trkpt>
      <trkpt lat="46.38684" lon="5.29338">
        <ele>221</ele>
        <time>2022-02-22T13:58:17Z</time>
      </trkpt>
      <trkpt lat="46.38682" lon="5.29322">
        <ele>221.8</ele>
        <time>2022-02-22T13:58:21Z</time>
      </trkpt>
      <trkpt lat="46.38681" lon="5.29318">
        <ele>222</ele>
        <time>2022-02-22T13:58:22Z</time>
      </trkpt>
      <trkpt lat="46.38681" lon="5.29311">
        <ele>222</ele>
        <time>2022-02-22T13:58:26Z</time>
      </trkpt>
      <trkpt lat="46.38681" lon="5.2931">
        <ele>222</ele>
        <time>2022-02-22T13:58:27Z</time>
      </trkpt>
      <trkpt lat="46.38681" lon="5.2931">
        <ele>222</ele>
        <time>2022-02-22T13:58:29Z</time>
      </trkpt>
      <trkpt lat="46.38674" lon="5.29309">
        <ele>221.8</ele>
        <time>2022-02-22T13:58:52Z</time>
      </trkpt>
      <trkpt lat="46.38671" lon="5.29307">
        <ele>221.8</ele>
        <time>2022-02-22T13:58:53Z</time>
      </trkpt>
      <trkpt lat="46.38653" lon="5.29298">
        <ele>221.8</ele>
        <time>2022-02-22T13:58:57Z</time>
      </trkpt>
      <trkpt lat="46.38623" lon="5.29296">
        <ele>221.4</ele>
        <time>2022-02-22T13:59:01Z</time>
      </trkpt>
      <trkpt lat="46.38614" lon="5.29296">
        <ele>220.8</ele>
        <time>2022-02-22T13:59:02Z</time>
      </trkpt>
      <trkpt lat="46.38595" lon="5.29295">
        <ele>219.6</ele>
        <time>2022-02-22T13:59:04Z</time>
      </trkpt>
      <trkpt lat="46.38584" lon="5.29293">
        <ele>219.2</ele>
        <time>2022-02-22T13:59:05Z</time>
      </trkpt>
      <trkpt lat="46.38573" lon="5.29289">
        <ele>218.2</ele>
        <time>2022-02-22T13:59:06Z</time>
      </trkpt>
      <trkpt lat="46.38562" lon="5.29283">
        <ele>217.2</ele>
        <time>2022-02-22T13:59:07Z</time>
      </trkpt>
      <trkpt lat="46.38552" lon="5.29275">
        <ele>216.6</ele>
        <time>2022-02-22T13:59:08Z</time>
      </trkpt>
      <trkpt lat="46.38543" lon="5.29266">
        <ele>215.6</ele>
        <time>2022-02-22T13:59:09Z</time>
      </trkpt>
      <trkpt lat="46.38526" lon="5.29249">
        <ele>214</ele>
        <time>2022-02-22T13:59:11Z</time>
      </trkpt>
      <trkpt lat="46.38517" lon="5.29245">
        <ele>213.4</ele>
        <time>2022-02-22T13:59:12Z</time>
      </trkpt>
      <trkpt lat="46.38509" lon="5.29247">
        <ele>212.4</ele>
        <time>2022-02-22T13:59:13Z</time>
      </trkpt>
      <trkpt lat="46.38501" lon="5.29255">
        <ele>211.4</ele>
        <time>2022-02-22T13:59:14Z</time>
      </trkpt>
      <trkpt lat="46.38494" lon="5.29265">
        <ele>209.8</ele>
        <time>2022-02-22T13:59:15Z</time>
      </trkpt>
      <trkpt lat="46.38483" lon="5.29287">
        <ele>208.4</ele>
        <time>2022-02-22T13:59:17Z</time>
      </trkpt>
      <trkpt lat="46.38477" lon="5.29297">
        <ele>207.6</ele>
        <time>2022-02-22T13:59:18Z</time>
      </trkpt>
      <trkpt lat="46.38461" lon="5.29309">
        <ele>206.8</ele>
        <time>2022-02-22T13:59:20Z</time>
      </trkpt>
      <trkpt lat="46.38443" lon="5.29303">
        <ele>206.6</ele>
        <time>2022-02-22T13:59:22Z</time>
      </trkpt>
      <trkpt lat="46.38431" lon="5.29288">
        <ele>206.2</ele>
        <time>2022-02-22T13:59:24Z</time>
      </trkpt>
      <trkpt lat="46.38413" lon="5.29261">
        <ele>205.8</ele>
        <time>2022-02-22T13:59:27Z</time>
      </trkpt>
      <trkpt lat="46.38401" lon="5.29245">
        <ele>205.8</ele>
        <time>2022-02-22T13:59:29Z</time>
      </trkpt>
      <trkpt lat="46.38393" lon="5.29236">
        <ele>205.6</ele>
        <time>2022-02-22T13:59:30Z</time>
      </trkpt>
      <trkpt lat="46.38344" lon="5.29202">
        <ele>205.2</ele>
        <time>2022-02-22T13:59:37Z</time>
      </trkpt>
      <trkpt lat="46.383" lon="5.29175">
        <ele>205</ele>
        <time>2022-02-22T13:59:43Z</time>
      </trkpt>
      <trkpt lat="46.38287" lon="5.29171">
        <ele>205</ele>
        <time>2022-02-22T13:59:45Z</time>
      </trkpt>
      <trkpt lat="46.38271" lon="5.29172">
        <ele>204.8</ele>
        <time>2022-02-22T13:59:47Z</time>
      </trkpt>
      <trkpt lat="46.38257" lon="5.29177">
        <ele>204.8</ele>
        <time>2022-02-22T13:59:49Z</time>
      </trkpt>
      <trkpt lat="46.38246" lon="5.29184">
        <ele>204.8</ele>
        <time>2022-02-22T13:59:51Z</time>
      </trkpt>
      <trkpt lat="46.38208" lon="5.29206">
        <ele>204.8</ele>
        <time>2022-02-22T13:59:57Z</time>
      </trkpt>
      <trkpt lat="46.38196" lon="5.29212">
        <ele>204.8</ele>
        <time>2022-02-22T13:59:59Z</time>
      </trkpt>
      <trkpt lat="46.38185" lon="5.29221">
        <ele>204.8</ele>
        <time>2022-02-22T14:00:01Z</time>
      </trkpt>
      <trkpt lat="46.3818" lon="5.29227">
        <ele>204.8</ele>
        <time>2022-02-22T14:00:02Z</time>
      </trkpt>
      <trkpt lat="46.38169" lon="5.2924">
        <ele>205</ele>
        <time>2022-02-22T14:00:04Z</time>
      </trkpt>
      <trkpt lat="46.3815" lon="5.29253">
        <ele>205</ele>
        <time>2022-02-22T14:00:07Z</time>
      </trkpt>
      <trkpt lat="46.38124" lon="5.29256">
        <ele>205.2</ele>
        <time>2022-02-22T14:00:11Z</time>
      </trkpt>
      <trkpt lat="46.38103" lon="5.29255">
        <ele>205.2</ele>
        <time>2022-02-22T14:00:14Z</time>
      </trkpt>
      <trkpt lat="46.38091" lon="5.29257">
        <ele>205.4</ele>
        <time>2022-02-22T14:00:16Z</time>
      </trkpt>
      <trkpt lat="46.38074" lon="5.29264">
        <ele>206</ele>
        <time>2022-02-22T14:00:19Z</time>
      </trkpt>
      <trkpt lat="46.38064" lon="5.29271">
        <ele>206.2</ele>
        <time>2022-02-22T14:00:21Z</time>
      </trkpt>
      <trkpt lat="46.38048" lon="5.29282">
        <ele>207</ele>
        <time>2022-02-22T14:00:25Z</time>
      </trkpt>
      <trkpt lat="46.38041" lon="5.29288">
        <ele>207.8</ele>
        <time>2022-02-22T14:00:27Z</time>
      </trkpt>
      <trkpt lat="46.38038" lon="5.29291">
        <ele>208</ele>
        <time>2022-02-22T14:00:28Z</time>
      </trkpt>
      <trkpt lat="46.38029" lon="5.29301">
        <ele>209.2</ele>
        <time>2022-02-22T14:00:31Z</time>
      </trkpt>
      <trkpt lat="46.38018" lon="5.29314">
        <ele>210.4</ele>
        <time>2022-02-22T14:00:35Z</time>
      </trkpt>
      <trkpt lat="46.38015" lon="5.29317">
        <ele>211</ele>
        <time>2022-02-22T14:00:36Z</time>
      </trkpt>
      <trkpt lat="46.38009" lon="5.29324">
        <ele>211.8</ele>
        <time>2022-02-22T14:00:38Z</time>
      </trkpt>
      <trkpt lat="46.38005" lon="5.29327">
        <ele>212</ele>
        <time>2022-02-22T14:00:39Z</time>
      </trkpt>
      <trkpt lat="46.37994" lon="5.29336">
        <ele>212.8</ele>
        <time>2022-02-22T14:00:42Z</time>
      </trkpt>
      <trkpt lat="46.3799" lon="5.29338">
        <ele>213</ele>
        <time>2022-02-22T14:00:43Z</time>
      </trkpt>
      <trkpt lat="46.37971" lon="5.29347">
        <ele>213.8</ele>
        <time>2022-02-22T14:00:48Z</time>
      </trkpt>
      <trkpt lat="46.37961" lon="5.29351">
        <ele>214.4</ele>
        <time>2022-02-22T14:00:51Z</time>
      </trkpt>
      <trkpt lat="46.37954" lon="5.29353">
        <ele>215</ele>
        <time>2022-02-22T14:00:53Z</time>
      </trkpt>
      <trkpt lat="46.37938" lon="5.29357">
        <ele>216</ele>
        <time>2022-02-22T14:00:58Z</time>
      </trkpt>
      <trkpt lat="46.37925" lon="5.29361">
        <ele>217</ele>
        <time>2022-02-22T14:01:02Z</time>
      </trkpt>
      <trkpt lat="46.37915" lon="5.29363">
        <ele>217.6</ele>
        <time>2022-02-22T14:01:05Z</time>
      </trkpt>
      <trkpt lat="46.37904" lon="5.29367">
        <ele>218.2</ele>
        <time>2022-02-22T14:01:08Z</time>
      </trkpt>
      <trkpt lat="46.37887" lon="5.29373">
        <ele>219.2</ele>
        <time>2022-02-22T14:01:13Z</time>
      </trkpt>
      <trkpt lat="46.3788" lon="5.29376">
        <ele>219.8</ele>
        <time>2022-02-22T14:01:15Z</time>
      </trkpt>
      <trkpt lat="46.37864" lon="5.29382">
        <ele>220.6</ele>
        <time>2022-02-22T14:01:19Z</time>
      </trkpt>
      <trkpt lat="46.37844" lon="5.29393">
        <ele>221.4</ele>
        <time>2022-02-22T14:01:24Z</time>
      </trkpt>
      <trkpt lat="46.37837" lon="5.29398">
        <ele>221.6</ele>
        <time>2022-02-22T14:01:26Z</time>
      </trkpt>
      <trkpt lat="46.37822" lon="5.29411">
        <ele>222.6</ele>
        <time>2022-02-22T14:01:31Z</time>
      </trkpt>
      <trkpt lat="46.37819" lon="5.29414">
        <ele>222.8</ele>
        <time>2022-02-22T14:01:32Z</time>
      </trkpt>
      <trkpt lat="46.37799" lon="5.29431">
        <ele>223.8</ele>
        <time>2022-02-22T14:01:37Z</time>
      </trkpt>
      <trkpt lat="46.37795" lon="5.29435">
        <ele>223.8</ele>
        <time>2022-02-22T14:01:38Z</time>
      </trkpt>
      <trkpt lat="46.37766" lon="5.29464">
        <ele>224.2</ele>
        <time>2022-02-22T14:01:45Z</time>
      </trkpt>
      <trkpt lat="46.37759" lon="5.29471">
        <ele>224.4</ele>
        <time>2022-02-22T14:01:47Z</time>
      </trkpt>
      <trkpt lat="46.37751" lon="5.29476">
        <ele>224.6</ele>
        <time>2022-02-22T14:01:49Z</time>
      </trkpt>
      <trkpt lat="46.37747" lon="5.29477">
        <ele>224.6</ele>
        <time>2022-02-22T14:01:50Z</time>
      </trkpt>
      <trkpt lat="46.37744" lon="5.29478">
        <ele>224.8</ele>
        <time>2022-02-22T14:01:51Z</time>
      </trkpt>
      <trkpt lat="46.3773" lon="5.2948">
        <ele>226</ele>
        <time>2022-02-22T14:01:55Z</time>
      </trkpt>
      <trkpt lat="46.37726" lon="5.2948">
        <ele>226.4</ele>
        <time>2022-02-22T14:01:56Z</time>
      </trkpt>
      <trkpt lat="46.3772" lon="5.2948">
        <ele>227</ele>
        <time>2022-02-22T14:01:58Z</time>
      </trkpt>
      <trkpt lat="46.37706" lon="5.29481">
        <ele>228</ele>
        <time>2022-02-22T14:02:02Z</time>
      </trkpt>
      <trkpt lat="46.37688" lon="5.29482">
        <ele>229.2</ele>
        <time>2022-02-22T14:02:07Z</time>
      </trkpt>
      <trkpt lat="46.37671" lon="5.29481">
        <ele>230.2</ele>
        <time>2022-02-22T14:02:12Z</time>
      </trkpt>
      <trkpt lat="46.37651" lon="5.29477">
        <ele>231.2</ele>
        <time>2022-02-22T14:02:17Z</time>
      </trkpt>
      <trkpt lat="46.37647" lon="5.29474">
        <ele>231.2</ele>
        <time>2022-02-22T14:02:18Z</time>
      </trkpt>
      <trkpt lat="46.37629" lon="5.29464">
        <ele>231.8</ele>
        <time>2022-02-22T14:02:22Z</time>
      </trkpt>
      <trkpt lat="46.37591" lon="5.29449">
        <ele>232</ele>
        <time>2022-02-22T14:02:29Z</time>
      </trkpt>
      <trkpt lat="46.37547" lon="5.29434">
        <ele>231.4</ele>
        <time>2022-02-22T14:02:36Z</time>
      </trkpt>
      <trkpt lat="46.37521" lon="5.29408">
        <ele>231</ele>
        <time>2022-02-22T14:02:41Z</time>
      </trkpt>
      <trkpt lat="46.37485" lon="5.2936">
        <ele>231.2</ele>
        <time>2022-02-22T14:02:49Z</time>
      </trkpt>
      <trkpt lat="46.37463" lon="5.29311">
        <ele>231.8</ele>
        <time>2022-02-22T14:02:56Z</time>
      </trkpt>
      <trkpt lat="46.37434" lon="5.29261">
        <ele>232</ele>
        <time>2022-02-22T14:03:03Z</time>
      </trkpt>
      <trkpt lat="46.37417" lon="5.29235">
        <ele>232.2</ele>
        <time>2022-02-22T14:03:07Z</time>
      </trkpt>
      <trkpt lat="46.37412" lon="5.29219">
        <ele>232</ele>
        <time>2022-02-22T14:03:09Z</time>
      </trkpt>
      <trkpt lat="46.37401" lon="5.29186">
        <ele>232</ele>
        <time>2022-02-22T14:03:13Z</time>
      </trkpt>
      <trkpt lat="46.37394" lon="5.29171">
        <ele>232</ele>
        <time>2022-02-22T14:03:15Z</time>
      </trkpt>
      <trkpt lat="46.37368" lon="5.29132">
        <ele>232</ele>
        <time>2022-02-22T14:03:21Z</time>
      </trkpt>
      <trkpt lat="46.37361" lon="5.29119">
        <ele>232.2</ele>
        <time>2022-02-22T14:03:23Z</time>
      </trkpt>
      <trkpt lat="46.37356" lon="5.29105">
        <ele>232.4</ele>
        <time>2022-02-22T14:03:25Z</time>
      </trkpt>
      <trkpt lat="46.37355" lon="5.29097">
        <ele>232.6</ele>
        <time>2022-02-22T14:03:26Z</time>
      </trkpt>
      <trkpt lat="46.37347" lon="5.29068">
        <ele>233</ele>
        <time>2022-02-22T14:03:30Z</time>
      </trkpt>
      <trkpt lat="46.37344" lon="5.29061">
        <ele>233</ele>
        <time>2022-02-22T14:03:31Z</time>
      </trkpt>
      <trkpt lat="46.3734" lon="5.29056">
        <ele>233.2</ele>
        <time>2022-02-22T14:03:32Z</time>
      </trkpt>
      <trkpt lat="46.37331" lon="5.29047">
        <ele>233.4</ele>
        <time>2022-02-22T14:03:34Z</time>
      </trkpt>
      <trkpt lat="46.37326" lon="5.29044">
        <ele>233.4</ele>
        <time>2022-02-22T14:03:35Z</time>
      </trkpt>
      <trkpt lat="46.37307" lon="5.29034">
        <ele>233.8</ele>
        <time>2022-02-22T14:03:39Z</time>
      </trkpt>
      <trkpt lat="46.37292" lon="5.29029">
        <ele>234</ele>
        <time>2022-02-22T14:03:42Z</time>
      </trkpt>
      <trkpt lat="46.37287" lon="5.29029">
        <ele>234.2</ele>
        <time>2022-02-22T14:03:43Z</time>
      </trkpt>
      <trkpt lat="46.37277" lon="5.29029">
        <ele>234.6</ele>
        <time>2022-02-22T14:03:45Z</time>
      </trkpt>
      <trkpt lat="46.37266" lon="5.29032">
        <ele>234.8</ele>
        <time>2022-02-22T14:03:47Z</time>
      </trkpt>
      <trkpt lat="46.37261" lon="5.29035">
        <ele>234.8</ele>
        <time>2022-02-22T14:03:48Z</time>
      </trkpt>
      <trkpt lat="46.37238" lon="5.29055">
        <ele>235.2</ele>
        <time>2022-02-22T14:03:53Z</time>
      </trkpt>
      <trkpt lat="46.37228" lon="5.2906">
        <ele>235.4</ele>
        <time>2022-02-22T14:03:55Z</time>
      </trkpt>
      <trkpt lat="46.37213" lon="5.29063">
        <ele>235.6</ele>
        <time>2022-02-22T14:03:58Z</time>
      </trkpt>
      <trkpt lat="46.37192" lon="5.29063">
        <ele>235.8</ele>
        <time>2022-02-22T14:04:02Z</time>
      </trkpt>
      <trkpt lat="46.37175" lon="5.29063">
        <ele>236.2</ele>
        <time>2022-02-22T14:04:05Z</time>
      </trkpt>
      <trkpt lat="46.3717" lon="5.29061">
        <ele>236.2</ele>
        <time>2022-02-22T14:04:06Z</time>
      </trkpt>
      <trkpt lat="46.37165" lon="5.29056">
        <ele>236.2</ele>
        <time>2022-02-22T14:04:07Z</time>
      </trkpt>
      <trkpt lat="46.37159" lon="5.29043">
        <ele>236.4</ele>
        <time>2022-02-22T14:04:09Z</time>
      </trkpt>
      <trkpt lat="46.37155" lon="5.29028">
        <ele>236.4</ele>
        <time>2022-02-22T14:04:11Z</time>
      </trkpt>
      <trkpt lat="46.37148" lon="5.29016">
        <ele>236.4</ele>
        <time>2022-02-22T14:04:13Z</time>
      </trkpt>
      <trkpt lat="46.37137" lon="5.29009">
        <ele>236.2</ele>
        <time>2022-02-22T14:04:15Z</time>
      </trkpt>
      <trkpt lat="46.37125" lon="5.29006">
        <ele>236.2</ele>
        <time>2022-02-22T14:04:17Z</time>
      </trkpt>
      <trkpt lat="46.37119" lon="5.29006">
        <ele>236</ele>
        <time>2022-02-22T14:04:18Z</time>
      </trkpt>
      <trkpt lat="46.37095" lon="5.29009">
        <ele>236</ele>
        <time>2022-02-22T14:04:22Z</time>
      </trkpt>
      <trkpt lat="46.3704" lon="5.2902">
        <ele>235.6</ele>
        <time>2022-02-22T14:04:31Z</time>
      </trkpt>
      <trkpt lat="46.37032" lon="5.29031">
        <ele>235.6</ele>
        <time>2022-02-22T14:04:33Z</time>
      </trkpt>
      <trkpt lat="46.37031" lon="5.29048">
        <ele>235.6</ele>
        <time>2022-02-22T14:04:35Z</time>
      </trkpt>
      <trkpt lat="46.37032" lon="5.29057">
        <ele>235.6</ele>
        <time>2022-02-22T14:04:36Z</time>
      </trkpt>
      <trkpt lat="46.37047" lon="5.29128">
        <ele>235.4</ele>
        <time>2022-02-22T14:04:44Z</time>
      </trkpt>
      <trkpt lat="46.37048" lon="5.29137">
        <ele>235.2</ele>
        <time>2022-02-22T14:04:45Z</time>
      </trkpt>
      <trkpt lat="46.37045" lon="5.29155">
        <ele>235.2</ele>
        <time>2022-02-22T14:04:47Z</time>
      </trkpt>
      <trkpt lat="46.37034" lon="5.29164">
        <ele>235.2</ele>
        <time>2022-02-22T14:04:49Z</time>
      </trkpt>
      <trkpt lat="46.37028" lon="5.29165">
        <ele>235</ele>
        <time>2022-02-22T14:04:50Z</time>
      </trkpt>
      <trkpt lat="46.36987" lon="5.29167">
        <ele>235.4</ele>
        <time>2022-02-22T14:04:56Z</time>
      </trkpt>
      <trkpt lat="46.36953" lon="5.29161">
        <ele>235</ele>
        <time>2022-02-22T14:05:01Z</time>
      </trkpt>
      <trkpt lat="46.3694" lon="5.29154">
        <ele>235</ele>
        <time>2022-02-22T14:05:03Z</time>
      </trkpt>
      <trkpt lat="46.36933" lon="5.29149">
        <ele>235</ele>
        <time>2022-02-22T14:05:04Z</time>
      </trkpt>
      <trkpt lat="46.36927" lon="5.29143">
        <ele>234.8</ele>
        <time>2022-02-22T14:05:05Z</time>
      </trkpt>
      <trkpt lat="46.36897" lon="5.29105">
        <ele>234.6</ele>
        <time>2022-02-22T14:05:11Z</time>
      </trkpt>
      <trkpt lat="46.36886" lon="5.29094">
        <ele>234.6</ele>
        <time>2022-02-22T14:05:13Z</time>
      </trkpt>
      <trkpt lat="46.36869" lon="5.29081">
        <ele>234.6</ele>
        <time>2022-02-22T14:05:16Z</time>
      </trkpt>
      <trkpt lat="46.36863" lon="5.29078">
        <ele>234.6</ele>
        <time>2022-02-22T14:05:17Z</time>
      </trkpt>
      <trkpt lat="46.36837" lon="5.29069">
        <ele>234.6</ele>
        <time>2022-02-22T14:05:21Z</time>
      </trkpt>
      <trkpt lat="46.36801" lon="5.2907">
        <ele>234</ele>
        <time>2022-02-22T14:05:26Z</time>
      </trkpt>
      <trkpt lat="46.36795" lon="5.29072">
        <ele>234</ele>
        <time>2022-02-22T14:05:27Z</time>
      </trkpt>
      <trkpt lat="46.3678" lon="5.29079">
        <ele>233.2</ele>
        <time>2022-02-22T14:05:30Z</time>
      </trkpt>
      <trkpt lat="46.36776" lon="5.2908">
        <ele>233</ele>
        <time>2022-02-22T14:05:31Z</time>
      </trkpt>
      <trkpt lat="46.36769" lon="5.29079">
        <ele>232.6</ele>
        <time>2022-02-22T14:05:33Z</time>
      </trkpt>
      <trkpt lat="46.36765" lon="5.29075">
        <ele>232.6</ele>
        <time>2022-02-22T14:05:34Z</time>
      </trkpt>
      <trkpt lat="46.36756" lon="5.29059">
        <ele>232.2</ele>
        <time>2022-02-22T14:05:37Z</time>
      </trkpt>
      <trkpt lat="46.36732" lon="5.2903">
        <ele>232.2</ele>
        <time>2022-02-22T14:05:42Z</time>
      </trkpt>
      <trkpt lat="46.36726" lon="5.29024">
        <ele>232.2</ele>
        <time>2022-02-22T14:05:43Z</time>
      </trkpt>
      <trkpt lat="46.36713" lon="5.29018">
        <ele>232.2</ele>
        <time>2022-02-22T14:05:45Z</time>
      </trkpt>
      <trkpt lat="46.36706" lon="5.29017">
        <ele>232.2</ele>
        <time>2022-02-22T14:05:46Z</time>
      </trkpt>
      <trkpt lat="46.36662" lon="5.29021">
        <ele>231.8</ele>
        <time>2022-02-22T14:05:52Z</time>
      </trkpt>
      <trkpt lat="46.36607" lon="5.29029">
        <ele>231.6</ele>
        <time>2022-02-22T14:06:00Z</time>
      </trkpt>
      <trkpt lat="46.36552" lon="5.29038">
        <ele>231.6</ele>
        <time>2022-02-22T14:06:08Z</time>
      </trkpt>
      <trkpt lat="46.36498" lon="5.29042">
        <ele>231.4</ele>
        <time>2022-02-22T14:06:16Z</time>
      </trkpt>
      <trkpt lat="46.36446" lon="5.29046">
        <ele>231.6</ele>
        <time>2022-02-22T14:06:24Z</time>
      </trkpt>
      <trkpt lat="46.36388" lon="5.29052">
        <ele>231.8</ele>
        <time>2022-02-22T14:06:33Z</time>
      </trkpt>
      <trkpt lat="46.3633" lon="5.29062">
        <ele>232.2</ele>
        <time>2022-02-22T14:06:42Z</time>
      </trkpt>
      <trkpt lat="46.36324" lon="5.29064">
        <ele>232.2</ele>
        <time>2022-02-22T14:06:43Z</time>
      </trkpt>
      <trkpt lat="46.36266" lon="5.29074">
        <ele>233</ele>
        <time>2022-02-22T14:06:53Z</time>
      </trkpt>
      <trkpt lat="46.3626" lon="5.29076">
        <ele>233</ele>
        <time>2022-02-22T14:06:54Z</time>
      </trkpt>
      <trkpt lat="46.36251" lon="5.29083">
        <ele>233.4</ele>
        <time>2022-02-22T14:06:56Z</time>
      </trkpt>
      <trkpt lat="46.36247" lon="5.29089">
        <ele>233.4</ele>
        <time>2022-02-22T14:06:57Z</time>
      </trkpt>
      <trkpt lat="46.36243" lon="5.29095">
        <ele>233.4</ele>
        <time>2022-02-22T14:06:58Z</time>
      </trkpt>
      <trkpt lat="46.36234" lon="5.29116">
        <ele>233.6</ele>
        <time>2022-02-22T14:07:01Z</time>
      </trkpt>
      <trkpt lat="46.36229" lon="5.29121">
        <ele>233.8</ele>
        <time>2022-02-22T14:07:02Z</time>
      </trkpt>
      <trkpt lat="46.36225" lon="5.29123">
        <ele>233.8</ele>
        <time>2022-02-22T14:07:03Z</time>
      </trkpt>
      <trkpt lat="46.36214" lon="5.29126">
        <ele>234</ele>
        <time>2022-02-22T14:07:05Z</time>
      </trkpt>
      <trkpt lat="46.36209" lon="5.29129">
        <ele>234</ele>
        <time>2022-02-22T14:07:06Z</time>
      </trkpt>
      <trkpt lat="46.36203" lon="5.29139">
        <ele>234.4</ele>
        <time>2022-02-22T14:07:08Z</time>
      </trkpt>
      <trkpt lat="46.36203" lon="5.29155">
        <ele>234.6</ele>
        <time>2022-02-22T14:07:10Z</time>
      </trkpt>
      <trkpt lat="46.36204" lon="5.29172">
        <ele>234.6</ele>
        <time>2022-02-22T14:07:12Z</time>
      </trkpt>
      <trkpt lat="46.36214" lon="5.29209">
        <ele>234.6</ele>
        <time>2022-02-22T14:07:16Z</time>
      </trkpt>
      <trkpt lat="46.36227" lon="5.29257">
        <ele>233.6</ele>
        <time>2022-02-22T14:07:20Z</time>
      </trkpt>
      <trkpt lat="46.36229" lon="5.2927">
        <ele>232.8</ele>
        <time>2022-02-22T14:07:21Z</time>
      </trkpt>
      <trkpt lat="46.36235" lon="5.29298">
        <ele>231.6</ele>
        <time>2022-02-22T14:07:23Z</time>
      </trkpt>
      <trkpt lat="46.36238" lon="5.29326">
        <ele>230.4</ele>
        <time>2022-02-22T14:07:25Z</time>
      </trkpt>
      <trkpt lat="46.36239" lon="5.29353">
        <ele>229.2</ele>
        <time>2022-02-22T14:07:27Z</time>
      </trkpt>
      <trkpt lat="46.36244" lon="5.2939">
        <ele>228.2</ele>
        <time>2022-02-22T14:07:30Z</time>
      </trkpt>
      <trkpt lat="46.3625" lon="5.29445">
        <ele>228</ele>
        <time>2022-02-22T14:07:35Z</time>
      </trkpt>
      <trkpt lat="46.36247" lon="5.29462">
        <ele>228.2</ele>
        <time>2022-02-22T14:07:37Z</time>
      </trkpt>
      <trkpt lat="46.36243" lon="5.29467">
        <ele>228.4</ele>
        <time>2022-02-22T14:07:38Z</time>
      </trkpt>
      <trkpt lat="46.36239" lon="5.29469">
        <ele>228.4</ele>
        <time>2022-02-22T14:07:39Z</time>
      </trkpt>
      <trkpt lat="46.36229" lon="5.29474">
        <ele>229.4</ele>
        <time>2022-02-22T14:07:41Z</time>
      </trkpt>
      <trkpt lat="46.36224" lon="5.29477">
        <ele>229.8</ele>
        <time>2022-02-22T14:07:42Z</time>
      </trkpt>
      <trkpt lat="46.36214" lon="5.29484">
        <ele>230.8</ele>
        <time>2022-02-22T14:07:44Z</time>
      </trkpt>
      <trkpt lat="46.36196" lon="5.29502">
        <ele>232.2</ele>
        <time>2022-02-22T14:07:48Z</time>
      </trkpt>
      <trkpt lat="46.36191" lon="5.29506">
        <ele>232.4</ele>
        <time>2022-02-22T14:07:49Z</time>
      </trkpt>
      <trkpt lat="46.36172" lon="5.2952">
        <ele>233.4</ele>
        <time>2022-02-22T14:07:53Z</time>
      </trkpt>
      <trkpt lat="46.3616" lon="5.29526">
        <ele>233.8</ele>
        <time>2022-02-22T14:07:55Z</time>
      </trkpt>
      <trkpt lat="46.36125" lon="5.29534">
        <ele>234</ele>
        <time>2022-02-22T14:08:00Z</time>
      </trkpt>
      <trkpt lat="46.36071" lon="5.29539">
        <ele>232.8</ele>
        <time>2022-02-22T14:08:07Z</time>
      </trkpt>
      <trkpt lat="46.36064" lon="5.29539">
        <ele>232.8</ele>
        <time>2022-02-22T14:08:08Z</time>
      </trkpt>
      <trkpt lat="46.36014" lon="5.29544">
        <ele>232.4</ele>
        <time>2022-02-22T14:08:15Z</time>
      </trkpt>
      <trkpt lat="46.35993" lon="5.29548">
        <ele>232.4</ele>
        <time>2022-02-22T14:08:18Z</time>
      </trkpt>
      <trkpt lat="46.35964" lon="5.29552">
        <ele>232.2</ele>
        <time>2022-02-22T14:08:22Z</time>
      </trkpt>
      <trkpt lat="46.35907" lon="5.29555">
        <ele>232.4</ele>
        <time>2022-02-22T14:08:31Z</time>
      </trkpt>
      <trkpt lat="46.35878" lon="5.2955">
        <ele>233</ele>
        <time>2022-02-22T14:08:36Z</time>
      </trkpt>
      <trkpt lat="46.35863" lon="5.29547">
        <ele>233.6</ele>
        <time>2022-02-22T14:08:39Z</time>
      </trkpt>
      <trkpt lat="46.35842" lon="5.29545">
        <ele>234.4</ele>
        <time>2022-02-22T14:08:43Z</time>
      </trkpt>
      <trkpt lat="46.35833" lon="5.29544">
        <ele>234.6</ele>
        <time>2022-02-22T14:08:45Z</time>
      </trkpt>
      <trkpt lat="46.358" lon="5.29542">
        <ele>235.4</ele>
        <time>2022-02-22T14:08:51Z</time>
      </trkpt>
      <trkpt lat="46.35794" lon="5.29542">
        <ele>235.8</ele>
        <time>2022-02-22T14:08:52Z</time>
      </trkpt>
      <trkpt lat="46.35757" lon="5.29542">
        <ele>236.6</ele>
        <time>2022-02-22T14:08:59Z</time>
      </trkpt>
      <trkpt lat="46.35748" lon="5.29542">
        <ele>236.8</ele>
        <time>2022-02-22T14:09:01Z</time>
      </trkpt>
      <trkpt lat="46.35717" lon="5.29547">
        <ele>237.6</ele>
        <time>2022-02-22T14:09:07Z</time>
      </trkpt>
      <trkpt lat="46.35711" lon="5.29549">
        <ele>237.6</ele>
        <time>2022-02-22T14:09:08Z</time>
      </trkpt>
      <trkpt lat="46.35707" lon="5.29551">
        <ele>237.8</ele>
        <time>2022-02-22T14:09:09Z</time>
      </trkpt>
      <trkpt lat="46.35694" lon="5.2956">
        <ele>238.2</ele>
        <time>2022-02-22T14:09:12Z</time>
      </trkpt>
      <trkpt lat="46.35673" lon="5.2958">
        <ele>238.8</ele>
        <time>2022-02-22T14:09:17Z</time>
      </trkpt>
      <trkpt lat="46.35664" lon="5.29588">
        <ele>239</ele>
        <time>2022-02-22T14:09:19Z</time>
      </trkpt>
      <trkpt lat="46.35623" lon="5.29614">
        <ele>239</ele>
        <time>2022-02-22T14:09:27Z</time>
      </trkpt>
      <trkpt lat="46.35571" lon="5.29638">
        <ele>239</ele>
        <time>2022-02-22T14:09:36Z</time>
      </trkpt>
      <trkpt lat="46.35535" lon="5.29649">
        <ele>239</ele>
        <time>2022-02-22T14:09:42Z</time>
      </trkpt>
      <trkpt lat="46.35502" lon="5.29654">
        <ele>238.8</ele>
        <time>2022-02-22T14:09:47Z</time>
      </trkpt>
      <trkpt lat="46.35496" lon="5.29657">
        <ele>238.8</ele>
        <time>2022-02-22T14:09:48Z</time>
      </trkpt>
      <trkpt lat="46.35491" lon="5.29662">
        <ele>238.6</ele>
        <time>2022-02-22T14:09:49Z</time>
      </trkpt>
      <trkpt lat="46.35483" lon="5.29675">
        <ele>238.4</ele>
        <time>2022-02-22T14:09:51Z</time>
      </trkpt>
      <trkpt lat="46.35474" lon="5.29692">
        <ele>238.2</ele>
        <time>2022-02-22T14:09:53Z</time>
      </trkpt>
      <trkpt lat="46.3547" lon="5.29696">
        <ele>238.2</ele>
        <time>2022-02-22T14:09:54Z</time>
      </trkpt>
      <trkpt lat="46.35464" lon="5.29698">
        <ele>238.2</ele>
        <time>2022-02-22T14:09:55Z</time>
      </trkpt>
      <trkpt lat="46.35452" lon="5.29696">
        <ele>238.2</ele>
        <time>2022-02-22T14:09:57Z</time>
      </trkpt>
      <trkpt lat="46.35406" lon="5.2968">
        <ele>238.6</ele>
        <time>2022-02-22T14:10:05Z</time>
      </trkpt>
      <trkpt lat="46.35356" lon="5.29664">
        <ele>239</ele>
        <time>2022-02-22T14:10:13Z</time>
      </trkpt>
      <trkpt lat="46.353" lon="5.29648">
        <ele>239.2</ele>
        <time>2022-02-22T14:10:22Z</time>
      </trkpt>
      <trkpt lat="46.35246" lon="5.29644">
        <ele>239</ele>
        <time>2022-02-22T14:10:30Z</time>
      </trkpt>
      <trkpt lat="46.35196" lon="5.29651">
        <ele>238.6</ele>
        <time>2022-02-22T14:10:37Z</time>
      </trkpt>
      <trkpt lat="46.3514" lon="5.29658">
        <ele>238</ele>
        <time>2022-02-22T14:10:44Z</time>
      </trkpt>
      <trkpt lat="46.35134" lon="5.29659">
        <ele>237.8</ele>
        <time>2022-02-22T14:10:45Z</time>
      </trkpt>
      <trkpt lat="46.351" lon="5.29663">
        <ele>236.4</ele>
        <time>2022-02-22T14:10:49Z</time>
      </trkpt>
      <trkpt lat="46.35083" lon="5.29663">
        <ele>235.8</ele>
        <time>2022-02-22T14:10:51Z</time>
      </trkpt>
      <trkpt lat="46.35076" lon="5.29661">
        <ele>235.8</ele>
        <time>2022-02-22T14:10:52Z</time>
      </trkpt>
      <trkpt lat="46.3504" lon="5.29645">
        <ele>235.6</ele>
        <time>2022-02-22T14:10:57Z</time>
      </trkpt>
      <trkpt lat="46.35033" lon="5.29641">
        <ele>235.6</ele>
        <time>2022-02-22T14:10:58Z</time>
      </trkpt>
      <trkpt lat="46.35014" lon="5.29635">
        <ele>235.8</ele>
        <time>2022-02-22T14:11:01Z</time>
      </trkpt>
      <trkpt lat="46.34978" lon="5.29634">
        <ele>237.2</ele>
        <time>2022-02-22T14:11:07Z</time>
      </trkpt>
      <trkpt lat="46.34972" lon="5.29635">
        <ele>237.2</ele>
        <time>2022-02-22T14:11:08Z</time>
      </trkpt>
      <trkpt lat="46.34966" lon="5.29638">
        <ele>237.6</ele>
        <time>2022-02-22T14:11:09Z</time>
      </trkpt>
      <trkpt lat="46.34961" lon="5.29641">
        <ele>237.8</ele>
        <time>2022-02-22T14:11:10Z</time>
      </trkpt>
      <trkpt lat="46.34955" lon="5.29646">
        <ele>238</ele>
        <time>2022-02-22T14:11:11Z</time>
      </trkpt>
      <trkpt lat="46.34939" lon="5.29662">
        <ele>238.2</ele>
        <time>2022-02-22T14:11:14Z</time>
      </trkpt>
      <trkpt lat="46.34933" lon="5.29665">
        <ele>238.2</ele>
        <time>2022-02-22T14:11:15Z</time>
      </trkpt>
      <trkpt lat="46.34926" lon="5.29667">
        <ele>238.2</ele>
        <time>2022-02-22T14:11:16Z</time>
      </trkpt>
      <trkpt lat="46.34912" lon="5.29663">
        <ele>238.4</ele>
        <time>2022-02-22T14:11:18Z</time>
      </trkpt>
      <trkpt lat="46.34878" lon="5.2964">
        <ele>238.4</ele>
        <time>2022-02-22T14:11:24Z</time>
      </trkpt>
      <trkpt lat="46.34861" lon="5.29629">
        <ele>238.6</ele>
        <time>2022-02-22T14:11:27Z</time>
      </trkpt>
      <trkpt lat="46.34842" lon="5.29621">
        <ele>238.6</ele>
        <time>2022-02-22T14:11:30Z</time>
      </trkpt>
      <trkpt lat="46.34805" lon="5.29614">
        <ele>239</ele>
        <time>2022-02-22T14:11:36Z</time>
      </trkpt>
      <trkpt lat="46.34752" lon="5.29621">
        <ele>238.8</ele>
        <time>2022-02-22T14:11:44Z</time>
      </trkpt>
      <trkpt lat="46.34725" lon="5.29637">
        <ele>238.6</ele>
        <time>2022-02-22T14:11:48Z</time>
      </trkpt>
      <trkpt lat="46.34711" lon="5.29644">
        <ele>238.2</ele>
        <time>2022-02-22T14:11:50Z</time>
      </trkpt>
      <trkpt lat="46.34697" lon="5.29645">
        <ele>237.8</ele>
        <time>2022-02-22T14:11:52Z</time>
      </trkpt>
      <trkpt lat="46.3469" lon="5.29643">
        <ele>237.8</ele>
        <time>2022-02-22T14:11:53Z</time>
      </trkpt>
      <trkpt lat="46.34652" lon="5.29637">
        <ele>236.8</ele>
        <time>2022-02-22T14:11:58Z</time>
      </trkpt>
      <trkpt lat="46.34623" lon="5.2963">
        <ele>236.6</ele>
        <time>2022-02-22T14:12:02Z</time>
      </trkpt>
      <trkpt lat="46.34586" lon="5.29622">
        <ele>236</ele>
        <time>2022-02-22T14:12:07Z</time>
      </trkpt>
      <trkpt lat="46.3453" lon="5.29613">
        <ele>235.8</ele>
        <time>2022-02-22T14:12:15Z</time>
      </trkpt>
      <trkpt lat="46.34472" lon="5.29599">
        <ele>236</ele>
        <time>2022-02-22T14:12:24Z</time>
      </trkpt>
      <trkpt lat="46.34467" lon="5.29597">
        <ele>236</ele>
        <time>2022-02-22T14:12:25Z</time>
      </trkpt>
      <trkpt lat="46.34457" lon="5.29584">
        <ele>236</ele>
        <time>2022-02-22T14:12:27Z</time>
      </trkpt>
      <trkpt lat="46.34455" lon="5.29568">
        <ele>236.2</ele>
        <time>2022-02-22T14:12:29Z</time>
      </trkpt>
      <trkpt lat="46.34456" lon="5.29562">
        <ele>236.2</ele>
        <time>2022-02-22T14:12:30Z</time>
      </trkpt>
      <trkpt lat="46.34464" lon="5.29513">
        <ele>237.6</ele>
        <time>2022-02-22T14:12:36Z</time>
      </trkpt>
      <trkpt lat="46.34468" lon="5.29473">
        <ele>238.6</ele>
        <time>2022-02-22T14:12:41Z</time>
      </trkpt>
      <trkpt lat="46.34468" lon="5.29465">
        <ele>238.8</ele>
        <time>2022-02-22T14:12:42Z</time>
      </trkpt>
      <trkpt lat="46.34466" lon="5.29455">
        <ele>239</ele>
        <time>2022-02-22T14:12:43Z</time>
      </trkpt>
      <trkpt lat="46.34459" lon="5.29442">
        <ele>239.2</ele>
        <time>2022-02-22T14:12:45Z</time>
      </trkpt>
      <trkpt lat="46.34447" lon="5.29426">
        <ele>239.8</ele>
        <time>2022-02-22T14:12:48Z</time>
      </trkpt>
      <trkpt lat="46.34435" lon="5.29405">
        <ele>240</ele>
        <time>2022-02-22T14:12:51Z</time>
      </trkpt>
      <trkpt lat="46.34416" lon="5.29369">
        <ele>240.4</ele>
        <time>2022-02-22T14:12:56Z</time>
      </trkpt>
      <trkpt lat="46.34412" lon="5.29364">
        <ele>240.4</ele>
        <time>2022-02-22T14:12:57Z</time>
      </trkpt>
      <trkpt lat="46.34408" lon="5.29357">
        <ele>240.4</ele>
        <time>2022-02-22T14:12:58Z</time>
      </trkpt>
      <trkpt lat="46.34396" lon="5.29346">
        <ele>240.4</ele>
        <time>2022-02-22T14:13:00Z</time>
      </trkpt>
      <trkpt lat="46.34389" lon="5.29342">
        <ele>240.4</ele>
        <time>2022-02-22T14:13:01Z</time>
      </trkpt>
      <trkpt lat="46.34361" lon="5.29333">
        <ele>240.2</ele>
        <time>2022-02-22T14:13:05Z</time>
      </trkpt>
      <trkpt lat="46.34354" lon="5.2933">
        <ele>240</ele>
        <time>2022-02-22T14:13:06Z</time>
      </trkpt>
      <trkpt lat="46.34321" lon="5.29306">
        <ele>239.6</ele>
        <time>2022-02-22T14:13:11Z</time>
      </trkpt>
      <trkpt lat="46.34314" lon="5.29302">
        <ele>239.6</ele>
        <time>2022-02-22T14:13:12Z</time>
      </trkpt>
      <trkpt lat="46.34285" lon="5.29292">
        <ele>239.2</ele>
        <time>2022-02-22T14:13:16Z</time>
      </trkpt>
      <trkpt lat="46.3427" lon="5.29288">
        <ele>238.6</ele>
        <time>2022-02-22T14:13:18Z</time>
      </trkpt>
      <trkpt lat="46.34223" lon="5.29273">
        <ele>238.4</ele>
        <time>2022-02-22T14:13:25Z</time>
      </trkpt>
      <trkpt lat="46.34189" lon="5.2926">
        <ele>238.4</ele>
        <time>2022-02-22T14:13:30Z</time>
      </trkpt>
      <trkpt lat="46.3418" lon="5.2926">
        <ele>238.4</ele>
        <time>2022-02-22T14:13:31Z</time>
      </trkpt>
      <trkpt lat="46.34123" lon="5.29269">
        <ele>237.6</ele>
        <time>2022-02-22T14:13:39Z</time>
      </trkpt>
      <trkpt lat="46.34116" lon="5.29272">
        <ele>237.4</ele>
        <time>2022-02-22T14:13:40Z</time>
      </trkpt>
      <trkpt lat="46.34102" lon="5.2928">
        <ele>237.2</ele>
        <time>2022-02-22T14:13:42Z</time>
      </trkpt>
      <trkpt lat="46.34097" lon="5.29287">
        <ele>237.2</ele>
        <time>2022-02-22T14:13:43Z</time>
      </trkpt>
      <trkpt lat="46.34092" lon="5.29294">
        <ele>237</ele>
        <time>2022-02-22T14:13:44Z</time>
      </trkpt>
      <trkpt lat="46.34079" lon="5.29322">
        <ele>237</ele>
        <time>2022-02-22T14:13:47Z</time>
      </trkpt>
      <trkpt lat="46.34067" lon="5.29346">
        <ele>236.8</ele>
        <time>2022-02-22T14:13:50Z</time>
      </trkpt>
      <trkpt lat="46.34057" lon="5.29358">
        <ele>236.8</ele>
        <time>2022-02-22T14:13:52Z</time>
      </trkpt>
      <trkpt lat="46.34045" lon="5.29368">
        <ele>236.8</ele>
        <time>2022-02-22T14:13:54Z</time>
      </trkpt>
      <trkpt lat="46.34033" lon="5.29373">
        <ele>236.8</ele>
        <time>2022-02-22T14:13:56Z</time>
      </trkpt>
      <trkpt lat="46.34002" lon="5.29388">
        <ele>237.6</ele>
        <time>2022-02-22T14:14:02Z</time>
      </trkpt>
      <trkpt lat="46.33977" lon="5.29417">
        <ele>238.6</ele>
        <time>2022-02-22T14:14:08Z</time>
      </trkpt>
      <trkpt lat="46.3397" lon="5.29428">
        <ele>238.8</ele>
        <time>2022-02-22T14:14:10Z</time>
      </trkpt>
      <trkpt lat="46.33959" lon="5.29455">
        <ele>239.2</ele>
        <time>2022-02-22T14:14:14Z</time>
      </trkpt>
      <trkpt lat="46.33957" lon="5.29461">
        <ele>239.6</ele>
        <time>2022-02-22T14:14:15Z</time>
      </trkpt>
      <trkpt lat="46.33954" lon="5.29474">
        <ele>239.8</ele>
        <time>2022-02-22T14:14:17Z</time>
      </trkpt>
      <trkpt lat="46.33949" lon="5.29491">
        <ele>240</ele>
        <time>2022-02-22T14:14:19Z</time>
      </trkpt>
      <trkpt lat="46.33946" lon="5.29498">
        <ele>240</ele>
        <time>2022-02-22T14:14:20Z</time>
      </trkpt>
      <trkpt lat="46.33942" lon="5.29505">
        <ele>240.2</ele>
        <time>2022-02-22T14:14:21Z</time>
      </trkpt>
      <trkpt lat="46.33931" lon="5.29513">
        <ele>240.2</ele>
        <time>2022-02-22T14:14:23Z</time>
      </trkpt>
      <trkpt lat="46.33904" lon="5.29519">
        <ele>240.2</ele>
        <time>2022-02-22T14:14:27Z</time>
      </trkpt>
      <trkpt lat="46.33849" lon="5.29519">
        <ele>240</ele>
        <time>2022-02-22T14:14:35Z</time>
      </trkpt>
      <trkpt lat="46.3381" lon="5.29518">
        <ele>239.8</ele>
        <time>2022-02-22T14:14:41Z</time>
      </trkpt>
      <trkpt lat="46.33803" lon="5.29516">
        <ele>239.8</ele>
        <time>2022-02-22T14:14:42Z</time>
      </trkpt>
      <trkpt lat="46.33797" lon="5.29513">
        <ele>239.8</ele>
        <time>2022-02-22T14:14:43Z</time>
      </trkpt>
      <trkpt lat="46.33775" lon="5.29497">
        <ele>240</ele>
        <time>2022-02-22T14:14:47Z</time>
      </trkpt>
      <trkpt lat="46.33739" lon="5.29461">
        <ele>240.2</ele>
        <time>2022-02-22T14:14:54Z</time>
      </trkpt>
      <trkpt lat="46.33698" lon="5.29404">
        <ele>240.2</ele>
        <time>2022-02-22T14:15:03Z</time>
      </trkpt>
      <trkpt lat="46.3368" lon="5.29379">
        <ele>240.4</ele>
        <time>2022-02-22T14:15:07Z</time>
      </trkpt>
      <trkpt lat="46.3367" lon="5.2937">
        <ele>240.6</ele>
        <time>2022-02-22T14:15:09Z</time>
      </trkpt>
      <trkpt lat="46.33657" lon="5.29365">
        <ele>240.8</ele>
        <time>2022-02-22T14:15:11Z</time>
      </trkpt>
      <trkpt lat="46.33651" lon="5.29364">
        <ele>240.8</ele>
        <time>2022-02-22T14:15:12Z</time>
      </trkpt>
      <trkpt lat="46.33644" lon="5.29365">
        <ele>240.8</ele>
        <time>2022-02-22T14:15:13Z</time>
      </trkpt>
      <trkpt lat="46.33638" lon="5.29366">
        <ele>241</ele>
        <time>2022-02-22T14:15:14Z</time>
      </trkpt>
      <trkpt lat="46.33612" lon="5.29372">
        <ele>241</ele>
        <time>2022-02-22T14:15:18Z</time>
      </trkpt>
      <trkpt lat="46.33606" lon="5.29372">
        <ele>241.2</ele>
        <time>2022-02-22T14:15:19Z</time>
      </trkpt>
      <trkpt lat="46.33582" lon="5.29369">
        <ele>241.2</ele>
        <time>2022-02-22T14:15:23Z</time>
      </trkpt>
      <trkpt lat="46.33552" lon="5.2936">
        <ele>241.8</ele>
        <time>2022-02-22T14:15:28Z</time>
      </trkpt>
      <trkpt lat="46.33533" lon="5.29354">
        <ele>242</ele>
        <time>2022-02-22T14:15:31Z</time>
      </trkpt>
      <trkpt lat="46.33483" lon="5.29333">
        <ele>242</ele>
        <time>2022-02-22T14:15:39Z</time>
      </trkpt>
      <trkpt lat="46.33439" lon="5.29304">
        <ele>241.6</ele>
        <time>2022-02-22T14:15:46Z</time>
      </trkpt>
      <trkpt lat="46.33422" lon="5.29283">
        <ele>241</ele>
        <time>2022-02-22T14:15:50Z</time>
      </trkpt>
      <trkpt lat="46.33419" lon="5.29276">
        <ele>240.8</ele>
        <time>2022-02-22T14:15:52Z</time>
      </trkpt>
      <trkpt lat="46.33417" lon="5.29275">
        <ele>240.6</ele>
        <time>2022-02-22T14:15:53Z</time>
      </trkpt>
      <trkpt lat="46.3341" lon="5.29289">
        <ele>240.4</ele>
        <time>2022-02-22T14:15:56Z</time>
      </trkpt>
      <trkpt lat="46.33399" lon="5.29319">
        <ele>240.2</ele>
        <time>2022-02-22T14:16:00Z</time>
      </trkpt>
      <trkpt lat="46.33382" lon="5.29364">
        <ele>240</ele>
        <time>2022-02-22T14:16:05Z</time>
      </trkpt>
      <trkpt lat="46.33364" lon="5.29421">
        <ele>239.8</ele>
        <time>2022-02-22T14:16:11Z</time>
      </trkpt>
      <trkpt lat="46.33361" lon="5.29432">
        <ele>239.6</ele>
        <time>2022-02-22T14:16:12Z</time>
      </trkpt>
      <trkpt lat="46.33344" lon="5.29517">
        <ele>238.6</ele>
        <time>2022-02-22T14:16:20Z</time>
      </trkpt>
      <trkpt lat="46.33331" lon="5.296">
        <ele>237.8</ele>
        <time>2022-02-22T14:16:28Z</time>
      </trkpt>
      <trkpt lat="46.33328" lon="5.29621">
        <ele>237.6</ele>
        <time>2022-02-22T14:16:30Z</time>
      </trkpt>
      <trkpt lat="46.33324" lon="5.29641">
        <ele>237.6</ele>
        <time>2022-02-22T14:16:32Z</time>
      </trkpt>
      <trkpt lat="46.33311" lon="5.29721">
        <ele>236.8</ele>
        <time>2022-02-22T14:16:39Z</time>
      </trkpt>
      <trkpt lat="46.33309" lon="5.29733">
        <ele>236.4</ele>
        <time>2022-02-22T14:16:40Z</time>
      </trkpt>
      <trkpt lat="46.33298" lon="5.29802">
        <ele>236</ele>
        <time>2022-02-22T14:16:46Z</time>
      </trkpt>
      <trkpt lat="46.33293" lon="5.29836">
        <ele>235.6</ele>
        <time>2022-02-22T14:16:49Z</time>
      </trkpt>
      <trkpt lat="46.33282" lon="5.29904">
        <ele>235</ele>
        <time>2022-02-22T14:16:55Z</time>
      </trkpt>
      <trkpt lat="46.33276" lon="5.29939">
        <ele>234.6</ele>
        <time>2022-02-22T14:16:58Z</time>
      </trkpt>
      <trkpt lat="46.33265" lon="5.30009">
        <ele>234</ele>
        <time>2022-02-22T14:17:04Z</time>
      </trkpt>
      <trkpt lat="46.33257" lon="5.30054">
        <ele>233.4</ele>
        <time>2022-02-22T14:17:08Z</time>
      </trkpt>
      <trkpt lat="46.33249" lon="5.30108">
        <ele>233</ele>
        <time>2022-02-22T14:17:13Z</time>
      </trkpt>
      <trkpt lat="46.33237" lon="5.30187">
        <ele>233</ele>
        <time>2022-02-22T14:17:21Z</time>
      </trkpt>
      <trkpt lat="46.33236" lon="5.30197">
        <ele>233</ele>
        <time>2022-02-22T14:17:22Z</time>
      </trkpt>
      <trkpt lat="46.33224" lon="5.30258">
        <ele>233.2</ele>
        <time>2022-02-22T14:17:28Z</time>
      </trkpt>
      <trkpt lat="46.33213" lon="5.30316">
        <ele>231.8</ele>
        <time>2022-02-22T14:17:33Z</time>
      </trkpt>
      <trkpt lat="46.33207" lon="5.30341">
        <ele>230.8</ele>
        <time>2022-02-22T14:17:35Z</time>
      </trkpt>
      <trkpt lat="46.33199" lon="5.3038">
        <ele>229.6</ele>
        <time>2022-02-22T14:17:38Z</time>
      </trkpt>
      <trkpt lat="46.33196" lon="5.30394">
        <ele>229.6</ele>
        <time>2022-02-22T14:17:39Z</time>
      </trkpt>
      <trkpt lat="46.33188" lon="5.30434">
        <ele>228.2</ele>
        <time>2022-02-22T14:17:42Z</time>
      </trkpt>
      <trkpt lat="46.33179" lon="5.30476">
        <ele>226.6</ele>
        <time>2022-02-22T14:17:45Z</time>
      </trkpt>
      <trkpt lat="46.33173" lon="5.30504">
        <ele>225.8</ele>
        <time>2022-02-22T14:17:47Z</time>
      </trkpt>
      <trkpt lat="46.33168" lon="5.30533">
        <ele>225.2</ele>
        <time>2022-02-22T14:17:49Z</time>
      </trkpt>
      <trkpt lat="46.33159" lon="5.30577">
        <ele>223.6</ele>
        <time>2022-02-22T14:17:52Z</time>
      </trkpt>
      <trkpt lat="46.33154" lon="5.30606">
        <ele>222.6</ele>
        <time>2022-02-22T14:17:54Z</time>
      </trkpt>
      <trkpt lat="46.33151" lon="5.30621">
        <ele>222.2</ele>
        <time>2022-02-22T14:17:55Z</time>
      </trkpt>
      <trkpt lat="46.33148" lon="5.30635">
        <ele>221.4</ele>
        <time>2022-02-22T14:17:56Z</time>
      </trkpt>
      <trkpt lat="46.33137" lon="5.30692">
        <ele>220.2</ele>
        <time>2022-02-22T14:18:00Z</time>
      </trkpt>
      <trkpt lat="46.3313" lon="5.3073">
        <ele>219.4</ele>
        <time>2022-02-22T14:18:03Z</time>
      </trkpt>
      <trkpt lat="46.3312" lon="5.30778">
        <ele>219</ele>
        <time>2022-02-22T14:18:07Z</time>
      </trkpt>
      <trkpt lat="46.33113" lon="5.30813">
        <ele>218.4</ele>
        <time>2022-02-22T14:18:10Z</time>
      </trkpt>
      <trkpt lat="46.33098" lon="5.30895">
        <ele>217.8</ele>
        <time>2022-02-22T14:18:17Z</time>
      </trkpt>
      <trkpt lat="46.33095" lon="5.30907">
        <ele>217.8</ele>
        <time>2022-02-22T14:18:18Z</time>
      </trkpt>
      <trkpt lat="46.33079" lon="5.3099">
        <ele>217.2</ele>
        <time>2022-02-22T14:18:25Z</time>
      </trkpt>
      <trkpt lat="46.33068" lon="5.31046">
        <ele>216.6</ele>
        <time>2022-02-22T14:18:30Z</time>
      </trkpt>
      <trkpt lat="46.33065" lon="5.3106">
        <ele>216.4</ele>
        <time>2022-02-22T14:18:31Z</time>
      </trkpt>
      <trkpt lat="46.33049" lon="5.31141">
        <ele>215.8</ele>
        <time>2022-02-22T14:18:38Z</time>
      </trkpt>
      <trkpt lat="46.33046" lon="5.31153">
        <ele>215.6</ele>
        <time>2022-02-22T14:18:39Z</time>
      </trkpt>
      <trkpt lat="46.33041" lon="5.31174">
        <ele>215</ele>
        <time>2022-02-22T14:18:41Z</time>
      </trkpt>
      <trkpt lat="46.33034" lon="5.31211">
        <ele>214.4</ele>
        <time>2022-02-22T14:18:44Z</time>
      </trkpt>
      <trkpt lat="46.33022" lon="5.31272">
        <ele>213.6</ele>
        <time>2022-02-22T14:18:49Z</time>
      </trkpt>
      <trkpt lat="46.33018" lon="5.31292">
        <ele>213.2</ele>
        <time>2022-02-22T14:18:51Z</time>
      </trkpt>
      <trkpt lat="46.33012" lon="5.31314">
        <ele>213</ele>
        <time>2022-02-22T14:18:53Z</time>
      </trkpt>
      <trkpt lat="46.33002" lon="5.3133">
        <ele>212.8</ele>
        <time>2022-02-22T14:18:55Z</time>
      </trkpt>
      <trkpt lat="46.32992" lon="5.31343">
        <ele>212.8</ele>
        <time>2022-02-22T14:18:57Z</time>
      </trkpt>
      <trkpt lat="46.32976" lon="5.31361">
        <ele>213.2</ele>
        <time>2022-02-22T14:19:00Z</time>
      </trkpt>
      <trkpt lat="46.32971" lon="5.31374">
        <ele>213.2</ele>
        <time>2022-02-22T14:19:02Z</time>
      </trkpt>
      <trkpt lat="46.32974" lon="5.31394">
        <ele>213.2</ele>
        <time>2022-02-22T14:19:04Z</time>
      </trkpt>
      <trkpt lat="46.32983" lon="5.31409">
        <ele>213.4</ele>
        <time>2022-02-22T14:19:06Z</time>
      </trkpt>
      <trkpt lat="46.32987" lon="5.31418">
        <ele>213.4</ele>
        <time>2022-02-22T14:19:07Z</time>
      </trkpt>
      <trkpt lat="46.32989" lon="5.31427">
        <ele>213.4</ele>
        <time>2022-02-22T14:19:08Z</time>
      </trkpt>
      <trkpt lat="46.32997" lon="5.31466">
        <ele>213.4</ele>
        <time>2022-02-22T14:19:12Z</time>
      </trkpt>
      <trkpt lat="46.32998" lon="5.31476">
        <ele>213.4</ele>
        <time>2022-02-22T14:19:13Z</time>
      </trkpt>
      <trkpt lat="46.32999" lon="5.31516">
        <ele>213.4</ele>
        <time>2022-02-22T14:19:17Z</time>
      </trkpt>
      <trkpt lat="46.33005" lon="5.31565">
        <ele>213.4</ele>
        <time>2022-02-22T14:19:22Z</time>
      </trkpt>
      <trkpt lat="46.33007" lon="5.31575">
        <ele>213.4</ele>
        <time>2022-02-22T14:19:23Z</time>
      </trkpt>
      <trkpt lat="46.3302" lon="5.31612">
        <ele>213.4</ele>
        <time>2022-02-22T14:19:27Z</time>
      </trkpt>
      <trkpt lat="46.33045" lon="5.31683">
        <ele>213</ele>
        <time>2022-02-22T14:19:35Z</time>
      </trkpt>
      <trkpt lat="46.33063" lon="5.31747">
        <ele>213.2</ele>
        <time>2022-02-22T14:19:42Z</time>
      </trkpt>
      <trkpt lat="46.33083" lon="5.31829">
        <ele>213</ele>
        <time>2022-02-22T14:19:51Z</time>
      </trkpt>
      <trkpt lat="46.33102" lon="5.31902">
        <ele>212.8</ele>
        <time>2022-02-22T14:19:59Z</time>
      </trkpt>
      <trkpt lat="46.33119" lon="5.31973">
        <ele>212.8</ele>
        <time>2022-02-22T14:20:07Z</time>
      </trkpt>
      <trkpt lat="46.33128" lon="5.32011">
        <ele>212.8</ele>
        <time>2022-02-22T14:20:11Z</time>
      </trkpt>
      <trkpt lat="46.33135" lon="5.32036">
        <ele>212.8</ele>
        <time>2022-02-22T14:20:14Z</time>
      </trkpt>
      <trkpt lat="46.33153" lon="5.3211">
        <ele>213</ele>
        <time>2022-02-22T14:20:22Z</time>
      </trkpt>
      <trkpt lat="46.33169" lon="5.32172">
        <ele>213</ele>
        <time>2022-02-22T14:20:29Z</time>
      </trkpt>
      <trkpt lat="46.33184" lon="5.3222">
        <ele>213.4</ele>
        <time>2022-02-22T14:20:35Z</time>
      </trkpt>
      <trkpt lat="46.33188" lon="5.3223">
        <ele>213.6</ele>
        <time>2022-02-22T14:20:36Z</time>
      </trkpt>
      <trkpt lat="46.33206" lon="5.32269">
        <ele>213.6</ele>
        <time>2022-02-22T14:20:41Z</time>
      </trkpt>
      <trkpt lat="46.33243" lon="5.32335">
        <ele>214.2</ele>
        <time>2022-02-22T14:20:50Z</time>
      </trkpt>
      <trkpt lat="46.3327" lon="5.32386">
        <ele>214.4</ele>
        <time>2022-02-22T14:20:57Z</time>
      </trkpt>
      <trkpt lat="46.33274" lon="5.32393">
        <ele>214.6</ele>
        <time>2022-02-22T14:20:58Z</time>
      </trkpt>
      <trkpt lat="46.33286" lon="5.32415">
        <ele>214.8</ele>
        <time>2022-02-22T14:21:01Z</time>
      </trkpt>
      <trkpt lat="46.33317" lon="5.32476">
        <ele>214.8</ele>
        <time>2022-02-22T14:21:09Z</time>
      </trkpt>
      <trkpt lat="46.3334" lon="5.32518">
        <ele>215.2</ele>
        <time>2022-02-22T14:21:15Z</time>
      </trkpt>
      <trkpt lat="46.3335" lon="5.32539">
        <ele>215.6</ele>
        <time>2022-02-22T14:21:18Z</time>
      </trkpt>
      <trkpt lat="46.3337" lon="5.32578">
        <ele>216.6</ele>
        <time>2022-02-22T14:21:24Z</time>
      </trkpt>
      <trkpt lat="46.33374" lon="5.32585">
        <ele>216.6</ele>
        <time>2022-02-22T14:21:25Z</time>
      </trkpt>
      <trkpt lat="46.33409" lon="5.32649">
        <ele>217</ele>
        <time>2022-02-22T14:21:34Z</time>
      </trkpt>
      <trkpt lat="46.33438" lon="5.32687">
        <ele>217.2</ele>
        <time>2022-02-22T14:21:40Z</time>
      </trkpt>
      <trkpt lat="46.33471" lon="5.32717">
        <ele>217.4</ele>
        <time>2022-02-22T14:21:46Z</time>
      </trkpt>
      <trkpt lat="46.33499" lon="5.32736">
        <ele>217.6</ele>
        <time>2022-02-22T14:21:51Z</time>
      </trkpt>
      <trkpt lat="46.33515" lon="5.3275">
        <ele>217.6</ele>
        <time>2022-02-22T14:21:54Z</time>
      </trkpt>
      <trkpt lat="46.33566" lon="5.3278">
        <ele>217.6</ele>
        <time>2022-02-22T14:22:02Z</time>
      </trkpt>
      <trkpt lat="46.33612" lon="5.3281">
        <ele>217.6</ele>
        <time>2022-02-22T14:22:09Z</time>
      </trkpt>
      <trkpt lat="46.33618" lon="5.32814">
        <ele>217.4</ele>
        <time>2022-02-22T14:22:10Z</time>
      </trkpt>
      <trkpt lat="46.33635" lon="5.32837">
        <ele>217</ele>
        <time>2022-02-22T14:22:13Z</time>
      </trkpt>
      <trkpt lat="46.33651" lon="5.32871">
        <ele>216.6</ele>
        <time>2022-02-22T14:22:17Z</time>
      </trkpt>
      <trkpt lat="46.33654" lon="5.3288">
        <ele>216.6</ele>
        <time>2022-02-22T14:22:18Z</time>
      </trkpt>
      <trkpt lat="46.33656" lon="5.32888">
        <ele>216.4</ele>
        <time>2022-02-22T14:22:19Z</time>
      </trkpt>
      <trkpt lat="46.33669" lon="5.32947">
        <ele>216.8</ele>
        <time>2022-02-22T14:22:25Z</time>
      </trkpt>
      <trkpt lat="46.33672" lon="5.33019">
        <ele>216.4</ele>
        <time>2022-02-22T14:22:32Z</time>
      </trkpt>
      <trkpt lat="46.3367" lon="5.33084">
        <ele>216</ele>
        <time>2022-02-22T14:22:38Z</time>
      </trkpt>
      <trkpt lat="46.33669" lon="5.33157">
        <ele>215.8</ele>
        <time>2022-02-22T14:22:45Z</time>
      </trkpt>
      <trkpt lat="46.3367" lon="5.33167">
        <ele>215.8</ele>
        <time>2022-02-22T14:22:46Z</time>
      </trkpt>
      <trkpt lat="46.33676" lon="5.33198">
        <ele>216</ele>
        <time>2022-02-22T14:22:49Z</time>
      </trkpt>
      <trkpt lat="46.33683" lon="5.33216">
        <ele>215.8</ele>
        <time>2022-02-22T14:22:51Z</time>
      </trkpt>
      <trkpt lat="46.33698" lon="5.33255">
        <ele>215.6</ele>
        <time>2022-02-22T14:22:55Z</time>
      </trkpt>
      <trkpt lat="46.3371" lon="5.33282">
        <ele>215.4</ele>
        <time>2022-02-22T14:22:58Z</time>
      </trkpt>
      <trkpt lat="46.33734" lon="5.33307">
        <ele>215.2</ele>
        <time>2022-02-22T14:23:02Z</time>
      </trkpt>
      <trkpt lat="46.33781" lon="5.33353">
        <ele>215.4</ele>
        <time>2022-02-22T14:23:10Z</time>
      </trkpt>
      <trkpt lat="46.33817" lon="5.33387">
        <ele>215.6</ele>
        <time>2022-02-22T14:23:16Z</time>
      </trkpt>
      <trkpt lat="46.33864" lon="5.33432">
        <ele>215.4</ele>
        <time>2022-02-22T14:23:24Z</time>
      </trkpt>
      <trkpt lat="46.3387" lon="5.33438">
        <ele>215.4</ele>
        <time>2022-02-22T14:23:25Z</time>
      </trkpt>
      <trkpt lat="46.33916" lon="5.33483">
        <ele>215.2</ele>
        <time>2022-02-22T14:23:33Z</time>
      </trkpt>
      <trkpt lat="46.33922" lon="5.33489">
        <ele>215.2</ele>
        <time>2022-02-22T14:23:34Z</time>
      </trkpt>
      <trkpt lat="46.3397" lon="5.33533">
        <ele>215</ele>
        <time>2022-02-22T14:23:42Z</time>
      </trkpt>
      <trkpt lat="46.33981" lon="5.33544">
        <ele>215</ele>
        <time>2022-02-22T14:23:44Z</time>
      </trkpt>
      <trkpt lat="46.34027" lon="5.33588">
        <ele>215</ele>
        <time>2022-02-22T14:23:52Z</time>
      </trkpt>
      <trkpt lat="46.34038" lon="5.33599">
        <ele>215.2</ele>
        <time>2022-02-22T14:23:54Z</time>
      </trkpt>
      <trkpt lat="46.34088" lon="5.33647">
        <ele>216</ele>
        <time>2022-02-22T14:24:03Z</time>
      </trkpt>
      <trkpt lat="46.34093" lon="5.33652">
        <ele>216</ele>
        <time>2022-02-22T14:24:04Z</time>
      </trkpt>
      <trkpt lat="46.34127" lon="5.33685">
        <ele>216</ele>
        <time>2022-02-22T14:24:10Z</time>
      </trkpt>
      <trkpt lat="46.34131" lon="5.33693">
        <ele>216</ele>
        <time>2022-02-22T14:24:11Z</time>
      </trkpt>
      <trkpt lat="46.34135" lon="5.33701">
        <ele>216</ele>
        <time>2022-02-22T14:24:12Z</time>
      </trkpt>
      <trkpt lat="46.34142" lon="5.33728">
        <ele>215.8</ele>
        <time>2022-02-22T14:24:15Z</time>
      </trkpt>
      <trkpt lat="46.34148" lon="5.33794">
        <ele>215.8</ele>
        <time>2022-02-22T14:24:22Z</time>
      </trkpt>
      <trkpt lat="46.34153" lon="5.33865">
        <ele>215.8</ele>
        <time>2022-02-22T14:24:30Z</time>
      </trkpt>
      <trkpt lat="46.34159" lon="5.33923">
        <ele>216.2</ele>
        <time>2022-02-22T14:24:37Z</time>
      </trkpt>
      <trkpt lat="46.34162" lon="5.33955">
        <ele>216.8</ele>
        <time>2022-02-22T14:24:41Z</time>
      </trkpt>
      <trkpt lat="46.34165" lon="5.3398">
        <ele>217.2</ele>
        <time>2022-02-22T14:24:44Z</time>
      </trkpt>
      <trkpt lat="46.34173" lon="5.34027">
        <ele>217.8</ele>
        <time>2022-02-22T14:24:50Z</time>
      </trkpt>
      <trkpt lat="46.34174" lon="5.34034">
        <ele>217.8</ele>
        <time>2022-02-22T14:24:51Z</time>
      </trkpt>
      <trkpt lat="46.34176" lon="5.34042">
        <ele>217.8</ele>
        <time>2022-02-22T14:24:52Z</time>
      </trkpt>
      <trkpt lat="46.34178" lon="5.34049">
        <ele>218</ele>
        <time>2022-02-22T14:24:53Z</time>
      </trkpt>
      <trkpt lat="46.34184" lon="5.34074">
        <ele>218</ele>
        <time>2022-02-22T14:24:56Z</time>
      </trkpt>
      <trkpt lat="46.34197" lon="5.34132">
        <ele>218.4</ele>
        <time>2022-02-22T14:25:03Z</time>
      </trkpt>
      <trkpt lat="46.34214" lon="5.34201">
        <ele>218.8</ele>
        <time>2022-02-22T14:25:11Z</time>
      </trkpt>
      <trkpt lat="46.34218" lon="5.34218">
        <ele>218.8</ele>
        <time>2022-02-22T14:25:13Z</time>
      </trkpt>
      <trkpt lat="46.34234" lon="5.34276">
        <ele>219</ele>
        <time>2022-02-22T14:25:20Z</time>
      </trkpt>
      <trkpt lat="46.34236" lon="5.34284">
        <ele>219</ele>
        <time>2022-02-22T14:25:21Z</time>
      </trkpt>
      <trkpt lat="46.34243" lon="5.34307">
        <ele>219</ele>
        <time>2022-02-22T14:25:24Z</time>
      </trkpt>
      <trkpt lat="46.34245" lon="5.34315">
        <ele>219</ele>
        <time>2022-02-22T14:25:25Z</time>
      </trkpt>
      <trkpt lat="46.34246" lon="5.34323">
        <ele>219</ele>
        <time>2022-02-22T14:25:26Z</time>
      </trkpt>
      <trkpt lat="46.34253" lon="5.34353">
        <ele>219.4</ele>
        <time>2022-02-22T14:25:30Z</time>
      </trkpt>
      <trkpt lat="46.34261" lon="5.34392">
        <ele>219.8</ele>
        <time>2022-02-22T14:25:35Z</time>
      </trkpt>
      <trkpt lat="46.34265" lon="5.34423">
        <ele>220</ele>
        <time>2022-02-22T14:25:39Z</time>
      </trkpt>
      <trkpt lat="46.34272" lon="5.34509">
        <ele>220.4</ele>
        <time>2022-02-22T14:25:49Z</time>
      </trkpt>
      <trkpt lat="46.34285" lon="5.34557">
        <ele>220.6</ele>
        <time>2022-02-22T14:25:55Z</time>
      </trkpt>
      <trkpt lat="46.34309" lon="5.34625">
        <ele>220.6</ele>
        <time>2022-02-22T14:26:04Z</time>
      </trkpt>
      <trkpt lat="46.34318" lon="5.34644">
        <ele>220.2</ele>
        <time>2022-02-22T14:26:07Z</time>
      </trkpt>
      <trkpt lat="46.34321" lon="5.34656">
        <ele>220.2</ele>
        <time>2022-02-22T14:26:09Z</time>
      </trkpt>
      <trkpt lat="46.34325" lon="5.34665">
        <ele>220.4</ele>
        <time>2022-02-22T14:26:13Z</time>
      </trkpt>
      <trkpt lat="46.34328" lon="5.34666">
        <ele>220.4</ele>
        <time>2022-02-22T14:26:15Z</time>
      </trkpt>
      <trkpt lat="46.34329" lon="5.34662">
        <ele>220.4</ele>
        <time>2022-02-22T14:26:17Z</time>
      </trkpt>
      <trkpt lat="46.34328" lon="5.3466">
        <ele>220.4</ele>
        <time>2022-02-22T14:26:21Z</time>
      </trkpt>
      <trkpt lat="46.34329" lon="5.34663">
        <ele>220.4</ele>
        <time>2022-02-22T14:27:15Z</time>
      </trkpt>
      <trkpt lat="46.34331" lon="5.34671">
        <ele>220.4</ele>
        <time>2022-02-22T14:27:17Z</time>
      </trkpt>
      <trkpt lat="46.34339" lon="5.34698">
        <ele>220.2</ele>
        <time>2022-02-22T14:27:21Z</time>
      </trkpt>
      <trkpt lat="46.34359" lon="5.3475">
        <ele>220.2</ele>
        <time>2022-02-22T14:27:28Z</time>
      </trkpt>
      <trkpt lat="46.34378" lon="5.34803">
        <ele>219</ele>
        <time>2022-02-22T14:27:35Z</time>
      </trkpt>
      <trkpt lat="46.34407" lon="5.3488">
        <ele>220</ele>
        <time>2022-02-22T14:27:44Z</time>
      </trkpt>
      <trkpt lat="46.34423" lon="5.34926">
        <ele>220.2</ele>
        <time>2022-02-22T14:27:51Z</time>
      </trkpt>
      <trkpt lat="46.34451" lon="5.34999">
        <ele>220.4</ele>
        <time>2022-02-22T14:28:00Z</time>
      </trkpt>
      <trkpt lat="46.34459" lon="5.35021">
        <ele>220.8</ele>
        <time>2022-02-22T14:28:03Z</time>
      </trkpt>
      <trkpt lat="46.34464" lon="5.35037">
        <ele>220.8</ele>
        <time>2022-02-22T14:28:05Z</time>
      </trkpt>
      <trkpt lat="46.34482" lon="5.35095">
        <ele>220.8</ele>
        <time>2022-02-22T14:28:13Z</time>
      </trkpt>
      <trkpt lat="46.34487" lon="5.35109">
        <ele>221</ele>
        <time>2022-02-22T14:28:15Z</time>
      </trkpt>
      <trkpt lat="46.34503" lon="5.3516">
        <ele>221.4</ele>
        <time>2022-02-22T14:28:23Z</time>
      </trkpt>
      <trkpt lat="46.34517" lon="5.35208">
        <ele>221.8</ele>
        <time>2022-02-22T14:28:30Z</time>
      </trkpt>
      <trkpt lat="46.34525" lon="5.35234">
        <ele>222</ele>
        <time>2022-02-22T14:28:33Z</time>
      </trkpt>
      <trkpt lat="46.34529" lon="5.35246">
        <ele>222.2</ele>
        <time>2022-02-22T14:28:35Z</time>
      </trkpt>
      <trkpt lat="46.34537" lon="5.35253">
        <ele>222.2</ele>
        <time>2022-02-22T14:28:37Z</time>
      </trkpt>
      <trkpt lat="46.34541" lon="5.35252">
        <ele>222.2</ele>
        <time>2022-02-22T14:28:39Z</time>
      </trkpt>
      <trkpt lat="46.34555" lon="5.35241">
        <ele>222.4</ele>
        <time>2022-02-22T14:28:41Z</time>
      </trkpt>
      <trkpt lat="46.34564" lon="5.35234">
        <ele>222.4</ele>
        <time>2022-02-22T14:28:43Z</time>
      </trkpt>
      <trkpt lat="46.34571" lon="5.35226">
        <ele>222.8</ele>
        <time>2022-02-22T14:28:46Z</time>
      </trkpt>
      <trkpt lat="46.34579" lon="5.35221">
        <ele>222.8</ele>
        <time>2022-02-22T14:28:48Z</time>
      </trkpt>
      <trkpt lat="46.34594" lon="5.3521">
        <ele>223.4</ele>
        <time>2022-02-22T14:28:51Z</time>
      </trkpt>
      <trkpt lat="46.34598" lon="5.35208">
        <ele>223.4</ele>
        <time>2022-02-22T14:28:52Z</time>
      </trkpt>
      <trkpt lat="46.34605" lon="5.35202">
        <ele>224</ele>
        <time>2022-02-22T14:28:54Z</time>
      </trkpt>
      <trkpt lat="46.34615" lon="5.35193">
        <ele>225</ele>
        <time>2022-02-22T14:28:57Z</time>
      </trkpt>
      <trkpt lat="46.34618" lon="5.35189">
        <ele>225</ele>
        <time>2022-02-22T14:28:58Z</time>
      </trkpt>
      <trkpt lat="46.34638" lon="5.35175">
        <ele>226.2</ele>
        <time>2022-02-22T14:29:04Z</time>
      </trkpt>
      <trkpt lat="46.34642" lon="5.35172">
        <ele>226.6</ele>
        <time>2022-02-22T14:29:05Z</time>
      </trkpt>
      <trkpt lat="46.34651" lon="5.35166">
        <ele>227.4</ele>
        <time>2022-02-22T14:29:08Z</time>
      </trkpt>
      <trkpt lat="46.34667" lon="5.35154">
        <ele>228.8</ele>
        <time>2022-02-22T14:29:13Z</time>
      </trkpt>
      <trkpt lat="46.34673" lon="5.3515">
        <ele>229</ele>
        <time>2022-02-22T14:29:15Z</time>
      </trkpt>
      <trkpt lat="46.34685" lon="5.35142">
        <ele>230</ele>
        <time>2022-02-22T14:29:19Z</time>
      </trkpt>
      <trkpt lat="46.34694" lon="5.35135">
        <ele>231</ele>
        <time>2022-02-22T14:29:22Z</time>
      </trkpt>
      <trkpt lat="46.34702" lon="5.35129">
        <ele>231.6</ele>
        <time>2022-02-22T14:29:25Z</time>
      </trkpt>
      <trkpt lat="46.34705" lon="5.35127">
        <ele>231.8</ele>
        <time>2022-02-22T14:29:26Z</time>
      </trkpt>
      <trkpt lat="46.34719" lon="5.35117">
        <ele>233</ele>
        <time>2022-02-22T14:29:31Z</time>
      </trkpt>
      <trkpt lat="46.34731" lon="5.35108">
        <ele>234.2</ele>
        <time>2022-02-22T14:29:36Z</time>
      </trkpt>
      <trkpt lat="46.34746" lon="5.35097">
        <ele>235.2</ele>
        <time>2022-02-22T14:29:41Z</time>
      </trkpt>
      <trkpt lat="46.34763" lon="5.35085">
        <ele>235.8</ele>
        <time>2022-02-22T14:29:45Z</time>
      </trkpt>
      <trkpt lat="46.34769" lon="5.35081">
        <ele>236.4</ele>
        <time>2022-02-22T14:29:47Z</time>
      </trkpt>
      <trkpt lat="46.34788" lon="5.35068">
        <ele>237.4</ele>
        <time>2022-02-22T14:29:53Z</time>
      </trkpt>
      <trkpt lat="46.348" lon="5.3506">
        <ele>238.2</ele>
        <time>2022-02-22T14:29:57Z</time>
      </trkpt>
      <trkpt lat="46.348" lon="5.3506">
        <ele>238.4</ele>
        <time>2022-02-22T14:29:58Z</time>
      </trkpt>
      <trkpt lat="46.34822" lon="5.35046">
        <ele>239.4</ele>
        <time>2022-02-22T14:30:04Z</time>
      </trkpt>
      <trkpt lat="46.34838" lon="5.35038">
        <ele>240.4</ele>
        <time>2022-02-22T14:30:09Z</time>
      </trkpt>
      <trkpt lat="46.3485" lon="5.35031">
        <ele>241.4</ele>
        <time>2022-02-22T14:30:13Z</time>
      </trkpt>
      <trkpt lat="46.34868" lon="5.3502">
        <ele>242.8</ele>
        <time>2022-02-22T14:30:19Z</time>
      </trkpt>
      <trkpt lat="46.34874" lon="5.35017">
        <ele>243.2</ele>
        <time>2022-02-22T14:30:21Z</time>
      </trkpt>
      <trkpt lat="46.34884" lon="5.35012">
        <ele>243.8</ele>
        <time>2022-02-22T14:30:24Z</time>
      </trkpt>
      <trkpt lat="46.34897" lon="5.35004">
        <ele>245</ele>
        <time>2022-02-22T14:30:28Z</time>
      </trkpt>
      <trkpt lat="46.34907" lon="5.35">
        <ele>245.6</ele>
        <time>2022-02-22T14:30:31Z</time>
      </trkpt>
      <trkpt lat="46.34914" lon="5.34996">
        <ele>246</ele>
        <time>2022-02-22T14:30:33Z</time>
      </trkpt>
      <trkpt lat="46.34931" lon="5.34986">
        <ele>247</ele>
        <time>2022-02-22T14:30:38Z</time>
      </trkpt>
      <trkpt lat="46.34935" lon="5.34984">
        <ele>247.4</ele>
        <time>2022-02-22T14:30:39Z</time>
      </trkpt>
      <trkpt lat="46.3495" lon="5.34975">
        <ele>248.2</ele>
        <time>2022-02-22T14:30:44Z</time>
      </trkpt>
      <trkpt lat="46.34966" lon="5.34966">
        <ele>249.2</ele>
        <time>2022-02-22T14:30:49Z</time>
      </trkpt>
      <trkpt lat="46.34985" lon="5.34956">
        <ele>250.2</ele>
        <time>2022-02-22T14:30:55Z</time>
      </trkpt>
      <trkpt lat="46.34999" lon="5.34948">
        <ele>251.2</ele>
        <time>2022-02-22T14:30:59Z</time>
      </trkpt>
      <trkpt lat="46.35003" lon="5.34946">
        <ele>251.2</ele>
        <time>2022-02-22T14:31:00Z</time>
      </trkpt>
      <trkpt lat="46.35025" lon="5.34935">
        <ele>252.2</ele>
        <time>2022-02-22T14:31:06Z</time>
      </trkpt>
      <trkpt lat="46.35029" lon="5.34933">
        <ele>252.4</ele>
        <time>2022-02-22T14:31:07Z</time>
      </trkpt>
      <trkpt lat="46.35055" lon="5.3492">
        <ele>253.6</ele>
        <time>2022-02-22T14:31:14Z</time>
      </trkpt>
      <trkpt lat="46.35058" lon="5.34918">
        <ele>253.8</ele>
        <time>2022-02-22T14:31:15Z</time>
      </trkpt>
      <trkpt lat="46.35078" lon="5.34908">
        <ele>254.6</ele>
        <time>2022-02-22T14:31:20Z</time>
      </trkpt>
      <trkpt lat="46.35081" lon="5.34907">
        <ele>254.8</ele>
        <time>2022-02-22T14:31:21Z</time>
      </trkpt>
      <trkpt lat="46.35086" lon="5.34904">
        <ele>255.2</ele>
        <time>2022-02-22T14:31:23Z</time>
      </trkpt>
      <trkpt lat="46.35105" lon="5.34895">
        <ele>255.6</ele>
        <time>2022-02-22T14:31:27Z</time>
      </trkpt>
      <trkpt lat="46.35109" lon="5.34894">
        <ele>255.8</ele>
        <time>2022-02-22T14:31:28Z</time>
      </trkpt>
      <trkpt lat="46.35125" lon="5.3489">
        <ele>256.4</ele>
        <time>2022-02-22T14:31:32Z</time>
      </trkpt>
      <trkpt lat="46.35134" lon="5.34888">
        <ele>256.8</ele>
        <time>2022-02-22T14:31:34Z</time>
      </trkpt>
      <trkpt lat="46.35162" lon="5.34881">
        <ele>257.4</ele>
        <time>2022-02-22T14:31:40Z</time>
      </trkpt>
      <trkpt lat="46.35176" lon="5.34876">
        <ele>257.8</ele>
        <time>2022-02-22T14:31:43Z</time>
      </trkpt>
      <trkpt lat="46.35216" lon="5.34864">
        <ele>258.8</ele>
        <time>2022-02-22T14:31:52Z</time>
      </trkpt>
      <trkpt lat="46.35225" lon="5.34862">
        <ele>259.2</ele>
        <time>2022-02-22T14:31:54Z</time>
      </trkpt>
      <trkpt lat="46.35243" lon="5.34857">
        <ele>260</ele>
        <time>2022-02-22T14:31:58Z</time>
      </trkpt>
      <trkpt lat="46.35268" lon="5.34851">
        <ele>261</ele>
        <time>2022-02-22T14:32:04Z</time>
      </trkpt>
      <trkpt lat="46.35276" lon="5.34848">
        <ele>261.4</ele>
        <time>2022-02-22T14:32:06Z</time>
      </trkpt>
      <trkpt lat="46.35288" lon="5.34845">
        <ele>262</ele>
        <time>2022-02-22T14:32:09Z</time>
      </trkpt>
      <trkpt lat="46.35312" lon="5.34839">
        <ele>263.2</ele>
        <time>2022-02-22T14:32:15Z</time>
      </trkpt>
      <trkpt lat="46.35336" lon="5.34832">
        <ele>264.4</ele>
        <time>2022-02-22T14:32:21Z</time>
      </trkpt>
      <trkpt lat="46.35346" lon="5.34829">
        <ele>264.8</ele>
        <time>2022-02-22T14:32:23Z</time>
      </trkpt>
      <trkpt lat="46.35355" lon="5.34827">
        <ele>265.4</ele>
        <time>2022-02-22T14:32:25Z</time>
      </trkpt>
      <trkpt lat="46.35387" lon="5.34821">
        <ele>266.2</ele>
        <time>2022-02-22T14:32:32Z</time>
      </trkpt>
      <trkpt lat="46.35392" lon="5.3482">
        <ele>266.4</ele>
        <time>2022-02-22T14:32:33Z</time>
      </trkpt>
      <trkpt lat="46.35431" lon="5.34821">
        <ele>267.4</ele>
        <time>2022-02-22T14:32:41Z</time>
      </trkpt>
      <trkpt lat="46.35441" lon="5.34822">
        <ele>267.4</ele>
        <time>2022-02-22T14:32:43Z</time>
      </trkpt>
      <trkpt lat="46.35475" lon="5.34825">
        <ele>268</ele>
        <time>2022-02-22T14:32:50Z</time>
      </trkpt>
      <trkpt lat="46.35499" lon="5.34828">
        <ele>268.4</ele>
        <time>2022-02-22T14:32:55Z</time>
      </trkpt>
      <trkpt lat="46.35522" lon="5.34829">
        <ele>269</ele>
        <time>2022-02-22T14:33:00Z</time>
      </trkpt>
      <trkpt lat="46.3553" lon="5.34829">
        <ele>269.4</ele>
        <time>2022-02-22T14:33:02Z</time>
      </trkpt>
      <trkpt lat="46.35547" lon="5.34828">
        <ele>270.6</ele>
        <time>2022-02-22T14:33:06Z</time>
      </trkpt>
      <trkpt lat="46.35565" lon="5.34826">
        <ele>271.4</ele>
        <time>2022-02-22T14:33:10Z</time>
      </trkpt>
      <trkpt lat="46.35573" lon="5.34825">
        <ele>271.8</ele>
        <time>2022-02-22T14:33:12Z</time>
      </trkpt>
      <trkpt lat="46.35597" lon="5.34822">
        <ele>272.8</ele>
        <time>2022-02-22T14:33:18Z</time>
      </trkpt>
      <trkpt lat="46.35604" lon="5.34822">
        <ele>273.2</ele>
        <time>2022-02-22T14:33:20Z</time>
      </trkpt>
      <trkpt lat="46.35611" lon="5.34821">
        <ele>273.8</ele>
        <time>2022-02-22T14:33:22Z</time>
      </trkpt>
      <trkpt lat="46.3563" lon="5.34819">
        <ele>275</ele>
        <time>2022-02-22T14:33:27Z</time>
      </trkpt>
      <trkpt lat="46.35644" lon="5.34816">
        <ele>276.2</ele>
        <time>2022-02-22T14:33:31Z</time>
      </trkpt>
      <trkpt lat="46.35668" lon="5.34805">
        <ele>277.4</ele>
        <time>2022-02-22T14:33:38Z</time>
      </trkpt>
      <trkpt lat="46.35672" lon="5.34803">
        <ele>277.6</ele>
        <time>2022-02-22T14:33:39Z</time>
      </trkpt>
      <trkpt lat="46.3569" lon="5.34791">
        <ele>278.4</ele>
        <time>2022-02-22T14:33:44Z</time>
      </trkpt>
      <trkpt lat="46.35698" lon="5.34786">
        <ele>278.6</ele>
        <time>2022-02-22T14:33:46Z</time>
      </trkpt>
      <trkpt lat="46.3572" lon="5.3477">
        <ele>279.4</ele>
        <time>2022-02-22T14:33:51Z</time>
      </trkpt>
      <trkpt lat="46.35725" lon="5.34766">
        <ele>279.4</ele>
        <time>2022-02-22T14:33:52Z</time>
      </trkpt>
      <trkpt lat="46.35766" lon="5.34739">
        <ele>279.4</ele>
        <time>2022-02-22T14:33:59Z</time>
      </trkpt>
      <trkpt lat="46.35818" lon="5.34702">
        <ele>278.4</ele>
        <time>2022-02-22T14:34:07Z</time>
      </trkpt>
      <trkpt lat="46.35824" lon="5.34697">
        <ele>278.4</ele>
        <time>2022-02-22T14:34:08Z</time>
      </trkpt>
      <trkpt lat="46.35876" lon="5.34661">
        <ele>278.6</ele>
        <time>2022-02-22T14:34:17Z</time>
      </trkpt>
      <trkpt lat="46.35925" lon="5.34628">
        <ele>279.6</ele>
        <time>2022-02-22T14:34:26Z</time>
      </trkpt>
      <trkpt lat="46.35972" lon="5.34597">
        <ele>280.8</ele>
        <time>2022-02-22T14:34:34Z</time>
      </trkpt>
      <trkpt lat="46.36009" lon="5.3457">
        <ele>281.2</ele>
        <time>2022-02-22T14:34:40Z</time>
      </trkpt>
      <trkpt lat="46.36039" lon="5.34557">
        <ele>280.6</ele>
        <time>2022-02-22T14:34:44Z</time>
      </trkpt>
      <trkpt lat="46.36047" lon="5.34555">
        <ele>280.4</ele>
        <time>2022-02-22T14:34:45Z</time>
      </trkpt>
      <trkpt lat="46.36081" lon="5.34551">
        <ele>279.6</ele>
        <time>2022-02-22T14:34:49Z</time>
      </trkpt>
      <trkpt lat="46.3609" lon="5.3455">
        <ele>279.4</ele>
        <time>2022-02-22T14:34:50Z</time>
      </trkpt>
      <trkpt lat="46.36117" lon="5.34546">
        <ele>278.6</ele>
        <time>2022-02-22T14:34:53Z</time>
      </trkpt>
      <trkpt lat="46.36138" lon="5.34542">
        <ele>277.8</ele>
        <time>2022-02-22T14:34:55Z</time>
      </trkpt>
      <trkpt lat="46.36155" lon="5.34541">
        <ele>276.6</ele>
        <time>2022-02-22T14:34:57Z</time>
      </trkpt>
      <trkpt lat="46.36178" lon="5.34545">
        <ele>275.2</ele>
        <time>2022-02-22T14:34:59Z</time>
      </trkpt>
      <trkpt lat="46.36198" lon="5.34554">
        <ele>274</ele>
        <time>2022-02-22T14:35:01Z</time>
      </trkpt>
      <trkpt lat="46.36205" lon="5.34561">
        <ele>273.2</ele>
        <time>2022-02-22T14:35:02Z</time>
      </trkpt>
      <trkpt lat="46.36213" lon="5.3457">
        <ele>273</ele>
        <time>2022-02-22T14:35:03Z</time>
      </trkpt>
      <trkpt lat="46.36222" lon="5.346">
        <ele>271.8</ele>
        <time>2022-02-22T14:35:05Z</time>
      </trkpt>
      <trkpt lat="46.36215" lon="5.34627">
        <ele>269.8</ele>
        <time>2022-02-22T14:35:07Z</time>
      </trkpt>
      <trkpt lat="46.36208" lon="5.34639">
        <ele>268.4</ele>
        <time>2022-02-22T14:35:09Z</time>
      </trkpt>
      <trkpt lat="46.36193" lon="5.34663">
        <ele>268</ele>
        <time>2022-02-22T14:35:10Z</time>
      </trkpt>
      <trkpt lat="46.36186" lon="5.34675">
        <ele>267</ele>
        <time>2022-02-22T14:35:11Z</time>
      </trkpt>
      <trkpt lat="46.36179" lon="5.34706">
        <ele>266</ele>
        <time>2022-02-22T14:35:13Z</time>
      </trkpt>
      <trkpt lat="46.36181" lon="5.34721">
        <ele>265.4</ele>
        <time>2022-02-22T14:35:14Z</time>
      </trkpt>
      <trkpt lat="46.36186" lon="5.34735">
        <ele>265.2</ele>
        <time>2022-02-22T14:35:15Z</time>
      </trkpt>
      <trkpt lat="46.36206" lon="5.34745">
        <ele>264</ele>
        <time>2022-02-22T14:35:17Z</time>
      </trkpt>
      <trkpt lat="46.36216" lon="5.34744">
        <ele>262.6</ele>
        <time>2022-02-22T14:35:18Z</time>
      </trkpt>
      <trkpt lat="46.36236" lon="5.34737">
        <ele>260.8</ele>
        <time>2022-02-22T14:35:20Z</time>
      </trkpt>
      <trkpt lat="46.36256" lon="5.34728">
        <ele>259.8</ele>
        <time>2022-02-22T14:35:22Z</time>
      </trkpt>
      <trkpt lat="46.36266" lon="5.34725">
        <ele>258.4</ele>
        <time>2022-02-22T14:35:23Z</time>
      </trkpt>
      <trkpt lat="46.36287" lon="5.34722">
        <ele>257.4</ele>
        <time>2022-02-22T14:35:25Z</time>
      </trkpt>
      <trkpt lat="46.36298" lon="5.34723">
        <ele>257.2</ele>
        <time>2022-02-22T14:35:26Z</time>
      </trkpt>
      <trkpt lat="46.36331" lon="5.34729">
        <ele>255.6</ele>
        <time>2022-02-22T14:35:29Z</time>
      </trkpt>
      <trkpt lat="46.36353" lon="5.34733">
        <ele>254.4</ele>
        <time>2022-02-22T14:35:31Z</time>
      </trkpt>
      <trkpt lat="46.36375" lon="5.34735">
        <ele>253</ele>
        <time>2022-02-22T14:35:33Z</time>
      </trkpt>
      <trkpt lat="46.36398" lon="5.34736">
        <ele>251.8</ele>
        <time>2022-02-22T14:35:35Z</time>
      </trkpt>
      <trkpt lat="46.36419" lon="5.3474">
        <ele>250.6</ele>
        <time>2022-02-22T14:35:37Z</time>
      </trkpt>
      <trkpt lat="46.36461" lon="5.34743">
        <ele>249.8</ele>
        <time>2022-02-22T14:35:41Z</time>
      </trkpt>
      <trkpt lat="46.3647" lon="5.34742">
        <ele>249.4</ele>
        <time>2022-02-22T14:35:42Z</time>
      </trkpt>
      <trkpt lat="46.3648" lon="5.34741">
        <ele>249</ele>
        <time>2022-02-22T14:35:43Z</time>
      </trkpt>
      <trkpt lat="46.36489" lon="5.34738">
        <ele>249</ele>
        <time>2022-02-22T14:35:44Z</time>
      </trkpt>
      <trkpt lat="46.36504" lon="5.34731">
        <ele>248.4</ele>
        <time>2022-02-22T14:35:46Z</time>
      </trkpt>
      <trkpt lat="46.36525" lon="5.3472">
        <ele>248.6</ele>
        <time>2022-02-22T14:35:49Z</time>
      </trkpt>
      <trkpt lat="46.36537" lon="5.34712">
        <ele>248.8</ele>
        <time>2022-02-22T14:35:51Z</time>
      </trkpt>
      <trkpt lat="46.36548" lon="5.34699">
        <ele>249</ele>
        <time>2022-02-22T14:35:53Z</time>
      </trkpt>
      <trkpt lat="46.36558" lon="5.34686">
        <ele>249.4</ele>
        <time>2022-02-22T14:35:55Z</time>
      </trkpt>
      <trkpt lat="46.36579" lon="5.34655">
        <ele>250.2</ele>
        <time>2022-02-22T14:35:59Z</time>
      </trkpt>
      <trkpt lat="46.36583" lon="5.34651">
        <ele>250.2</ele>
        <time>2022-02-22T14:36:00Z</time>
      </trkpt>
      <trkpt lat="46.36589" lon="5.34645">
        <ele>250.6</ele>
        <time>2022-02-22T14:36:01Z</time>
      </trkpt>
      <trkpt lat="46.36607" lon="5.34635">
        <ele>250.8</ele>
        <time>2022-02-22T14:36:04Z</time>
      </trkpt>
      <trkpt lat="46.3664" lon="5.34627">
        <ele>250.8</ele>
        <time>2022-02-22T14:36:09Z</time>
      </trkpt>
      <trkpt lat="46.36691" lon="5.34623">
        <ele>251.2</ele>
        <time>2022-02-22T14:36:17Z</time>
      </trkpt>
      <trkpt lat="46.36721" lon="5.34621">
        <ele>251.6</ele>
        <time>2022-02-22T14:36:22Z</time>
      </trkpt>
      <trkpt lat="46.36745" lon="5.34617">
        <ele>252.2</ele>
        <time>2022-02-22T14:36:26Z</time>
      </trkpt>
      <trkpt lat="46.36762" lon="5.34611">
        <ele>252.8</ele>
        <time>2022-02-22T14:36:29Z</time>
      </trkpt>
      <trkpt lat="46.36781" lon="5.34602">
        <ele>253.4</ele>
        <time>2022-02-22T14:36:33Z</time>
      </trkpt>
      <trkpt lat="46.36796" lon="5.34593">
        <ele>254</ele>
        <time>2022-02-22T14:36:36Z</time>
      </trkpt>
      <trkpt lat="46.36825" lon="5.34576">
        <ele>255.2</ele>
        <time>2022-02-22T14:36:42Z</time>
      </trkpt>
      <trkpt lat="46.36829" lon="5.34573">
        <ele>255.2</ele>
        <time>2022-02-22T14:36:43Z</time>
      </trkpt>
      <trkpt lat="46.36857" lon="5.34557">
        <ele>256.2</ele>
        <time>2022-02-22T14:36:49Z</time>
      </trkpt>
      <trkpt lat="46.36867" lon="5.34552">
        <ele>256.4</ele>
        <time>2022-02-22T14:36:51Z</time>
      </trkpt>
      <trkpt lat="46.36905" lon="5.34533">
        <ele>257.4</ele>
        <time>2022-02-22T14:36:58Z</time>
      </trkpt>
      <trkpt lat="46.36911" lon="5.34531">
        <ele>257.6</ele>
        <time>2022-02-22T14:36:59Z</time>
      </trkpt>
      <trkpt lat="46.36951" lon="5.34511">
        <ele>258</ele>
        <time>2022-02-22T14:37:07Z</time>
      </trkpt>
      <trkpt lat="46.36985" lon="5.34492">
        <ele>258.6</ele>
        <time>2022-02-22T14:37:14Z</time>
      </trkpt>
      <trkpt lat="46.37" lon="5.34481">
        <ele>258.8</ele>
        <time>2022-02-22T14:37:17Z</time>
      </trkpt>
      <trkpt lat="46.3702" lon="5.34469">
        <ele>259.6</ele>
        <time>2022-02-22T14:37:21Z</time>
      </trkpt>
      <trkpt lat="46.37042" lon="5.3446">
        <ele>259.8</ele>
        <time>2022-02-22T14:37:25Z</time>
      </trkpt>
      <trkpt lat="46.3708" lon="5.34453">
        <ele>260</ele>
        <time>2022-02-22T14:37:31Z</time>
      </trkpt>
      <trkpt lat="46.37131" lon="5.34451">
        <ele>259</ele>
        <time>2022-02-22T14:37:38Z</time>
      </trkpt>
      <trkpt lat="46.37139" lon="5.34453">
        <ele>259</ele>
        <time>2022-02-22T14:37:39Z</time>
      </trkpt>
      <trkpt lat="46.37155" lon="5.34457">
        <ele>258.4</ele>
        <time>2022-02-22T14:37:41Z</time>
      </trkpt>
      <trkpt lat="46.3717" lon="5.34464">
        <ele>258</ele>
        <time>2022-02-22T14:37:43Z</time>
      </trkpt>
      <trkpt lat="46.37199" lon="5.34479">
        <ele>257.4</ele>
        <time>2022-02-22T14:37:47Z</time>
      </trkpt>
      <trkpt lat="46.37235" lon="5.34494">
        <ele>257</ele>
        <time>2022-02-22T14:37:52Z</time>
      </trkpt>
      <trkpt lat="46.37242" lon="5.34495">
        <ele>257</ele>
        <time>2022-02-22T14:37:53Z</time>
      </trkpt>
      <trkpt lat="46.37255" lon="5.34494">
        <ele>257</ele>
        <time>2022-02-22T14:37:55Z</time>
      </trkpt>
      <trkpt lat="46.37262" lon="5.34492">
        <ele>257.2</ele>
        <time>2022-02-22T14:37:56Z</time>
      </trkpt>
      <trkpt lat="46.37303" lon="5.34476">
        <ele>258</ele>
        <time>2022-02-22T14:38:03Z</time>
      </trkpt>
      <trkpt lat="46.37317" lon="5.3447">
        <ele>258.4</ele>
        <time>2022-02-22T14:38:06Z</time>
      </trkpt>
      <trkpt lat="46.37333" lon="5.34462">
        <ele>259.4</ele>
        <time>2022-02-22T14:38:10Z</time>
      </trkpt>
      <trkpt lat="46.37344" lon="5.34454">
        <ele>260.6</ele>
        <time>2022-02-22T14:38:13Z</time>
      </trkpt>
      <trkpt lat="46.37354" lon="5.34444">
        <ele>261.2</ele>
        <time>2022-02-22T14:38:16Z</time>
      </trkpt>
      <trkpt lat="46.37361" lon="5.34439">
        <ele>262</ele>
        <time>2022-02-22T14:38:18Z</time>
      </trkpt>
      <trkpt lat="46.37369" lon="5.34435">
        <ele>262.4</ele>
        <time>2022-02-22T14:38:20Z</time>
      </trkpt>
      <trkpt lat="46.37381" lon="5.34433">
        <ele>263</ele>
        <time>2022-02-22T14:38:23Z</time>
      </trkpt>
      <trkpt lat="46.37397" lon="5.34437">
        <ele>264</ele>
        <time>2022-02-22T14:38:27Z</time>
      </trkpt>
      <trkpt lat="46.37401" lon="5.34439">
        <ele>264.2</ele>
        <time>2022-02-22T14:38:28Z</time>
      </trkpt>
      <trkpt lat="46.37405" lon="5.34441">
        <ele>264.2</ele>
        <time>2022-02-22T14:38:29Z</time>
      </trkpt>
      <trkpt lat="46.37419" lon="5.3445">
        <ele>265.2</ele>
        <time>2022-02-22T14:38:33Z</time>
      </trkpt>
      <trkpt lat="46.37433" lon="5.34457">
        <ele>266.6</ele>
        <time>2022-02-22T14:38:37Z</time>
      </trkpt>
      <trkpt lat="46.3744" lon="5.34461">
        <ele>267.2</ele>
        <time>2022-02-22T14:38:39Z</time>
      </trkpt>
      <trkpt lat="46.37447" lon="5.34463">
        <ele>267.6</ele>
        <time>2022-02-22T14:38:41Z</time>
      </trkpt>
      <trkpt lat="46.37471" lon="5.34472">
        <ele>268.2</ele>
        <time>2022-02-22T14:38:47Z</time>
      </trkpt>
      <trkpt lat="46.37485" lon="5.34476">
        <ele>268.6</ele>
        <time>2022-02-22T14:38:50Z</time>
      </trkpt>
      <trkpt lat="46.37513" lon="5.34482">
        <ele>269.6</ele>
        <time>2022-02-22T14:38:57Z</time>
      </trkpt>
      <trkpt lat="46.37517" lon="5.34483">
        <ele>269.8</ele>
        <time>2022-02-22T14:38:58Z</time>
      </trkpt>
      <trkpt lat="46.37548" lon="5.3449">
        <ele>270.8</ele>
        <time>2022-02-22T14:39:05Z</time>
      </trkpt>
      <trkpt lat="46.37557" lon="5.34492">
        <ele>271.2</ele>
        <time>2022-02-22T14:39:07Z</time>
      </trkpt>
      <trkpt lat="46.37588" lon="5.34499">
        <ele>272</ele>
        <time>2022-02-22T14:39:14Z</time>
      </trkpt>
      <trkpt lat="46.37606" lon="5.34504">
        <ele>272.2</ele>
        <time>2022-02-22T14:39:18Z</time>
      </trkpt>
      <trkpt lat="46.37624" lon="5.34511">
        <ele>273</ele>
        <time>2022-02-22T14:39:22Z</time>
      </trkpt>
      <trkpt lat="46.37655" lon="5.34524">
        <ele>274</ele>
        <time>2022-02-22T14:39:29Z</time>
      </trkpt>
      <trkpt lat="46.37659" lon="5.34526">
        <ele>274.2</ele>
        <time>2022-02-22T14:39:31Z</time>
      </trkpt>
      <trkpt lat="46.37682" lon="5.34536">
        <ele>275.2</ele>
        <time>2022-02-22T14:39:36Z</time>
      </trkpt>
      <trkpt lat="46.37686" lon="5.34538">
        <ele>275.4</ele>
        <time>2022-02-22T14:39:37Z</time>
      </trkpt>
      <trkpt lat="46.37694" lon="5.3454">
        <ele>275.8</ele>
        <time>2022-02-22T14:39:39Z</time>
      </trkpt>
      <trkpt lat="46.37701" lon="5.34542">
        <ele>276.4</ele>
        <time>2022-02-22T14:39:41Z</time>
      </trkpt>
      <trkpt lat="46.37721" lon="5.34546">
        <ele>277.4</ele>
        <time>2022-02-22T14:39:46Z</time>
      </trkpt>
      <trkpt lat="46.37725" lon="5.34546">
        <ele>277.6</ele>
        <time>2022-02-22T14:39:47Z</time>
      </trkpt>
      <trkpt lat="46.37744" lon="5.3455">
        <ele>278.6</ele>
        <time>2022-02-22T14:39:52Z</time>
      </trkpt>
      <trkpt lat="46.37751" lon="5.34551">
        <ele>279.2</ele>
        <time>2022-02-22T14:39:54Z</time>
      </trkpt>
      <trkpt lat="46.37759" lon="5.34552">
        <ele>279.8</ele>
        <time>2022-02-22T14:39:56Z</time>
      </trkpt>
      <trkpt lat="46.37779" lon="5.34556">
        <ele>280.8</ele>
        <time>2022-02-22T14:40:01Z</time>
      </trkpt>
      <trkpt lat="46.37787" lon="5.34556">
        <ele>281.2</ele>
        <time>2022-02-22T14:40:03Z</time>
      </trkpt>
      <trkpt lat="46.37807" lon="5.34558">
        <ele>282.2</ele>
        <time>2022-02-22T14:40:08Z</time>
      </trkpt>
      <trkpt lat="46.37821" lon="5.34559">
        <ele>283</ele>
        <time>2022-02-22T14:40:12Z</time>
      </trkpt>
      <trkpt lat="46.37825" lon="5.34559">
        <ele>283.2</ele>
        <time>2022-02-22T14:40:13Z</time>
      </trkpt>
      <trkpt lat="46.37845" lon="5.3456">
        <ele>284.4</ele>
        <time>2022-02-22T14:40:18Z</time>
      </trkpt>
      <trkpt lat="46.3786" lon="5.3456">
        <ele>285.6</ele>
        <time>2022-02-22T14:40:22Z</time>
      </trkpt>
      <trkpt lat="46.37874" lon="5.34559">
        <ele>287</ele>
        <time>2022-02-22T14:40:26Z</time>
      </trkpt>
      <trkpt lat="46.37893" lon="5.34559">
        <ele>288.2</ele>
        <time>2022-02-22T14:40:31Z</time>
      </trkpt>
      <trkpt lat="46.37897" lon="5.34559">
        <ele>288.2</ele>
        <time>2022-02-22T14:40:32Z</time>
      </trkpt>
      <trkpt lat="46.37909" lon="5.34558">
        <ele>289.2</ele>
        <time>2022-02-22T14:40:35Z</time>
      </trkpt>
      <trkpt lat="46.37929" lon="5.34558">
        <ele>290.4</ele>
        <time>2022-02-22T14:40:40Z</time>
      </trkpt>
      <trkpt lat="46.37938" lon="5.34558">
        <ele>290.8</ele>
        <time>2022-02-22T14:40:42Z</time>
      </trkpt>
      <trkpt lat="46.37958" lon="5.34558">
        <ele>291.6</ele>
        <time>2022-02-22T14:40:47Z</time>
      </trkpt>
      <trkpt lat="46.37971" lon="5.34561">
        <ele>292</ele>
        <time>2022-02-22T14:40:50Z</time>
      </trkpt>
      <trkpt lat="46.37975" lon="5.34563">
        <ele>292.2</ele>
        <time>2022-02-22T14:40:51Z</time>
      </trkpt>
      <trkpt lat="46.37988" lon="5.34568">
        <ele>292.6</ele>
        <time>2022-02-22T14:40:54Z</time>
      </trkpt>
      <trkpt lat="46.38007" lon="5.34576">
        <ele>293.2</ele>
        <time>2022-02-22T14:40:59Z</time>
      </trkpt>
      <trkpt lat="46.38009" lon="5.3458">
        <ele>293.2</ele>
        <time>2022-02-22T14:41:00Z</time>
      </trkpt>
      <trkpt lat="46.38005" lon="5.34599">
        <ele>293.4</ele>
        <time>2022-02-22T14:41:03Z</time>
      </trkpt>
      <trkpt lat="46.38001" lon="5.3462">
        <ele>293.4</ele>
        <time>2022-02-22T14:41:06Z</time>
      </trkpt>
      <trkpt lat="46.37997" lon="5.34636">
        <ele>293.2</ele>
        <time>2022-02-22T14:41:08Z</time>
      </trkpt>
      <trkpt lat="46.37984" lon="5.34689">
        <ele>292.2</ele>
        <time>2022-02-22T14:41:14Z</time>
      </trkpt>
      <trkpt lat="46.37976" lon="5.34725">
        <ele>291.4</ele>
        <time>2022-02-22T14:41:18Z</time>
      </trkpt>
      <trkpt lat="46.37968" lon="5.34756">
        <ele>290.8</ele>
        <time>2022-02-22T14:41:22Z</time>
      </trkpt>
      <trkpt lat="46.37965" lon="5.34769">
        <ele>290.8</ele>
        <time>2022-02-22T14:41:24Z</time>
      </trkpt>
      <trkpt lat="46.3796" lon="5.34786">
        <ele>290.8</ele>
        <time>2022-02-22T14:41:27Z</time>
      </trkpt>
      <trkpt lat="46.37957" lon="5.34801">
        <ele>291.2</ele>
        <time>2022-02-22T14:41:31Z</time>
      </trkpt>
      <trkpt lat="46.3796" lon="5.34796">
        <ele>291.4</ele>
        <time>2022-02-22T14:41:34Z</time>
      </trkpt>
      <trkpt lat="46.37964" lon="5.34776">
        <ele>291.6</ele>
        <time>2022-02-22T14:41:37Z</time>
      </trkpt>
      <trkpt lat="46.37973" lon="5.34738">
        <ele>291.6</ele>
        <time>2022-02-22T14:41:41Z</time>
      </trkpt>
      <trkpt lat="46.3799" lon="5.34671">
        <ele>290.8</ele>
        <time>2022-02-22T14:41:48Z</time>
      </trkpt>
      <trkpt lat="46.38" lon="5.3463">
        <ele>291</ele>
        <time>2022-02-22T14:41:53Z</time>
      </trkpt>
      <trkpt lat="46.3801" lon="5.34593">
        <ele>291.6</ele>
        <time>2022-02-22T14:41:58Z</time>
      </trkpt>
      <trkpt lat="46.38011" lon="5.34587">
        <ele>291.8</ele>
        <time>2022-02-22T14:41:59Z</time>
      </trkpt>
      <trkpt lat="46.38013" lon="5.34582">
        <ele>292</ele>
        <time>2022-02-22T14:42:00Z</time>
      </trkpt>
      <trkpt lat="46.3802" lon="5.34573">
        <ele>292.4</ele>
        <time>2022-02-22T14:42:02Z</time>
      </trkpt>
      <trkpt lat="46.38024" lon="5.3457">
        <ele>292.6</ele>
        <time>2022-02-22T14:42:03Z</time>
      </trkpt>
      <trkpt lat="46.3803" lon="5.34568">
        <ele>292.6</ele>
        <time>2022-02-22T14:42:04Z</time>
      </trkpt>
      <trkpt lat="46.38053" lon="5.3456">
        <ele>292.8</ele>
        <time>2022-02-22T14:42:08Z</time>
      </trkpt>
      <trkpt lat="46.38065" lon="5.34556">
        <ele>293</ele>
        <time>2022-02-22T14:42:10Z</time>
      </trkpt>
      <trkpt lat="46.38077" lon="5.34558">
        <ele>293</ele>
        <time>2022-02-22T14:42:12Z</time>
      </trkpt>
      <trkpt lat="46.38087" lon="5.34569">
        <ele>293</ele>
        <time>2022-02-22T14:42:14Z</time>
      </trkpt>
      <trkpt lat="46.3809" lon="5.34577">
        <ele>293</ele>
        <time>2022-02-22T14:42:15Z</time>
      </trkpt>
      <trkpt lat="46.38109" lon="5.34635">
        <ele>293</ele>
        <time>2022-02-22T14:42:22Z</time>
      </trkpt>
      <trkpt lat="46.38123" lon="5.34681">
        <ele>293.6</ele>
        <time>2022-02-22T14:42:28Z</time>
      </trkpt>
      <trkpt lat="46.38129" lon="5.34702">
        <ele>294.2</ele>
        <time>2022-02-22T14:42:31Z</time>
      </trkpt>
      <trkpt lat="46.38131" lon="5.34709">
        <ele>294.4</ele>
        <time>2022-02-22T14:42:32Z</time>
      </trkpt>
      <trkpt lat="46.38136" lon="5.34721">
        <ele>294.6</ele>
        <time>2022-02-22T14:42:34Z</time>
      </trkpt>
      <trkpt lat="46.38139" lon="5.34727">
        <ele>294.8</ele>
        <time>2022-02-22T14:42:35Z</time>
      </trkpt>
      <trkpt lat="46.38147" lon="5.34729">
        <ele>295</ele>
        <time>2022-02-22T14:42:37Z</time>
      </trkpt>
      <trkpt lat="46.38176" lon="5.34718">
        <ele>296</ele>
        <time>2022-02-22T14:42:43Z</time>
      </trkpt>
      <trkpt lat="46.38226" lon="5.34701">
        <ele>296.8</ele>
        <time>2022-02-22T14:42:52Z</time>
      </trkpt>
      <trkpt lat="46.38272" lon="5.34686">
        <ele>297</ele>
        <time>2022-02-22T14:43:00Z</time>
      </trkpt>
      <trkpt lat="46.3829" lon="5.34681">
        <ele>297</ele>
        <time>2022-02-22T14:43:03Z</time>
      </trkpt>
      <trkpt lat="46.38307" lon="5.34675">
        <ele>296.8</ele>
        <time>2022-02-22T14:43:06Z</time>
      </trkpt>
      <trkpt lat="46.38312" lon="5.34672">
        <ele>296.8</ele>
        <time>2022-02-22T14:43:07Z</time>
      </trkpt>
      <trkpt lat="46.38318" lon="5.34668">
        <ele>296.8</ele>
        <time>2022-02-22T14:43:08Z</time>
      </trkpt>
      <trkpt lat="46.38327" lon="5.34656">
        <ele>296.6</ele>
        <time>2022-02-22T14:43:10Z</time>
      </trkpt>
      <trkpt lat="46.38332" lon="5.34651">
        <ele>296.6</ele>
        <time>2022-02-22T14:43:11Z</time>
      </trkpt>
      <trkpt lat="46.38338" lon="5.3465">
        <ele>296.6</ele>
        <time>2022-02-22T14:43:12Z</time>
      </trkpt>
      <trkpt lat="46.38343" lon="5.34651">
        <ele>296.6</ele>
        <time>2022-02-22T14:43:13Z</time>
      </trkpt>
      <trkpt lat="46.38347" lon="5.34656">
        <ele>296.4</ele>
        <time>2022-02-22T14:43:14Z</time>
      </trkpt>
      <trkpt lat="46.3835" lon="5.34662">
        <ele>296.4</ele>
        <time>2022-02-22T14:43:15Z</time>
      </trkpt>
      <trkpt lat="46.38353" lon="5.34667">
        <ele>296</ele>
        <time>2022-02-22T14:43:16Z</time>
      </trkpt>
      <trkpt lat="46.38362" lon="5.34672">
        <ele>295.8</ele>
        <time>2022-02-22T14:43:18Z</time>
      </trkpt>
      <trkpt lat="46.38367" lon="5.34673">
        <ele>295.8</ele>
        <time>2022-02-22T14:43:19Z</time>
      </trkpt>
      <trkpt lat="46.38372" lon="5.34673">
        <ele>295.8</ele>
        <time>2022-02-22T14:43:20Z</time>
      </trkpt>
      <trkpt lat="46.38383" lon="5.34667">
        <ele>295.6</ele>
        <time>2022-02-22T14:43:22Z</time>
      </trkpt>
      <trkpt lat="46.38399" lon="5.34647">
        <ele>295.6</ele>
        <time>2022-02-22T14:43:25Z</time>
      </trkpt>
      <trkpt lat="46.38403" lon="5.34638">
        <ele>295.6</ele>
        <time>2022-02-22T14:43:26Z</time>
      </trkpt>
      <trkpt lat="46.38405" lon="5.34628">
        <ele>295.4</ele>
        <time>2022-02-22T14:43:27Z</time>
      </trkpt>
      <trkpt lat="46.38412" lon="5.34605">
        <ele>294.6</ele>
        <time>2022-02-22T14:43:30Z</time>
      </trkpt>
      <trkpt lat="46.38413" lon="5.346">
        <ele>294.2</ele>
        <time>2022-02-22T14:43:31Z</time>
      </trkpt>
      <trkpt lat="46.38414" lon="5.34596">
        <ele>293.6</ele>
        <time>2022-02-22T14:43:32Z</time>
      </trkpt>
      <trkpt lat="46.38415" lon="5.34592">
        <ele>292.2</ele>
        <time>2022-02-22T14:43:34Z</time>
      </trkpt>
      <trkpt lat="46.38418" lon="5.34589">
        <ele>290.6</ele>
        <time>2022-02-22T14:43:36Z</time>
      </trkpt>
      <trkpt lat="46.38425" lon="5.34586">
        <ele>289.6</ele>
        <time>2022-02-22T14:43:38Z</time>
      </trkpt>
      <trkpt lat="46.38431" lon="5.34585">
        <ele>289.4</ele>
        <time>2022-02-22T14:43:39Z</time>
      </trkpt>
      <trkpt lat="46.38443" lon="5.34584">
        <ele>288.4</ele>
        <time>2022-02-22T14:43:41Z</time>
      </trkpt>
      <trkpt lat="46.38467" lon="5.34582">
        <ele>287.4</ele>
        <time>2022-02-22T14:43:45Z</time>
      </trkpt>
      <trkpt lat="46.38473" lon="5.34583">
        <ele>287.2</ele>
        <time>2022-02-22T14:43:46Z</time>
      </trkpt>
      <trkpt lat="46.38477" lon="5.34582">
        <ele>287</ele>
        <time>2022-02-22T14:43:47Z</time>
      </trkpt>
      <trkpt lat="46.38482" lon="5.34571">
        <ele>286.6</ele>
        <time>2022-02-22T14:43:49Z</time>
      </trkpt>
      <trkpt lat="46.38482" lon="5.34562">
        <ele>286.4</ele>
        <time>2022-02-22T14:43:50Z</time>
      </trkpt>
      <trkpt lat="46.38479" lon="5.34553">
        <ele>286.4</ele>
        <time>2022-02-22T14:43:51Z</time>
      </trkpt>
      <trkpt lat="46.38472" lon="5.34535">
        <ele>286</ele>
        <time>2022-02-22T14:43:53Z</time>
      </trkpt>
      <trkpt lat="46.38456" lon="5.34491">
        <ele>284.4</ele>
        <time>2022-02-22T14:43:57Z</time>
      </trkpt>
      <trkpt lat="46.38444" lon="5.34452">
        <ele>283.4</ele>
        <time>2022-02-22T14:44:00Z</time>
      </trkpt>
      <trkpt lat="46.38442" lon="5.34438">
        <ele>282.6</ele>
        <time>2022-02-22T14:44:01Z</time>
      </trkpt>
      <trkpt lat="46.38442" lon="5.34423">
        <ele>282.4</ele>
        <time>2022-02-22T14:44:02Z</time>
      </trkpt>
      <trkpt lat="46.38444" lon="5.34408">
        <ele>281.6</ele>
        <time>2022-02-22T14:44:03Z</time>
      </trkpt>
      <trkpt lat="46.38449" lon="5.34395">
        <ele>281</ele>
        <time>2022-02-22T14:44:04Z</time>
      </trkpt>
      <trkpt lat="46.38465" lon="5.34375">
        <ele>280</ele>
        <time>2022-02-22T14:44:06Z</time>
      </trkpt>
      <trkpt lat="46.38485" lon="5.34363">
        <ele>278.8</ele>
        <time>2022-02-22T14:44:08Z</time>
      </trkpt>
      <trkpt lat="46.38505" lon="5.34351">
        <ele>277.6</ele>
        <time>2022-02-22T14:44:10Z</time>
      </trkpt>
      <trkpt lat="46.38516" lon="5.34345">
        <ele>277.2</ele>
        <time>2022-02-22T14:44:11Z</time>
      </trkpt>
      <trkpt lat="46.38527" lon="5.34339">
        <ele>276.2</ele>
        <time>2022-02-22T14:44:12Z</time>
      </trkpt>
      <trkpt lat="46.38549" lon="5.34326">
        <ele>274.8</ele>
        <time>2022-02-22T14:44:14Z</time>
      </trkpt>
      <trkpt lat="46.38573" lon="5.34313">
        <ele>273.8</ele>
        <time>2022-02-22T14:44:16Z</time>
      </trkpt>
      <trkpt lat="46.38593" lon="5.34302">
        <ele>272.4</ele>
        <time>2022-02-22T14:44:18Z</time>
      </trkpt>
      <trkpt lat="46.38615" lon="5.34289">
        <ele>270.8</ele>
        <time>2022-02-22T14:44:20Z</time>
      </trkpt>
      <trkpt lat="46.38638" lon="5.34276">
        <ele>268.8</ele>
        <time>2022-02-22T14:44:22Z</time>
      </trkpt>
      <trkpt lat="46.38649" lon="5.34269">
        <ele>268.2</ele>
        <time>2022-02-22T14:44:23Z</time>
      </trkpt>
      <trkpt lat="46.38661" lon="5.34263">
        <ele>266.4</ele>
        <time>2022-02-22T14:44:24Z</time>
      </trkpt>
      <trkpt lat="46.38684" lon="5.3425">
        <ele>265.2</ele>
        <time>2022-02-22T14:44:26Z</time>
      </trkpt>
      <trkpt lat="46.38695" lon="5.34242">
        <ele>264.6</ele>
        <time>2022-02-22T14:44:27Z</time>
      </trkpt>
      <trkpt lat="46.38706" lon="5.34232">
        <ele>264</ele>
        <time>2022-02-22T14:44:28Z</time>
      </trkpt>
      <trkpt lat="46.38715" lon="5.34221">
        <ele>263.2</ele>
        <time>2022-02-22T14:44:29Z</time>
      </trkpt>
      <trkpt lat="46.38724" lon="5.34207">
        <ele>263</ele>
        <time>2022-02-22T14:44:30Z</time>
      </trkpt>
      <trkpt lat="46.3873" lon="5.34192">
        <ele>261.6</ele>
        <time>2022-02-22T14:44:31Z</time>
      </trkpt>
      <trkpt lat="46.38741" lon="5.34159">
        <ele>260.2</ele>
        <time>2022-02-22T14:44:33Z</time>
      </trkpt>
      <trkpt lat="46.38747" lon="5.34143">
        <ele>259.8</ele>
        <time>2022-02-22T14:44:34Z</time>
      </trkpt>
      <trkpt lat="46.38754" lon="5.34128">
        <ele>258.8</ele>
        <time>2022-02-22T14:44:35Z</time>
      </trkpt>
      <trkpt lat="46.3877" lon="5.34101">
        <ele>256.8</ele>
        <time>2022-02-22T14:44:37Z</time>
      </trkpt>
      <trkpt lat="46.38777" lon="5.34087">
        <ele>255.6</ele>
        <time>2022-02-22T14:44:38Z</time>
      </trkpt>
      <trkpt lat="46.38793" lon="5.34061">
        <ele>254.4</ele>
        <time>2022-02-22T14:44:40Z</time>
      </trkpt>
      <trkpt lat="46.38806" lon="5.34035">
        <ele>252.6</ele>
        <time>2022-02-22T14:44:42Z</time>
      </trkpt>
      <trkpt lat="46.3882" lon="5.34009">
        <ele>251.4</ele>
        <time>2022-02-22T14:44:44Z</time>
      </trkpt>
      <trkpt lat="46.38841" lon="5.33969">
        <ele>250</ele>
        <time>2022-02-22T14:44:47Z</time>
      </trkpt>
      <trkpt lat="46.38855" lon="5.33942">
        <ele>248.8</ele>
        <time>2022-02-22T14:44:49Z</time>
      </trkpt>
      <trkpt lat="46.38862" lon="5.33929">
        <ele>248.4</ele>
        <time>2022-02-22T14:44:50Z</time>
      </trkpt>
      <trkpt lat="46.38869" lon="5.33915">
        <ele>247.8</ele>
        <time>2022-02-22T14:44:51Z</time>
      </trkpt>
      <trkpt lat="46.38884" lon="5.33889">
        <ele>246.6</ele>
        <time>2022-02-22T14:44:53Z</time>
      </trkpt>
      <trkpt lat="46.389" lon="5.33863">
        <ele>245.2</ele>
        <time>2022-02-22T14:44:55Z</time>
      </trkpt>
      <trkpt lat="46.38916" lon="5.33839">
        <ele>244.2</ele>
        <time>2022-02-22T14:44:57Z</time>
      </trkpt>
      <trkpt lat="46.38932" lon="5.33815">
        <ele>243</ele>
        <time>2022-02-22T14:44:59Z</time>
      </trkpt>
      <trkpt lat="46.38939" lon="5.33803">
        <ele>242</ele>
        <time>2022-02-22T14:45:00Z</time>
      </trkpt>
      <trkpt lat="46.38946" lon="5.33791">
        <ele>240.8</ele>
        <time>2022-02-22T14:45:01Z</time>
      </trkpt>
      <trkpt lat="46.3896" lon="5.33765">
        <ele>239.4</ele>
        <time>2022-02-22T14:45:03Z</time>
      </trkpt>
      <trkpt lat="46.38966" lon="5.33752">
        <ele>239</ele>
        <time>2022-02-22T14:45:04Z</time>
      </trkpt>
      <trkpt lat="46.38973" lon="5.33738">
        <ele>238.2</ele>
        <time>2022-02-22T14:45:05Z</time>
      </trkpt>
      <trkpt lat="46.38992" lon="5.33697">
        <ele>237</ele>
        <time>2022-02-22T14:45:08Z</time>
      </trkpt>
      <trkpt lat="46.39006" lon="5.33671">
        <ele>235.8</ele>
        <time>2022-02-22T14:45:10Z</time>
      </trkpt>
      <trkpt lat="46.39021" lon="5.33645">
        <ele>234.4</ele>
        <time>2022-02-22T14:45:12Z</time>
      </trkpt>
      <trkpt lat="46.39037" lon="5.33622">
        <ele>233.2</ele>
        <time>2022-02-22T14:45:14Z</time>
      </trkpt>
      <trkpt lat="46.39052" lon="5.33599">
        <ele>232.2</ele>
        <time>2022-02-22T14:45:16Z</time>
      </trkpt>
      <trkpt lat="46.39067" lon="5.33577">
        <ele>231.4</ele>
        <time>2022-02-22T14:45:18Z</time>
      </trkpt>
      <trkpt lat="46.39075" lon="5.33566">
        <ele>230.8</ele>
        <time>2022-02-22T14:45:19Z</time>
      </trkpt>
      <trkpt lat="46.39095" lon="5.33533">
        <ele>229.6</ele>
        <time>2022-02-22T14:45:22Z</time>
      </trkpt>
      <trkpt lat="46.39114" lon="5.33499">
        <ele>228.8</ele>
        <time>2022-02-22T14:45:25Z</time>
      </trkpt>
      <trkpt lat="46.39121" lon="5.33485">
        <ele>228.4</ele>
        <time>2022-02-22T14:45:26Z</time>
      </trkpt>
      <trkpt lat="46.39155" lon="5.33415">
        <ele>227.4</ele>
        <time>2022-02-22T14:45:32Z</time>
      </trkpt>
      <trkpt lat="46.39181" lon="5.33346">
        <ele>226.4</ele>
        <time>2022-02-22T14:45:38Z</time>
      </trkpt>
      <trkpt lat="46.39191" lon="5.33323">
        <ele>226</ele>
        <time>2022-02-22T14:45:40Z</time>
      </trkpt>
      <trkpt lat="46.39215" lon="5.33281">
        <ele>225.2</ele>
        <time>2022-02-22T14:45:44Z</time>
      </trkpt>
      <trkpt lat="46.39222" lon="5.33271">
        <ele>225.2</ele>
        <time>2022-02-22T14:45:45Z</time>
      </trkpt>
      <trkpt lat="46.3925" lon="5.33231">
        <ele>224.2</ele>
        <time>2022-02-22T14:45:49Z</time>
      </trkpt>
      <trkpt lat="46.39262" lon="5.33209">
        <ele>223.2</ele>
        <time>2022-02-22T14:45:51Z</time>
      </trkpt>
      <trkpt lat="46.3927" lon="5.33197">
        <ele>222.8</ele>
        <time>2022-02-22T14:45:52Z</time>
      </trkpt>
      <trkpt lat="46.39275" lon="5.33188">
        <ele>221.6</ele>
        <time>2022-02-22T14:45:53Z</time>
      </trkpt>
      <trkpt lat="46.39301" lon="5.33151">
        <ele>220.2</ele>
        <time>2022-02-22T14:45:57Z</time>
      </trkpt>
      <trkpt lat="46.39322" lon="5.33125">
        <ele>219</ele>
        <time>2022-02-22T14:46:00Z</time>
      </trkpt>
      <trkpt lat="46.39347" lon="5.33094">
        <ele>218.4</ele>
        <time>2022-02-22T14:46:04Z</time>
      </trkpt>
      <trkpt lat="46.39365" lon="5.3307">
        <ele>218.4</ele>
        <time>2022-02-22T14:46:07Z</time>
      </trkpt>
      <trkpt lat="46.3937" lon="5.33061">
        <ele>218.4</ele>
        <time>2022-02-22T14:46:08Z</time>
      </trkpt>
      <trkpt lat="46.39373" lon="5.33051">
        <ele>218.2</ele>
        <time>2022-02-22T14:46:09Z</time>
      </trkpt>
      <trkpt lat="46.39376" lon="5.33027">
        <ele>218.2</ele>
        <time>2022-02-22T14:46:11Z</time>
      </trkpt>
      <trkpt lat="46.39374" lon="5.33007">
        <ele>218.2</ele>
        <time>2022-02-22T14:46:13Z</time>
      </trkpt>
      <trkpt lat="46.3937" lon="5.32986">
        <ele>218.2</ele>
        <time>2022-02-22T14:46:15Z</time>
      </trkpt>
      <trkpt lat="46.39363" lon="5.32956">
        <ele>218</ele>
        <time>2022-02-22T14:46:18Z</time>
      </trkpt>
      <trkpt lat="46.39358" lon="5.32934">
        <ele>218</ele>
        <time>2022-02-22T14:46:20Z</time>
      </trkpt>
      <trkpt lat="46.39355" lon="5.32915">
        <ele>218.2</ele>
        <time>2022-02-22T14:46:22Z</time>
      </trkpt>
      <trkpt lat="46.39356" lon="5.32898">
        <ele>218.2</ele>
        <time>2022-02-22T14:46:24Z</time>
      </trkpt>
      <trkpt lat="46.39361" lon="5.32885">
        <ele>218.4</ele>
        <time>2022-02-22T14:46:26Z</time>
      </trkpt>
      <trkpt lat="46.39365" lon="5.32883">
        <ele>218.4</ele>
        <time>2022-02-22T14:46:27Z</time>
      </trkpt>
      <trkpt lat="46.39374" lon="5.32887">
        <ele>218.6</ele>
        <time>2022-02-22T14:46:29Z</time>
      </trkpt>
      <trkpt lat="46.39379" lon="5.32891">
        <ele>219.2</ele>
        <time>2022-02-22T14:46:30Z</time>
      </trkpt>
      <trkpt lat="46.39388" lon="5.329">
        <ele>219.8</ele>
        <time>2022-02-22T14:46:32Z</time>
      </trkpt>
      <trkpt lat="46.394" lon="5.32906">
        <ele>220.2</ele>
        <time>2022-02-22T14:46:34Z</time>
      </trkpt>
      <trkpt lat="46.39406" lon="5.32908">
        <ele>220.2</ele>
        <time>2022-02-22T14:46:35Z</time>
      </trkpt>
      <trkpt lat="46.39427" lon="5.32909">
        <ele>220.6</ele>
        <time>2022-02-22T14:46:39Z</time>
      </trkpt>
      <trkpt lat="46.39432" lon="5.32908">
        <ele>220.6</ele>
        <time>2022-02-22T14:46:40Z</time>
      </trkpt>
      <trkpt lat="46.39445" lon="5.32903">
        <ele>221.4</ele>
        <time>2022-02-22T14:46:43Z</time>
      </trkpt>
      <trkpt lat="46.39462" lon="5.32897">
        <ele>222.4</ele>
        <time>2022-02-22T14:46:47Z</time>
      </trkpt>
      <trkpt lat="46.39483" lon="5.32888">
        <ele>223.6</ele>
        <time>2022-02-22T14:46:52Z</time>
      </trkpt>
      <trkpt lat="46.39499" lon="5.32881">
        <ele>224.4</ele>
        <time>2022-02-22T14:46:56Z</time>
      </trkpt>
      <trkpt lat="46.39503" lon="5.32879">
        <ele>225</ele>
        <time>2022-02-22T14:46:57Z</time>
      </trkpt>
      <trkpt lat="46.39524" lon="5.32873">
        <ele>226</ele>
        <time>2022-02-22T14:47:02Z</time>
      </trkpt>
      <trkpt lat="46.39537" lon="5.32868">
        <ele>226.8</ele>
        <time>2022-02-22T14:47:05Z</time>
      </trkpt>
      <trkpt lat="46.3955" lon="5.32862">
        <ele>227.2</ele>
        <time>2022-02-22T14:47:08Z</time>
      </trkpt>
      <trkpt lat="46.3957" lon="5.3285">
        <ele>228</ele>
        <time>2022-02-22T14:47:12Z</time>
      </trkpt>
      <trkpt lat="46.39604" lon="5.32833">
        <ele>228</ele>
        <time>2022-02-22T14:47:18Z</time>
      </trkpt>
      <trkpt lat="46.39653" lon="5.32821">
        <ele>228.2</ele>
        <time>2022-02-22T14:47:27Z</time>
      </trkpt>
      <trkpt lat="46.39658" lon="5.32819">
        <ele>228.2</ele>
        <time>2022-02-22T14:47:28Z</time>
      </trkpt>
      <trkpt lat="46.39672" lon="5.32813">
        <ele>229.4</ele>
        <time>2022-02-22T14:47:31Z</time>
      </trkpt>
      <trkpt lat="46.39685" lon="5.32805">
        <ele>230</ele>
        <time>2022-02-22T14:47:34Z</time>
      </trkpt>
      <trkpt lat="46.3969" lon="5.32803">
        <ele>230.4</ele>
        <time>2022-02-22T14:47:35Z</time>
      </trkpt>
      <trkpt lat="46.39707" lon="5.32793">
        <ele>231.4</ele>
        <time>2022-02-22T14:47:39Z</time>
      </trkpt>
      <trkpt lat="46.39725" lon="5.32783">
        <ele>232.6</ele>
        <time>2022-02-22T14:47:43Z</time>
      </trkpt>
      <trkpt lat="46.39734" lon="5.32778">
        <ele>233.2</ele>
        <time>2022-02-22T14:47:45Z</time>
      </trkpt>
      <trkpt lat="46.39748" lon="5.3277">
        <ele>233.8</ele>
        <time>2022-02-22T14:47:48Z</time>
      </trkpt>
      <trkpt lat="46.39774" lon="5.32756">
        <ele>235</ele>
        <time>2022-02-22T14:47:54Z</time>
      </trkpt>
      <trkpt lat="46.39791" lon="5.32747">
        <ele>236.2</ele>
        <time>2022-02-22T14:47:58Z</time>
      </trkpt>
      <trkpt lat="46.39818" lon="5.32735">
        <ele>237.2</ele>
        <time>2022-02-22T14:48:04Z</time>
      </trkpt>
      <trkpt lat="46.39823" lon="5.32733">
        <ele>237.4</ele>
        <time>2022-02-22T14:48:05Z</time>
      </trkpt>
      <trkpt lat="46.39846" lon="5.32723">
        <ele>238.4</ele>
        <time>2022-02-22T14:48:10Z</time>
      </trkpt>
      <trkpt lat="46.3986" lon="5.32716">
        <ele>238.8</ele>
        <time>2022-02-22T14:48:13Z</time>
      </trkpt>
      <trkpt lat="46.3988" lon="5.32708">
        <ele>239.6</ele>
        <time>2022-02-22T14:48:17Z</time>
      </trkpt>
      <trkpt lat="46.39903" lon="5.32698">
        <ele>240.2</ele>
        <time>2022-02-22T14:48:22Z</time>
      </trkpt>
      <trkpt lat="46.39918" lon="5.32691">
        <ele>240.6</ele>
        <time>2022-02-22T14:48:25Z</time>
      </trkpt>
      <trkpt lat="46.39966" lon="5.32668">
        <ele>241.8</ele>
        <time>2022-02-22T14:48:35Z</time>
      </trkpt>
      <trkpt lat="46.39995" lon="5.32655">
        <ele>242.8</ele>
        <time>2022-02-22T14:48:41Z</time>
      </trkpt>
      <trkpt lat="46.40004" lon="5.32651">
        <ele>243.2</ele>
        <time>2022-02-22T14:48:43Z</time>
      </trkpt>
      <trkpt lat="46.40044" lon="5.3263">
        <ele>244</ele>
        <time>2022-02-22T14:48:51Z</time>
      </trkpt>
      <trkpt lat="46.40049" lon="5.32628">
        <ele>244</ele>
        <time>2022-02-22T14:48:52Z</time>
      </trkpt>
      <trkpt lat="46.40055" lon="5.32627">
        <ele>244</ele>
        <time>2022-02-22T14:48:53Z</time>
      </trkpt>
      <trkpt lat="46.40061" lon="5.32629">
        <ele>244.2</ele>
        <time>2022-02-22T14:48:54Z</time>
      </trkpt>
      <trkpt lat="46.4007" lon="5.3264">
        <ele>244.2</ele>
        <time>2022-02-22T14:48:56Z</time>
      </trkpt>
      <trkpt lat="46.4008" lon="5.32687">
        <ele>244.2</ele>
        <time>2022-02-22T14:49:01Z</time>
      </trkpt>
      <trkpt lat="46.40101" lon="5.32746">
        <ele>244</ele>
        <time>2022-02-22T14:49:08Z</time>
      </trkpt>
      <trkpt lat="46.40132" lon="5.32818">
        <ele>244.8</ele>
        <time>2022-02-22T14:49:17Z</time>
      </trkpt>
      <trkpt lat="46.40135" lon="5.32826">
        <ele>245</ele>
        <time>2022-02-22T14:49:18Z</time>
      </trkpt>
      <trkpt lat="46.40142" lon="5.32841">
        <ele>245.2</ele>
        <time>2022-02-22T14:49:20Z</time>
      </trkpt>
      <trkpt lat="46.40173" lon="5.32911">
        <ele>245.8</ele>
        <time>2022-02-22T14:49:29Z</time>
      </trkpt>
      <trkpt lat="46.40205" lon="5.32967">
        <ele>245.6</ele>
        <time>2022-02-22T14:49:36Z</time>
      </trkpt>
      <trkpt lat="46.40246" lon="5.33028">
        <ele>245.6</ele>
        <time>2022-02-22T14:49:44Z</time>
      </trkpt>
      <trkpt lat="46.40256" lon="5.33043">
        <ele>245.6</ele>
        <time>2022-02-22T14:49:46Z</time>
      </trkpt>
      <trkpt lat="46.40292" lon="5.33095">
        <ele>246.2</ele>
        <time>2022-02-22T14:49:53Z</time>
      </trkpt>
      <trkpt lat="46.40308" lon="5.33118">
        <ele>246.4</ele>
        <time>2022-02-22T14:49:56Z</time>
      </trkpt>
      <trkpt lat="46.40347" lon="5.33174">
        <ele>246.2</ele>
        <time>2022-02-22T14:50:03Z</time>
      </trkpt>
      <trkpt lat="46.40359" lon="5.3319">
        <ele>246</ele>
        <time>2022-02-22T14:50:05Z</time>
      </trkpt>
      <trkpt lat="46.40397" lon="5.33238">
        <ele>245</ele>
        <time>2022-02-22T14:50:11Z</time>
      </trkpt>
      <trkpt lat="46.40417" lon="5.33261">
        <ele>244.8</ele>
        <time>2022-02-22T14:50:14Z</time>
      </trkpt>
      <trkpt lat="46.40446" lon="5.33286">
        <ele>244.4</ele>
        <time>2022-02-22T14:50:18Z</time>
      </trkpt>
      <trkpt lat="46.40454" lon="5.3329">
        <ele>244.4</ele>
        <time>2022-02-22T14:50:19Z</time>
      </trkpt>
      <trkpt lat="46.4047" lon="5.33297">
        <ele>243.8</ele>
        <time>2022-02-22T14:50:21Z</time>
      </trkpt>
      <trkpt lat="46.40492" lon="5.33308">
        <ele>243.2</ele>
        <time>2022-02-22T14:50:24Z</time>
      </trkpt>
      <trkpt lat="46.40499" lon="5.33313">
        <ele>243.2</ele>
        <time>2022-02-22T14:50:25Z</time>
      </trkpt>
      <trkpt lat="46.40511" lon="5.33327">
        <ele>243.2</ele>
        <time>2022-02-22T14:50:27Z</time>
      </trkpt>
      <trkpt lat="46.40516" lon="5.33333">
        <ele>243</ele>
        <time>2022-02-22T14:50:28Z</time>
      </trkpt>
      <trkpt lat="46.40533" lon="5.33348">
        <ele>243.4</ele>
        <time>2022-02-22T14:50:31Z</time>
      </trkpt>
      <trkpt lat="46.40563" lon="5.33366">
        <ele>244.2</ele>
        <time>2022-02-22T14:50:36Z</time>
      </trkpt>
      <trkpt lat="46.40583" lon="5.33379">
        <ele>245.2</ele>
        <time>2022-02-22T14:50:40Z</time>
      </trkpt>
      <trkpt lat="46.40597" lon="5.33389">
        <ele>246.2</ele>
        <time>2022-02-22T14:50:43Z</time>
      </trkpt>
      <trkpt lat="46.40617" lon="5.33401">
        <ele>247.2</ele>
        <time>2022-02-22T14:50:47Z</time>
      </trkpt>
      <trkpt lat="46.40632" lon="5.33409">
        <ele>248</ele>
        <time>2022-02-22T14:50:50Z</time>
      </trkpt>
      <trkpt lat="46.40641" lon="5.33414">
        <ele>248.4</ele>
        <time>2022-02-22T14:50:52Z</time>
      </trkpt>
      <trkpt lat="46.4066" lon="5.33425">
        <ele>249.4</ele>
        <time>2022-02-22T14:50:56Z</time>
      </trkpt>
      <trkpt lat="46.40669" lon="5.33431">
        <ele>249.8</ele>
        <time>2022-02-22T14:50:58Z</time>
      </trkpt>
      <trkpt lat="46.40683" lon="5.33439">
        <ele>250.4</ele>
        <time>2022-02-22T14:51:01Z</time>
      </trkpt>
      <trkpt lat="46.40706" lon="5.33454">
        <ele>251.8</ele>
        <time>2022-02-22T14:51:06Z</time>
      </trkpt>
      <trkpt lat="46.4071" lon="5.33457">
        <ele>252.2</ele>
        <time>2022-02-22T14:51:07Z</time>
      </trkpt>
      <trkpt lat="46.40735" lon="5.33472">
        <ele>253.2</ele>
        <time>2022-02-22T14:51:12Z</time>
      </trkpt>
      <trkpt lat="46.4075" lon="5.3348">
        <ele>253.6</ele>
        <time>2022-02-22T14:51:15Z</time>
      </trkpt>
      <trkpt lat="46.40764" lon="5.33487">
        <ele>254.2</ele>
        <time>2022-02-22T14:51:18Z</time>
      </trkpt>
      <trkpt lat="46.40788" lon="5.33497">
        <ele>255.4</ele>
        <time>2022-02-22T14:51:23Z</time>
      </trkpt>
      <trkpt lat="46.40821" lon="5.33507">
        <ele>256.4</ele>
        <time>2022-02-22T14:51:30Z</time>
      </trkpt>
      <trkpt lat="46.40835" lon="5.33511">
        <ele>257.2</ele>
        <time>2022-02-22T14:51:33Z</time>
      </trkpt>
      <trkpt lat="46.40844" lon="5.33513">
        <ele>257.6</ele>
        <time>2022-02-22T14:51:35Z</time>
      </trkpt>
      <trkpt lat="46.40876" lon="5.33522">
        <ele>258.6</ele>
        <time>2022-02-22T14:51:42Z</time>
      </trkpt>
      <trkpt lat="46.40885" lon="5.33524">
        <ele>259</ele>
        <time>2022-02-22T14:51:44Z</time>
      </trkpt>
      <trkpt lat="46.40903" lon="5.33529">
        <ele>259.8</ele>
        <time>2022-02-22T14:51:48Z</time>
      </trkpt>
      <trkpt lat="46.40931" lon="5.33537">
        <ele>260.8</ele>
        <time>2022-02-22T14:51:54Z</time>
      </trkpt>
      <trkpt lat="46.40936" lon="5.33538">
        <ele>261</ele>
        <time>2022-02-22T14:51:55Z</time>
      </trkpt>
      <trkpt lat="46.40971" lon="5.33548">
        <ele>261.6</ele>
        <time>2022-02-22T14:52:01Z</time>
      </trkpt>
      <trkpt lat="46.41018" lon="5.3356">
        <ele>261</ele>
        <time>2022-02-22T14:52:08Z</time>
      </trkpt>
      <trkpt lat="46.41065" lon="5.33576">
        <ele>259.8</ele>
        <time>2022-02-22T14:52:14Z</time>
      </trkpt>
      <trkpt lat="46.41073" lon="5.33579">
        <ele>259.6</ele>
        <time>2022-02-22T14:52:15Z</time>
      </trkpt>
      <trkpt lat="46.41105" lon="5.33597">
        <ele>258.4</ele>
        <time>2022-02-22T14:52:19Z</time>
      </trkpt>
      <trkpt lat="46.41113" lon="5.33602">
        <ele>258.4</ele>
        <time>2022-02-22T14:52:20Z</time>
      </trkpt>
      <trkpt lat="46.41136" lon="5.33619">
        <ele>257.4</ele>
        <time>2022-02-22T14:52:23Z</time>
      </trkpt>
      <trkpt lat="46.41165" lon="5.33644">
        <ele>256.8</ele>
        <time>2022-02-22T14:52:27Z</time>
      </trkpt>
      <trkpt lat="46.41179" lon="5.33657">
        <ele>256.4</ele>
        <time>2022-02-22T14:52:29Z</time>
      </trkpt>
      <trkpt lat="46.41211" lon="5.33687">
        <ele>256</ele>
        <time>2022-02-22T14:52:34Z</time>
      </trkpt>
      <trkpt lat="46.41246" lon="5.33718">
        <ele>256.4</ele>
        <time>2022-02-22T14:52:40Z</time>
      </trkpt>
      <trkpt lat="46.41272" lon="5.33743">
        <ele>257.4</ele>
        <time>2022-02-22T14:52:45Z</time>
      </trkpt>
      <trkpt lat="46.41282" lon="5.33754">
        <ele>257.8</ele>
        <time>2022-02-22T14:52:47Z</time>
      </trkpt>
      <trkpt lat="46.41314" lon="5.3379">
        <ele>258.6</ele>
        <time>2022-02-22T14:52:54Z</time>
      </trkpt>
      <trkpt lat="46.41318" lon="5.33793">
        <ele>258.8</ele>
        <time>2022-02-22T14:52:55Z</time>
      </trkpt>
      <trkpt lat="46.41323" lon="5.33797">
        <ele>258.8</ele>
        <time>2022-02-22T14:52:56Z</time>
      </trkpt>
      <trkpt lat="46.41342" lon="5.33805">
        <ele>259.6</ele>
        <time>2022-02-22T14:53:00Z</time>
      </trkpt>
      <trkpt lat="46.4137" lon="5.33814">
        <ele>260.8</ele>
        <time>2022-02-22T14:53:06Z</time>
      </trkpt>
      <trkpt lat="46.41385" lon="5.33818">
        <ele>261.6</ele>
        <time>2022-02-22T14:53:09Z</time>
      </trkpt>
      <trkpt lat="46.41396" lon="5.33822">
        <ele>262</ele>
        <time>2022-02-22T14:53:11Z</time>
      </trkpt>
      <trkpt lat="46.4142" lon="5.33828">
        <ele>263</ele>
        <time>2022-02-22T14:53:16Z</time>
      </trkpt>
      <trkpt lat="46.41425" lon="5.3383">
        <ele>263.2</ele>
        <time>2022-02-22T14:53:17Z</time>
      </trkpt>
      <trkpt lat="46.41448" lon="5.33837">
        <ele>264.2</ele>
        <time>2022-02-22T14:53:22Z</time>
      </trkpt>
      <trkpt lat="46.41456" lon="5.3384">
        <ele>264.4</ele>
        <time>2022-02-22T14:53:24Z</time>
      </trkpt>
      <trkpt lat="46.41473" lon="5.33851">
        <ele>265.2</ele>
        <time>2022-02-22T14:53:28Z</time>
      </trkpt>
      <trkpt lat="46.4149" lon="5.33864">
        <ele>266.2</ele>
        <time>2022-02-22T14:53:32Z</time>
      </trkpt>
      <trkpt lat="46.41494" lon="5.33867">
        <ele>266.4</ele>
        <time>2022-02-22T14:53:33Z</time>
      </trkpt>
      <trkpt lat="46.41518" lon="5.33875">
        <ele>267.2</ele>
        <time>2022-02-22T14:53:38Z</time>
      </trkpt>
      <trkpt lat="46.41528" lon="5.33877">
        <ele>267.6</ele>
        <time>2022-02-22T14:53:40Z</time>
      </trkpt>
      <trkpt lat="46.41557" lon="5.33883">
        <ele>268.6</ele>
        <time>2022-02-22T14:53:46Z</time>
      </trkpt>
      <trkpt lat="46.41575" lon="5.33886">
        <ele>269.6</ele>
        <time>2022-02-22T14:53:50Z</time>
      </trkpt>
      <trkpt lat="46.41586" lon="5.33887">
        <ele>269.8</ele>
        <time>2022-02-22T14:53:52Z</time>
      </trkpt>
      <trkpt lat="46.41609" lon="5.33886">
        <ele>270</ele>
        <time>2022-02-22T14:53:56Z</time>
      </trkpt>
      <trkpt lat="46.41655" lon="5.3388">
        <ele>269.8</ele>
        <time>2022-02-22T14:54:03Z</time>
      </trkpt>
      <trkpt lat="46.41692" lon="5.33878">
        <ele>268.8</ele>
        <time>2022-02-22T14:54:08Z</time>
      </trkpt>
      <trkpt lat="46.41708" lon="5.33874">
        <ele>268.4</ele>
        <time>2022-02-22T14:54:10Z</time>
      </trkpt>
      <trkpt lat="46.41733" lon="5.33866">
        <ele>267.6</ele>
        <time>2022-02-22T14:54:13Z</time>
      </trkpt>
      <trkpt lat="46.41742" lon="5.33863">
        <ele>267.2</ele>
        <time>2022-02-22T14:54:14Z</time>
      </trkpt>
      <trkpt lat="46.41751" lon="5.33861">
        <ele>267</ele>
        <time>2022-02-22T14:54:15Z</time>
      </trkpt>
      <trkpt lat="46.41761" lon="5.33861">
        <ele>266.8</ele>
        <time>2022-02-22T14:54:16Z</time>
      </trkpt>
      <trkpt lat="46.41771" lon="5.33864">
        <ele>266</ele>
        <time>2022-02-22T14:54:17Z</time>
      </trkpt>
      <trkpt lat="46.41781" lon="5.33868">
        <ele>265.6</ele>
        <time>2022-02-22T14:54:18Z</time>
      </trkpt>
      <trkpt lat="46.41792" lon="5.33871">
        <ele>264.8</ele>
        <time>2022-02-22T14:54:19Z</time>
      </trkpt>
      <trkpt lat="46.41814" lon="5.33877">
        <ele>263.4</ele>
        <time>2022-02-22T14:54:21Z</time>
      </trkpt>
      <trkpt lat="46.41837" lon="5.33882">
        <ele>262.2</ele>
        <time>2022-02-22T14:54:23Z</time>
      </trkpt>
      <trkpt lat="46.41848" lon="5.33882">
        <ele>261.6</ele>
        <time>2022-02-22T14:54:24Z</time>
      </trkpt>
      <trkpt lat="46.4186" lon="5.33882">
        <ele>261.2</ele>
        <time>2022-02-22T14:54:25Z</time>
      </trkpt>
      <trkpt lat="46.41893" lon="5.3388">
        <ele>259.2</ele>
        <time>2022-02-22T14:54:28Z</time>
      </trkpt>
      <trkpt lat="46.41904" lon="5.33877">
        <ele>258.6</ele>
        <time>2022-02-22T14:54:29Z</time>
      </trkpt>
      <trkpt lat="46.41914" lon="5.33875">
        <ele>257.8</ele>
        <time>2022-02-22T14:54:30Z</time>
      </trkpt>
      <trkpt lat="46.41933" lon="5.33872">
        <ele>256.8</ele>
        <time>2022-02-22T14:54:32Z</time>
      </trkpt>
      <trkpt lat="46.41943" lon="5.33873">
        <ele>256.4</ele>
        <time>2022-02-22T14:54:33Z</time>
      </trkpt>
      <trkpt lat="46.4196" lon="5.33877">
        <ele>256.2</ele>
        <time>2022-02-22T14:54:35Z</time>
      </trkpt>
      <trkpt lat="46.41976" lon="5.33886">
        <ele>256.2</ele>
        <time>2022-02-22T14:54:37Z</time>
      </trkpt>
      <trkpt lat="46.42009" lon="5.33904">
        <ele>257.2</ele>
        <time>2022-02-22T14:54:42Z</time>
      </trkpt>
      <trkpt lat="46.42022" lon="5.33905">
        <ele>258.2</ele>
        <time>2022-02-22T14:54:44Z</time>
      </trkpt>
      <trkpt lat="46.42034" lon="5.33904">
        <ele>258.8</ele>
        <time>2022-02-22T14:54:46Z</time>
      </trkpt>
      <trkpt lat="46.4204" lon="5.33904">
        <ele>259.2</ele>
        <time>2022-02-22T14:54:47Z</time>
      </trkpt>
      <trkpt lat="46.42059" lon="5.33903">
        <ele>260.4</ele>
        <time>2022-02-22T14:54:50Z</time>
      </trkpt>
      <trkpt lat="46.42084" lon="5.33906">
        <ele>261.6</ele>
        <time>2022-02-22T14:54:54Z</time>
      </trkpt>
      <trkpt lat="46.42114" lon="5.33918">
        <ele>262</ele>
        <time>2022-02-22T14:54:59Z</time>
      </trkpt>
      <trkpt lat="46.42162" lon="5.33939">
        <ele>262.2</ele>
        <time>2022-02-22T14:55:07Z</time>
      </trkpt>
      <trkpt lat="46.42169" lon="5.33941">
        <ele>262.2</ele>
        <time>2022-02-22T14:55:08Z</time>
      </trkpt>
      <trkpt lat="46.42184" lon="5.3394">
        <ele>262.2</ele>
        <time>2022-02-22T14:55:10Z</time>
      </trkpt>
      <trkpt lat="46.42199" lon="5.33931">
        <ele>262</ele>
        <time>2022-02-22T14:55:12Z</time>
      </trkpt>
      <trkpt lat="46.42206" lon="5.33923">
        <ele>262</ele>
        <time>2022-02-22T14:55:13Z</time>
      </trkpt>
      <trkpt lat="46.42212" lon="5.33915">
        <ele>261.4</ele>
        <time>2022-02-22T14:55:14Z</time>
      </trkpt>
      <trkpt lat="46.42223" lon="5.33895">
        <ele>260.6</ele>
        <time>2022-02-22T14:55:16Z</time>
      </trkpt>
      <trkpt lat="46.42239" lon="5.33863">
        <ele>259.2</ele>
        <time>2022-02-22T14:55:19Z</time>
      </trkpt>
      <trkpt lat="46.42255" lon="5.3383">
        <ele>258</ele>
        <time>2022-02-22T14:55:22Z</time>
      </trkpt>
      <trkpt lat="46.42266" lon="5.33809">
        <ele>257</ele>
        <time>2022-02-22T14:55:24Z</time>
      </trkpt>
      <trkpt lat="46.42282" lon="5.33777">
        <ele>255.8</ele>
        <time>2022-02-22T14:55:27Z</time>
      </trkpt>
      <trkpt lat="46.42293" lon="5.33757">
        <ele>255</ele>
        <time>2022-02-22T14:55:29Z</time>
      </trkpt>
      <trkpt lat="46.42299" lon="5.33747">
        <ele>254.6</ele>
        <time>2022-02-22T14:55:30Z</time>
      </trkpt>
      <trkpt lat="46.42326" lon="5.33713">
        <ele>253.6</ele>
        <time>2022-02-22T14:55:34Z</time>
      </trkpt>
      <trkpt lat="46.42334" lon="5.33706">
        <ele>253.2</ele>
        <time>2022-02-22T14:55:35Z</time>
      </trkpt>
      <trkpt lat="46.42372" lon="5.33683">
        <ele>250.8</ele>
        <time>2022-02-22T14:55:39Z</time>
      </trkpt>
      <trkpt lat="46.42393" lon="5.3368">
        <ele>250</ele>
        <time>2022-02-22T14:55:41Z</time>
      </trkpt>
      <trkpt lat="46.42403" lon="5.33683">
        <ele>249.4</ele>
        <time>2022-02-22T14:55:42Z</time>
      </trkpt>
      <trkpt lat="46.42414" lon="5.33686">
        <ele>248.8</ele>
        <time>2022-02-22T14:55:43Z</time>
      </trkpt>
      <trkpt lat="46.42424" lon="5.33692">
        <ele>247.8</ele>
        <time>2022-02-22T14:55:44Z</time>
      </trkpt>
      <trkpt lat="46.42433" lon="5.33698">
        <ele>247.6</ele>
        <time>2022-02-22T14:55:45Z</time>
      </trkpt>
      <trkpt lat="46.42452" lon="5.3371">
        <ele>246.6</ele>
        <time>2022-02-22T14:55:47Z</time>
      </trkpt>
      <trkpt lat="46.42477" lon="5.3373">
        <ele>245.4</ele>
        <time>2022-02-22T14:55:50Z</time>
      </trkpt>
      <trkpt lat="46.42485" lon="5.33737">
        <ele>245</ele>
        <time>2022-02-22T14:55:51Z</time>
      </trkpt>
      <trkpt lat="46.4252" lon="5.33763">
        <ele>244.4</ele>
        <time>2022-02-22T14:55:55Z</time>
      </trkpt>
      <trkpt lat="46.4254" lon="5.33775">
        <ele>244.2</ele>
        <time>2022-02-22T14:55:57Z</time>
      </trkpt>
      <trkpt lat="46.4257" lon="5.33793">
        <ele>242.6</ele>
        <time>2022-02-22T14:56:00Z</time>
      </trkpt>
      <trkpt lat="46.42581" lon="5.33798">
        <ele>242.2</ele>
        <time>2022-02-22T14:56:01Z</time>
      </trkpt>
      <trkpt lat="46.42592" lon="5.33801">
        <ele>241.4</ele>
        <time>2022-02-22T14:56:02Z</time>
      </trkpt>
      <trkpt lat="46.42613" lon="5.33803">
        <ele>240.4</ele>
        <time>2022-02-22T14:56:04Z</time>
      </trkpt>
      <trkpt lat="46.42634" lon="5.33802">
        <ele>239.2</ele>
        <time>2022-02-22T14:56:06Z</time>
      </trkpt>
      <trkpt lat="46.42663" lon="5.33798">
        <ele>238</ele>
        <time>2022-02-22T14:56:09Z</time>
      </trkpt>
      <trkpt lat="46.42682" lon="5.33797">
        <ele>237.4</ele>
        <time>2022-02-22T14:56:11Z</time>
      </trkpt>
      <trkpt lat="46.4271" lon="5.33799">
        <ele>236.8</ele>
        <time>2022-02-22T14:56:14Z</time>
      </trkpt>
      <trkpt lat="46.42719" lon="5.33801">
        <ele>236.6</ele>
        <time>2022-02-22T14:56:15Z</time>
      </trkpt>
      <trkpt lat="46.42729" lon="5.33805">
        <ele>236.6</ele>
        <time>2022-02-22T14:56:16Z</time>
      </trkpt>
      <trkpt lat="46.42747" lon="5.33813">
        <ele>236</ele>
        <time>2022-02-22T14:56:18Z</time>
      </trkpt>
      <trkpt lat="46.42756" lon="5.33819">
        <ele>235.8</ele>
        <time>2022-02-22T14:56:19Z</time>
      </trkpt>
      <trkpt lat="46.42766" lon="5.33825">
        <ele>235.4</ele>
        <time>2022-02-22T14:56:20Z</time>
      </trkpt>
      <trkpt lat="46.42797" lon="5.33834">
        <ele>234.6</ele>
        <time>2022-02-22T14:56:23Z</time>
      </trkpt>
      <trkpt lat="46.42818" lon="5.33834">
        <ele>233.6</ele>
        <time>2022-02-22T14:56:25Z</time>
      </trkpt>
      <trkpt lat="46.4284" lon="5.33836">
        <ele>232.4</ele>
        <time>2022-02-22T14:56:27Z</time>
      </trkpt>
      <trkpt lat="46.4285" lon="5.33838">
        <ele>232</ele>
        <time>2022-02-22T14:56:28Z</time>
      </trkpt>
      <trkpt lat="46.4286" lon="5.33839">
        <ele>231.2</ele>
        <time>2022-02-22T14:56:29Z</time>
      </trkpt>
      <trkpt lat="46.42889" lon="5.33841">
        <ele>230.2</ele>
        <time>2022-02-22T14:56:32Z</time>
      </trkpt>
      <trkpt lat="46.42898" lon="5.33843">
        <ele>230</ele>
        <time>2022-02-22T14:56:33Z</time>
      </trkpt>
      <trkpt lat="46.42931" lon="5.33851">
        <ele>229.8</ele>
        <time>2022-02-22T14:56:37Z</time>
      </trkpt>
      <trkpt lat="46.42939" lon="5.33855">
        <ele>229.8</ele>
        <time>2022-02-22T14:56:38Z</time>
      </trkpt>
      <trkpt lat="46.42988" lon="5.33887">
        <ele>230.6</ele>
        <time>2022-02-22T14:56:45Z</time>
      </trkpt>
      <trkpt lat="46.43021" lon="5.33913">
        <ele>230.8</ele>
        <time>2022-02-22T14:56:50Z</time>
      </trkpt>
      <trkpt lat="46.43059" lon="5.33947">
        <ele>231.2</ele>
        <time>2022-02-22T14:56:56Z</time>
      </trkpt>
      <trkpt lat="46.43075" lon="5.33964">
        <ele>231.4</ele>
        <time>2022-02-22T14:56:59Z</time>
      </trkpt>
      <trkpt lat="46.43116" lon="5.34012">
        <ele>231.2</ele>
        <time>2022-02-22T14:57:06Z</time>
      </trkpt>
      <trkpt lat="46.43144" lon="5.34054">
        <ele>231.2</ele>
        <time>2022-02-22T14:57:12Z</time>
      </trkpt>
      <trkpt lat="46.43147" lon="5.34059">
        <ele>231</ele>
        <time>2022-02-22T14:57:13Z</time>
      </trkpt>
      <trkpt lat="46.43164" lon="5.34084">
        <ele>230.6</ele>
        <time>2022-02-22T14:57:17Z</time>
      </trkpt>
      <trkpt lat="46.43175" lon="5.341">
        <ele>230.2</ele>
        <time>2022-02-22T14:57:19Z</time>
      </trkpt>
      <trkpt lat="46.43193" lon="5.34121">
        <ele>229.8</ele>
        <time>2022-02-22T14:57:22Z</time>
      </trkpt>
      <trkpt lat="46.43224" lon="5.34154">
        <ele>229.2</ele>
        <time>2022-02-22T14:57:27Z</time>
      </trkpt>
      <trkpt lat="46.4323" lon="5.3416">
        <ele>229</ele>
        <time>2022-02-22T14:57:28Z</time>
      </trkpt>
      <trkpt lat="46.43271" lon="5.34197">
        <ele>229</ele>
        <time>2022-02-22T14:57:35Z</time>
      </trkpt>
      <trkpt lat="46.43305" lon="5.34223">
        <ele>229.8</ele>
        <time>2022-02-22T14:57:41Z</time>
      </trkpt>
      <trkpt lat="46.4331" lon="5.34226">
        <ele>230.2</ele>
        <time>2022-02-22T14:57:42Z</time>
      </trkpt>
      <trkpt lat="46.43335" lon="5.3424">
        <ele>231.4</ele>
        <time>2022-02-22T14:57:47Z</time>
      </trkpt>
      <trkpt lat="46.43355" lon="5.34249">
        <ele>232.6</ele>
        <time>2022-02-22T14:57:51Z</time>
      </trkpt>
      <trkpt lat="46.43359" lon="5.34251">
        <ele>232.8</ele>
        <time>2022-02-22T14:57:52Z</time>
      </trkpt>
      <trkpt lat="46.43364" lon="5.34254">
        <ele>233</ele>
        <time>2022-02-22T14:57:53Z</time>
      </trkpt>
      <trkpt lat="46.43372" lon="5.34262">
        <ele>233.2</ele>
        <time>2022-02-22T14:57:55Z</time>
      </trkpt>
      <trkpt lat="46.43383" lon="5.3427">
        <ele>234</ele>
        <time>2022-02-22T14:57:58Z</time>
      </trkpt>
      <trkpt lat="46.43398" lon="5.3428">
        <ele>235.2</ele>
        <time>2022-02-22T14:58:02Z</time>
      </trkpt>
      <trkpt lat="46.43409" lon="5.34289">
        <ele>236.4</ele>
        <time>2022-02-22T14:58:05Z</time>
      </trkpt>
      <trkpt lat="46.43416" lon="5.34294">
        <ele>237</ele>
        <time>2022-02-22T14:58:07Z</time>
      </trkpt>
      <trkpt lat="46.43424" lon="5.34299">
        <ele>237.6</ele>
        <time>2022-02-22T14:58:09Z</time>
      </trkpt>
      <trkpt lat="46.43433" lon="5.34306">
        <ele>238.8</ele>
        <time>2022-02-22T14:58:12Z</time>
      </trkpt>
      <trkpt lat="46.43446" lon="5.34318">
        <ele>239.8</ele>
        <time>2022-02-22T14:58:16Z</time>
      </trkpt>
      <trkpt lat="46.43456" lon="5.34338">
        <ele>240.6</ele>
        <time>2022-02-22T14:58:20Z</time>
      </trkpt>
      <trkpt lat="46.43458" lon="5.34344">
        <ele>240.8</ele>
        <time>2022-02-22T14:58:21Z</time>
      </trkpt>
      <trkpt lat="46.4346" lon="5.34358">
        <ele>241.2</ele>
        <time>2022-02-22T14:58:23Z</time>
      </trkpt>
      <trkpt lat="46.43461" lon="5.34371">
        <ele>241.6</ele>
        <time>2022-02-22T14:58:25Z</time>
      </trkpt>
      <trkpt lat="46.43463" lon="5.34385">
        <ele>241.6</ele>
        <time>2022-02-22T14:58:27Z</time>
      </trkpt>
      <trkpt lat="46.43465" lon="5.34398">
        <ele>241.8</ele>
        <time>2022-02-22T14:58:29Z</time>
      </trkpt>
      <trkpt lat="46.43468" lon="5.34417">
        <ele>242.2</ele>
        <time>2022-02-22T14:58:32Z</time>
      </trkpt>
      <trkpt lat="46.4347" lon="5.3443">
        <ele>242.6</ele>
        <time>2022-02-22T14:58:34Z</time>
      </trkpt>
      <trkpt lat="46.43472" lon="5.34443">
        <ele>242.8</ele>
        <time>2022-02-22T14:58:36Z</time>
      </trkpt>
      <trkpt lat="46.43473" lon="5.3445">
        <ele>243</ele>
        <time>2022-02-22T14:58:37Z</time>
      </trkpt>
      <trkpt lat="46.43478" lon="5.3449">
        <ele>244</ele>
        <time>2022-02-22T14:58:43Z</time>
      </trkpt>
      <trkpt lat="46.43481" lon="5.3451">
        <ele>244.2</ele>
        <time>2022-02-22T14:58:46Z</time>
      </trkpt>
      <trkpt lat="46.43486" lon="5.34531">
        <ele>245</ele>
        <time>2022-02-22T14:58:51Z</time>
      </trkpt>
      <trkpt lat="46.43486" lon="5.34532">
        <ele>245.2</ele>
        <time>2022-02-22T14:58:54Z</time>
      </trkpt>
      <trkpt lat="46.43491" lon="5.34533">
        <ele>245.8</ele>
        <time>2022-02-22T14:59:08Z</time>
      </trkpt>
      <trkpt lat="46.43505" lon="5.34519">
        <ele>245.8</ele>
        <time>2022-02-22T14:59:12Z</time>
      </trkpt>
      <trkpt lat="46.4353" lon="5.34495">
        <ele>245.8</ele>
        <time>2022-02-22T14:59:18Z</time>
      </trkpt>
      <trkpt lat="46.43533" lon="5.34492">
        <ele>246</ele>
        <time>2022-02-22T14:59:19Z</time>
      </trkpt>
      <trkpt lat="46.43546" lon="5.34482">
        <ele>246.2</ele>
        <time>2022-02-22T14:59:22Z</time>
      </trkpt>
      <trkpt lat="46.43554" lon="5.34476">
        <ele>246.4</ele>
        <time>2022-02-22T14:59:24Z</time>
      </trkpt>
      <trkpt lat="46.43558" lon="5.34473">
        <ele>246.6</ele>
        <time>2022-02-22T14:59:25Z</time>
      </trkpt>
      <trkpt lat="46.43564" lon="5.34471">
        <ele>247</ele>
        <time>2022-02-22T14:59:27Z</time>
      </trkpt>
      <trkpt lat="46.43571" lon="5.34468">
        <ele>247.4</ele>
        <time>2022-02-22T14:59:29Z</time>
      </trkpt>
      <trkpt lat="46.43581" lon="5.34465">
        <ele>248</ele>
        <time>2022-02-22T14:59:31Z</time>
      </trkpt>
      <trkpt lat="46.43598" lon="5.34458">
        <ele>248.8</ele>
        <time>2022-02-22T14:59:34Z</time>
      </trkpt>
      <trkpt lat="46.43606" lon="5.34454">
        <ele>249.2</ele>
        <time>2022-02-22T14:59:36Z</time>
      </trkpt>
      <trkpt lat="46.43615" lon="5.34448">
        <ele>249.6</ele>
        <time>2022-02-22T14:59:38Z</time>
      </trkpt>
      <trkpt lat="46.43623" lon="5.34442">
        <ele>250.2</ele>
        <time>2022-02-22T14:59:40Z</time>
      </trkpt>
      <trkpt lat="46.43628" lon="5.3444">
        <ele>250.6</ele>
        <time>2022-02-22T14:59:41Z</time>
      </trkpt>
      <trkpt lat="46.43646" lon="5.34432">
        <ele>251.2</ele>
        <time>2022-02-22T14:59:45Z</time>
      </trkpt>
      <trkpt lat="46.43655" lon="5.3443">
        <ele>251.6</ele>
        <time>2022-02-22T14:59:47Z</time>
      </trkpt>
      <trkpt lat="46.4366" lon="5.34428">
        <ele>251.6</ele>
        <time>2022-02-22T14:59:48Z</time>
      </trkpt>
      <trkpt lat="46.43667" lon="5.34425">
        <ele>252.6</ele>
        <time>2022-02-22T14:59:50Z</time>
      </trkpt>
      <trkpt lat="46.4369" lon="5.34418">
        <ele>253.6</ele>
        <time>2022-02-22T14:59:55Z</time>
      </trkpt>
      <trkpt lat="46.43705" lon="5.34413">
        <ele>254.8</ele>
        <time>2022-02-22T14:59:58Z</time>
      </trkpt>
      <trkpt lat="46.43723" lon="5.34407">
        <ele>255</ele>
        <time>2022-02-22T15:00:01Z</time>
      </trkpt>
      <trkpt lat="46.43768" lon="5.34397">
        <ele>254.6</ele>
        <time>2022-02-22T15:00:08Z</time>
      </trkpt>
      <trkpt lat="46.43827" lon="5.34389">
        <ele>254.6</ele>
        <time>2022-02-22T15:00:17Z</time>
      </trkpt>
      <trkpt lat="46.43834" lon="5.34388">
        <ele>254.6</ele>
        <time>2022-02-22T15:00:18Z</time>
      </trkpt>
      <trkpt lat="46.4387" lon="5.34382">
        <ele>254.2</ele>
        <time>2022-02-22T15:00:23Z</time>
      </trkpt>
      <trkpt lat="46.43884" lon="5.34376">
        <ele>254</ele>
        <time>2022-02-22T15:00:25Z</time>
      </trkpt>
      <trkpt lat="46.43914" lon="5.34354">
        <ele>253.4</ele>
        <time>2022-02-22T15:00:29Z</time>
      </trkpt>
      <trkpt lat="46.43922" lon="5.34347">
        <ele>253.2</ele>
        <time>2022-02-22T15:00:30Z</time>
      </trkpt>
      <trkpt lat="46.43937" lon="5.34332">
        <ele>252.2</ele>
        <time>2022-02-22T15:00:32Z</time>
      </trkpt>
      <trkpt lat="46.43962" lon="5.34309">
        <ele>251.2</ele>
        <time>2022-02-22T15:00:35Z</time>
      </trkpt>
      <trkpt lat="46.43978" lon="5.34294">
        <ele>250.2</ele>
        <time>2022-02-22T15:00:37Z</time>
      </trkpt>
      <trkpt lat="46.43986" lon="5.34287">
        <ele>249.6</ele>
        <time>2022-02-22T15:00:38Z</time>
      </trkpt>
      <trkpt lat="46.44003" lon="5.34276">
        <ele>248.2</ele>
        <time>2022-02-22T15:00:40Z</time>
      </trkpt>
      <trkpt lat="46.44013" lon="5.34273">
        <ele>248</ele>
        <time>2022-02-22T15:00:41Z</time>
      </trkpt>
      <trkpt lat="46.44033" lon="5.34271">
        <ele>247.2</ele>
        <time>2022-02-22T15:00:43Z</time>
      </trkpt>
      <trkpt lat="46.44053" lon="5.3427">
        <ele>246</ele>
        <time>2022-02-22T15:00:45Z</time>
      </trkpt>
      <trkpt lat="46.44063" lon="5.3427">
        <ele>245.2</ele>
        <time>2022-02-22T15:00:46Z</time>
      </trkpt>
      <trkpt lat="46.44073" lon="5.3427">
        <ele>244.4</ele>
        <time>2022-02-22T15:00:47Z</time>
      </trkpt>
      <trkpt lat="46.44104" lon="5.34268">
        <ele>243.4</ele>
        <time>2022-02-22T15:00:50Z</time>
      </trkpt>
      <trkpt lat="46.44125" lon="5.3427">
        <ele>242.8</ele>
        <time>2022-02-22T15:00:52Z</time>
      </trkpt>
      <trkpt lat="46.44135" lon="5.34273">
        <ele>242.4</ele>
        <time>2022-02-22T15:00:53Z</time>
      </trkpt>
      <trkpt lat="46.44145" lon="5.34275">
        <ele>241.6</ele>
        <time>2022-02-22T15:00:54Z</time>
      </trkpt>
      <trkpt lat="46.44166" lon="5.34272">
        <ele>240.8</ele>
        <time>2022-02-22T15:00:56Z</time>
      </trkpt>
      <trkpt lat="46.44177" lon="5.3427">
        <ele>240.6</ele>
        <time>2022-02-22T15:00:57Z</time>
      </trkpt>
      <trkpt lat="46.4421" lon="5.34268">
        <ele>239.4</ele>
        <time>2022-02-22T15:01:00Z</time>
      </trkpt>
      <trkpt lat="46.4422" lon="5.34268">
        <ele>239.2</ele>
        <time>2022-02-22T15:01:01Z</time>
      </trkpt>
      <trkpt lat="46.44241" lon="5.3427">
        <ele>238.2</ele>
        <time>2022-02-22T15:01:03Z</time>
      </trkpt>
      <trkpt lat="46.44282" lon="5.34272">
        <ele>237</ele>
        <time>2022-02-22T15:01:07Z</time>
      </trkpt>
      <trkpt lat="46.44341" lon="5.34271">
        <ele>236.8</ele>
        <time>2022-02-22T15:01:13Z</time>
      </trkpt>
      <trkpt lat="46.44349" lon="5.3427">
        <ele>236.8</ele>
        <time>2022-02-22T15:01:14Z</time>
      </trkpt>
      <trkpt lat="46.44408" lon="5.34258">
        <ele>236.4</ele>
        <time>2022-02-22T15:01:20Z</time>
      </trkpt>
      <trkpt lat="46.4442" lon="5.34255">
        <ele>236.4</ele>
        <time>2022-02-22T15:01:21Z</time>
      </trkpt>
      <trkpt lat="46.44439" lon="5.34251">
        <ele>236</ele>
        <time>2022-02-22T15:01:23Z</time>
      </trkpt>
      <trkpt lat="46.44472" lon="5.34246">
        <ele>235</ele>
        <time>2022-02-22T15:01:26Z</time>
      </trkpt>
      <trkpt lat="46.44483" lon="5.34245">
        <ele>234.8</ele>
        <time>2022-02-22T15:01:27Z</time>
      </trkpt>
      <trkpt lat="46.44515" lon="5.34246">
        <ele>233.6</ele>
        <time>2022-02-22T15:01:30Z</time>
      </trkpt>
      <trkpt lat="46.44543" lon="5.3425">
        <ele>232.6</ele>
        <time>2022-02-22T15:01:33Z</time>
      </trkpt>
      <trkpt lat="46.44552" lon="5.34251">
        <ele>232.2</ele>
        <time>2022-02-22T15:01:34Z</time>
      </trkpt>
      <trkpt lat="46.44578" lon="5.34258">
        <ele>232</ele>
        <time>2022-02-22T15:01:37Z</time>
      </trkpt>
      <trkpt lat="46.44607" lon="5.34273">
        <ele>232.4</ele>
        <time>2022-02-22T15:01:41Z</time>
      </trkpt>
      <trkpt lat="46.44612" lon="5.34278">
        <ele>232.6</ele>
        <time>2022-02-22T15:01:42Z</time>
      </trkpt>
      <trkpt lat="46.44619" lon="5.34284">
        <ele>232.8</ele>
        <time>2022-02-22T15:01:43Z</time>
      </trkpt>
      <trkpt lat="46.44636" lon="5.34296">
        <ele>233.6</ele>
        <time>2022-02-22T15:01:46Z</time>
      </trkpt>
      <trkpt lat="46.4464" lon="5.34299">
        <ele>233.8</ele>
        <time>2022-02-22T15:01:47Z</time>
      </trkpt>
      <trkpt lat="46.44648" lon="5.34305">
        <ele>234.6</ele>
        <time>2022-02-22T15:01:50Z</time>
      </trkpt>
      <trkpt lat="46.44652" lon="5.34309">
        <ele>235</ele>
        <time>2022-02-22T15:01:54Z</time>
      </trkpt>
      <trkpt lat="46.44652" lon="5.34309">
        <ele>235.2</ele>
        <time>2022-02-22T15:01:57Z</time>
      </trkpt>
      <trkpt lat="46.44655" lon="5.34311">
        <ele>235</ele>
        <time>2022-02-22T15:02:05Z</time>
      </trkpt>
      <trkpt lat="46.44658" lon="5.34312">
        <ele>235</ele>
        <time>2022-02-22T15:02:06Z</time>
      </trkpt>
      <trkpt lat="46.44664" lon="5.34311">
        <ele>235</ele>
        <time>2022-02-22T15:02:08Z</time>
      </trkpt>
      <trkpt lat="46.44666" lon="5.34307">
        <ele>235</ele>
        <time>2022-02-22T15:02:09Z</time>
      </trkpt>
      <trkpt lat="46.44672" lon="5.34291">
        <ele>235</ele>
        <time>2022-02-22T15:02:12Z</time>
      </trkpt>
      <trkpt lat="46.44674" lon="5.34287">
        <ele>235</ele>
        <time>2022-02-22T15:02:13Z</time>
      </trkpt>
      <trkpt lat="46.44678" lon="5.34283">
        <ele>235</ele>
        <time>2022-02-22T15:02:14Z</time>
      </trkpt>
      <trkpt lat="46.44688" lon="5.3428">
        <ele>235.2</ele>
        <time>2022-02-22T15:02:16Z</time>
      </trkpt>
      <trkpt lat="46.44702" lon="5.34281">
        <ele>235.8</ele>
        <time>2022-02-22T15:02:19Z</time>
      </trkpt>
      <trkpt lat="46.44712" lon="5.34282">
        <ele>236.4</ele>
        <time>2022-02-22T15:02:21Z</time>
      </trkpt>
      <trkpt lat="46.44718" lon="5.3428">
        <ele>236.8</ele>
        <time>2022-02-22T15:02:22Z</time>
      </trkpt>
      <trkpt lat="46.44723" lon="5.34278">
        <ele>237</ele>
        <time>2022-02-22T15:02:23Z</time>
      </trkpt>
      <trkpt lat="46.44746" lon="5.34261">
        <ele>238</ele>
        <time>2022-02-22T15:02:28Z</time>
      </trkpt>
      <trkpt lat="46.44749" lon="5.34258">
        <ele>238.4</ele>
        <time>2022-02-22T15:02:29Z</time>
      </trkpt>
      <trkpt lat="46.44758" lon="5.34248">
        <ele>238.8</ele>
        <time>2022-02-22T15:02:31Z</time>
      </trkpt>
      <trkpt lat="46.44765" lon="5.34237">
        <ele>239.4</ele>
        <time>2022-02-22T15:02:33Z</time>
      </trkpt>
      <trkpt lat="46.4477" lon="5.34227">
        <ele>240</ele>
        <time>2022-02-22T15:02:35Z</time>
      </trkpt>
      <trkpt lat="46.44774" lon="5.3422">
        <ele>240.6</ele>
        <time>2022-02-22T15:02:36Z</time>
      </trkpt>
      <trkpt lat="46.44788" lon="5.3419">
        <ele>241.8</ele>
        <time>2022-02-22T15:02:41Z</time>
      </trkpt>
      <trkpt lat="46.44801" lon="5.34155">
        <ele>243.2</ele>
        <time>2022-02-22T15:02:47Z</time>
      </trkpt>
      <trkpt lat="46.44809" lon="5.34139">
        <ele>243.8</ele>
        <time>2022-02-22T15:02:50Z</time>
      </trkpt>
      <trkpt lat="46.44819" lon="5.34124">
        <ele>244.2</ele>
        <time>2022-02-22T15:02:53Z</time>
      </trkpt>
      <trkpt lat="46.4483" lon="5.34111">
        <ele>244.6</ele>
        <time>2022-02-22T15:02:56Z</time>
      </trkpt>
      <trkpt lat="46.44834" lon="5.34107">
        <ele>244.8</ele>
        <time>2022-02-22T15:02:57Z</time>
      </trkpt>
      <trkpt lat="46.44842" lon="5.341">
        <ele>245.4</ele>
        <time>2022-02-22T15:02:59Z</time>
      </trkpt>
      <trkpt lat="46.44855" lon="5.34094">
        <ele>245.8</ele>
        <time>2022-02-22T15:03:02Z</time>
      </trkpt>
      <trkpt lat="46.4486" lon="5.34093">
        <ele>246</ele>
        <time>2022-02-22T15:03:03Z</time>
      </trkpt>
      <trkpt lat="46.44869" lon="5.3409">
        <ele>246.4</ele>
        <time>2022-02-22T15:03:05Z</time>
      </trkpt>
      <trkpt lat="46.44887" lon="5.3409">
        <ele>247</ele>
        <time>2022-02-22T15:03:09Z</time>
      </trkpt>
      <trkpt lat="46.44891" lon="5.3409">
        <ele>247.4</ele>
        <time>2022-02-22T15:03:10Z</time>
      </trkpt>
      <trkpt lat="46.44896" lon="5.34091">
        <ele>247.6</ele>
        <time>2022-02-22T15:03:11Z</time>
      </trkpt>
      <trkpt lat="46.44913" lon="5.34095">
        <ele>248.6</ele>
        <time>2022-02-22T15:03:15Z</time>
      </trkpt>
      <trkpt lat="46.4493" lon="5.341">
        <ele>249.6</ele>
        <time>2022-02-22T15:03:19Z</time>
      </trkpt>
      <trkpt lat="46.44939" lon="5.34102">
        <ele>250</ele>
        <time>2022-02-22T15:03:21Z</time>
      </trkpt>
      <trkpt lat="46.44955" lon="5.34108">
        <ele>250.8</ele>
        <time>2022-02-22T15:03:25Z</time>
      </trkpt>
      <trkpt lat="46.44979" lon="5.34115">
        <ele>251.6</ele>
        <time>2022-02-22T15:03:31Z</time>
      </trkpt>
      <trkpt lat="46.44983" lon="5.34116">
        <ele>251.8</ele>
        <time>2022-02-22T15:03:32Z</time>
      </trkpt>
      <trkpt lat="46.44999" lon="5.3412">
        <ele>252.8</ele>
        <time>2022-02-22T15:03:36Z</time>
      </trkpt>
      <trkpt lat="46.45017" lon="5.34122">
        <ele>253.4</ele>
        <time>2022-02-22T15:03:40Z</time>
      </trkpt>
      <trkpt lat="46.45026" lon="5.34123">
        <ele>254</ele>
        <time>2022-02-22T15:03:42Z</time>
      </trkpt>
      <trkpt lat="46.45048" lon="5.34122">
        <ele>255</ele>
        <time>2022-02-22T15:03:47Z</time>
      </trkpt>
      <trkpt lat="46.45061" lon="5.34122">
        <ele>255.4</ele>
        <time>2022-02-22T15:03:50Z</time>
      </trkpt>
      <trkpt lat="46.45075" lon="5.34119">
        <ele>256</ele>
        <time>2022-02-22T15:03:53Z</time>
      </trkpt>
      <trkpt lat="46.45109" lon="5.34113">
        <ele>257.2</ele>
        <time>2022-02-22T15:04:00Z</time>
      </trkpt>
      <trkpt lat="46.45168" lon="5.341">
        <ele>258.2</ele>
        <time>2022-02-22T15:04:10Z</time>
      </trkpt>
      <trkpt lat="46.45181" lon="5.34097">
        <ele>258.4</ele>
        <time>2022-02-22T15:04:12Z</time>
      </trkpt>
      <trkpt lat="46.45222" lon="5.34089">
        <ele>258.2</ele>
        <time>2022-02-22T15:04:18Z</time>
      </trkpt>
      <trkpt lat="46.45268" lon="5.3408">
        <ele>257</ele>
        <time>2022-02-22T15:04:24Z</time>
      </trkpt>
      <trkpt lat="46.45292" lon="5.34074">
        <ele>256.2</ele>
        <time>2022-02-22T15:04:27Z</time>
      </trkpt>
      <trkpt lat="46.45308" lon="5.3407">
        <ele>256</ele>
        <time>2022-02-22T15:04:29Z</time>
      </trkpt>
      <trkpt lat="46.45316" lon="5.34069">
        <ele>255.8</ele>
        <time>2022-02-22T15:04:30Z</time>
      </trkpt>
      <trkpt lat="46.45333" lon="5.34067">
        <ele>255.8</ele>
        <time>2022-02-22T15:04:32Z</time>
      </trkpt>
      <trkpt lat="46.45386" lon="5.34057">
        <ele>255</ele>
        <time>2022-02-22T15:04:39Z</time>
      </trkpt>
      <trkpt lat="46.45393" lon="5.34055">
        <ele>255</ele>
        <time>2022-02-22T15:04:40Z</time>
      </trkpt>
      <trkpt lat="46.45443" lon="5.34043">
        <ele>254</ele>
        <time>2022-02-22T15:04:46Z</time>
      </trkpt>
      <trkpt lat="46.45484" lon="5.34026">
        <ele>252.8</ele>
        <time>2022-02-22T15:04:50Z</time>
      </trkpt>
      <trkpt lat="46.45494" lon="5.34019">
        <ele>252.6</ele>
        <time>2022-02-22T15:04:51Z</time>
      </trkpt>
      <trkpt lat="46.45516" lon="5.34003">
        <ele>251.4</ele>
        <time>2022-02-22T15:04:53Z</time>
      </trkpt>
      <trkpt lat="46.45544" lon="5.33975">
        <ele>250.6</ele>
        <time>2022-02-22T15:04:56Z</time>
      </trkpt>
      <trkpt lat="46.45552" lon="5.33965">
        <ele>250</ele>
        <time>2022-02-22T15:04:57Z</time>
      </trkpt>
      <trkpt lat="46.45573" lon="5.33932">
        <ele>248.6</ele>
        <time>2022-02-22T15:05:00Z</time>
      </trkpt>
      <trkpt lat="46.4559" lon="5.33893">
        <ele>247.6</ele>
        <time>2022-02-22T15:05:03Z</time>
      </trkpt>
      <trkpt lat="46.45606" lon="5.33854">
        <ele>246.2</ele>
        <time>2022-02-22T15:05:06Z</time>
      </trkpt>
      <trkpt lat="46.45617" lon="5.33828">
        <ele>245</ele>
        <time>2022-02-22T15:05:08Z</time>
      </trkpt>
      <trkpt lat="46.45634" lon="5.33789">
        <ele>243.8</ele>
        <time>2022-02-22T15:05:11Z</time>
      </trkpt>
      <trkpt lat="46.45639" lon="5.33776">
        <ele>243.4</ele>
        <time>2022-02-22T15:05:12Z</time>
      </trkpt>
      <trkpt lat="46.45649" lon="5.33752">
        <ele>242.6</ele>
        <time>2022-02-22T15:05:14Z</time>
      </trkpt>
      <trkpt lat="46.4567" lon="5.33703">
        <ele>241.4</ele>
        <time>2022-02-22T15:05:18Z</time>
      </trkpt>
      <trkpt lat="46.45689" lon="5.33654">
        <ele>240.2</ele>
        <time>2022-02-22T15:05:22Z</time>
      </trkpt>
      <trkpt lat="46.45705" lon="5.33617">
        <ele>239.4</ele>
        <time>2022-02-22T15:05:25Z</time>
      </trkpt>
      <trkpt lat="46.45715" lon="5.33593">
        <ele>239</ele>
        <time>2022-02-22T15:05:27Z</time>
      </trkpt>
      <trkpt lat="46.45741" lon="5.33532">
        <ele>238</ele>
        <time>2022-02-22T15:05:32Z</time>
      </trkpt>
      <trkpt lat="46.45746" lon="5.3352">
        <ele>237.8</ele>
        <time>2022-02-22T15:05:33Z</time>
      </trkpt>
      <trkpt lat="46.45761" lon="5.33483">
        <ele>237</ele>
        <time>2022-02-22T15:05:36Z</time>
      </trkpt>
      <trkpt lat="46.45777" lon="5.33449">
        <ele>236</ele>
        <time>2022-02-22T15:05:39Z</time>
      </trkpt>
      <trkpt lat="46.4578" lon="5.3344">
        <ele>235.8</ele>
        <time>2022-02-22T15:05:40Z</time>
      </trkpt>
      <trkpt lat="46.45794" lon="5.33406">
        <ele>235.2</ele>
        <time>2022-02-22T15:05:43Z</time>
      </trkpt>
      <trkpt lat="46.4582" lon="5.3335">
        <ele>234.4</ele>
        <time>2022-02-22T15:05:48Z</time>
      </trkpt>
      <trkpt lat="46.45824" lon="5.33342">
        <ele>234.4</ele>
        <time>2022-02-22T15:05:49Z</time>
      </trkpt>
      <trkpt lat="46.4586" lon="5.33276">
        <ele>234</ele>
        <time>2022-02-22T15:05:56Z</time>
      </trkpt>
      <trkpt lat="46.45871" lon="5.33259">
        <ele>233.8</ele>
        <time>2022-02-22T15:05:58Z</time>
      </trkpt>
      <trkpt lat="46.4591" lon="5.33211">
        <ele>233.4</ele>
        <time>2022-02-22T15:06:04Z</time>
      </trkpt>
      <trkpt lat="46.45956" lon="5.33162">
        <ele>233.2</ele>
        <time>2022-02-22T15:06:11Z</time>
      </trkpt>
      <trkpt lat="46.4597" lon="5.33148">
        <ele>233</ele>
        <time>2022-02-22T15:06:13Z</time>
      </trkpt>
      <trkpt lat="46.46014" lon="5.33101">
        <ele>232.6</ele>
        <time>2022-02-22T15:06:20Z</time>
      </trkpt>
      <trkpt lat="46.46021" lon="5.33095">
        <ele>232.4</ele>
        <time>2022-02-22T15:06:21Z</time>
      </trkpt>
      <trkpt lat="46.46067" lon="5.33051">
        <ele>232</ele>
        <time>2022-02-22T15:06:28Z</time>
      </trkpt>
      <trkpt lat="46.46115" lon="5.33014">
        <ele>232</ele>
        <time>2022-02-22T15:06:35Z</time>
      </trkpt>
      <trkpt lat="46.46167" lon="5.32982">
        <ele>231.6</ele>
        <time>2022-02-22T15:06:42Z</time>
      </trkpt>
      <trkpt lat="46.46175" lon="5.32977">
        <ele>231.4</ele>
        <time>2022-02-22T15:06:43Z</time>
      </trkpt>
      <trkpt lat="46.46183" lon="5.32972">
        <ele>231.4</ele>
        <time>2022-02-22T15:06:44Z</time>
      </trkpt>
      <trkpt lat="46.46212" lon="5.32949">
        <ele>231</ele>
        <time>2022-02-22T15:06:48Z</time>
      </trkpt>
      <trkpt lat="46.46243" lon="5.32909">
        <ele>230.4</ele>
        <time>2022-02-22T15:06:53Z</time>
      </trkpt>
      <trkpt lat="46.46285" lon="5.32845">
        <ele>230.2</ele>
        <time>2022-02-22T15:07:01Z</time>
      </trkpt>
      <trkpt lat="46.46291" lon="5.32838">
        <ele>230.2</ele>
        <time>2022-02-22T15:07:02Z</time>
      </trkpt>
      <trkpt lat="46.46317" lon="5.32801">
        <ele>230.6</ele>
        <time>2022-02-22T15:07:07Z</time>
      </trkpt>
      <trkpt lat="46.46325" lon="5.32784">
        <ele>230.6</ele>
        <time>2022-02-22T15:07:09Z</time>
      </trkpt>
      <trkpt lat="46.46331" lon="5.32765">
        <ele>230.6</ele>
        <time>2022-02-22T15:07:11Z</time>
      </trkpt>
      <trkpt lat="46.46335" lon="5.32744">
        <ele>230.4</ele>
        <time>2022-02-22T15:07:13Z</time>
      </trkpt>
      <trkpt lat="46.46335" lon="5.32733">
        <ele>230.4</ele>
        <time>2022-02-22T15:07:14Z</time>
      </trkpt>
      <trkpt lat="46.46334" lon="5.32689">
        <ele>230.2</ele>
        <time>2022-02-22T15:07:18Z</time>
      </trkpt>
      <trkpt lat="46.46334" lon="5.32668">
        <ele>230.4</ele>
        <time>2022-02-22T15:07:20Z</time>
      </trkpt>
      <trkpt lat="46.46335" lon="5.32592">
        <ele>230.2</ele>
        <time>2022-02-22T15:07:27Z</time>
      </trkpt>
      <trkpt lat="46.46348" lon="5.32535">
        <ele>230.2</ele>
        <time>2022-02-22T15:07:33Z</time>
      </trkpt>
      <trkpt lat="46.46352" lon="5.32524">
        <ele>230.2</ele>
        <time>2022-02-22T15:07:34Z</time>
      </trkpt>
      <trkpt lat="46.4637" lon="5.32483">
        <ele>230.4</ele>
        <time>2022-02-22T15:07:39Z</time>
      </trkpt>
      <trkpt lat="46.46394" lon="5.32424">
        <ele>230.8</ele>
        <time>2022-02-22T15:07:46Z</time>
      </trkpt>
      <trkpt lat="46.46423" lon="5.32362">
        <ele>231</ele>
        <time>2022-02-22T15:07:53Z</time>
      </trkpt>
      <trkpt lat="46.46456" lon="5.323">
        <ele>231.2</ele>
        <time>2022-02-22T15:08:00Z</time>
      </trkpt>
      <trkpt lat="46.46461" lon="5.32291">
        <ele>231.2</ele>
        <time>2022-02-22T15:08:01Z</time>
      </trkpt>
      <trkpt lat="46.46498" lon="5.32221">
        <ele>231</ele>
        <time>2022-02-22T15:08:09Z</time>
      </trkpt>
      <trkpt lat="46.46503" lon="5.32212">
        <ele>231</ele>
        <time>2022-02-22T15:08:10Z</time>
      </trkpt>
      <trkpt lat="46.46538" lon="5.32139">
        <ele>230.6</ele>
        <time>2022-02-22T15:08:18Z</time>
      </trkpt>
      <trkpt lat="46.46542" lon="5.32131">
        <ele>230.6</ele>
        <time>2022-02-22T15:08:19Z</time>
      </trkpt>
      <trkpt lat="46.46547" lon="5.32123">
        <ele>230.4</ele>
        <time>2022-02-22T15:08:20Z</time>
      </trkpt>
      <trkpt lat="46.46571" lon="5.32082">
        <ele>230.2</ele>
        <time>2022-02-22T15:08:25Z</time>
      </trkpt>
      <trkpt lat="46.46604" lon="5.32023">
        <ele>230</ele>
        <time>2022-02-22T15:08:32Z</time>
      </trkpt>
      <trkpt lat="46.46643" lon="5.31956">
        <ele>230.2</ele>
        <time>2022-02-22T15:08:40Z</time>
      </trkpt>
      <trkpt lat="46.46648" lon="5.31948">
        <ele>230.4</ele>
        <time>2022-02-22T15:08:41Z</time>
      </trkpt>
      <trkpt lat="46.46682" lon="5.31911">
        <ele>230.2</ele>
        <time>2022-02-22T15:08:46Z</time>
      </trkpt>
      <trkpt lat="46.46732" lon="5.31872">
        <ele>229.6</ele>
        <time>2022-02-22T15:08:53Z</time>
      </trkpt>
      <trkpt lat="46.46754" lon="5.31853">
        <ele>229.2</ele>
        <time>2022-02-22T15:08:56Z</time>
      </trkpt>
      <trkpt lat="46.4677" lon="5.31835">
        <ele>229</ele>
        <time>2022-02-22T15:08:59Z</time>
      </trkpt>
      <trkpt lat="46.46811" lon="5.31786">
        <ele>228.6</ele>
        <time>2022-02-22T15:09:06Z</time>
      </trkpt>
      <trkpt lat="46.46844" lon="5.31744">
        <ele>228.8</ele>
        <time>2022-02-22T15:09:12Z</time>
      </trkpt>
      <trkpt lat="46.46859" lon="5.31725">
        <ele>229</ele>
        <time>2022-02-22T15:09:15Z</time>
      </trkpt>
      <trkpt lat="46.46877" lon="5.31703">
        <ele>229</ele>
        <time>2022-02-22T15:09:18Z</time>
      </trkpt>
      <trkpt lat="46.46898" lon="5.3168">
        <ele>229.2</ele>
        <time>2022-02-22T15:09:22Z</time>
      </trkpt>
      <trkpt lat="46.46904" lon="5.31673">
        <ele>229.4</ele>
        <time>2022-02-22T15:09:23Z</time>
      </trkpt>
      <trkpt lat="46.46925" lon="5.31648">
        <ele>229.8</ele>
        <time>2022-02-22T15:09:27Z</time>
      </trkpt>
      <trkpt lat="46.46937" lon="5.31636">
        <ele>230.2</ele>
        <time>2022-02-22T15:09:29Z</time>
      </trkpt>
      <trkpt lat="46.46964" lon="5.31605">
        <ele>230.6</ele>
        <time>2022-02-22T15:09:34Z</time>
      </trkpt>
      <trkpt lat="46.46975" lon="5.31588">
        <ele>230.6</ele>
        <time>2022-02-22T15:09:36Z</time>
      </trkpt>
      <trkpt lat="46.46987" lon="5.31572">
        <ele>230.6</ele>
        <time>2022-02-22T15:09:38Z</time>
      </trkpt>
      <trkpt lat="46.47005" lon="5.3155">
        <ele>230.6</ele>
        <time>2022-02-22T15:09:41Z</time>
      </trkpt>
      <trkpt lat="46.47042" lon="5.31505">
        <ele>230</ele>
        <time>2022-02-22T15:09:47Z</time>
      </trkpt>
      <trkpt lat="46.4706" lon="5.31482">
        <ele>229.8</ele>
        <time>2022-02-22T15:09:50Z</time>
      </trkpt>
      <trkpt lat="46.4708" lon="5.31462">
        <ele>229.4</ele>
        <time>2022-02-22T15:09:53Z</time>
      </trkpt>
      <trkpt lat="46.47094" lon="5.31445">
        <ele>229.2</ele>
        <time>2022-02-22T15:09:55Z</time>
      </trkpt>
      <trkpt lat="46.47106" lon="5.3143">
        <ele>229.2</ele>
        <time>2022-02-22T15:09:57Z</time>
      </trkpt>
      <trkpt lat="46.47112" lon="5.31422">
        <ele>229.2</ele>
        <time>2022-02-22T15:09:58Z</time>
      </trkpt>
      <trkpt lat="46.47132" lon="5.31388">
        <ele>229</ele>
        <time>2022-02-22T15:10:02Z</time>
      </trkpt>
      <trkpt lat="46.47171" lon="5.31337">
        <ele>229</ele>
        <time>2022-02-22T15:10:09Z</time>
      </trkpt>
      <trkpt lat="46.47176" lon="5.3133">
        <ele>229</ele>
        <time>2022-02-22T15:10:10Z</time>
      </trkpt>
      <trkpt lat="46.47196" lon="5.313">
        <ele>229</ele>
        <time>2022-02-22T15:10:14Z</time>
      </trkpt>
      <trkpt lat="46.47208" lon="5.31283">
        <ele>229</ele>
        <time>2022-02-22T15:10:16Z</time>
      </trkpt>
      <trkpt lat="46.47215" lon="5.31276">
        <ele>229</ele>
        <time>2022-02-22T15:10:17Z</time>
      </trkpt>
      <trkpt lat="46.4723" lon="5.31259">
        <ele>229</ele>
        <time>2022-02-22T15:10:19Z</time>
      </trkpt>
      <trkpt lat="46.47242" lon="5.31243">
        <ele>228.8</ele>
        <time>2022-02-22T15:10:21Z</time>
      </trkpt>
      <trkpt lat="46.47266" lon="5.31212">
        <ele>228.4</ele>
        <time>2022-02-22T15:10:25Z</time>
      </trkpt>
      <trkpt lat="46.47288" lon="5.31177">
        <ele>228.2</ele>
        <time>2022-02-22T15:10:29Z</time>
      </trkpt>
      <trkpt lat="46.47291" lon="5.31168">
        <ele>228</ele>
        <time>2022-02-22T15:10:30Z</time>
      </trkpt>
      <trkpt lat="46.47303" lon="5.3115">
        <ele>228</ele>
        <time>2022-02-22T15:10:32Z</time>
      </trkpt>
      <trkpt lat="46.47313" lon="5.31132">
        <ele>227.8</ele>
        <time>2022-02-22T15:10:34Z</time>
      </trkpt>
      <trkpt lat="46.47318" lon="5.31126">
        <ele>227.8</ele>
        <time>2022-02-22T15:10:35Z</time>
      </trkpt>
      <trkpt lat="46.47334" lon="5.31102">
        <ele>227.6</ele>
        <time>2022-02-22T15:10:38Z</time>
      </trkpt>
      <trkpt lat="46.47346" lon="5.31088">
        <ele>227.4</ele>
        <time>2022-02-22T15:10:40Z</time>
      </trkpt>
      <trkpt lat="46.47351" lon="5.3108">
        <ele>227.4</ele>
        <time>2022-02-22T15:10:41Z</time>
      </trkpt>
      <trkpt lat="46.47363" lon="5.31065">
        <ele>227.2</ele>
        <time>2022-02-22T15:10:43Z</time>
      </trkpt>
      <trkpt lat="46.4737" lon="5.31058">
        <ele>227</ele>
        <time>2022-02-22T15:10:44Z</time>
      </trkpt>
      <trkpt lat="46.47379" lon="5.31053">
        <ele>226.8</ele>
        <time>2022-02-22T15:10:45Z</time>
      </trkpt>
      <trkpt lat="46.47419" lon="5.31027">
        <ele>226</ele>
        <time>2022-02-22T15:10:50Z</time>
      </trkpt>
      <trkpt lat="46.47435" lon="5.31017">
        <ele>225.8</ele>
        <time>2022-02-22T15:10:52Z</time>
      </trkpt>
      <trkpt lat="46.47461" lon="5.31">
        <ele>224.6</ele>
        <time>2022-02-22T15:10:55Z</time>
      </trkpt>
      <trkpt lat="46.47488" lon="5.30982">
        <ele>224</ele>
        <time>2022-02-22T15:10:58Z</time>
      </trkpt>
      <trkpt lat="46.47505" lon="5.30971">
        <ele>223.2</ele>
        <time>2022-02-22T15:11:00Z</time>
      </trkpt>
      <trkpt lat="46.47522" lon="5.3096">
        <ele>222.2</ele>
        <time>2022-02-22T15:11:02Z</time>
      </trkpt>
      <trkpt lat="46.47562" lon="5.30934">
        <ele>221.2</ele>
        <time>2022-02-22T15:11:07Z</time>
      </trkpt>
      <trkpt lat="46.47592" lon="5.30919">
        <ele>221.2</ele>
        <time>2022-02-22T15:11:11Z</time>
      </trkpt>
      <trkpt lat="46.47606" lon="5.30914">
        <ele>221.4</ele>
        <time>2022-02-22T15:11:13Z</time>
      </trkpt>
      <trkpt lat="46.47639" lon="5.309">
        <ele>222.4</ele>
        <time>2022-02-22T15:11:18Z</time>
      </trkpt>
      <trkpt lat="46.47651" lon="5.30896">
        <ele>222.6</ele>
        <time>2022-02-22T15:11:20Z</time>
      </trkpt>
      <trkpt lat="46.47677" lon="5.30892">
        <ele>223.4</ele>
        <time>2022-02-22T15:11:24Z</time>
      </trkpt>
      <trkpt lat="46.47691" lon="5.30895">
        <ele>223.8</ele>
        <time>2022-02-22T15:11:26Z</time>
      </trkpt>
      <trkpt lat="46.47709" lon="5.30904">
        <ele>224.4</ele>
        <time>2022-02-22T15:11:29Z</time>
      </trkpt>
      <trkpt lat="46.47729" lon="5.30911">
        <ele>224.8</ele>
        <time>2022-02-22T15:11:32Z</time>
      </trkpt>
      <trkpt lat="46.47742" lon="5.30913">
        <ele>225.2</ele>
        <time>2022-02-22T15:11:34Z</time>
      </trkpt>
      <trkpt lat="46.47749" lon="5.30912">
        <ele>225.6</ele>
        <time>2022-02-22T15:11:35Z</time>
      </trkpt>
      <trkpt lat="46.47761" lon="5.30909">
        <ele>226.2</ele>
        <time>2022-02-22T15:11:37Z</time>
      </trkpt>
      <trkpt lat="46.47767" lon="5.30906">
        <ele>226.6</ele>
        <time>2022-02-22T15:11:38Z</time>
      </trkpt>
      <trkpt lat="46.47778" lon="5.30899">
        <ele>227.4</ele>
        <time>2022-02-22T15:11:40Z</time>
      </trkpt>
      <trkpt lat="46.47783" lon="5.30895">
        <ele>227.6</ele>
        <time>2022-02-22T15:11:41Z</time>
      </trkpt>
      <trkpt lat="46.47788" lon="5.3089">
        <ele>228</ele>
        <time>2022-02-22T15:11:42Z</time>
      </trkpt>
      <trkpt lat="46.478" lon="5.30874">
        <ele>229.4</ele>
        <time>2022-02-22T15:11:45Z</time>
      </trkpt>
      <trkpt lat="46.47805" lon="5.30867">
        <ele>229.8</ele>
        <time>2022-02-22T15:11:46Z</time>
      </trkpt>
      <trkpt lat="46.47828" lon="5.3083">
        <ele>230.6</ele>
        <time>2022-02-22T15:11:51Z</time>
      </trkpt>
      <trkpt lat="46.47833" lon="5.30823">
        <ele>230.8</ele>
        <time>2022-02-22T15:11:52Z</time>
      </trkpt>
      <trkpt lat="46.47845" lon="5.30813">
        <ele>230.8</ele>
        <time>2022-02-22T15:11:54Z</time>
      </trkpt>
      <trkpt lat="46.47859" lon="5.30806">
        <ele>230.8</ele>
        <time>2022-02-22T15:11:56Z</time>
      </trkpt>
      <trkpt lat="46.47884" lon="5.30806">
        <ele>230.6</ele>
        <time>2022-02-22T15:11:59Z</time>
      </trkpt>
      <trkpt lat="46.47893" lon="5.30808">
        <ele>230.4</ele>
        <time>2022-02-22T15:12:00Z</time>
      </trkpt>
      <trkpt lat="46.4792" lon="5.30817">
        <ele>229.2</ele>
        <time>2022-02-22T15:12:03Z</time>
      </trkpt>
      <trkpt lat="46.47939" lon="5.30822">
        <ele>228.4</ele>
        <time>2022-02-22T15:12:05Z</time>
      </trkpt>
      <trkpt lat="46.4795" lon="5.30822">
        <ele>228.2</ele>
        <time>2022-02-22T15:12:06Z</time>
      </trkpt>
      <trkpt lat="46.47971" lon="5.3082">
        <ele>226.8</ele>
        <time>2022-02-22T15:12:08Z</time>
      </trkpt>
      <trkpt lat="46.47981" lon="5.30816">
        <ele>226.2</ele>
        <time>2022-02-22T15:12:09Z</time>
      </trkpt>
      <trkpt lat="46.47991" lon="5.30812">
        <ele>225.6</ele>
        <time>2022-02-22T15:12:10Z</time>
      </trkpt>
      <trkpt lat="46.48018" lon="5.30796">
        <ele>224.4</ele>
        <time>2022-02-22T15:12:13Z</time>
      </trkpt>
      <trkpt lat="46.48027" lon="5.30792">
        <ele>224.2</ele>
        <time>2022-02-22T15:12:14Z</time>
      </trkpt>
      <trkpt lat="46.48073" lon="5.30765">
        <ele>224.2</ele>
        <time>2022-02-22T15:12:20Z</time>
      </trkpt>
      <trkpt lat="46.48121" lon="5.30739">
        <ele>225</ele>
        <time>2022-02-22T15:12:27Z</time>
      </trkpt>
      <trkpt lat="46.48166" lon="5.30712">
        <ele>225</ele>
        <time>2022-02-22T15:12:34Z</time>
      </trkpt>
      <trkpt lat="46.48209" lon="5.3069">
        <ele>223.8</ele>
        <time>2022-02-22T15:12:40Z</time>
      </trkpt>
      <trkpt lat="46.48227" lon="5.30687">
        <ele>223.2</ele>
        <time>2022-02-22T15:12:42Z</time>
      </trkpt>
      <trkpt lat="46.48245" lon="5.30688">
        <ele>223</ele>
        <time>2022-02-22T15:12:44Z</time>
      </trkpt>
      <trkpt lat="46.48272" lon="5.30695">
        <ele>222.4</ele>
        <time>2022-02-22T15:12:47Z</time>
      </trkpt>
      <trkpt lat="46.4829" lon="5.30699">
        <ele>221.6</ele>
        <time>2022-02-22T15:12:49Z</time>
      </trkpt>
      <trkpt lat="46.48299" lon="5.307">
        <ele>221.4</ele>
        <time>2022-02-22T15:12:50Z</time>
      </trkpt>
      <trkpt lat="46.48307" lon="5.307">
        <ele>221.2</ele>
        <time>2022-02-22T15:12:51Z</time>
      </trkpt>
      <trkpt lat="46.48325" lon="5.30696">
        <ele>220.6</ele>
        <time>2022-02-22T15:12:53Z</time>
      </trkpt>
      <trkpt lat="46.48348" lon="5.30683">
        <ele>220.4</ele>
        <time>2022-02-22T15:12:56Z</time>
      </trkpt>
      <trkpt lat="46.48355" lon="5.30678">
        <ele>220.4</ele>
        <time>2022-02-22T15:12:57Z</time>
      </trkpt>
      <trkpt lat="46.48362" lon="5.30671">
        <ele>220.4</ele>
        <time>2022-02-22T15:12:58Z</time>
      </trkpt>
      <trkpt lat="46.48381" lon="5.30652">
        <ele>220.4</ele>
        <time>2022-02-22T15:13:01Z</time>
      </trkpt>
      <trkpt lat="46.48426" lon="5.30607">
        <ele>220.6</ele>
        <time>2022-02-22T15:13:08Z</time>
      </trkpt>
      <trkpt lat="46.48432" lon="5.30601">
        <ele>220.8</ele>
        <time>2022-02-22T15:13:09Z</time>
      </trkpt>
      <trkpt lat="46.48482" lon="5.30553">
        <ele>221.2</ele>
        <time>2022-02-22T15:13:17Z</time>
      </trkpt>
      <trkpt lat="46.48488" lon="5.30547">
        <ele>221.4</ele>
        <time>2022-02-22T15:13:18Z</time>
      </trkpt>
      <trkpt lat="46.48534" lon="5.30503">
        <ele>222</ele>
        <time>2022-02-22T15:13:26Z</time>
      </trkpt>
      <trkpt lat="46.48545" lon="5.30496">
        <ele>222</ele>
        <time>2022-02-22T15:13:28Z</time>
      </trkpt>
      <trkpt lat="46.4856" lon="5.30494">
        <ele>222</ele>
        <time>2022-02-22T15:13:30Z</time>
      </trkpt>
      <trkpt lat="46.48567" lon="5.30507">
        <ele>221.8</ele>
        <time>2022-02-22T15:13:32Z</time>
      </trkpt>
      <trkpt lat="46.48564" lon="5.30526">
        <ele>221.8</ele>
        <time>2022-02-22T15:13:34Z</time>
      </trkpt>
      <trkpt lat="46.48562" lon="5.30539">
        <ele>221.8</ele>
        <time>2022-02-22T15:13:35Z</time>
      </trkpt>
      <trkpt lat="46.48552" lon="5.30611">
        <ele>221</ele>
        <time>2022-02-22T15:13:41Z</time>
      </trkpt>
      <trkpt lat="46.48547" lon="5.3065">
        <ele>220.4</ele>
        <time>2022-02-22T15:13:44Z</time>
      </trkpt>
      <trkpt lat="46.48547" lon="5.30664">
        <ele>220.2</ele>
        <time>2022-02-22T15:13:45Z</time>
      </trkpt>
      <trkpt lat="46.48548" lon="5.30676">
        <ele>220</ele>
        <time>2022-02-22T15:13:46Z</time>
      </trkpt>
      <trkpt lat="46.48559" lon="5.30717">
        <ele>219.2</ele>
        <time>2022-02-22T15:13:49Z</time>
      </trkpt>
      <trkpt lat="46.48565" lon="5.30729">
        <ele>218.8</ele>
        <time>2022-02-22T15:13:50Z</time>
      </trkpt>
      <trkpt lat="46.4857" lon="5.30738">
        <ele>218.4</ele>
        <time>2022-02-22T15:13:51Z</time>
      </trkpt>
      <trkpt lat="46.48584" lon="5.30756">
        <ele>217.8</ele>
        <time>2022-02-22T15:13:53Z</time>
      </trkpt>
      <trkpt lat="46.48592" lon="5.30763">
        <ele>217.4</ele>
        <time>2022-02-22T15:13:54Z</time>
      </trkpt>
      <trkpt lat="46.48616" lon="5.30786">
        <ele>216.2</ele>
        <time>2022-02-22T15:13:57Z</time>
      </trkpt>
      <trkpt lat="46.48642" lon="5.30805">
        <ele>215.2</ele>
        <time>2022-02-22T15:14:00Z</time>
      </trkpt>
      <trkpt lat="46.48689" lon="5.30834">
        <ele>214.2</ele>
        <time>2022-02-22T15:14:06Z</time>
      </trkpt>
      <trkpt lat="46.48696" lon="5.30838">
        <ele>214.2</ele>
        <time>2022-02-22T15:14:07Z</time>
      </trkpt>
      <trkpt lat="46.48715" lon="5.30855">
        <ele>214.4</ele>
        <time>2022-02-22T15:14:10Z</time>
      </trkpt>
      <trkpt lat="46.4872" lon="5.30862">
        <ele>214.4</ele>
        <time>2022-02-22T15:14:11Z</time>
      </trkpt>
      <trkpt lat="46.48724" lon="5.30872">
        <ele>214.6</ele>
        <time>2022-02-22T15:14:12Z</time>
      </trkpt>
      <trkpt lat="46.48727" lon="5.30893">
        <ele>214.8</ele>
        <time>2022-02-22T15:14:14Z</time>
      </trkpt>
      <trkpt lat="46.48722" lon="5.30912">
        <ele>214.8</ele>
        <time>2022-02-22T15:14:16Z</time>
      </trkpt>
      <trkpt lat="46.48717" lon="5.30919">
        <ele>215</ele>
        <time>2022-02-22T15:14:17Z</time>
      </trkpt>
      <trkpt lat="46.48712" lon="5.30925">
        <ele>215.2</ele>
        <time>2022-02-22T15:14:18Z</time>
      </trkpt>
      <trkpt lat="46.48707" lon="5.30932">
        <ele>215.4</ele>
        <time>2022-02-22T15:14:19Z</time>
      </trkpt>
      <trkpt lat="46.48691" lon="5.30962">
        <ele>216.4</ele>
        <time>2022-02-22T15:14:23Z</time>
      </trkpt>
      <trkpt lat="46.48678" lon="5.30985">
        <ele>217.6</ele>
        <time>2022-02-22T15:14:26Z</time>
      </trkpt>
      <trkpt lat="46.4866" lon="5.31018">
        <ele>218</ele>
        <time>2022-02-22T15:14:30Z</time>
      </trkpt>
      <trkpt lat="46.48624" lon="5.31089">
        <ele>218.2</ele>
        <time>2022-02-22T15:14:38Z</time>
      </trkpt>
      <trkpt lat="46.48619" lon="5.31098">
        <ele>218</ele>
        <time>2022-02-22T15:14:39Z</time>
      </trkpt>
      <trkpt lat="46.48585" lon="5.31165">
        <ele>216.6</ele>
        <time>2022-02-22T15:14:46Z</time>
      </trkpt>
      <trkpt lat="46.4858" lon="5.31175">
        <ele>216.4</ele>
        <time>2022-02-22T15:14:47Z</time>
      </trkpt>
      <trkpt lat="46.48575" lon="5.31185">
        <ele>216.2</ele>
        <time>2022-02-22T15:14:48Z</time>
      </trkpt>
      <trkpt lat="46.48555" lon="5.31228">
        <ele>215.2</ele>
        <time>2022-02-22T15:14:52Z</time>
      </trkpt>
      <trkpt lat="46.4855" lon="5.31252">
        <ele>214.6</ele>
        <time>2022-02-22T15:14:54Z</time>
      </trkpt>
      <trkpt lat="46.4855" lon="5.31274">
        <ele>214</ele>
        <time>2022-02-22T15:14:56Z</time>
      </trkpt>
      <trkpt lat="46.48553" lon="5.31301">
        <ele>213.6</ele>
        <time>2022-02-22T15:14:58Z</time>
      </trkpt>
      <trkpt lat="46.48559" lon="5.31351">
        <ele>212.8</ele>
        <time>2022-02-22T15:15:02Z</time>
      </trkpt>
      <trkpt lat="46.48567" lon="5.31374">
        <ele>212.4</ele>
        <time>2022-02-22T15:15:04Z</time>
      </trkpt>
      <trkpt lat="46.48588" lon="5.314">
        <ele>211.6</ele>
        <time>2022-02-22T15:15:07Z</time>
      </trkpt>
      <trkpt lat="46.48596" lon="5.31409">
        <ele>211.4</ele>
        <time>2022-02-22T15:15:08Z</time>
      </trkpt>
      <trkpt lat="46.48606" lon="5.31437">
        <ele>210.2</ele>
        <time>2022-02-22T15:15:10Z</time>
      </trkpt>
      <trkpt lat="46.48607" lon="5.31469">
        <ele>209.2</ele>
        <time>2022-02-22T15:15:12Z</time>
      </trkpt>
      <trkpt lat="46.48608" lon="5.31492">
        <ele>207.8</ele>
        <time>2022-02-22T15:15:14Z</time>
      </trkpt>
      <trkpt lat="46.48615" lon="5.31518">
        <ele>207</ele>
        <time>2022-02-22T15:15:16Z</time>
      </trkpt>
      <trkpt lat="46.48621" lon="5.31527">
        <ele>206.8</ele>
        <time>2022-02-22T15:15:17Z</time>
      </trkpt>
      <trkpt lat="46.48633" lon="5.31543">
        <ele>206.4</ele>
        <time>2022-02-22T15:15:19Z</time>
      </trkpt>
      <trkpt lat="46.48654" lon="5.31568">
        <ele>206</ele>
        <time>2022-02-22T15:15:22Z</time>
      </trkpt>
      <trkpt lat="46.48694" lon="5.31617">
        <ele>205.8</ele>
        <time>2022-02-22T15:15:28Z</time>
      </trkpt>
      <trkpt lat="46.48708" lon="5.31635">
        <ele>205.8</ele>
        <time>2022-02-22T15:15:30Z</time>
      </trkpt>
      <trkpt lat="46.48733" lon="5.31666">
        <ele>205.6</ele>
        <time>2022-02-22T15:15:34Z</time>
      </trkpt>
      <trkpt lat="46.48771" lon="5.31712">
        <ele>205.8</ele>
        <time>2022-02-22T15:15:40Z</time>
      </trkpt>
      <trkpt lat="46.4878" lon="5.31732">
        <ele>206</ele>
        <time>2022-02-22T15:15:42Z</time>
      </trkpt>
      <trkpt lat="46.48783" lon="5.31744">
        <ele>206</ele>
        <time>2022-02-22T15:15:43Z</time>
      </trkpt>
      <trkpt lat="46.48784" lon="5.31756">
        <ele>206</ele>
        <time>2022-02-22T15:15:44Z</time>
      </trkpt>
      <trkpt lat="46.48787" lon="5.31792">
        <ele>205.6</ele>
        <time>2022-02-22T15:15:47Z</time>
      </trkpt>
      <trkpt lat="46.48788" lon="5.31815">
        <ele>205</ele>
        <time>2022-02-22T15:15:49Z</time>
      </trkpt>
      <trkpt lat="46.48793" lon="5.31836">
        <ele>204.8</ele>
        <time>2022-02-22T15:15:51Z</time>
      </trkpt>
      <trkpt lat="46.48805" lon="5.3185">
        <ele>204.8</ele>
        <time>2022-02-22T15:15:53Z</time>
      </trkpt>
      <trkpt lat="46.4881" lon="5.31853">
        <ele>204.6</ele>
        <time>2022-02-22T15:15:54Z</time>
      </trkpt>
      <trkpt lat="46.48827" lon="5.31861">
        <ele>204.6</ele>
        <time>2022-02-22T15:15:56Z</time>
      </trkpt>
      <trkpt lat="46.48839" lon="5.31875">
        <ele>204.6</ele>
        <time>2022-02-22T15:15:58Z</time>
      </trkpt>
      <trkpt lat="46.48844" lon="5.31884">
        <ele>204.4</ele>
        <time>2022-02-22T15:15:59Z</time>
      </trkpt>
      <trkpt lat="46.48846" lon="5.31892">
        <ele>204.4</ele>
        <time>2022-02-22T15:16:00Z</time>
      </trkpt>
      <trkpt lat="46.48848" lon="5.31905">
        <ele>204.4</ele>
        <time>2022-02-22T15:16:01Z</time>
      </trkpt>
      <trkpt lat="46.48853" lon="5.31978">
        <ele>204.8</ele>
        <time>2022-02-22T15:16:08Z</time>
      </trkpt>
      <trkpt lat="46.4885" lon="5.32017">
        <ele>205.6</ele>
        <time>2022-02-22T15:16:12Z</time>
      </trkpt>
      <trkpt lat="46.48849" lon="5.32024">
        <ele>205.8</ele>
        <time>2022-02-22T15:16:13Z</time>
      </trkpt>
      <trkpt lat="46.48838" lon="5.32081">
        <ele>206.6</ele>
        <time>2022-02-22T15:16:19Z</time>
      </trkpt>
      <trkpt lat="46.48834" lon="5.32098">
        <ele>206.8</ele>
        <time>2022-02-22T15:16:21Z</time>
      </trkpt>
      <trkpt lat="46.48827" lon="5.32143">
        <ele>207.2</ele>
        <time>2022-02-22T15:16:26Z</time>
      </trkpt>
      <trkpt lat="46.48828" lon="5.32161">
        <ele>207.6</ele>
        <time>2022-02-22T15:16:28Z</time>
      </trkpt>
      <trkpt lat="46.48828" lon="5.3217">
        <ele>207.6</ele>
        <time>2022-02-22T15:16:29Z</time>
      </trkpt>
      <trkpt lat="46.48834" lon="5.32218">
        <ele>208.6</ele>
        <time>2022-02-22T15:16:35Z</time>
      </trkpt>
      <trkpt lat="46.48838" lon="5.32232">
        <ele>208.8</ele>
        <time>2022-02-22T15:16:37Z</time>
      </trkpt>
      <trkpt lat="46.48844" lon="5.32246">
        <ele>209</ele>
        <time>2022-02-22T15:16:39Z</time>
      </trkpt>
      <trkpt lat="46.48847" lon="5.32253">
        <ele>209.6</ele>
        <time>2022-02-22T15:16:40Z</time>
      </trkpt>
      <trkpt lat="46.48866" lon="5.32281">
        <ele>210</ele>
        <time>2022-02-22T15:16:44Z</time>
      </trkpt>
      <trkpt lat="46.48871" lon="5.32288">
        <ele>210</ele>
        <time>2022-02-22T15:16:45Z</time>
      </trkpt>
      <trkpt lat="46.48904" lon="5.3234">
        <ele>209.4</ele>
        <time>2022-02-22T15:16:50Z</time>
      </trkpt>
      <trkpt lat="46.4891" lon="5.32353">
        <ele>208.2</ele>
        <time>2022-02-22T15:16:51Z</time>
      </trkpt>
      <trkpt lat="46.4892" lon="5.3238">
        <ele>207</ele>
        <time>2022-02-22T15:16:53Z</time>
      </trkpt>
      <trkpt lat="46.48923" lon="5.3239">
        <ele>205.8</ele>
        <time>2022-02-22T15:16:54Z</time>
      </trkpt>
      <trkpt lat="46.48931" lon="5.32418">
        <ele>204.6</ele>
        <time>2022-02-22T15:16:56Z</time>
      </trkpt>
      <trkpt lat="46.48939" lon="5.32455">
        <ele>204</ele>
        <time>2022-02-22T15:16:59Z</time>
      </trkpt>
      <trkpt lat="46.48947" lon="5.32481">
        <ele>203.6</ele>
        <time>2022-02-22T15:17:01Z</time>
      </trkpt>
      <trkpt lat="46.48957" lon="5.32518">
        <ele>203</ele>
        <time>2022-02-22T15:17:04Z</time>
      </trkpt>
      <trkpt lat="46.48959" lon="5.32531">
        <ele>203</ele>
        <time>2022-02-22T15:17:05Z</time>
      </trkpt>
      <trkpt lat="46.48958" lon="5.32542">
        <ele>202.8</ele>
        <time>2022-02-22T15:17:06Z</time>
      </trkpt>
      <trkpt lat="46.48955" lon="5.32551">
        <ele>202.8</ele>
        <time>2022-02-22T15:17:07Z</time>
      </trkpt>
      <trkpt lat="46.48949" lon="5.32563">
        <ele>202.8</ele>
        <time>2022-02-22T15:17:08Z</time>
      </trkpt>
      <trkpt lat="46.48938" lon="5.32579">
        <ele>202.8</ele>
        <time>2022-02-22T15:17:10Z</time>
      </trkpt>
      <trkpt lat="46.48923" lon="5.32598">
        <ele>203</ele>
        <time>2022-02-22T15:17:13Z</time>
      </trkpt>
      <trkpt lat="46.4892" lon="5.32608">
        <ele>203.2</ele>
        <time>2022-02-22T15:17:14Z</time>
      </trkpt>
      <trkpt lat="46.48919" lon="5.32617">
        <ele>203.4</ele>
        <time>2022-02-22T15:17:15Z</time>
      </trkpt>
      <trkpt lat="46.48919" lon="5.32631">
        <ele>203.8</ele>
        <time>2022-02-22T15:17:17Z</time>
      </trkpt>
      <trkpt lat="46.4892" lon="5.3264">
        <ele>204</ele>
        <time>2022-02-22T15:17:18Z</time>
      </trkpt>
      <trkpt lat="46.48926" lon="5.32652">
        <ele>204.8</ele>
        <time>2022-02-22T15:17:20Z</time>
      </trkpt>
      <trkpt lat="46.48929" lon="5.32657">
        <ele>205.4</ele>
        <time>2022-02-22T15:17:21Z</time>
      </trkpt>
      <trkpt lat="46.48938" lon="5.32672">
        <ele>206.4</ele>
        <time>2022-02-22T15:17:24Z</time>
      </trkpt>
      <trkpt lat="46.48945" lon="5.32681">
        <ele>207.4</ele>
        <time>2022-02-22T15:17:26Z</time>
      </trkpt>
      <trkpt lat="46.48951" lon="5.32689">
        <ele>208</ele>
        <time>2022-02-22T15:17:28Z</time>
      </trkpt>
      <trkpt lat="46.48957" lon="5.32694">
        <ele>208.4</ele>
        <time>2022-02-22T15:17:30Z</time>
      </trkpt>
      <trkpt lat="46.4896" lon="5.32697">
        <ele>208.6</ele>
        <time>2022-02-22T15:17:31Z</time>
      </trkpt>
      <trkpt lat="46.48974" lon="5.32704">
        <ele>209.6</ele>
        <time>2022-02-22T15:17:34Z</time>
      </trkpt>
      <trkpt lat="46.48982" lon="5.32706">
        <ele>210.2</ele>
        <time>2022-02-22T15:17:36Z</time>
      </trkpt>
      <trkpt lat="46.48989" lon="5.32707">
        <ele>210.6</ele>
        <time>2022-02-22T15:17:38Z</time>
      </trkpt>
      <trkpt lat="46.49009" lon="5.32707">
        <ele>212</ele>
        <time>2022-02-22T15:17:43Z</time>
      </trkpt>
      <trkpt lat="46.49012" lon="5.32707">
        <ele>212.2</ele>
        <time>2022-02-22T15:17:44Z</time>
      </trkpt>
      <trkpt lat="46.4903" lon="5.32705">
        <ele>213</ele>
        <time>2022-02-22T15:17:48Z</time>
      </trkpt>
      <trkpt lat="46.49053" lon="5.32703">
        <ele>214</ele>
        <time>2022-02-22T15:17:53Z</time>
      </trkpt>
      <trkpt lat="46.49058" lon="5.32702">
        <ele>214.4</ele>
        <time>2022-02-22T15:17:54Z</time>
      </trkpt>
      <trkpt lat="46.49077" lon="5.327">
        <ele>215.4</ele>
        <time>2022-02-22T15:17:59Z</time>
      </trkpt>
      <trkpt lat="46.49094" lon="5.32696">
        <ele>216.6</ele>
        <time>2022-02-22T15:18:04Z</time>
      </trkpt>
      <trkpt lat="46.49098" lon="5.32695">
        <ele>216.8</ele>
        <time>2022-02-22T15:18:05Z</time>
      </trkpt>
      <trkpt lat="46.49116" lon="5.32697">
        <ele>217.6</ele>
        <time>2022-02-22T15:18:10Z</time>
      </trkpt>
      <trkpt lat="46.4912" lon="5.32699">
        <ele>218</ele>
        <time>2022-02-22T15:18:11Z</time>
      </trkpt>
      <trkpt lat="46.49134" lon="5.32719">
        <ele>218.6</ele>
        <time>2022-02-22T15:18:16Z</time>
      </trkpt>
      <trkpt lat="46.49137" lon="5.32725">
        <ele>218.8</ele>
        <time>2022-02-22T15:18:17Z</time>
      </trkpt>
      <trkpt lat="46.4914" lon="5.32737">
        <ele>219.2</ele>
        <time>2022-02-22T15:18:19Z</time>
      </trkpt>
      <trkpt lat="46.49144" lon="5.32756">
        <ele>219.6</ele>
        <time>2022-02-22T15:18:22Z</time>
      </trkpt>
      <trkpt lat="46.49149" lon="5.32786">
        <ele>220</ele>
        <time>2022-02-22T15:18:26Z</time>
      </trkpt>
      <trkpt lat="46.4915" lon="5.32804">
        <ele>220.2</ele>
        <time>2022-02-22T15:18:28Z</time>
      </trkpt>
      <trkpt lat="46.4915" lon="5.32814">
        <ele>220.2</ele>
        <time>2022-02-22T15:18:29Z</time>
      </trkpt>
      <trkpt lat="46.49148" lon="5.32834">
        <ele>220.2</ele>
        <time>2022-02-22T15:18:31Z</time>
      </trkpt>
      <trkpt lat="46.49134" lon="5.32883">
        <ele>219.6</ele>
        <time>2022-02-22T15:18:36Z</time>
      </trkpt>
      <trkpt lat="46.49131" lon="5.32902">
        <ele>219.6</ele>
        <time>2022-02-22T15:18:38Z</time>
      </trkpt>
      <trkpt lat="46.49131" lon="5.3292">
        <ele>219.4</ele>
        <time>2022-02-22T15:18:40Z</time>
      </trkpt>
      <trkpt lat="46.49133" lon="5.32974">
        <ele>219.4</ele>
        <time>2022-02-22T15:18:46Z</time>
      </trkpt>
      <trkpt lat="46.49134" lon="5.32982">
        <ele>219.6</ele>
        <time>2022-02-22T15:18:47Z</time>
      </trkpt>
      <trkpt lat="46.49137" lon="5.33004">
        <ele>219.8</ele>
        <time>2022-02-22T15:18:50Z</time>
      </trkpt>
      <trkpt lat="46.49143" lon="5.33048">
        <ele>220.6</ele>
        <time>2022-02-22T15:18:55Z</time>
      </trkpt>
      <trkpt lat="46.49148" lon="5.33064">
        <ele>221</ele>
        <time>2022-02-22T15:18:57Z</time>
      </trkpt>
      <trkpt lat="46.49154" lon="5.3308">
        <ele>221</ele>
        <time>2022-02-22T15:18:59Z</time>
      </trkpt>
      <trkpt lat="46.49165" lon="5.33108">
        <ele>221.2</ele>
        <time>2022-02-22T15:19:02Z</time>
      </trkpt>
      <trkpt lat="46.49174" lon="5.33121">
        <ele>221.2</ele>
        <time>2022-02-22T15:19:04Z</time>
      </trkpt>
      <trkpt lat="46.49178" lon="5.33126">
        <ele>221.2</ele>
        <time>2022-02-22T15:19:05Z</time>
      </trkpt>
      <trkpt lat="46.49191" lon="5.33143">
        <ele>221.2</ele>
        <time>2022-02-22T15:19:08Z</time>
      </trkpt>
      <trkpt lat="46.49196" lon="5.33147">
        <ele>221.2</ele>
        <time>2022-02-22T15:19:09Z</time>
      </trkpt>
      <trkpt lat="46.49239" lon="5.33183">
        <ele>221.4</ele>
        <time>2022-02-22T15:19:17Z</time>
      </trkpt>
      <trkpt lat="46.49245" lon="5.33188">
        <ele>221.4</ele>
        <time>2022-02-22T15:19:18Z</time>
      </trkpt>
      <trkpt lat="46.49263" lon="5.33214">
        <ele>221.8</ele>
        <time>2022-02-22T15:19:22Z</time>
      </trkpt>
      <trkpt lat="46.49269" lon="5.33229">
        <ele>222</ele>
        <time>2022-02-22T15:19:24Z</time>
      </trkpt>
      <trkpt lat="46.49276" lon="5.33255">
        <ele>222.6</ele>
        <time>2022-02-22T15:19:27Z</time>
      </trkpt>
      <trkpt lat="46.49283" lon="5.33288">
        <ele>223</ele>
        <time>2022-02-22T15:19:31Z</time>
      </trkpt>
      <trkpt lat="46.4929" lon="5.3333">
        <ele>223.6</ele>
        <time>2022-02-22T15:19:36Z</time>
      </trkpt>
      <trkpt lat="46.49294" lon="5.33354">
        <ele>223.8</ele>
        <time>2022-02-22T15:19:39Z</time>
      </trkpt>
      <trkpt lat="46.49299" lon="5.33378">
        <ele>224.2</ele>
        <time>2022-02-22T15:19:42Z</time>
      </trkpt>
      <trkpt lat="46.49301" lon="5.33386">
        <ele>224.4</ele>
        <time>2022-02-22T15:19:43Z</time>
      </trkpt>
      <trkpt lat="46.4931" lon="5.33439">
        <ele>225.2</ele>
        <time>2022-02-22T15:19:50Z</time>
      </trkpt>
      <trkpt lat="46.49311" lon="5.33448">
        <ele>225.4</ele>
        <time>2022-02-22T15:19:51Z</time>
      </trkpt>
      <trkpt lat="46.4932" lon="5.33509">
        <ele>226</ele>
        <time>2022-02-22T15:19:58Z</time>
      </trkpt>
      <trkpt lat="46.4932" lon="5.33566">
        <ele>226.2</ele>
        <time>2022-02-22T15:20:04Z</time>
      </trkpt>
      <trkpt lat="46.4931" lon="5.3362">
        <ele>226.2</ele>
        <time>2022-02-22T15:20:10Z</time>
      </trkpt>
      <trkpt lat="46.49307" lon="5.33669">
        <ele>226.2</ele>
        <time>2022-02-22T15:20:15Z</time>
      </trkpt>
      <trkpt lat="46.49306" lon="5.33697">
        <ele>226.4</ele>
        <time>2022-02-22T15:20:18Z</time>
      </trkpt>
      <trkpt lat="46.49303" lon="5.33732">
        <ele>226.4</ele>
        <time>2022-02-22T15:20:22Z</time>
      </trkpt>
      <trkpt lat="46.493" lon="5.33759">
        <ele>226.6</ele>
        <time>2022-02-22T15:20:25Z</time>
      </trkpt>
      <trkpt lat="46.49287" lon="5.33816">
        <ele>227.2</ele>
        <time>2022-02-22T15:20:32Z</time>
      </trkpt>
      <trkpt lat="46.49285" lon="5.33824">
        <ele>227.4</ele>
        <time>2022-02-22T15:20:33Z</time>
      </trkpt>
      <trkpt lat="46.49273" lon="5.33875">
        <ele>227.8</ele>
        <time>2022-02-22T15:20:39Z</time>
      </trkpt>
      <trkpt lat="46.49256" lon="5.33946">
        <ele>228</ele>
        <time>2022-02-22T15:20:47Z</time>
      </trkpt>
      <trkpt lat="46.49246" lon="5.33992">
        <ele>228.2</ele>
        <time>2022-02-22T15:20:52Z</time>
      </trkpt>
      <trkpt lat="46.49242" lon="5.34011">
        <ele>228.2</ele>
        <time>2022-02-22T15:20:54Z</time>
      </trkpt>
      <trkpt lat="46.49237" lon="5.34039">
        <ele>228.4</ele>
        <time>2022-02-22T15:20:57Z</time>
      </trkpt>
      <trkpt lat="46.49226" lon="5.34102">
        <ele>228.4</ele>
        <time>2022-02-22T15:21:03Z</time>
      </trkpt>
      <trkpt lat="46.49215" lon="5.34166">
        <ele>227.2</ele>
        <time>2022-02-22T15:21:08Z</time>
      </trkpt>
      <trkpt lat="46.49208" lon="5.34203">
        <ele>226.2</ele>
        <time>2022-02-22T15:21:11Z</time>
      </trkpt>
      <trkpt lat="46.49197" lon="5.34249">
        <ele>225.4</ele>
        <time>2022-02-22T15:21:15Z</time>
      </trkpt>
      <trkpt lat="46.49186" lon="5.34313">
        <ele>225.4</ele>
        <time>2022-02-22T15:21:21Z</time>
      </trkpt>
      <trkpt lat="46.49173" lon="5.34381">
        <ele>226.4</ele>
        <time>2022-02-22T15:21:28Z</time>
      </trkpt>
      <trkpt lat="46.49162" lon="5.34437">
        <ele>226</ele>
        <time>2022-02-22T15:21:33Z</time>
      </trkpt>
      <trkpt lat="46.49146" lon="5.34517">
        <ele>225</ele>
        <time>2022-02-22T15:21:40Z</time>
      </trkpt>
      <trkpt lat="46.49135" lon="5.34576">
        <ele>225.2</ele>
        <time>2022-02-22T15:21:46Z</time>
      </trkpt>
      <trkpt lat="46.49124" lon="5.34633">
        <ele>225.6</ele>
        <time>2022-02-22T15:21:52Z</time>
      </trkpt>
      <trkpt lat="46.49116" lon="5.34677">
        <ele>225.6</ele>
        <time>2022-02-22T15:21:56Z</time>
      </trkpt>
      <trkpt lat="46.49101" lon="5.34752">
        <ele>224.8</ele>
        <time>2022-02-22T15:22:03Z</time>
      </trkpt>
      <trkpt lat="46.49099" lon="5.34762">
        <ele>224.8</ele>
        <time>2022-02-22T15:22:04Z</time>
      </trkpt>
      <trkpt lat="46.49096" lon="5.34781">
        <ele>225</ele>
        <time>2022-02-22T15:22:06Z</time>
      </trkpt>
      <trkpt lat="46.49095" lon="5.3479">
        <ele>225.2</ele>
        <time>2022-02-22T15:22:07Z</time>
      </trkpt>
      <trkpt lat="46.49091" lon="5.34808">
        <ele>225.4</ele>
        <time>2022-02-22T15:22:09Z</time>
      </trkpt>
      <trkpt lat="46.49086" lon="5.34834">
        <ele>225.6</ele>
        <time>2022-02-22T15:22:12Z</time>
      </trkpt>
      <trkpt lat="46.49083" lon="5.34851">
        <ele>226</ele>
        <time>2022-02-22T15:22:14Z</time>
      </trkpt>
      <trkpt lat="46.49081" lon="5.34858">
        <ele>226.2</ele>
        <time>2022-02-22T15:22:15Z</time>
      </trkpt>
      <trkpt lat="46.49075" lon="5.34882">
        <ele>226.6</ele>
        <time>2022-02-22T15:22:18Z</time>
      </trkpt>
      <trkpt lat="46.4907" lon="5.34907">
        <ele>227</ele>
        <time>2022-02-22T15:22:21Z</time>
      </trkpt>
      <trkpt lat="46.49064" lon="5.34939">
        <ele>227.6</ele>
        <time>2022-02-22T15:22:25Z</time>
      </trkpt>
      <trkpt lat="46.49063" lon="5.34948">
        <ele>227.6</ele>
        <time>2022-02-22T15:22:26Z</time>
      </trkpt>
      <trkpt lat="46.49061" lon="5.34965">
        <ele>227.4</ele>
        <time>2022-02-22T15:22:28Z</time>
      </trkpt>
      <trkpt lat="46.49056" lon="5.3499">
        <ele>228</ele>
        <time>2022-02-22T15:22:31Z</time>
      </trkpt>
      <trkpt lat="46.49049" lon="5.35031">
        <ele>229</ele>
        <time>2022-02-22T15:22:36Z</time>
      </trkpt>
      <trkpt lat="46.49047" lon="5.35048">
        <ele>229.4</ele>
        <time>2022-02-22T15:22:38Z</time>
      </trkpt>
      <trkpt lat="46.49043" lon="5.35077">
        <ele>230</ele>
        <time>2022-02-22T15:22:42Z</time>
      </trkpt>
      <trkpt lat="46.49039" lon="5.35091">
        <ele>230.2</ele>
        <time>2022-02-22T15:22:44Z</time>
      </trkpt>
      <trkpt lat="46.49036" lon="5.35099">
        <ele>230.4</ele>
        <time>2022-02-22T15:22:45Z</time>
      </trkpt>
      <trkpt lat="46.4903" lon="5.35122">
        <ele>230.8</ele>
        <time>2022-02-22T15:22:48Z</time>
      </trkpt>
      <trkpt lat="46.49027" lon="5.35129">
        <ele>231</ele>
        <time>2022-02-22T15:22:49Z</time>
      </trkpt>
      <trkpt lat="46.49023" lon="5.35136">
        <ele>231</ele>
        <time>2022-02-22T15:22:50Z</time>
      </trkpt>
      <trkpt lat="46.49011" lon="5.35165">
        <ele>231.6</ele>
        <time>2022-02-22T15:22:54Z</time>
      </trkpt>
      <trkpt lat="46.49007" lon="5.35172">
        <ele>231.6</ele>
        <time>2022-02-22T15:22:55Z</time>
      </trkpt>
      <trkpt lat="46.48983" lon="5.35221">
        <ele>231.8</ele>
        <time>2022-02-22T15:23:01Z</time>
      </trkpt>
      <trkpt lat="46.48962" lon="5.35266">
        <ele>230.8</ele>
        <time>2022-02-22T15:23:06Z</time>
      </trkpt>
      <trkpt lat="46.48941" lon="5.35311">
        <ele>230.2</ele>
        <time>2022-02-22T15:23:11Z</time>
      </trkpt>
      <trkpt lat="46.48938" lon="5.35321">
        <ele>230</ele>
        <time>2022-02-22T15:23:12Z</time>
      </trkpt>
      <trkpt lat="46.48916" lon="5.35367">
        <ele>229.8</ele>
        <time>2022-02-22T15:23:17Z</time>
      </trkpt>
      <trkpt lat="46.48891" lon="5.35421">
        <ele>230</ele>
        <time>2022-02-22T15:23:24Z</time>
      </trkpt>
      <trkpt lat="46.4887" lon="5.35469">
        <ele>230.2</ele>
        <time>2022-02-22T15:23:30Z</time>
      </trkpt>
      <trkpt lat="46.48847" lon="5.35521">
        <ele>230.6</ele>
        <time>2022-02-22T15:23:37Z</time>
      </trkpt>
      <trkpt lat="46.48819" lon="5.35585">
        <ele>231</ele>
        <time>2022-02-22T15:23:45Z</time>
      </trkpt>
      <trkpt lat="46.48811" lon="5.35601">
        <ele>231</ele>
        <time>2022-02-22T15:23:47Z</time>
      </trkpt>
      <trkpt lat="46.48793" lon="5.35643">
        <ele>231</ele>
        <time>2022-02-22T15:23:52Z</time>
      </trkpt>
      <trkpt lat="46.48765" lon="5.35713">
        <ele>230.8</ele>
        <time>2022-02-22T15:24:00Z</time>
      </trkpt>
      <trkpt lat="46.48744" lon="5.35768">
        <ele>230.8</ele>
        <time>2022-02-22T15:24:06Z</time>
      </trkpt>
      <trkpt lat="46.4872" lon="5.35821">
        <ele>231</ele>
        <time>2022-02-22T15:24:13Z</time>
      </trkpt>
      <trkpt lat="46.48701" lon="5.35863">
        <ele>231.2</ele>
        <time>2022-02-22T15:24:19Z</time>
      </trkpt>
      <trkpt lat="46.48696" lon="5.35878">
        <ele>231.4</ele>
        <time>2022-02-22T15:24:21Z</time>
      </trkpt>
      <trkpt lat="46.48682" lon="5.35921">
        <ele>232</ele>
        <time>2022-02-22T15:24:27Z</time>
      </trkpt>
      <trkpt lat="46.4868" lon="5.35929">
        <ele>232.4</ele>
        <time>2022-02-22T15:24:28Z</time>
      </trkpt>
      <trkpt lat="46.48676" lon="5.35953">
        <ele>233.4</ele>
        <time>2022-02-22T15:24:31Z</time>
      </trkpt>
      <trkpt lat="46.48673" lon="5.35984">
        <ele>233.8</ele>
        <time>2022-02-22T15:24:35Z</time>
      </trkpt>
      <trkpt lat="46.48661" lon="5.36048">
        <ele>234</ele>
        <time>2022-02-22T15:24:42Z</time>
      </trkpt>
      <trkpt lat="46.48647" lon="5.36115">
        <ele>233</ele>
        <time>2022-02-22T15:24:48Z</time>
      </trkpt>
      <trkpt lat="46.48641" lon="5.36157">
        <ele>232.4</ele>
        <time>2022-02-22T15:24:52Z</time>
      </trkpt>
      <trkpt lat="46.4864" lon="5.36169">
        <ele>232.4</ele>
        <time>2022-02-22T15:24:53Z</time>
      </trkpt>
      <trkpt lat="46.4864" lon="5.3618">
        <ele>232.2</ele>
        <time>2022-02-22T15:24:54Z</time>
      </trkpt>
      <trkpt lat="46.48635" lon="5.3624">
        <ele>232.2</ele>
        <time>2022-02-22T15:25:00Z</time>
      </trkpt>
      <trkpt lat="46.48627" lon="5.36292">
        <ele>233.2</ele>
        <time>2022-02-22T15:25:06Z</time>
      </trkpt>
      <trkpt lat="46.48624" lon="5.36299">
        <ele>233.2</ele>
        <time>2022-02-22T15:25:07Z</time>
      </trkpt>
      <trkpt lat="46.4862" lon="5.36305">
        <ele>233.4</ele>
        <time>2022-02-22T15:25:08Z</time>
      </trkpt>
      <trkpt lat="46.48612" lon="5.36314">
        <ele>233.6</ele>
        <time>2022-02-22T15:25:10Z</time>
      </trkpt>
      <trkpt lat="46.48602" lon="5.36318">
        <ele>234</ele>
        <time>2022-02-22T15:25:12Z</time>
      </trkpt>
      <trkpt lat="46.48592" lon="5.3632">
        <ele>234.6</ele>
        <time>2022-02-22T15:25:14Z</time>
      </trkpt>
      <trkpt lat="46.4857" lon="5.36322">
        <ele>235.8</ele>
        <time>2022-02-22T15:25:19Z</time>
      </trkpt>
      <trkpt lat="46.48567" lon="5.36323">
        <ele>236</ele>
        <time>2022-02-22T15:25:20Z</time>
      </trkpt>
      <trkpt lat="46.48556" lon="5.36324">
        <ele>236.8</ele>
        <time>2022-02-22T15:25:23Z</time>
      </trkpt>
      <trkpt lat="46.48537" lon="5.36326">
        <ele>237.6</ele>
        <time>2022-02-22T15:25:27Z</time>
      </trkpt>
      <trkpt lat="46.48522" lon="5.36329">
        <ele>238</ele>
        <time>2022-02-22T15:25:30Z</time>
      </trkpt>
      <trkpt lat="46.48479" lon="5.36338">
        <ele>238.8</ele>
        <time>2022-02-22T15:25:38Z</time>
      </trkpt>
      <trkpt lat="46.48474" lon="5.36339">
        <ele>239</ele>
        <time>2022-02-22T15:25:39Z</time>
      </trkpt>
      <trkpt lat="46.48438" lon="5.36344">
        <ele>239.2</ele>
        <time>2022-02-22T15:25:45Z</time>
      </trkpt>
      <trkpt lat="46.48421" lon="5.3635">
        <ele>239.4</ele>
        <time>2022-02-22T15:25:48Z</time>
      </trkpt>
      <trkpt lat="46.48399" lon="5.36364">
        <ele>239.6</ele>
        <time>2022-02-22T15:25:52Z</time>
      </trkpt>
      <trkpt lat="46.48356" lon="5.36409">
        <ele>239.6</ele>
        <time>2022-02-22T15:26:01Z</time>
      </trkpt>
      <trkpt lat="46.48334" lon="5.36432">
        <ele>240</ele>
        <time>2022-02-22T15:26:06Z</time>
      </trkpt>
      <trkpt lat="46.48317" lon="5.36451">
        <ele>240.6</ele>
        <time>2022-02-22T15:26:10Z</time>
      </trkpt>
      <trkpt lat="46.48305" lon="5.36464">
        <ele>241.2</ele>
        <time>2022-02-22T15:26:13Z</time>
      </trkpt>
      <trkpt lat="46.48291" lon="5.3648">
        <ele>241.6</ele>
        <time>2022-02-22T15:26:17Z</time>
      </trkpt>
      <trkpt lat="46.48268" lon="5.36506">
        <ele>242.6</ele>
        <time>2022-02-22T15:26:23Z</time>
      </trkpt>
      <trkpt lat="46.48249" lon="5.36527">
        <ele>243</ele>
        <time>2022-02-22T15:26:28Z</time>
      </trkpt>
      <trkpt lat="46.48234" lon="5.36543">
        <ele>243.8</ele>
        <time>2022-02-22T15:26:32Z</time>
      </trkpt>
      <trkpt lat="46.48223" lon="5.36555">
        <ele>244.2</ele>
        <time>2022-02-22T15:26:35Z</time>
      </trkpt>
      <trkpt lat="46.48214" lon="5.36558">
        <ele>244.6</ele>
        <time>2022-02-22T15:26:37Z</time>
      </trkpt>
      <trkpt lat="46.48204" lon="5.36559">
        <ele>245</ele>
        <time>2022-02-22T15:26:39Z</time>
      </trkpt>
      <trkpt lat="46.48195" lon="5.36563">
        <ele>245</ele>
        <time>2022-02-22T15:26:41Z</time>
      </trkpt>
      <trkpt lat="46.48191" lon="5.36567">
        <ele>245.2</ele>
        <time>2022-02-22T15:26:42Z</time>
      </trkpt>
      <trkpt lat="46.48188" lon="5.36572">
        <ele>245.4</ele>
        <time>2022-02-22T15:26:43Z</time>
      </trkpt>
      <trkpt lat="46.48181" lon="5.36592">
        <ele>245.4</ele>
        <time>2022-02-22T15:26:46Z</time>
      </trkpt>
      <trkpt lat="46.48179" lon="5.36598">
        <ele>245.6</ele>
        <time>2022-02-22T15:26:47Z</time>
      </trkpt>
      <trkpt lat="46.48171" lon="5.36609">
        <ele>245.6</ele>
        <time>2022-02-22T15:26:49Z</time>
      </trkpt>
      <trkpt lat="46.48168" lon="5.36614">
        <ele>245.8</ele>
        <time>2022-02-22T15:26:50Z</time>
      </trkpt>
      <trkpt lat="46.48156" lon="5.36628">
        <ele>246</ele>
        <time>2022-02-22T15:26:53Z</time>
      </trkpt>
      <trkpt lat="46.48151" lon="5.36632">
        <ele>246.2</ele>
        <time>2022-02-22T15:26:54Z</time>
      </trkpt>
      <trkpt lat="46.48143" lon="5.36641">
        <ele>246.2</ele>
        <time>2022-02-22T15:26:56Z</time>
      </trkpt>
      <trkpt lat="46.48108" lon="5.36679">
        <ele>246.8</ele>
        <time>2022-02-22T15:27:05Z</time>
      </trkpt>
      <trkpt lat="46.48105" lon="5.36683">
        <ele>247</ele>
        <time>2022-02-22T15:27:06Z</time>
      </trkpt>
      <trkpt lat="46.481" lon="5.36695">
        <ele>247.2</ele>
        <time>2022-02-22T15:27:09Z</time>
      </trkpt>
      <trkpt lat="46.48107" lon="5.36707">
        <ele>247.8</ele>
        <time>2022-02-22T15:27:12Z</time>
      </trkpt>
      <trkpt lat="46.48115" lon="5.36713">
        <ele>248</ele>
        <time>2022-02-22T15:27:14Z</time>
      </trkpt>
      <trkpt lat="46.48142" lon="5.36732">
        <ele>248.8</ele>
        <time>2022-02-22T15:27:21Z</time>
      </trkpt>
      <trkpt lat="46.48147" lon="5.36736">
        <ele>249.2</ele>
        <time>2022-02-22T15:27:22Z</time>
      </trkpt>
      <trkpt lat="46.48168" lon="5.36753">
        <ele>250.4</ele>
        <time>2022-02-22T15:27:28Z</time>
      </trkpt>
      <trkpt lat="46.48176" lon="5.36759">
        <ele>250.8</ele>
        <time>2022-02-22T15:27:30Z</time>
      </trkpt>
      <trkpt lat="46.48188" lon="5.36769">
        <ele>251.6</ele>
        <time>2022-02-22T15:27:33Z</time>
      </trkpt>
      <trkpt lat="46.48205" lon="5.36784">
        <ele>252.6</ele>
        <time>2022-02-22T15:27:38Z</time>
      </trkpt>
      <trkpt lat="46.48219" lon="5.36794">
        <ele>253.8</ele>
        <time>2022-02-22T15:27:42Z</time>
      </trkpt>
      <trkpt lat="46.48231" lon="5.36804">
        <ele>254.6</ele>
        <time>2022-02-22T15:27:46Z</time>
      </trkpt>
      <trkpt lat="46.48234" lon="5.36807">
        <ele>254.8</ele>
        <time>2022-02-22T15:27:47Z</time>
      </trkpt>
      <trkpt lat="46.48252" lon="5.36823">
        <ele>256</ele>
        <time>2022-02-22T15:27:53Z</time>
      </trkpt>
      <trkpt lat="46.48261" lon="5.36832">
        <ele>256.6</ele>
        <time>2022-02-22T15:27:56Z</time>
      </trkpt>
    </trkseg>
  </trk>
</gpx>